<?xml version='1.0' encoding='UTF-8'?><gpx version="1.1" creator="JPX - https://github.com/jenetics/jpx" xmlns="http://www.topografix.com/GPX/1/1"><trk><trkseg><trkpt lat="45.02287986092269" lon="8.376225781949543"><ele>178.0</ele><time>2026-03-29T15:39:03.994Z</time></trkpt><trkpt lat="45.02293806608238" lon="8.37626251407933"><ele>178.0</ele><time>2026-03-29T15:39:05.994Z</time></trkpt><trkpt lat="45.022994460235076" lon="8.376308948884423"><ele>178.0</ele><time>2026-03-29T15:39:07.994Z</time></trkpt><trkpt lat="45.023023572729954" lon="8.376422278718598"><ele>178.0</ele><time>2026-03-29T15:39:10.994Z</time></trkpt><trkpt lat="45.02299996883348" lon="8.376538050279335"><ele>178.0</ele><time>2026-03-29T15:39:12.994Z</time></trkpt><trkpt lat="45.022959901544176" lon="8.376652707791473"><ele>178.0</ele><time>2026-03-29T15:39:14.994Z</time></trkpt><trkpt lat="45.02292237674333" lon="8.376777979864876"><ele>177.83333333333334</ele><time>2026-03-29T15:39:16.994Z</time></trkpt><trkpt lat="45.02288425364238" lon="8.376923025197684"><ele>177.66666666666669</ele><time>2026-03-29T15:39:18.994Z</time></trkpt><trkpt lat="45.02286144856847" lon="8.377008378032505"><ele>177.5</ele><time>2026-03-29T15:39:19.994Z</time></trkpt><trkpt lat="45.02283863827617" lon="8.377098335381017"><ele>177.33333333333334</ele><time>2026-03-29T15:39:20.994Z</time></trkpt><trkpt lat="45.02281429788919" lon="8.37719704691497"><ele>177.16666666666666</ele><time>2026-03-29T15:39:21.994Z</time></trkpt><trkpt lat="45.02278950351499" lon="8.377306239892544"><ele>177.0</ele><time>2026-03-29T15:39:22.994Z</time></trkpt><trkpt lat="45.02276127868283" lon="8.37741593724231"><ele>176.83333333333334</ele><time>2026-03-29T15:39:23.994Z</time></trkpt><trkpt lat="45.02272920840548" lon="8.377524944738338"><ele>176.66666666666666</ele><time>2026-03-29T15:39:24.994Z</time></trkpt><trkpt lat="45.02269052447996" lon="8.3776313688021"><ele>176.5</ele><time>2026-03-29T15:39:25.994Z</time></trkpt><trkpt lat="45.02263936893958" lon="8.377737197672612"><ele>176.33333333333331</ele><time>2026-03-29T15:39:26.994Z</time></trkpt><trkpt lat="45.02258097615675" lon="8.377833625440646"><ele>176.16666666666666</ele><time>2026-03-29T15:39:27.994Z</time></trkpt><trkpt lat="45.022518793973425" lon="8.377923331883238"><ele>176.0</ele><time>2026-03-29T15:39:28.994Z</time></trkpt><trkpt lat="45.022463609770824" lon="8.378005656488362"><ele>173.16666666666666</ele><time>2026-03-29T15:39:29.994Z</time></trkpt><trkpt lat="45.02240878120069" lon="8.378085669744712"><ele>170.33333333333331</ele><time>2026-03-29T15:39:30.994Z</time></trkpt><trkpt lat="45.02235428576609" lon="8.378174080630657"><ele>167.5</ele><time>2026-03-29T15:39:31.994Z</time></trkpt><trkpt lat="45.02231351945889" lon="8.378275326489009"><ele>164.66666666666666</ele><time>2026-03-29T15:39:32.994Z</time></trkpt><trkpt lat="45.02228723487012" lon="8.3783828550988"><ele>161.83333333333334</ele><time>2026-03-29T15:39:33.994Z</time></trkpt><trkpt lat="45.022270638475376" lon="8.378516196259161"><ele>159.0</ele><time>2026-03-29T15:39:34.994Z</time></trkpt><trkpt lat="45.022256799020276" lon="8.378664712708602"><ele>159.0</ele><time>2026-03-29T15:39:35.994Z</time></trkpt><trkpt lat="45.02224242013345" lon="8.3788263667671"><ele>159.0</ele><time>2026-03-29T15:39:36.994Z</time></trkpt><trkpt lat="45.02223161542618" lon="8.378995344446507"><ele>159.0</ele><time>2026-03-29T15:39:37.994Z</time></trkpt><trkpt lat="45.02222113942198" lon="8.37917001691057"><ele>159.0</ele><time>2026-03-29T15:39:38.994Z</time></trkpt><trkpt lat="45.02221123797784" lon="8.3793481147403"><ele>158.75</ele><time>2026-03-29T15:39:39.994Z</time></trkpt><trkpt lat="45.022198730969976" lon="8.379525407019893"><ele>158.5</ele><time>2026-03-29T15:39:40.994Z</time></trkpt><trkpt lat="45.02218420317507" lon="8.379702293350439"><ele>158.25</ele><time>2026-03-29T15:39:41.994Z</time></trkpt><trkpt lat="45.02216772171736" lon="8.379872580965042"><ele>158.0</ele><time>2026-03-29T15:39:42.994Z</time></trkpt><trkpt lat="45.02215041595486" lon="8.380040084265614"><ele>156.75</ele><time>2026-03-29T15:39:43.994Z</time></trkpt><trkpt lat="45.02213707273547" lon="8.380203197830674"><ele>155.5</ele><time>2026-03-29T15:39:44.994Z</time></trkpt><trkpt lat="45.02213163619105" lon="8.38036569494472"><ele>154.25</ele><time>2026-03-29T15:39:45.994Z</time></trkpt><trkpt lat="45.022136371514435" lon="8.380530278518115"><ele>153.0</ele><time>2026-03-29T15:39:46.994Z</time></trkpt><trkpt lat="45.022143700224426" lon="8.380696421925856"><ele>152.75</ele><time>2026-03-29T15:39:47.994Z</time></trkpt><trkpt lat="45.02215146197509" lon="8.38086867580733"><ele>152.5</ele><time>2026-03-29T15:39:48.993Z</time></trkpt><trkpt lat="45.02216173030573" lon="8.381044035314671"><ele>152.25</ele><time>2026-03-29T15:39:49.993Z</time></trkpt><trkpt lat="45.022174447013256" lon="8.381225414413892"><ele>152.0</ele><time>2026-03-29T15:39:50.993Z</time></trkpt><trkpt lat="45.022181911329994" lon="8.381409828647206"><ele>152.0</ele><time>2026-03-29T15:39:51.993Z</time></trkpt><trkpt lat="45.02218768648458" lon="8.381600905133746"><ele>152.0</ele><time>2026-03-29T15:39:52.993Z</time></trkpt><trkpt lat="45.02218972332886" lon="8.381792593570793"><ele>152.0</ele><time>2026-03-29T15:39:53.993Z</time></trkpt><trkpt lat="45.02218739667933" lon="8.381986245337389"><ele>152.0</ele><time>2026-03-29T15:39:54.993Z</time></trkpt><trkpt lat="45.022180960107164" lon="8.382171989173328"><ele>152.0</ele><time>2026-03-29T15:39:55.993Z</time></trkpt><trkpt lat="45.02215861904638" lon="8.382350652918381"><ele>152.0</ele><time>2026-03-29T15:39:56.993Z</time></trkpt><trkpt lat="45.02212598964471" lon="8.382523512901477"><ele>152.0</ele><time>2026-03-29T15:39:57.993Z</time></trkpt><trkpt lat="45.022085887981625" lon="8.382687059129369"><ele>152.0</ele><time>2026-03-29T15:39:58.993Z</time></trkpt><trkpt lat="45.022036563364985" lon="8.382841704429751"><ele>152.0</ele><time>2026-03-29T15:39:59.993Z</time></trkpt><trkpt lat="45.021986165591294" lon="8.382988482371154"><ele>152.0</ele><time>2026-03-29T15:40:00.993Z</time></trkpt><trkpt lat="45.02193819976584" lon="8.383122096276376"><ele>152.0</ele><time>2026-03-29T15:40:01.993Z</time></trkpt><trkpt lat="45.021892998971204" lon="8.383233267063549"><ele>152.0</ele><time>2026-03-29T15:40:02.993Z</time></trkpt><trkpt lat="45.021850270925825" lon="8.383329905764239"><ele>152.0</ele><time>2026-03-29T15:40:03.993Z</time></trkpt><trkpt lat="45.02181676734133" lon="8.383410320391784"><ele>151.83333333333331</ele><time>2026-03-29T15:40:04.993Z</time></trkpt><trkpt lat="45.021778679356885" lon="8.383508802082883"><ele>151.66666666666666</ele><time>2026-03-29T15:40:06.993Z</time></trkpt><trkpt lat="45.02181799511529" lon="8.383587347432485"><ele>151.5</ele><time>2026-03-29T15:40:10.993Z</time></trkpt><trkpt lat="45.021898331929606" lon="8.383602208908025"><ele>151.33333333333334</ele><time>2026-03-29T15:40:12.993Z</time></trkpt><trkpt lat="45.021978314627155" lon="8.383588265233026"><ele>151.16666666666669</ele><time>2026-03-29T15:40:13.993Z</time></trkpt><trkpt lat="45.02207788779549" lon="8.383561846039312"><ele>151.0</ele><time>2026-03-29T15:40:14.993Z</time></trkpt><trkpt lat="45.022171821125276" lon="8.383535844929526"><ele>151.0</ele><time>2026-03-29T15:40:15.993Z</time></trkpt><trkpt lat="45.02226562106321" lon="8.383520429559395"><ele>151.0</ele><time>2026-03-29T15:40:16.993Z</time></trkpt><trkpt lat="45.02236851366445" lon="8.383504554594866"><ele>151.0</ele><time>2026-03-29T15:40:17.993Z</time></trkpt><trkpt lat="45.02248456746853" lon="8.38348517325475"><ele>151.0</ele><time>2026-03-29T15:40:18.993Z</time></trkpt><trkpt lat="45.022607524995124" lon="8.383462910383663"><ele>151.0</ele><time>2026-03-29T15:40:19.993Z</time></trkpt><trkpt lat="45.0227400790144" lon="8.383440940068457"><ele>150.5</ele><time>2026-03-29T15:40:20.993Z</time></trkpt><trkpt lat="45.02288277737336" lon="8.383416371104088"><ele>150.0</ele><time>2026-03-29T15:40:21.993Z</time></trkpt><trkpt lat="45.023025876405214" lon="8.383390757837118"><ele>149.5</ele><time>2026-03-29T15:40:22.993Z</time></trkpt><trkpt lat="45.023160997957795" lon="8.383368703679519"><ele>149.0</ele><time>2026-03-29T15:40:23.993Z</time></trkpt><trkpt lat="45.02329345019702" lon="8.38334463002818"><ele>149.0</ele><time>2026-03-29T15:40:24.993Z</time></trkpt><trkpt lat="45.02343202335763" lon="8.383329343104018"><ele>149.0</ele><time>2026-03-29T15:40:25.993Z</time></trkpt><trkpt lat="45.02357434103552" lon="8.383335088312668"><ele>149.0</ele><time>2026-03-29T15:40:26.993Z</time></trkpt><trkpt lat="45.023719924890734" lon="8.38336501271151"><ele>149.0</ele><time>2026-03-29T15:40:27.993Z</time></trkpt><trkpt lat="45.02386755797747" lon="8.38342136307344"><ele>149.0</ele><time>2026-03-29T15:40:28.993Z</time></trkpt><trkpt lat="45.02401589228679" lon="8.383492446000893"><ele>149.0</ele><time>2026-03-29T15:40:29.993Z</time></trkpt><trkpt lat="45.024167655465874" lon="8.383573658768476"><ele>149.0</ele><time>2026-03-29T15:40:30.993Z</time></trkpt><trkpt lat="45.024324340607706" lon="8.383653570831983"><ele>149.0</ele><time>2026-03-29T15:40:31.993Z</time></trkpt><trkpt lat="45.02448400591278" lon="8.383732369629458"><ele>149.0</ele><time>2026-03-29T15:40:32.993Z</time></trkpt><trkpt lat="45.024638649693465" lon="8.383807818791935"><ele>149.0</ele><time>2026-03-29T15:40:33.993Z</time></trkpt><trkpt lat="45.024785079841756" lon="8.383875797963917"><ele>149.0</ele><time>2026-03-29T15:40:34.993Z</time></trkpt><trkpt lat="45.02492414143565" lon="8.383937122846346"><ele>149.0</ele><time>2026-03-29T15:40:35.993Z</time></trkpt><trkpt lat="45.025062297796346" lon="8.383983480955742"><ele>149.0</ele><time>2026-03-29T15:40:36.993Z</time></trkpt><trkpt lat="45.02519697158988" lon="8.384014329476473"><ele>149.0</ele><time>2026-03-29T15:40:37.992Z</time></trkpt><trkpt lat="45.02533398104639" lon="8.384024328532872"><ele>149.5</ele><time>2026-03-29T15:40:38.992Z</time></trkpt><trkpt lat="45.0254790942461" lon="8.384006127148698"><ele>150.0</ele><time>2026-03-29T15:40:39.992Z</time></trkpt><trkpt lat="45.025622135717846" lon="8.383960534677481"><ele>150.5</ele><time>2026-03-29T15:40:40.992Z</time></trkpt><trkpt lat="45.02576207205323" lon="8.383886103371914"><ele>151.0</ele><time>2026-03-29T15:40:41.992Z</time></trkpt><trkpt lat="45.02590262227391" lon="8.383785310373499"><ele>151.66666666666669</ele><time>2026-03-29T15:40:42.992Z</time></trkpt><trkpt lat="45.02604309065811" lon="8.383662032337895"><ele>152.33333333333334</ele><time>2026-03-29T15:40:43.992Z</time></trkpt><trkpt lat="45.026182323181914" lon="8.383523026504049"><ele>153.0</ele><time>2026-03-29T15:40:44.992Z</time></trkpt><trkpt lat="45.0263259272095" lon="8.383383701332846"><ele>153.0</ele><time>2026-03-29T15:40:45.992Z</time></trkpt><trkpt lat="45.0264691566101" lon="8.38323718954386"><ele>153.0</ele><time>2026-03-29T15:40:46.992Z</time></trkpt><trkpt lat="45.026611469368234" lon="8.383075670788802"><ele>153.0</ele><time>2026-03-29T15:40:47.992Z</time></trkpt><trkpt lat="45.02675378008509" lon="8.382903363916283"><ele>154.0</ele><time>2026-03-29T15:40:48.992Z</time></trkpt><trkpt lat="45.02688789641574" lon="8.38272702966109"><ele>155.0</ele><time>2026-03-29T15:40:49.992Z</time></trkpt><trkpt lat="45.02701411667858" lon="8.38255559930425"><ele>156.0</ele><time>2026-03-29T15:40:50.992Z</time></trkpt><trkpt lat="45.02712936142192" lon="8.382387501485153"><ele>156.0</ele><time>2026-03-29T15:40:51.992Z</time></trkpt><trkpt lat="45.027238410698715" lon="8.382209506395295"><ele>156.0</ele><time>2026-03-29T15:40:52.992Z</time></trkpt><trkpt lat="45.02731816240055" lon="8.38200558404728"><ele>156.0</ele><time>2026-03-29T15:40:53.992Z</time></trkpt><trkpt lat="45.02738299433842" lon="8.381778069451787"><ele>155.0</ele><time>2026-03-29T15:40:54.992Z</time></trkpt><trkpt lat="45.02743693611866" lon="8.3815367659477"><ele>154.0</ele><time>2026-03-29T15:40:55.992Z</time></trkpt><trkpt lat="45.027490170720405" lon="8.381292489665203"><ele>153.0</ele><time>2026-03-29T15:40:56.992Z</time></trkpt><trkpt lat="45.027541108612766" lon="8.381062202774393"><ele>153.0</ele><time>2026-03-29T15:40:57.992Z</time></trkpt><trkpt lat="45.027593516894434" lon="8.380841305974172"><ele>153.0</ele><time>2026-03-29T15:40:58.992Z</time></trkpt><trkpt lat="45.02765178674221" lon="8.380616306699494"><ele>153.0</ele><time>2026-03-29T15:40:59.992Z</time></trkpt><trkpt lat="45.02771429702342" lon="8.380391707291297"><ele>152.66666666666666</ele><time>2026-03-29T15:41:00.992Z</time></trkpt><trkpt lat="45.02777489617866" lon="8.380165592996411"><ele>152.33333333333331</ele><time>2026-03-29T15:41:01.992Z</time></trkpt><trkpt lat="45.027829243854754" lon="8.379939885532535"><ele>152.0</ele><time>2026-03-29T15:41:02.992Z</time></trkpt><trkpt lat="45.02788795964109" lon="8.379707728258234"><ele>151.66666666666666</ele><time>2026-03-29T15:41:03.992Z</time></trkpt><trkpt lat="45.02794749590691" lon="8.37948176549079"><ele>151.33333333333334</ele><time>2026-03-29T15:41:04.992Z</time></trkpt><trkpt lat="45.02800783440957" lon="8.379249038394688"><ele>151.0</ele><time>2026-03-29T15:41:05.992Z</time></trkpt><trkpt lat="45.02806910536725" lon="8.37901100214752"><ele>152.0</ele><time>2026-03-29T15:41:06.992Z</time></trkpt><trkpt lat="45.028132725728206" lon="8.378770810003966"><ele>153.0</ele><time>2026-03-29T15:41:07.992Z</time></trkpt><trkpt lat="45.02819570374588" lon="8.378529918067034"><ele>154.0</ele><time>2026-03-29T15:41:08.992Z</time></trkpt><trkpt lat="45.028259581103555" lon="8.378279534685232"><ele>154.33333333333334</ele><time>2026-03-29T15:41:09.992Z</time></trkpt><trkpt lat="45.028326752763185" lon="8.378026243686874"><ele>154.66666666666666</ele><time>2026-03-29T15:41:10.992Z</time></trkpt><trkpt lat="45.028392840689605" lon="8.377769409115917"><ele>155.0</ele><time>2026-03-29T15:41:11.992Z</time></trkpt><trkpt lat="45.028457626742856" lon="8.377507641739363"><ele>155.0</ele><time>2026-03-29T15:41:12.992Z</time></trkpt><trkpt lat="45.028520058260426" lon="8.377241365527643"><ele>155.0</ele><time>2026-03-29T15:41:13.992Z</time></trkpt><trkpt lat="45.02858649757234" lon="8.376976130855736"><ele>155.0</ele><time>2026-03-29T15:41:14.992Z</time></trkpt><trkpt lat="45.028655432372595" lon="8.376713564307574"><ele>155.0</ele><time>2026-03-29T15:41:15.992Z</time></trkpt><trkpt lat="45.02872492916726" lon="8.37644859983938"><ele>155.0</ele><time>2026-03-29T15:41:16.992Z</time></trkpt><trkpt lat="45.02879546777974" lon="8.376180012148257"><ele>155.0</ele><time>2026-03-29T15:41:17.992Z</time></trkpt><trkpt lat="45.028861528651305" lon="8.375913297709038"><ele>155.0</ele><time>2026-03-29T15:41:18.992Z</time></trkpt><trkpt lat="45.028927477696676" lon="8.375645955755584"><ele>155.0</ele><time>2026-03-29T15:41:19.992Z</time></trkpt><trkpt lat="45.02899269973684" lon="8.375384919586818"><ele>155.0</ele><time>2026-03-29T15:41:20.992Z</time></trkpt><trkpt lat="45.02905626034563" lon="8.375124607827669"><ele>155.66666666666666</ele><time>2026-03-29T15:41:21.992Z</time></trkpt><trkpt lat="45.02911657128505" lon="8.374874738328035"><ele>156.33333333333334</ele><time>2026-03-29T15:41:22.992Z</time></trkpt><trkpt lat="45.029166775441155" lon="8.374609793464863"><ele>157.0</ele><time>2026-03-29T15:41:23.992Z</time></trkpt><trkpt lat="45.02921161501255" lon="8.374344861049298"><ele>158.33333333333334</ele><time>2026-03-29T15:41:24.992Z</time></trkpt><trkpt lat="45.02924906013421" lon="8.374080335946127"><ele>159.66666666666666</ele><time>2026-03-29T15:41:25.992Z</time></trkpt><trkpt lat="45.02928532403624" lon="8.37380562337745"><ele>161.0</ele><time>2026-03-29T15:41:26.991Z</time></trkpt><trkpt lat="45.029320086583255" lon="8.373538094324651"><ele>161.33333333333331</ele><time>2026-03-29T15:41:27.991Z</time></trkpt><trkpt lat="45.02935228167244" lon="8.37328008036324"><ele>161.66666666666666</ele><time>2026-03-29T15:41:28.991Z</time></trkpt><trkpt lat="45.029381751268915" lon="8.373029232388147"><ele>162.0</ele><time>2026-03-29T15:41:29.991Z</time></trkpt><trkpt lat="45.02940518423986" lon="8.372772886891891"><ele>162.0</ele><time>2026-03-29T15:41:30.991Z</time></trkpt><trkpt lat="45.029426740629" lon="8.372512803144831"><ele>162.0</ele><time>2026-03-29T15:41:31.991Z</time></trkpt><trkpt lat="45.02944902740854" lon="8.37224738158946"><ele>162.0</ele><time>2026-03-29T15:41:32.991Z</time></trkpt><trkpt lat="45.02947271733353" lon="8.371982153171686"><ele>163.0</ele><time>2026-03-29T15:41:33.991Z</time></trkpt><trkpt lat="45.029498619788626" lon="8.37171407352328"><ele>164.0</ele><time>2026-03-29T15:41:34.991Z</time></trkpt><trkpt lat="45.02951953067778" lon="8.371441498466167"><ele>165.0</ele><time>2026-03-29T15:41:35.991Z</time></trkpt><trkpt lat="45.0295390664249" lon="8.371164941945473"><ele>165.0</ele><time>2026-03-29T15:41:36.991Z</time></trkpt><trkpt lat="45.0295577312141" lon="8.370883538904822"><ele>165.0</ele><time>2026-03-29T15:41:37.991Z</time></trkpt><trkpt lat="45.02957763777022" lon="8.370599231795365"><ele>165.0</ele><time>2026-03-29T15:41:38.991Z</time></trkpt><trkpt lat="45.02959793055909" lon="8.370314082379227"><ele>165.33333333333334</ele><time>2026-03-29T15:41:39.991Z</time></trkpt><trkpt lat="45.02962392114625" lon="8.370023027066273"><ele>165.66666666666669</ele><time>2026-03-29T15:41:40.991Z</time></trkpt><trkpt lat="45.02965057991098" lon="8.369731293800005"><ele>166.0</ele><time>2026-03-29T15:41:41.991Z</time></trkpt><trkpt lat="45.02967616130356" lon="8.369436758748469"><ele>164.33333333333334</ele><time>2026-03-29T15:41:42.991Z</time></trkpt><trkpt lat="45.02970303684191" lon="8.3691407844092"><ele>162.66666666666666</ele><time>2026-03-29T15:41:43.991Z</time></trkpt><trkpt lat="45.02973147722621" lon="8.368845017469937"><ele>161.0</ele><time>2026-03-29T15:41:44.991Z</time></trkpt><trkpt lat="45.029756230890115" lon="8.368560213557819"><ele>161.0</ele><time>2026-03-29T15:41:45.991Z</time></trkpt><trkpt lat="45.02978198507532" lon="8.368282225175031"><ele>161.0</ele><time>2026-03-29T15:41:46.991Z</time></trkpt><trkpt lat="45.02980692323205" lon="8.368009558243278"><ele>161.0</ele><time>2026-03-29T15:41:47.991Z</time></trkpt><trkpt lat="45.02983389962056" lon="8.367748439411617"><ele>161.0</ele><time>2026-03-29T15:41:48.991Z</time></trkpt><trkpt lat="45.029860643771435" lon="8.367506158074798"><ele>161.0</ele><time>2026-03-29T15:41:49.991Z</time></trkpt><trkpt lat="45.029889617768724" lon="8.367274884622095"><ele>161.0</ele><time>2026-03-29T15:41:50.991Z</time></trkpt><trkpt lat="45.02993378265931" lon="8.367061132768882"><ele>162.33333333333331</ele><time>2026-03-29T15:41:51.991Z</time></trkpt><trkpt lat="45.029996048183506" lon="8.366860848078053"><ele>163.66666666666666</ele><time>2026-03-29T15:41:52.991Z</time></trkpt><trkpt lat="45.03007920153815" lon="8.366667801386896"><ele>165.0</ele><time>2026-03-29T15:41:53.991Z</time></trkpt><trkpt lat="45.03018378789202" lon="8.36648959637102"><ele>164.0</ele><time>2026-03-29T15:41:54.991Z</time></trkpt><trkpt lat="45.030304205894865" lon="8.366323060137304"><ele>163.0</ele><time>2026-03-29T15:41:55.991Z</time></trkpt><trkpt lat="45.030430620079315" lon="8.366152946834514"><ele>162.0</ele><time>2026-03-29T15:41:56.991Z</time></trkpt><trkpt lat="45.03056163394298" lon="8.365977477199932"><ele>162.0</ele><time>2026-03-29T15:41:57.991Z</time></trkpt><trkpt lat="45.03069288529934" lon="8.365796836420037"><ele>162.0</ele><time>2026-03-29T15:41:58.991Z</time></trkpt><trkpt lat="45.03082713431811" lon="8.365612061034692"><ele>162.0</ele><time>2026-03-29T15:41:59.991Z</time></trkpt><trkpt lat="45.03096420475935" lon="8.365421587991632"><ele>162.66666666666666</ele><time>2026-03-29T15:42:00.991Z</time></trkpt><trkpt lat="45.03110358967984" lon="8.365228212818945"><ele>163.33333333333331</ele><time>2026-03-29T15:42:01.991Z</time></trkpt><trkpt lat="45.03124416356759" lon="8.365033132247275"><ele>164.0</ele><time>2026-03-29T15:42:02.991Z</time></trkpt><trkpt lat="45.031386860930745" lon="8.36483630418299"><ele>164.0</ele><time>2026-03-29T15:42:03.991Z</time></trkpt><trkpt lat="45.03153113099718" lon="8.364639722553402"><ele>164.0</ele><time>2026-03-29T15:42:04.991Z</time></trkpt><trkpt lat="45.031675623443135" lon="8.364443699372886"><ele>164.0</ele><time>2026-03-29T15:42:05.991Z</time></trkpt><trkpt lat="45.031818534360895" lon="8.364248241048557"><ele>164.33333333333331</ele><time>2026-03-29T15:42:06.991Z</time></trkpt><trkpt lat="45.03196215304563" lon="8.364052304292825"><ele>164.66666666666666</ele><time>2026-03-29T15:42:07.991Z</time></trkpt><trkpt lat="45.0321043738491" lon="8.36385136434718"><ele>165.0</ele><time>2026-03-29T15:42:08.991Z</time></trkpt><trkpt lat="45.032249175448875" lon="8.363646307884673"><ele>165.0</ele><time>2026-03-29T15:42:09.991Z</time></trkpt><trkpt lat="45.03239171006565" lon="8.36343820221791"><ele>165.0</ele><time>2026-03-29T15:42:10.991Z</time></trkpt><trkpt lat="45.03252861712349" lon="8.363232662968125"><ele>165.0</ele><time>2026-03-29T15:42:11.991Z</time></trkpt><trkpt lat="45.03266456294483" lon="8.36302828831027"><ele>166.0</ele><time>2026-03-29T15:42:12.991Z</time></trkpt><trkpt lat="45.0327986758752" lon="8.362827141608102"><ele>167.0</ele><time>2026-03-29T15:42:13.991Z</time></trkpt><trkpt lat="45.032927293676714" lon="8.362633362785598"><ele>168.0</ele><time>2026-03-29T15:42:14.991Z</time></trkpt><trkpt lat="45.033053792530346" lon="8.362446553704274"><ele>168.0</ele><time>2026-03-29T15:42:15.991Z</time></trkpt><trkpt lat="45.03317645820478" lon="8.36226383889236"><ele>168.0</ele><time>2026-03-29T15:42:16.99Z</time></trkpt><trkpt lat="45.03328651505572" lon="8.36207731605101"><ele>168.0</ele><time>2026-03-29T15:42:17.99Z</time></trkpt><trkpt lat="45.03340069437203" lon="8.361900426257458"><ele>169.0</ele><time>2026-03-29T15:42:18.99Z</time></trkpt><trkpt lat="45.03351836940222" lon="8.361736991859987"><ele>170.0</ele><time>2026-03-29T15:42:19.99Z</time></trkpt><trkpt lat="45.03365122106366" lon="8.361588647380826"><ele>171.0</ele><time>2026-03-29T15:42:20.99Z</time></trkpt><trkpt lat="45.03379683259546" lon="8.361463632163899"><ele>171.0</ele><time>2026-03-29T15:42:21.99Z</time></trkpt><trkpt lat="45.033944615888664" lon="8.361340937882167"><ele>171.0</ele><time>2026-03-29T15:42:22.99Z</time></trkpt><trkpt lat="45.03409628830833" lon="8.361216456056694"><ele>171.0</ele><time>2026-03-29T15:42:23.99Z</time></trkpt><trkpt lat="45.03424546306127" lon="8.36107170500742"><ele>171.0</ele><time>2026-03-29T15:42:24.99Z</time></trkpt><trkpt lat="45.03439319891115" lon="8.360917265801985"><ele>171.0</ele><time>2026-03-29T15:42:25.99Z</time></trkpt><trkpt lat="45.03454225611374" lon="8.360752255626851"><ele>171.0</ele><time>2026-03-29T15:42:26.99Z</time></trkpt><trkpt lat="45.03469049884974" lon="8.360573622016481"><ele>170.66666666666666</ele><time>2026-03-29T15:42:27.99Z</time></trkpt><trkpt lat="45.03483992651526" lon="8.36038892970916"><ele>170.33333333333331</ele><time>2026-03-29T15:42:28.99Z</time></trkpt><trkpt lat="45.03498967919187" lon="8.360202541225846"><ele>170.0</ele><time>2026-03-29T15:42:29.99Z</time></trkpt><trkpt lat="45.03514174761031" lon="8.360015475157317"><ele>170.0</ele><time>2026-03-29T15:42:30.99Z</time></trkpt><trkpt lat="45.035291488779805" lon="8.359824410924057"><ele>170.0</ele><time>2026-03-29T15:42:31.99Z</time></trkpt><trkpt lat="45.0354397657472" lon="8.359636073163383"><ele>170.0</ele><time>2026-03-29T15:42:32.99Z</time></trkpt><trkpt lat="45.035586019177615" lon="8.359454765905191"><ele>169.66666666666666</ele><time>2026-03-29T15:42:33.99Z</time></trkpt><trkpt lat="45.03572674253832" lon="8.35926797940378"><ele>169.33333333333334</ele><time>2026-03-29T15:42:34.99Z</time></trkpt><trkpt lat="45.03586426739328" lon="8.35907623364622"><ele>169.0</ele><time>2026-03-29T15:42:35.99Z</time></trkpt><trkpt lat="45.03600207620909" lon="8.35888225769516"><ele>169.66666666666669</ele><time>2026-03-29T15:42:36.99Z</time></trkpt><trkpt lat="45.036138522852305" lon="8.358688383685779"><ele>170.33333333333334</ele><time>2026-03-29T15:42:37.99Z</time></trkpt><trkpt lat="45.03627291830959" lon="8.358492329505195"><ele>171.0</ele><time>2026-03-29T15:42:38.99Z</time></trkpt><trkpt lat="45.036404368455905" lon="8.358296815618562"><ele>171.0</ele><time>2026-03-29T15:42:39.99Z</time></trkpt><trkpt lat="45.03653694889832" lon="8.35810627929986"><ele>171.0</ele><time>2026-03-29T15:42:40.99Z</time></trkpt><trkpt lat="45.0366670250713" lon="8.35792126789489"><ele>171.0</ele><time>2026-03-29T15:42:41.99Z</time></trkpt><trkpt lat="45.03679355947014" lon="8.357738444098805"><ele>171.0</ele><time>2026-03-29T15:42:42.99Z</time></trkpt><trkpt lat="45.036917203535204" lon="8.357558216425982"><ele>171.0</ele><time>2026-03-29T15:42:43.99Z</time></trkpt><trkpt lat="45.037033642738926" lon="8.35737288821104"><ele>171.0</ele><time>2026-03-29T15:42:44.99Z</time></trkpt><trkpt lat="45.03714027913876" lon="8.357174195089474"><ele>171.0</ele><time>2026-03-29T15:42:45.99Z</time></trkpt><trkpt lat="45.037233846701206" lon="8.356955426606547"><ele>171.0</ele><time>2026-03-29T15:42:46.99Z</time></trkpt><trkpt lat="45.03730994072531" lon="8.356718938348335"><ele>171.0</ele><time>2026-03-29T15:42:47.99Z</time></trkpt><trkpt lat="45.03736978764157" lon="8.356466236927021"><ele>171.66666666666666</ele><time>2026-03-29T15:42:48.99Z</time></trkpt><trkpt lat="45.037420890878806" lon="8.356201849449764"><ele>172.33333333333331</ele><time>2026-03-29T15:42:49.99Z</time></trkpt><trkpt lat="45.03747570623364" lon="8.355934784755629"><ele>173.0</ele><time>2026-03-29T15:42:50.99Z</time></trkpt><trkpt lat="45.037533309716714" lon="8.355662870601153"><ele>172.66666666666666</ele><time>2026-03-29T15:42:51.99Z</time></trkpt><trkpt lat="45.037593206027815" lon="8.355389206542075"><ele>172.33333333333334</ele><time>2026-03-29T15:42:52.99Z</time></trkpt><trkpt lat="45.03765447630335" lon="8.355113706173428"><ele>172.0</ele><time>2026-03-29T15:42:53.99Z</time></trkpt><trkpt lat="45.03771201317635" lon="8.35483408951509"><ele>172.0</ele><time>2026-03-29T15:42:54.99Z</time></trkpt><trkpt lat="45.037774838868565" lon="8.3545519760346"><ele>172.0</ele><time>2026-03-29T15:42:55.99Z</time></trkpt><trkpt lat="45.037837116053915" lon="8.354273475142108"><ele>172.0</ele><time>2026-03-29T15:42:56.99Z</time></trkpt><trkpt lat="45.037897062728526" lon="8.353998202614335"><ele>172.0</ele><time>2026-03-29T15:42:57.99Z</time></trkpt><trkpt lat="45.03795582058261" lon="8.353722793823026"><ele>172.0</ele><time>2026-03-29T15:42:58.99Z</time></trkpt><trkpt lat="45.0380122419259" lon="8.353447974489786"><ele>172.0</ele><time>2026-03-29T15:42:59.99Z</time></trkpt><trkpt lat="45.03806751414682" lon="8.353183176330463"><ele>172.33333333333334</ele><time>2026-03-29T15:43:00.99Z</time></trkpt><trkpt lat="45.03812017528205" lon="8.352926383064261"><ele>172.66666666666666</ele><time>2026-03-29T15:43:01.99Z</time></trkpt><trkpt lat="45.03817091220844" lon="8.35268215389074"><ele>173.0</ele><time>2026-03-29T15:43:02.99Z</time></trkpt><trkpt lat="45.038222394186015" lon="8.352449929077936"><ele>173.0</ele><time>2026-03-29T15:43:03.99Z</time></trkpt><trkpt lat="45.038269496920755" lon="8.352229263473879"><ele>173.0</ele><time>2026-03-29T15:43:04.99Z</time></trkpt><trkpt lat="45.03831265398459" lon="8.35201807998521"><ele>173.0</ele><time>2026-03-29T15:43:05.989Z</time></trkpt><trkpt lat="45.03835480307114" lon="8.351820376481509"><ele>174.25</ele><time>2026-03-29T15:43:06.989Z</time></trkpt><trkpt lat="45.03839800710029" lon="8.351636811505829"><ele>175.5</ele><time>2026-03-29T15:43:07.989Z</time></trkpt><trkpt lat="45.03844748908565" lon="8.351466169253653"><ele>176.75</ele><time>2026-03-29T15:43:08.989Z</time></trkpt><trkpt lat="45.03850868576686" lon="8.351314668832863"><ele>178.0</ele><time>2026-03-29T15:43:09.989Z</time></trkpt><trkpt lat="45.038585071550735" lon="8.351177088709342"><ele>178.25</ele><time>2026-03-29T15:43:10.989Z</time></trkpt><trkpt lat="45.03867354393117" lon="8.351052046043161"><ele>178.5</ele><time>2026-03-29T15:43:11.989Z</time></trkpt><trkpt lat="45.03877084590623" lon="8.350938306938215"><ele>178.75</ele><time>2026-03-29T15:43:12.989Z</time></trkpt><trkpt lat="45.03886371077014" lon="8.35083569788147"><ele>179.0</ele><time>2026-03-29T15:43:13.989Z</time></trkpt><trkpt lat="45.03895537431683" lon="8.350740211169054"><ele>179.0</ele><time>2026-03-29T15:43:14.989Z</time></trkpt><trkpt lat="45.039047826174226" lon="8.350646037858523"><ele>179.0</ele><time>2026-03-29T15:43:15.989Z</time></trkpt><trkpt lat="45.03914151903102" lon="8.350551654025734"><ele>179.0</ele><time>2026-03-29T15:43:16.989Z</time></trkpt><trkpt lat="45.03923363884648" lon="8.350449309995975"><ele>179.0</ele><time>2026-03-29T15:43:17.989Z</time></trkpt><trkpt lat="45.03932610648412" lon="8.350348056287316"><ele>179.5</ele><time>2026-03-29T15:43:18.989Z</time></trkpt><trkpt lat="45.03941846115476" lon="8.350246247138527"><ele>180.0</ele><time>2026-03-29T15:43:19.989Z</time></trkpt><trkpt lat="45.039512567443445" lon="8.350140923317472"><ele>180.5</ele><time>2026-03-29T15:43:20.989Z</time></trkpt><trkpt lat="45.03960816626258" lon="8.350034679334097"><ele>181.0</ele><time>2026-03-29T15:43:21.989Z</time></trkpt><trkpt lat="45.0397019114384" lon="8.349920312762855"><ele>181.0</ele><time>2026-03-29T15:43:22.989Z</time></trkpt><trkpt lat="45.03979853837887" lon="8.349805126103334"><ele>181.0</ele><time>2026-03-29T15:43:23.989Z</time></trkpt><trkpt lat="45.03989873403159" lon="8.349687564964334"><ele>181.0</ele><time>2026-03-29T15:43:24.989Z</time></trkpt><trkpt lat="45.03999871726525" lon="8.349562322159393"><ele>181.0</ele><time>2026-03-29T15:43:25.989Z</time></trkpt><trkpt lat="45.040096164661406" lon="8.349434080344535"><ele>182.0</ele><time>2026-03-29T15:43:26.989Z</time></trkpt><trkpt lat="45.040189805241006" lon="8.349309222973975"><ele>183.0</ele><time>2026-03-29T15:43:27.989Z</time></trkpt><trkpt lat="45.040275944450684" lon="8.349189266370402"><ele>184.0</ele><time>2026-03-29T15:43:28.989Z</time></trkpt><trkpt lat="45.04035477631696" lon="8.349085442802341"><ele>185.0</ele><time>2026-03-29T15:43:29.989Z</time></trkpt><trkpt lat="45.04042012422091" lon="8.349006186972279"><ele>186.0</ele><time>2026-03-29T15:43:30.989Z</time></trkpt><trkpt lat="45.040472428155844" lon="8.348949582564892"><ele>186.0</ele><time>2026-03-29T15:43:31.989Z</time></trkpt><trkpt lat="45.040581114704814" lon="8.348877662320543"><ele>186.0</ele><time>2026-03-29T15:43:33.989Z</time></trkpt><trkpt lat="45.040694989421844" lon="8.348802910840295"><ele>186.0</ele><time>2026-03-29T15:43:35.989Z</time></trkpt><trkpt lat="45.04077018269988" lon="8.348729634738108"><ele>186.0</ele><time>2026-03-29T15:43:36.989Z</time></trkpt><trkpt lat="45.04084977649487" lon="8.348621321761252"><ele>186.0</ele><time>2026-03-29T15:43:37.989Z</time></trkpt><trkpt lat="45.04093265475521" lon="8.348490896118385"><ele>186.25</ele><time>2026-03-29T15:43:38.989Z</time></trkpt><trkpt lat="45.041028973866595" lon="8.348346462266502"><ele>186.5</ele><time>2026-03-29T15:43:39.989Z</time></trkpt><trkpt lat="45.041126350174885" lon="8.348215197101071"><ele>186.75</ele><time>2026-03-29T15:43:40.989Z</time></trkpt><trkpt lat="45.041241501853676" lon="8.3481078423597"><ele>187.0</ele><time>2026-03-29T15:43:41.989Z</time></trkpt><trkpt lat="45.04137400840825" lon="8.348022097775214"><ele>187.33333333333334</ele><time>2026-03-29T15:43:42.989Z</time></trkpt><trkpt lat="45.0415194525524" lon="8.347956204604252"><ele>187.66666666666666</ele><time>2026-03-29T15:43:43.989Z</time></trkpt><trkpt lat="45.041673540966315" lon="8.347896948379947"><ele>188.0</ele><time>2026-03-29T15:43:44.989Z</time></trkpt><trkpt lat="45.04183560006282" lon="8.347835153391884"><ele>188.0</ele><time>2026-03-29T15:43:45.989Z</time></trkpt><trkpt lat="45.04200607598162" lon="8.347777438962796"><ele>188.0</ele><time>2026-03-29T15:43:46.989Z</time></trkpt><trkpt lat="45.04218560287882" lon="8.347715297593801"><ele>188.0</ele><time>2026-03-29T15:43:47.989Z</time></trkpt><trkpt lat="45.0423650766863" lon="8.347647640965256"><ele>189.33333333333331</ele><time>2026-03-29T15:43:48.989Z</time></trkpt><trkpt lat="45.042531988477954" lon="8.347582582473583"><ele>190.66666666666666</ele><time>2026-03-29T15:43:49.989Z</time></trkpt><trkpt lat="45.04269449234519" lon="8.347522402514516"><ele>192.0</ele><time>2026-03-29T15:43:50.989Z</time></trkpt><trkpt lat="45.042861989487164" lon="8.347459829312497"><ele>192.0</ele><time>2026-03-29T15:43:51.989Z</time></trkpt><trkpt lat="45.04303381076008" lon="8.347403599334475"><ele>192.0</ele><time>2026-03-29T15:43:52.989Z</time></trkpt><trkpt lat="45.04320593810733" lon="8.347339223872542"><ele>192.0</ele><time>2026-03-29T15:43:53.989Z</time></trkpt><trkpt lat="45.04338212212752" lon="8.347278465443647"><ele>190.66666666666666</ele><time>2026-03-29T15:43:54.989Z</time></trkpt><trkpt lat="45.04356209447024" lon="8.347230541980485"><ele>189.33333333333331</ele><time>2026-03-29T15:43:55.988Z</time></trkpt><trkpt lat="45.04374627062714" lon="8.347192673659466"><ele>188.0</ele><time>2026-03-29T15:43:56.988Z</time></trkpt><trkpt lat="45.04393428020762" lon="8.347157615619663"><ele>188.0</ele><time>2026-03-29T15:43:57.988Z</time></trkpt><trkpt lat="45.044124137963664" lon="8.347117731421637"><ele>188.0</ele><time>2026-03-29T15:43:58.988Z</time></trkpt><trkpt lat="45.04430808276913" lon="8.347054226034174"><ele>188.0</ele><time>2026-03-29T15:43:59.988Z</time></trkpt><trkpt lat="45.044485960054516" lon="8.346965353539614"><ele>189.33333333333331</ele><time>2026-03-29T15:44:00.988Z</time></trkpt><trkpt lat="45.04465229316846" lon="8.34684633461978"><ele>190.66666666666666</ele><time>2026-03-29T15:44:01.988Z</time></trkpt><trkpt lat="45.04481153255623" lon="8.346699338694178"><ele>192.0</ele><time>2026-03-29T15:44:02.988Z</time></trkpt><trkpt lat="45.044965724203806" lon="8.346532933542864"><ele>192.33333333333331</ele><time>2026-03-29T15:44:03.988Z</time></trkpt><trkpt lat="45.04511350138632" lon="8.346351380705997"><ele>192.66666666666666</ele><time>2026-03-29T15:44:04.988Z</time></trkpt><trkpt lat="45.04526239497367" lon="8.34616063765344"><ele>193.0</ele><time>2026-03-29T15:44:05.988Z</time></trkpt><trkpt lat="45.045415931917205" lon="8.345964185904984"><ele>193.0</ele><time>2026-03-29T15:44:06.988Z</time></trkpt><trkpt lat="45.04557334304555" lon="8.345766859092347"><ele>193.0</ele><time>2026-03-29T15:44:07.988Z</time></trkpt><trkpt lat="45.04573469663346" lon="8.345570086170602"><ele>193.0</ele><time>2026-03-29T15:44:08.988Z</time></trkpt><trkpt lat="45.04590086391568" lon="8.345371141555852"><ele>192.66666666666666</ele><time>2026-03-29T15:44:09.988Z</time></trkpt><trkpt lat="45.046064601890606" lon="8.345169508275077"><ele>192.33333333333331</ele><time>2026-03-29T15:44:10.988Z</time></trkpt><trkpt lat="45.04622219758298" lon="8.344974318351182"><ele>192.0</ele><time>2026-03-29T15:44:11.988Z</time></trkpt><trkpt lat="45.046371179575495" lon="8.3447862113443"><ele>192.0</ele><time>2026-03-29T15:44:12.988Z</time></trkpt><trkpt lat="45.046524087843295" lon="8.344597347091419"><ele>192.0</ele><time>2026-03-29T15:44:13.988Z</time></trkpt><trkpt lat="45.04667802745643" lon="8.344410109000387"><ele>192.0</ele><time>2026-03-29T15:44:14.988Z</time></trkpt><trkpt lat="45.046830788341076" lon="8.344221267496673"><ele>192.33333333333331</ele><time>2026-03-29T15:44:15.988Z</time></trkpt><trkpt lat="45.04698339696516" lon="8.344032316400753"><ele>192.66666666666666</ele><time>2026-03-29T15:44:16.988Z</time></trkpt><trkpt lat="45.04713537717303" lon="8.343847256750799"><ele>193.0</ele><time>2026-03-29T15:44:17.988Z</time></trkpt><trkpt lat="45.047288469101794" lon="8.343661571929117"><ele>193.0</ele><time>2026-03-29T15:44:18.988Z</time></trkpt><trkpt lat="45.0474401670567" lon="8.34348181172436"><ele>193.0</ele><time>2026-03-29T15:44:19.988Z</time></trkpt><trkpt lat="45.047588835118106" lon="8.34330261089944"><ele>193.0</ele><time>2026-03-29T15:44:20.988Z</time></trkpt><trkpt lat="45.04773500698338" lon="8.343124774247965"><ele>193.66666666666666</ele><time>2026-03-29T15:44:21.988Z</time></trkpt><trkpt lat="45.047877791560836" lon="8.342948410602997"><ele>194.33333333333331</ele><time>2026-03-29T15:44:22.988Z</time></trkpt><trkpt lat="45.04801484860757" lon="8.342766547581096"><ele>195.0</ele><time>2026-03-29T15:44:23.988Z</time></trkpt><trkpt lat="45.04814817870691" lon="8.342592451306032"><ele>195.0</ele><time>2026-03-29T15:44:24.988Z</time></trkpt><trkpt lat="45.04827098826127" lon="8.342415769373542"><ele>195.0</ele><time>2026-03-29T15:44:25.988Z</time></trkpt><trkpt lat="45.04838942767322" lon="8.34224028375796"><ele>195.0</ele><time>2026-03-29T15:44:26.988Z</time></trkpt><trkpt lat="45.04850728396859" lon="8.342067133421372"><ele>196.33333333333331</ele><time>2026-03-29T15:44:27.988Z</time></trkpt><trkpt lat="45.048625118816446" lon="8.34189944821586"><ele>197.66666666666666</ele><time>2026-03-29T15:44:28.988Z</time></trkpt><trkpt lat="45.04873907744537" lon="8.341734525792377"><ele>199.0</ele><time>2026-03-29T15:44:29.988Z</time></trkpt><trkpt lat="45.04884610787301" lon="8.34157446032661"><ele>199.0</ele><time>2026-03-29T15:44:30.988Z</time></trkpt><trkpt lat="45.04894906228391" lon="8.341423943693174"><ele>199.0</ele><time>2026-03-29T15:44:31.988Z</time></trkpt><trkpt lat="45.049044883689874" lon="8.34128273815581"><ele>199.0</ele><time>2026-03-29T15:44:32.988Z</time></trkpt><trkpt lat="45.049133741491794" lon="8.34115337495966"><ele>199.0</ele><time>2026-03-29T15:44:33.988Z</time></trkpt><trkpt lat="45.049216358107735" lon="8.341031262433692"><ele>199.25</ele><time>2026-03-29T15:44:34.988Z</time></trkpt><trkpt lat="45.04929611400188" lon="8.340910594706333"><ele>199.5</ele><time>2026-03-29T15:44:35.988Z</time></trkpt><trkpt lat="45.04938064321023" lon="8.340784913165761"><ele>199.75</ele><time>2026-03-29T15:44:36.988Z</time></trkpt><trkpt lat="45.04946805710513" lon="8.340651412390011"><ele>200.0</ele><time>2026-03-29T15:44:37.988Z</time></trkpt><trkpt lat="45.04956124737419" lon="8.340515633161687"><ele>200.0</ele><time>2026-03-29T15:44:38.988Z</time></trkpt><trkpt lat="45.04965301020254" lon="8.340383617950337"><ele>200.0</ele><time>2026-03-29T15:44:39.988Z</time></trkpt><trkpt lat="45.04974644604963" lon="8.34025024781759"><ele>200.0</ele><time>2026-03-29T15:44:40.988Z</time></trkpt><trkpt lat="45.04983942641435" lon="8.34011599870763"><ele>200.0</ele><time>2026-03-29T15:44:41.988Z</time></trkpt><trkpt lat="45.04992778271518" lon="8.339984226778897"><ele>201.0</ele><time>2026-03-29T15:44:42.988Z</time></trkpt><trkpt lat="45.05001693602895" lon="8.339855731020664"><ele>202.0</ele><time>2026-03-29T15:44:43.988Z</time></trkpt><trkpt lat="45.05010414821166" lon="8.339728788795885"><ele>203.0</ele><time>2026-03-29T15:44:44.987Z</time></trkpt><trkpt lat="45.05018980817116" lon="8.33960280067743"><ele>204.0</ele><time>2026-03-29T15:44:45.987Z</time></trkpt><trkpt lat="45.0502753313232" lon="8.339479779678674"><ele>204.0</ele><time>2026-03-29T15:44:46.987Z</time></trkpt><trkpt lat="45.05035937737251" lon="8.33935904643524"><ele>204.0</ele><time>2026-03-29T15:44:47.987Z</time></trkpt><trkpt lat="45.05044389097448" lon="8.339240649042969"><ele>204.0</ele><time>2026-03-29T15:44:48.987Z</time></trkpt><trkpt lat="45.05052441800807" lon="8.339122464088739"><ele>204.0</ele><time>2026-03-29T15:44:49.987Z</time></trkpt><trkpt lat="45.05060046107468" lon="8.339012759024248"><ele>204.0</ele><time>2026-03-29T15:44:50.987Z</time></trkpt><trkpt lat="45.05067332193084" lon="8.338905818948692"><ele>204.0</ele><time>2026-03-29T15:44:51.987Z</time></trkpt><trkpt lat="45.05074611978504" lon="8.338812666750956"><ele>204.0</ele><time>2026-03-29T15:44:52.987Z</time></trkpt><trkpt lat="45.05082350097842" lon="8.338725952779258"><ele>204.0</ele><time>2026-03-29T15:44:53.987Z</time></trkpt><trkpt lat="45.05090572378138" lon="8.338654918972214"><ele>204.0</ele><time>2026-03-29T15:44:54.987Z</time></trkpt><trkpt lat="45.05099822429374" lon="8.338596056532788"><ele>203.79999999999998</ele><time>2026-03-29T15:44:55.987Z</time></trkpt><trkpt lat="45.05108768856404" lon="8.338532871069987"><ele>203.6</ele><time>2026-03-29T15:44:56.987Z</time></trkpt><trkpt lat="45.05117768351405" lon="8.338477292368138"><ele>203.4</ele><time>2026-03-29T15:44:57.987Z</time></trkpt><trkpt lat="45.05126304992841" lon="8.338425913417348"><ele>203.2</ele><time>2026-03-29T15:44:58.987Z</time></trkpt><trkpt lat="45.05134665515232" lon="8.338375055387825"><ele>203.0</ele><time>2026-03-29T15:44:59.987Z</time></trkpt><trkpt lat="45.05141984045287" lon="8.338329864620881"><ele>203.00000000000003</ele><time>2026-03-29T15:45:00.987Z</time></trkpt><trkpt lat="45.05148623514875" lon="8.33828767361794"><ele>203.0</ele><time>2026-03-29T15:45:01.987Z</time></trkpt><trkpt lat="45.05155115894778" lon="8.338258469255997"><ele>203.0</ele><time>2026-03-29T15:45:02.987Z</time></trkpt><trkpt lat="45.051673701166344" lon="8.33819172679717"><ele>203.0</ele><time>2026-03-29T15:45:04.987Z</time></trkpt><trkpt lat="45.05175651874932" lon="8.338169633522101"><ele>203.00000000000003</ele><time>2026-03-29T15:45:05.987Z</time></trkpt><trkpt lat="45.05183709451146" lon="8.338158915768359"><ele>203.0</ele><time>2026-03-29T15:45:06.987Z</time></trkpt><trkpt lat="45.05191538161767" lon="8.338145424596231"><ele>203.50000000000003</ele><time>2026-03-29T15:45:07.987Z</time></trkpt><trkpt lat="45.0519950930695" lon="8.338142281475239"><ele>204.0</ele><time>2026-03-29T15:45:08.987Z</time></trkpt><trkpt lat="45.05206876090924" lon="8.338151342000286"><ele>204.5</ele><time>2026-03-29T15:45:09.987Z</time></trkpt><trkpt lat="45.05219143712901" lon="8.338158566572567"><ele>205.0</ele><time>2026-03-29T15:45:11.987Z</time></trkpt><trkpt lat="45.05226758652947" lon="8.33813654888792"><ele>205.50000000000003</ele><time>2026-03-29T15:45:13.987Z</time></trkpt><trkpt lat="45.05229628706568" lon="8.338052641883019"><ele>206.0</ele><time>2026-03-29T15:45:16.987Z</time></trkpt><trkpt lat="45.052241938870566" lon="8.337930131886232"><ele>206.16666666666669</ele><time>2026-03-29T15:45:18.987Z</time></trkpt><trkpt lat="45.05219164655255" lon="8.33786869484921"><ele>206.33333333333334</ele><time>2026-03-29T15:45:19.987Z</time></trkpt><trkpt lat="45.052150369254264" lon="8.33779611196887"><ele>206.5</ele><time>2026-03-29T15:45:20.987Z</time></trkpt><trkpt lat="45.05210114604482" lon="8.337721693764856"><ele>206.66666666666669</ele><time>2026-03-29T15:45:21.987Z</time></trkpt><trkpt lat="45.05205738369543" lon="8.337648239483759"><ele>206.83333333333334</ele><time>2026-03-29T15:45:22.987Z</time></trkpt><trkpt lat="45.052003882057456" lon="8.33748858584184"><ele>207.0</ele><time>2026-03-29T15:45:24.987Z</time></trkpt><trkpt lat="45.05190593210666" lon="8.337387782810723"><ele>207.0</ele><time>2026-03-29T15:45:26.987Z</time></trkpt><trkpt lat="45.05184204874391" lon="8.337383186591648"><ele>207.0</ele><time>2026-03-29T15:45:27.987Z</time></trkpt><trkpt lat="45.051721848144254" lon="8.33732547428951"><ele>207.0</ele><time>2026-03-29T15:45:29.987Z</time></trkpt><trkpt lat="45.05165262352408" lon="8.337282705681984"><ele>207.0</ele><time>2026-03-29T15:45:30.987Z</time></trkpt><trkpt lat="45.05157758479388" lon="8.337245443279022"><ele>207.0</ele><time>2026-03-29T15:45:31.987Z</time></trkpt><trkpt lat="45.051500031367425" lon="8.337198271769097"><ele>207.0</ele><time>2026-03-29T15:45:32.987Z</time></trkpt><trkpt lat="45.05143410115602" lon="8.337134268153287"><ele>206.66666666666666</ele><time>2026-03-29T15:45:33.987Z</time></trkpt><trkpt lat="45.051369136488525" lon="8.337064502926216"><ele>206.33333333333331</ele><time>2026-03-29T15:45:34.986Z</time></trkpt><trkpt lat="45.05130340268769" lon="8.336992049686101"><ele>206.0</ele><time>2026-03-29T15:45:35.986Z</time></trkpt><trkpt lat="45.05123320694465" lon="8.336916758706247"><ele>205.66666666666666</ele><time>2026-03-29T15:45:36.986Z</time></trkpt><trkpt lat="45.051164266138656" lon="8.336830279595675"><ele>205.33333333333331</ele><time>2026-03-29T15:45:37.986Z</time></trkpt><trkpt lat="45.051085154810586" lon="8.336739190879564"><ele>205.0</ele><time>2026-03-29T15:45:38.986Z</time></trkpt><trkpt lat="45.05100820307007" lon="8.336645240423474"><ele>204.99999999999997</ele><time>2026-03-29T15:45:39.986Z</time></trkpt><trkpt lat="45.05093230360276" lon="8.336566819227896"><ele>205.0</ele><time>2026-03-29T15:45:40.986Z</time></trkpt><trkpt lat="45.05086001293917" lon="8.336506957470062"><ele>205.0</ele><time>2026-03-29T15:45:41.986Z</time></trkpt><trkpt lat="45.05079306469995" lon="8.336446208155694"><ele>205.0</ele><time>2026-03-29T15:45:42.986Z</time></trkpt><trkpt lat="45.05072388603309" lon="8.336361318263599"><ele>204.99999999999997</ele><time>2026-03-29T15:45:43.986Z</time></trkpt><trkpt lat="45.05064795973536" lon="8.336274222132326"><ele>205.0</ele><time>2026-03-29T15:45:44.986Z</time></trkpt><trkpt lat="45.0505681228852" lon="8.336188383839765"><ele>205.25</ele><time>2026-03-29T15:45:45.986Z</time></trkpt><trkpt lat="45.0504841675678" lon="8.336106105307708"><ele>205.5</ele><time>2026-03-29T15:45:46.986Z</time></trkpt><trkpt lat="45.050394124232426" lon="8.33601654243147"><ele>205.75</ele><time>2026-03-29T15:45:47.986Z</time></trkpt><trkpt lat="45.050303741153236" lon="8.33590636475264"><ele>206.0</ele><time>2026-03-29T15:45:48.986Z</time></trkpt><trkpt lat="45.05020866166418" lon="8.335796466501144"><ele>206.0</ele><time>2026-03-29T15:45:49.986Z</time></trkpt><trkpt lat="45.05011119150051" lon="8.335685574145172"><ele>206.0</ele><time>2026-03-29T15:45:50.986Z</time></trkpt><trkpt lat="45.05001129538128" lon="8.33557835862761"><ele>206.0</ele><time>2026-03-29T15:45:51.986Z</time></trkpt><trkpt lat="45.049913982017046" lon="8.33547461878609"><ele>206.0</ele><time>2026-03-29T15:45:52.986Z</time></trkpt><trkpt lat="45.049823285942516" lon="8.33538614783768"><ele>208.8</ele><time>2026-03-29T15:45:53.986Z</time></trkpt><trkpt lat="45.04973626093916" lon="8.33532652230012"><ele>211.60000000000002</ele><time>2026-03-29T15:45:54.986Z</time></trkpt><trkpt lat="45.04964630950707" lon="8.335290485143384"><ele>214.4</ele><time>2026-03-29T15:45:55.986Z</time></trkpt><trkpt lat="45.049543283972525" lon="8.335300553865244"><ele>217.2</ele><time>2026-03-29T15:45:56.986Z</time></trkpt><trkpt lat="45.04944533549587" lon="8.335367924398138"><ele>220.0</ele><time>2026-03-29T15:45:57.986Z</time></trkpt><trkpt lat="45.04937030351766" lon="8.335482386859324"><ele>219.25</ele><time>2026-03-29T15:45:58.986Z</time></trkpt><trkpt lat="45.049321244008084" lon="8.335627500735171"><ele>218.5</ele><time>2026-03-29T15:45:59.986Z</time></trkpt><trkpt lat="45.04929834224158" lon="8.335791072469855"><ele>217.75</ele><time>2026-03-29T15:46:00.986Z</time></trkpt><trkpt lat="45.04928043120275" lon="8.335963113229788"><ele>217.0</ele><time>2026-03-29T15:46:01.986Z</time></trkpt><trkpt lat="45.04925486396283" lon="8.336142204938957"><ele>217.0</ele><time>2026-03-29T15:46:02.986Z</time></trkpt><trkpt lat="45.04922745304229" lon="8.336317358229323"><ele>217.0</ele><time>2026-03-29T15:46:03.986Z</time></trkpt><trkpt lat="45.049206454454925" lon="8.336478935829621"><ele>217.0</ele><time>2026-03-29T15:46:04.986Z</time></trkpt><trkpt lat="45.04918520831005" lon="8.336632094612359"><ele>217.0</ele><time>2026-03-29T15:46:05.986Z</time></trkpt><trkpt lat="45.049151668817366" lon="8.336776071637168"><ele>218.2</ele><time>2026-03-29T15:46:06.986Z</time></trkpt><trkpt lat="45.04910181082551" lon="8.336909457198551"><ele>219.39999999999998</ele><time>2026-03-29T15:46:07.986Z</time></trkpt><trkpt lat="45.049029072593704" lon="8.337016723915736"><ele>220.60000000000002</ele><time>2026-03-29T15:46:08.986Z</time></trkpt><trkpt lat="45.04893577504192" lon="8.337105360727985"><ele>221.8</ele><time>2026-03-29T15:46:09.986Z</time></trkpt><trkpt lat="45.048825816815466" lon="8.33718392667606"><ele>223.0</ele><time>2026-03-29T15:46:10.986Z</time></trkpt><trkpt lat="45.048704423041585" lon="8.337256833309088"><ele>223.0</ele><time>2026-03-29T15:46:11.986Z</time></trkpt><trkpt lat="45.04858118200372" lon="8.337336929880614"><ele>223.0</ele><time>2026-03-29T15:46:12.986Z</time></trkpt><trkpt lat="45.048454510113466" lon="8.337423452493038"><ele>223.0</ele><time>2026-03-29T15:46:13.986Z</time></trkpt><trkpt lat="45.04832547269962" lon="8.337515448812692"><ele>223.0</ele><time>2026-03-29T15:46:14.986Z</time></trkpt><trkpt lat="45.04819355654949" lon="8.337607424051788"><ele>225.5</ele><time>2026-03-29T15:46:15.986Z</time></trkpt><trkpt lat="45.048059913179905" lon="8.337702624464901"><ele>228.0</ele><time>2026-03-29T15:46:16.986Z</time></trkpt><trkpt lat="45.047931060526636" lon="8.337797503162768"><ele>230.5</ele><time>2026-03-29T15:46:17.986Z</time></trkpt><trkpt lat="45.0478162917208" lon="8.337886528141214"><ele>233.0</ele><time>2026-03-29T15:46:18.986Z</time></trkpt><trkpt lat="45.047723588362054" lon="8.337980905017778"><ele>232.66666666666669</ele><time>2026-03-29T15:46:19.986Z</time></trkpt><trkpt lat="45.04764735297113" lon="8.33807949613197"><ele>232.33333333333334</ele><time>2026-03-29T15:46:20.986Z</time></trkpt><trkpt lat="45.04758227932349" lon="8.338171550525262"><ele>232.0</ele><time>2026-03-29T15:46:21.986Z</time></trkpt><trkpt lat="45.04752257238228" lon="8.338257378234657"><ele>231.66666666666669</ele><time>2026-03-29T15:46:22.986Z</time></trkpt><trkpt lat="45.047454613248355" lon="8.338323085613203"><ele>231.33333333333334</ele><time>2026-03-29T15:46:23.985Z</time></trkpt><trkpt lat="45.04737325624724" lon="8.338342897514012"><ele>231.0</ele><time>2026-03-29T15:46:24.985Z</time></trkpt><trkpt lat="45.04729789123333" lon="8.338301384835548"><ele>233.20000000000002</ele><time>2026-03-29T15:46:25.985Z</time></trkpt><trkpt lat="45.04724314114594" lon="8.338207608311203"><ele>235.40000000000003</ele><time>2026-03-29T15:46:26.985Z</time></trkpt><trkpt lat="45.04722803516854" lon="8.338077149258048"><ele>237.6</ele><time>2026-03-29T15:46:27.985Z</time></trkpt><trkpt lat="45.04725614480724" lon="8.337944944811698"><ele>239.8</ele><time>2026-03-29T15:46:28.985Z</time></trkpt><trkpt lat="45.047316593238165" lon="8.33781646495664"><ele>242.0</ele><time>2026-03-29T15:46:29.985Z</time></trkpt><trkpt lat="45.04738970204606" lon="8.33767879469294"><ele>242.0</ele><time>2026-03-29T15:46:30.985Z</time></trkpt><trkpt lat="45.04746962696559" lon="8.337534671778764"><ele>242.0</ele><time>2026-03-29T15:46:31.985Z</time></trkpt><trkpt lat="45.04755709174466" lon="8.337381210177679"><ele>242.0</ele><time>2026-03-29T15:46:32.985Z</time></trkpt><trkpt lat="45.04764103181317" lon="8.33721942755484"><ele>242.0</ele><time>2026-03-29T15:46:33.985Z</time></trkpt><trkpt lat="45.047722689282075" lon="8.337051760718701"><ele>242.0</ele><time>2026-03-29T15:46:34.985Z</time></trkpt><trkpt lat="45.04780860173339" lon="8.336879156861023"><ele>242.0</ele><time>2026-03-29T15:46:35.985Z</time></trkpt><trkpt lat="45.047900206448645" lon="8.33671040827149"><ele>242.0</ele><time>2026-03-29T15:46:36.985Z</time></trkpt><trkpt lat="45.047986219448376" lon="8.336528943780868"><ele>244.0</ele><time>2026-03-29T15:46:37.985Z</time></trkpt><trkpt lat="45.04806165802904" lon="8.336347533427528"><ele>246.0</ele><time>2026-03-29T15:46:38.985Z</time></trkpt><trkpt lat="45.048112866033435" lon="8.336165290066665"><ele>248.0</ele><time>2026-03-29T15:46:39.985Z</time></trkpt><trkpt lat="45.04814952075494" lon="8.335980197264009"><ele>250.0</ele><time>2026-03-29T15:46:40.985Z</time></trkpt><trkpt lat="45.04816504771385" lon="8.335789656437276"><ele>250.0</ele><time>2026-03-29T15:46:41.985Z</time></trkpt><trkpt lat="45.04816042333734" lon="8.335588208672275"><ele>250.0</ele><time>2026-03-29T15:46:42.985Z</time></trkpt><trkpt lat="45.04814121933771" lon="8.335378356833546"><ele>250.0</ele><time>2026-03-29T15:46:43.985Z</time></trkpt><trkpt lat="45.04812469597054" lon="8.335159002566694"><ele>250.0</ele><time>2026-03-29T15:46:44.985Z</time></trkpt><trkpt lat="45.04810354065639" lon="8.334934344473153"><ele>252.66666666666666</ele><time>2026-03-29T15:46:45.985Z</time></trkpt><trkpt lat="45.04808425499379" lon="8.33470363862577"><ele>255.33333333333331</ele><time>2026-03-29T15:46:46.985Z</time></trkpt><trkpt lat="45.04806387294716" lon="8.334471635016843"><ele>258.0</ele><time>2026-03-29T15:46:47.985Z</time></trkpt><trkpt lat="45.04804491319689" lon="8.33424331453762"><ele>258.0</ele><time>2026-03-29T15:46:48.985Z</time></trkpt><trkpt lat="45.04802429882686" lon="8.334015944646582"><ele>258.0</ele><time>2026-03-29T15:46:49.985Z</time></trkpt><trkpt lat="45.048004335301016" lon="8.333783744225338"><ele>258.0</ele><time>2026-03-29T15:46:50.985Z</time></trkpt><trkpt lat="45.04798984683231" lon="8.33354134236348"><ele>257.6666666666667</ele><time>2026-03-29T15:46:51.985Z</time></trkpt><trkpt lat="45.04797305213484" lon="8.333300878188929"><ele>257.33333333333337</ele><time>2026-03-29T15:46:52.985Z</time></trkpt><trkpt lat="45.047954456776125" lon="8.333061541805328"><ele>257.0</ele><time>2026-03-29T15:46:53.985Z</time></trkpt><trkpt lat="45.04793611403679" lon="8.332820858669605"><ele>256.33333333333337</ele><time>2026-03-29T15:46:54.985Z</time></trkpt><trkpt lat="45.047916032902656" lon="8.332580917269079"><ele>255.66666666666669</ele><time>2026-03-29T15:46:55.985Z</time></trkpt><trkpt lat="45.04789635062752" lon="8.332342166447278"><ele>255.0</ele><time>2026-03-29T15:46:56.985Z</time></trkpt><trkpt lat="45.0478745639133" lon="8.332107120279495"><ele>254.33333333333331</ele><time>2026-03-29T15:46:57.985Z</time></trkpt><trkpt lat="45.04785412543999" lon="8.33187987576978"><ele>253.66666666666666</ele><time>2026-03-29T15:46:58.985Z</time></trkpt><trkpt lat="45.04783678985264" lon="8.331656004425415"><ele>253.0</ele><time>2026-03-29T15:46:59.985Z</time></trkpt><trkpt lat="45.047823659397395" lon="8.331430634698178"><ele>253.66666666666666</ele><time>2026-03-29T15:47:00.985Z</time></trkpt><trkpt lat="45.04780927252559" lon="8.331203378614697"><ele>254.33333333333331</ele><time>2026-03-29T15:47:01.985Z</time></trkpt><trkpt lat="45.047790920433854" lon="8.330970614444091"><ele>255.0</ele><time>2026-03-29T15:47:02.985Z</time></trkpt><trkpt lat="45.04776809811595" lon="8.330735172511025"><ele>256.3333333333333</ele><time>2026-03-29T15:47:03.985Z</time></trkpt><trkpt lat="45.0477446119335" lon="8.330497987202493"><ele>257.66666666666663</ele><time>2026-03-29T15:47:04.985Z</time></trkpt><trkpt lat="45.04771517582906" lon="8.330263105554545"><ele>259.0</ele><time>2026-03-29T15:47:05.985Z</time></trkpt><trkpt lat="45.04767040305311" lon="8.330038586215126"><ele>259.0</ele><time>2026-03-29T15:47:06.985Z</time></trkpt><trkpt lat="45.047600480607336" lon="8.3298285373012"><ele>259.0</ele><time>2026-03-29T15:47:07.985Z</time></trkpt><trkpt lat="45.047507801964436" lon="8.329625681283597"><ele>259.0</ele><time>2026-03-29T15:47:08.985Z</time></trkpt><trkpt lat="45.047390504918695" lon="8.329412893709657"><ele>259.0</ele><time>2026-03-29T15:47:09.985Z</time></trkpt><trkpt lat="45.04725808854171" lon="8.329190148091955"><ele>259.0</ele><time>2026-03-29T15:47:10.985Z</time></trkpt><trkpt lat="45.04712014858335" lon="8.328948511863349"><ele>259.0</ele><time>2026-03-29T15:47:11.985Z</time></trkpt><trkpt lat="45.0469789101609" lon="8.328689289657508"><ele>259.0</ele><time>2026-03-29T15:47:12.984Z</time></trkpt><trkpt lat="45.04683389443697" lon="8.328413421353009"><ele>259.0</ele><time>2026-03-29T15:47:13.984Z</time></trkpt><trkpt lat="45.04668503869159" lon="8.3281291933036"><ele>261.5</ele><time>2026-03-29T15:47:14.984Z</time></trkpt><trkpt lat="45.04654198042184" lon="8.327869095212934"><ele>264.0</ele><time>2026-03-29T15:47:15.984Z</time></trkpt><trkpt lat="45.04640470479271" lon="8.327631099089198"><ele>264.0</ele><time>2026-03-29T15:47:16.984Z</time></trkpt><trkpt lat="45.04627637922891" lon="8.327404599536393"><ele>264.0</ele><time>2026-03-29T15:47:17.984Z</time></trkpt><trkpt lat="45.046157692761106" lon="8.327190117332611"><ele>264.0</ele><time>2026-03-29T15:47:18.984Z</time></trkpt><trkpt lat="45.046052310054016" lon="8.32699842898544"><ele>264.6666666666667</ele><time>2026-03-29T15:47:19.984Z</time></trkpt><trkpt lat="45.04595880738908" lon="8.326825042321854"><ele>265.33333333333337</ele><time>2026-03-29T15:47:20.984Z</time></trkpt><trkpt lat="45.04587129618671" lon="8.3266493532101"><ele>266.0</ele><time>2026-03-29T15:47:21.984Z</time></trkpt><trkpt lat="45.04579981023067" lon="8.326466372809868"><ele>265.25</ele><time>2026-03-29T15:47:22.984Z</time></trkpt><trkpt lat="45.04575979179793" lon="8.326276787337534"><ele>264.5</ele><time>2026-03-29T15:47:23.984Z</time></trkpt><trkpt lat="45.045756672562604" lon="8.326091486313874"><ele>263.75</ele><time>2026-03-29T15:47:24.984Z</time></trkpt><trkpt lat="45.045788843531476" lon="8.325920578329796"><ele>263.0</ele><time>2026-03-29T15:47:25.984Z</time></trkpt><trkpt lat="45.045856405617755" lon="8.32576256923354"><ele>263.0</ele><time>2026-03-29T15:47:26.984Z</time></trkpt><trkpt lat="45.045950576288874" lon="8.32561546995844"><ele>263.0</ele><time>2026-03-29T15:47:27.984Z</time></trkpt><trkpt lat="45.04604821372984" lon="8.32546827524991"><ele>263.0</ele><time>2026-03-29T15:47:28.984Z</time></trkpt><trkpt lat="45.046140623908485" lon="8.325336659887764"><ele>263.0</ele><time>2026-03-29T15:47:29.984Z</time></trkpt><trkpt lat="45.04621794574951" lon="8.32519814862409"><ele>260.75</ele><time>2026-03-29T15:47:30.984Z</time></trkpt><trkpt lat="45.046268014780075" lon="8.325051952803078"><ele>258.5</ele><time>2026-03-29T15:47:31.984Z</time></trkpt><trkpt lat="45.04627386574539" lon="8.324883886484043"><ele>256.25</ele><time>2026-03-29T15:47:32.984Z</time></trkpt><trkpt lat="45.04624331606325" lon="8.324700082111177"><ele>254.0</ele><time>2026-03-29T15:47:33.984Z</time></trkpt><trkpt lat="45.04620193108399" lon="8.324500829123874"><ele>252.33333333333334</ele><time>2026-03-29T15:47:34.984Z</time></trkpt><trkpt lat="45.04615387959086" lon="8.324285951721933"><ele>250.66666666666669</ele><time>2026-03-29T15:47:35.984Z</time></trkpt><trkpt lat="45.04610501031341" lon="8.324069191937056"><ele>249.0</ele><time>2026-03-29T15:47:36.984Z</time></trkpt><trkpt lat="45.04605615292414" lon="8.323849968822856"><ele>248.5</ele><time>2026-03-29T15:47:37.984Z</time></trkpt><trkpt lat="45.04600772359722" lon="8.323637704156507"><ele>248.0</ele><time>2026-03-29T15:47:38.984Z</time></trkpt><trkpt lat="45.04596744413958" lon="8.323438835296924"><ele>247.5</ele><time>2026-03-29T15:47:39.984Z</time></trkpt><trkpt lat="45.04595235346394" lon="8.323239837874118"><ele>247.0</ele><time>2026-03-29T15:47:40.984Z</time></trkpt><trkpt lat="45.04596278182972" lon="8.323046724594882"><ele>246.25</ele><time>2026-03-29T15:47:41.984Z</time></trkpt><trkpt lat="45.04600175226812" lon="8.32285655494968"><ele>245.5</ele><time>2026-03-29T15:47:42.984Z</time></trkpt><trkpt lat="45.0460655269687" lon="8.322662243347922"><ele>244.75</ele><time>2026-03-29T15:47:43.984Z</time></trkpt><trkpt lat="45.04613399718105" lon="8.322470186604123"><ele>244.0</ele><time>2026-03-29T15:47:44.984Z</time></trkpt><trkpt lat="45.04620514699607" lon="8.322266932344702"><ele>242.0</ele><time>2026-03-29T15:47:45.984Z</time></trkpt><trkpt lat="45.046285025021476" lon="8.322048732876901"><ele>240.0</ele><time>2026-03-29T15:47:46.984Z</time></trkpt><trkpt lat="45.04636709629453" lon="8.321824835522845"><ele>238.0</ele><time>2026-03-29T15:47:47.984Z</time></trkpt><trkpt lat="45.046437362319814" lon="8.321595829249492"><ele>237.0</ele><time>2026-03-29T15:47:48.984Z</time></trkpt><trkpt lat="45.046489863696195" lon="8.321361734597096"><ele>236.0</ele><time>2026-03-29T15:47:49.984Z</time></trkpt><trkpt lat="45.04651915283939" lon="8.32112908417188"><ele>235.0</ele><time>2026-03-29T15:47:50.984Z</time></trkpt><trkpt lat="45.04653475736903" lon="8.320906224267567"><ele>235.0</ele><time>2026-03-29T15:47:51.984Z</time></trkpt><trkpt lat="45.046548145638695" lon="8.32070597503323"><ele>235.0</ele><time>2026-03-29T15:47:52.984Z</time></trkpt><trkpt lat="45.046554740195816" lon="8.320531287957673"><ele>235.0</ele><time>2026-03-29T15:47:53.984Z</time></trkpt><trkpt lat="45.04654799489369" lon="8.320367779898039"><ele>235.0</ele><time>2026-03-29T15:47:54.984Z</time></trkpt><trkpt lat="45.04651178900061" lon="8.32022045856046"><ele>237.2</ele><time>2026-03-29T15:47:55.984Z</time></trkpt><trkpt lat="45.04644291110179" lon="8.320104711927808"><ele>239.4</ele><time>2026-03-29T15:47:56.984Z</time></trkpt><trkpt lat="45.046354452959086" lon="8.320028989807124"><ele>241.60000000000002</ele><time>2026-03-29T15:47:57.984Z</time></trkpt><trkpt lat="45.04624172152505" lon="8.320014171794186"><ele>243.8</ele><time>2026-03-29T15:47:58.984Z</time></trkpt><trkpt lat="45.04612457018629" lon="8.320055634689927"><ele>246.0</ele><time>2026-03-29T15:47:59.984Z</time></trkpt><trkpt lat="45.04600867566878" lon="8.320131470394667"><ele>246.0</ele><time>2026-03-29T15:48:00.984Z</time></trkpt><trkpt lat="45.04588232924741" lon="8.320204986483791"><ele>246.0</ele><time>2026-03-29T15:48:01.983Z</time></trkpt><trkpt lat="45.04573865571869" lon="8.320252341793909"><ele>246.0</ele><time>2026-03-29T15:48:02.983Z</time></trkpt><trkpt lat="45.04558840921065" lon="8.32027556542548"><ele>246.0</ele><time>2026-03-29T15:48:03.983Z</time></trkpt><trkpt lat="45.04543880749194" lon="8.320299479079784"><ele>246.25</ele><time>2026-03-29T15:48:04.983Z</time></trkpt><trkpt lat="45.04529175403102" lon="8.320321710470884"><ele>246.5</ele><time>2026-03-29T15:48:05.983Z</time></trkpt><trkpt lat="45.04514693504371" lon="8.320339090844437"><ele>246.75</ele><time>2026-03-29T15:48:06.983Z</time></trkpt><trkpt lat="45.045001842900575" lon="8.320334356816486"><ele>247.0</ele><time>2026-03-29T15:48:07.983Z</time></trkpt><trkpt lat="45.04485706391481" lon="8.320299542760564"><ele>247.0</ele><time>2026-03-29T15:48:08.983Z</time></trkpt><trkpt lat="45.04472000067408" lon="8.320243140013421"><ele>247.0</ele><time>2026-03-29T15:48:09.983Z</time></trkpt><trkpt lat="45.04459167888114" lon="8.320158180958279"><ele>247.0</ele><time>2026-03-29T15:48:10.983Z</time></trkpt><trkpt lat="45.04447412263034" lon="8.320051338108795"><ele>247.0</ele><time>2026-03-29T15:48:11.983Z</time></trkpt><trkpt lat="45.04437106155221" lon="8.319937354064791"><ele>247.0</ele><time>2026-03-29T15:48:12.983Z</time></trkpt><trkpt lat="45.044298556853754" lon="8.31981389617322"><ele>247.0</ele><time>2026-03-29T15:48:13.983Z</time></trkpt><trkpt lat="45.04425514396135" lon="8.31967803943467"><ele>247.0</ele><time>2026-03-29T15:48:14.983Z</time></trkpt><trkpt lat="45.04423823984367" lon="8.319540687677463"><ele>247.0</ele><time>2026-03-29T15:48:15.983Z</time></trkpt><trkpt lat="45.044245584095606" lon="8.319391594460326"><ele>247.0</ele><time>2026-03-29T15:48:16.983Z</time></trkpt><trkpt lat="45.04427021786447" lon="8.319217866335771"><ele>246.75</ele><time>2026-03-29T15:48:17.983Z</time></trkpt><trkpt lat="45.044307759862065" lon="8.31902596421579"><ele>246.5</ele><time>2026-03-29T15:48:18.983Z</time></trkpt><trkpt lat="45.04435148433677" lon="8.318821270604383"><ele>246.25</ele><time>2026-03-29T15:48:19.983Z</time></trkpt><trkpt lat="45.04439498341131" lon="8.318622610111637"><ele>246.0</ele><time>2026-03-29T15:48:20.983Z</time></trkpt><trkpt lat="45.044435695087415" lon="8.318431059790338"><ele>244.75</ele><time>2026-03-29T15:48:21.983Z</time></trkpt><trkpt lat="45.0444766954165" lon="8.318237703035871"><ele>243.5</ele><time>2026-03-29T15:48:22.983Z</time></trkpt><trkpt lat="45.04452211015476" lon="8.318041909435047"><ele>242.25</ele><time>2026-03-29T15:48:23.983Z</time></trkpt><trkpt lat="45.04457255273797" lon="8.317841722290298"><ele>241.0</ele><time>2026-03-29T15:48:24.983Z</time></trkpt><trkpt lat="45.04462159914336" lon="8.317635184642326"><ele>239.33333333333331</ele><time>2026-03-29T15:48:25.983Z</time></trkpt><trkpt lat="45.0446694684756" lon="8.317421287274827"><ele>237.66666666666669</ele><time>2026-03-29T15:48:26.983Z</time></trkpt><trkpt lat="45.044720235309825" lon="8.317202598057785"><ele>236.0</ele><time>2026-03-29T15:48:27.983Z</time></trkpt><trkpt lat="45.04477324837596" lon="8.316979741175441"><ele>234.33333333333334</ele><time>2026-03-29T15:48:28.983Z</time></trkpt><trkpt lat="45.04482505399698" lon="8.316751278605883"><ele>232.66666666666669</ele><time>2026-03-29T15:48:29.983Z</time></trkpt><trkpt lat="45.044875252918544" lon="8.316521540006399"><ele>231.0</ele><time>2026-03-29T15:48:30.983Z</time></trkpt><trkpt lat="45.04492617753792" lon="8.316291493297829"><ele>232.0</ele><time>2026-03-29T15:48:31.983Z</time></trkpt><trkpt lat="45.04497857782721" lon="8.316060972721484"><ele>233.0</ele><time>2026-03-29T15:48:32.983Z</time></trkpt><trkpt lat="45.0450273825623" lon="8.31584367560277"><ele>234.0</ele><time>2026-03-29T15:48:33.983Z</time></trkpt><trkpt lat="45.04507479066726" lon="8.315639210454655"><ele>233.5</ele><time>2026-03-29T15:48:34.983Z</time></trkpt><trkpt lat="45.045118173326976" lon="8.315446754565126"><ele>233.0</ele><time>2026-03-29T15:48:35.983Z</time></trkpt><trkpt lat="45.04515881386699" lon="8.315262748541594"><ele>232.5</ele><time>2026-03-29T15:48:36.983Z</time></trkpt><trkpt lat="45.045196019380995" lon="8.315079725087333"><ele>232.0</ele><time>2026-03-29T15:48:37.983Z</time></trkpt><trkpt lat="45.045223323608724" lon="8.314895355580667"><ele>231.75</ele><time>2026-03-29T15:48:38.983Z</time></trkpt><trkpt lat="45.04523583988526" lon="8.314701719114808"><ele>231.5</ele><time>2026-03-29T15:48:39.983Z</time></trkpt><trkpt lat="45.04522533629697" lon="8.314502980874918"><ele>231.25</ele><time>2026-03-29T15:48:40.983Z</time></trkpt><trkpt lat="45.045188811277214" lon="8.314314122802848"><ele>231.0</ele><time>2026-03-29T15:48:41.983Z</time></trkpt><trkpt lat="45.04513390381303" lon="8.314130447032875"><ele>231.0</ele><time>2026-03-29T15:48:42.983Z</time></trkpt><trkpt lat="45.045075243530356" lon="8.313949005668627"><ele>231.0</ele><time>2026-03-29T15:48:43.983Z</time></trkpt><trkpt lat="45.04501890755808" lon="8.313775323226961"><ele>231.0</ele><time>2026-03-29T15:48:44.983Z</time></trkpt><trkpt lat="45.04496157725734" lon="8.313618332009783"><ele>231.0</ele><time>2026-03-29T15:48:45.983Z</time></trkpt><trkpt lat="45.04489318201141" lon="8.313485322084674"><ele>232.8</ele><time>2026-03-29T15:48:46.983Z</time></trkpt><trkpt lat="45.044808551041164" lon="8.313384953940265"><ele>234.60000000000002</ele><time>2026-03-29T15:48:47.983Z</time></trkpt><trkpt lat="45.044709515192444" lon="8.313331389471546"><ele>236.4</ele><time>2026-03-29T15:48:48.983Z</time></trkpt><trkpt lat="45.04460245492472" lon="8.313316457148726"><ele>238.2</ele><time>2026-03-29T15:48:49.983Z</time></trkpt><trkpt lat="45.04449328338952" lon="8.313350065388674"><ele>240.0</ele><time>2026-03-29T15:48:50.983Z</time></trkpt><trkpt lat="45.044382392513086" lon="8.3134120886173"><ele>240.0</ele><time>2026-03-29T15:48:51.982Z</time></trkpt><trkpt lat="45.044276030059855" lon="8.313477679646372"><ele>240.0</ele><time>2026-03-29T15:48:52.982Z</time></trkpt><trkpt lat="45.044189966418976" lon="8.31353667673184"><ele>240.0</ele><time>2026-03-29T15:48:53.982Z</time></trkpt><trkpt lat="45.044088577577575" lon="8.313541870416708"><ele>240.0</ele><time>2026-03-29T15:48:55.982Z</time></trkpt><trkpt lat="45.04402283728386" lon="8.313437050320639"><ele>240.0</ele><time>2026-03-29T15:48:57.982Z</time></trkpt><trkpt lat="45.04399543346854" lon="8.313253941715098"><ele>241.33333333333334</ele><time>2026-03-29T15:48:59.982Z</time></trkpt><trkpt lat="45.04401337927219" lon="8.31313904957608"><ele>242.66666666666669</ele><time>2026-03-29T15:49:00.982Z</time></trkpt><trkpt lat="45.04404913718863" lon="8.313024546012914"><ele>244.0</ele><time>2026-03-29T15:49:01.982Z</time></trkpt><trkpt lat="45.0441029962404" lon="8.31291220537238"><ele>245.33333333333334</ele><time>2026-03-29T15:49:02.982Z</time></trkpt><trkpt lat="45.044154419927494" lon="8.312820651170554"><ele>246.66666666666669</ele><time>2026-03-29T15:49:03.982Z</time></trkpt><trkpt lat="45.04421028154558" lon="8.31271251217905"><ele>248.0</ele><time>2026-03-29T15:49:04.982Z</time></trkpt><trkpt lat="45.0442750269262" lon="8.312595858097161"><ele>248.0</ele><time>2026-03-29T15:49:05.982Z</time></trkpt><trkpt lat="45.04434291260476" lon="8.312468466361773"><ele>248.0</ele><time>2026-03-29T15:49:06.982Z</time></trkpt><trkpt lat="45.044406885056304" lon="8.312321343381821"><ele>248.0</ele><time>2026-03-29T15:49:07.982Z</time></trkpt><trkpt lat="45.04446319294989" lon="8.312148731857548"><ele>248.0</ele><time>2026-03-29T15:49:08.982Z</time></trkpt><trkpt lat="45.04451228962358" lon="8.311962361716429"><ele>250.25</ele><time>2026-03-29T15:49:09.982Z</time></trkpt><trkpt lat="45.04456101008082" lon="8.311776214854767"><ele>252.5</ele><time>2026-03-29T15:49:10.982Z</time></trkpt><trkpt lat="45.04460189449874" lon="8.311606155941089"><ele>254.75</ele><time>2026-03-29T15:49:11.982Z</time></trkpt><trkpt lat="45.0446495513147" lon="8.311431073151883"><ele>257.0</ele><time>2026-03-29T15:49:12.982Z</time></trkpt><trkpt lat="45.04469534152754" lon="8.311245905123"><ele>259.5</ele><time>2026-03-29T15:49:13.982Z</time></trkpt><trkpt lat="45.04474406068641" lon="8.311060496273486"><ele>262.0</ele><time>2026-03-29T15:49:14.982Z</time></trkpt><trkpt lat="45.04480054029711" lon="8.310867619251718"><ele>264.5</ele><time>2026-03-29T15:49:15.982Z</time></trkpt><trkpt lat="45.0448642454469" lon="8.31067044460217"><ele>267.0</ele><time>2026-03-29T15:49:16.982Z</time></trkpt><trkpt lat="45.0449345760545" lon="8.310464806561034"><ele>265.6666666666667</ele><time>2026-03-29T15:49:17.982Z</time></trkpt><trkpt lat="45.04500535137246" lon="8.310250469374857"><ele>264.33333333333337</ele><time>2026-03-29T15:49:18.982Z</time></trkpt><trkpt lat="45.04507791789024" lon="8.310030302226531"><ele>263.0</ele><time>2026-03-29T15:49:19.982Z</time></trkpt><trkpt lat="45.04515162881954" lon="8.309808497427168"><ele>264.75</ele><time>2026-03-29T15:49:20.982Z</time></trkpt><trkpt lat="45.04521995778063" lon="8.309605873626936"><ele>266.5</ele><time>2026-03-29T15:49:21.982Z</time></trkpt><trkpt lat="45.045282283257635" lon="8.309421510325944"><ele>268.25</ele><time>2026-03-29T15:49:22.982Z</time></trkpt><trkpt lat="45.045339526445176" lon="8.309242251385799"><ele>270.0</ele><time>2026-03-29T15:49:23.982Z</time></trkpt><trkpt lat="45.045395837702905" lon="8.30906656237009"><ele>271.5</ele><time>2026-03-29T15:49:24.982Z</time></trkpt><trkpt lat="45.04544265697217" lon="8.30889315694397"><ele>273.0</ele><time>2026-03-29T15:49:25.982Z</time></trkpt><trkpt lat="45.04547283542423" lon="8.30871941838485"><ele>274.5</ele><time>2026-03-29T15:49:26.982Z</time></trkpt><trkpt lat="45.04548568848071" lon="8.30854092813769"><ele>276.0</ele><time>2026-03-29T15:49:27.982Z</time></trkpt><trkpt lat="45.04546973120743" lon="8.30837941207268"><ele>276.0</ele><time>2026-03-29T15:49:28.982Z</time></trkpt><trkpt lat="45.04544101254348" lon="8.308247348149894"><ele>276.0</ele><time>2026-03-29T15:49:29.982Z</time></trkpt><trkpt lat="45.045413030506964" lon="8.308152787805252"><ele>276.0</ele><time>2026-03-29T15:49:30.982Z</time></trkpt><trkpt lat="45.04538107476105" lon="8.30798441689252"><ele>276.0</ele><time>2026-03-29T15:49:32.982Z</time></trkpt><trkpt lat="45.04537654340682" lon="8.307880692064783"><ele>276.0</ele><time>2026-03-29T15:49:33.982Z</time></trkpt><trkpt lat="45.04539158583564" lon="8.307747577492055"><ele>277.5</ele><time>2026-03-29T15:49:34.982Z</time></trkpt><trkpt lat="45.04541658218571" lon="8.307584542687641"><ele>279.0</ele><time>2026-03-29T15:49:35.982Z</time></trkpt><trkpt lat="45.045446739435036" lon="8.307392613898319"><ele>280.5</ele><time>2026-03-29T15:49:36.982Z</time></trkpt><trkpt lat="45.04548219897202" lon="8.307174760206173"><ele>282.0</ele><time>2026-03-29T15:49:37.982Z</time></trkpt><trkpt lat="45.04551873849213" lon="8.306941567631016"><ele>282.3333333333333</ele><time>2026-03-29T15:49:38.982Z</time></trkpt><trkpt lat="45.04555409034177" lon="8.306726666323833"><ele>282.66666666666663</ele><time>2026-03-29T15:49:39.982Z</time></trkpt><trkpt lat="45.04558929871538" lon="8.306523785467167"><ele>283.0</ele><time>2026-03-29T15:49:40.981Z</time></trkpt><trkpt lat="45.04562838220829" lon="8.306317497150893"><ele>283.0</ele><time>2026-03-29T15:49:41.981Z</time></trkpt><trkpt lat="45.045677127106835" lon="8.30611321557702"><ele>283.0</ele><time>2026-03-29T15:49:42.981Z</time></trkpt><trkpt lat="45.04573574167847" lon="8.30591757232839"><ele>283.0</ele><time>2026-03-29T15:49:43.981Z</time></trkpt><trkpt lat="45.045798705268595" lon="8.305734995143597"><ele>283.0</ele><time>2026-03-29T15:49:44.981Z</time></trkpt><trkpt lat="45.04586561490282" lon="8.30555833772121"><ele>279.66666666666663</ele><time>2026-03-29T15:49:45.981Z</time></trkpt><trkpt lat="45.04593835662325" lon="8.305380722089328"><ele>276.3333333333333</ele><time>2026-03-29T15:49:46.981Z</time></trkpt><trkpt lat="45.04601447859299" lon="8.305191526566993"><ele>273.0</ele><time>2026-03-29T15:49:47.981Z</time></trkpt><trkpt lat="45.04609676115336" lon="8.304996403687655"><ele>273.0</ele><time>2026-03-29T15:49:48.981Z</time></trkpt><trkpt lat="45.046187626032825" lon="8.30479024144291"><ele>273.0</ele><time>2026-03-29T15:49:49.981Z</time></trkpt><trkpt lat="45.04628153080008" lon="8.304570526806822"><ele>273.0</ele><time>2026-03-29T15:49:50.981Z</time></trkpt><trkpt lat="45.04637737679045" lon="8.30434008547912"><ele>271.0</ele><time>2026-03-29T15:49:51.981Z</time></trkpt><trkpt lat="45.046479805948636" lon="8.304101266677094"><ele>269.0</ele><time>2026-03-29T15:49:52.981Z</time></trkpt><trkpt lat="45.04658168374922" lon="8.303861856274695"><ele>267.0</ele><time>2026-03-29T15:49:53.981Z</time></trkpt><trkpt lat="45.046681361887636" lon="8.303632070681537"><ele>265.3333333333333</ele><time>2026-03-29T15:49:54.981Z</time></trkpt><trkpt lat="45.04677229935481" lon="8.30340549735849"><ele>263.66666666666663</ele><time>2026-03-29T15:49:55.981Z</time></trkpt><trkpt lat="45.046850138516774" lon="8.303175149712526"><ele>262.0</ele><time>2026-03-29T15:49:56.981Z</time></trkpt><trkpt lat="45.04691644645574" lon="8.302943458647057"><ele>261.0</ele><time>2026-03-29T15:49:57.981Z</time></trkpt><trkpt lat="45.04697325546488" lon="8.302703051104777"><ele>260.0</ele><time>2026-03-29T15:49:58.981Z</time></trkpt><trkpt lat="45.04702207466041" lon="8.302451706068148"><ele>259.0</ele><time>2026-03-29T15:49:59.981Z</time></trkpt><trkpt lat="45.047072330468474" lon="8.302195900458047"><ele>259.0</ele><time>2026-03-29T15:50:00.981Z</time></trkpt><trkpt lat="45.047125266357924" lon="8.301936671699227"><ele>259.0</ele><time>2026-03-29T15:50:01.981Z</time></trkpt><trkpt lat="45.04717768061014" lon="8.3016764182434"><ele>259.0</ele><time>2026-03-29T15:50:02.981Z</time></trkpt><trkpt lat="45.047226690008" lon="8.301426503119552"><ele>258.66666666666663</ele><time>2026-03-29T15:50:03.981Z</time></trkpt><trkpt lat="45.047270882532565" lon="8.301199877690538"><ele>258.3333333333333</ele><time>2026-03-29T15:50:04.981Z</time></trkpt><trkpt lat="45.04731500893183" lon="8.300992315453264"><ele>258.0</ele><time>2026-03-29T15:50:05.981Z</time></trkpt><trkpt lat="45.04735527417017" lon="8.300791681733244"><ele>258.0</ele><time>2026-03-29T15:50:06.981Z</time></trkpt><trkpt lat="45.04737986892795" lon="8.300592975764815"><ele>258.0</ele><time>2026-03-29T15:50:07.981Z</time></trkpt><trkpt lat="45.04738070503998" lon="8.300391172344606"><ele>258.0</ele><time>2026-03-29T15:50:08.981Z</time></trkpt><trkpt lat="45.04735440095277" lon="8.300189823481656"><ele>258.0</ele><time>2026-03-29T15:50:09.981Z</time></trkpt><trkpt lat="45.04729987629739" lon="8.299997425272025"><ele>259.0</ele><time>2026-03-29T15:50:10.981Z</time></trkpt><trkpt lat="45.04722083216006" lon="8.2998073777742"><ele>260.0</ele><time>2026-03-29T15:50:11.981Z</time></trkpt><trkpt lat="45.047124160600355" lon="8.299614189456838"><ele>261.0</ele><time>2026-03-29T15:50:12.981Z</time></trkpt><trkpt lat="45.04701910193437" lon="8.299417166750395"><ele>263.0</ele><time>2026-03-29T15:50:13.981Z</time></trkpt><trkpt lat="45.04690962615719" lon="8.299205809687107"><ele>265.0</ele><time>2026-03-29T15:50:14.981Z</time></trkpt><trkpt lat="45.04679691544499" lon="8.298988361960518"><ele>267.0</ele><time>2026-03-29T15:50:15.981Z</time></trkpt><trkpt lat="45.04668363958147" lon="8.29876793188219"><ele>272.0</ele><time>2026-03-29T15:50:16.981Z</time></trkpt><trkpt lat="45.046577273489206" lon="8.298542677316693"><ele>277.0</ele><time>2026-03-29T15:50:17.981Z</time></trkpt><trkpt lat="45.04648333558884" lon="8.298308058520995"><ele>282.0</ele><time>2026-03-29T15:50:18.981Z</time></trkpt><trkpt lat="45.046405356545634" lon="8.298059918357088"><ele>282.0</ele><time>2026-03-29T15:50:19.981Z</time></trkpt><trkpt lat="45.04633949350741" lon="8.297800980224467"><ele>282.0</ele><time>2026-03-29T15:50:20.981Z</time></trkpt><trkpt lat="45.04628153444514" lon="8.297535331755372"><ele>282.0</ele><time>2026-03-29T15:50:21.981Z</time></trkpt><trkpt lat="45.04622256304933" lon="8.29727073025275"><ele>280.3333333333333</ele><time>2026-03-29T15:50:22.981Z</time></trkpt><trkpt lat="45.04615933118787" lon="8.297013143281356"><ele>278.66666666666663</ele><time>2026-03-29T15:50:23.981Z</time></trkpt><trkpt lat="45.04609320249184" lon="8.296764268885378"><ele>277.0</ele><time>2026-03-29T15:50:24.981Z</time></trkpt><trkpt lat="45.046034867837434" lon="8.296519705198088"><ele>275.3333333333333</ele><time>2026-03-29T15:50:25.981Z</time></trkpt><trkpt lat="45.0459801057165" lon="8.29627854104388"><ele>273.6666666666667</ele><time>2026-03-29T15:50:26.981Z</time></trkpt><trkpt lat="45.045928407363974" lon="8.296047043247722"><ele>272.0</ele><time>2026-03-29T15:50:27.981Z</time></trkpt><trkpt lat="45.04587709953346" lon="8.295826107165817"><ele>272.0</ele><time>2026-03-29T15:50:28.981Z</time></trkpt><trkpt lat="45.04582504964695" lon="8.295613428703302"><ele>272.0</ele><time>2026-03-29T15:50:29.98Z</time></trkpt><trkpt lat="45.04577255539598" lon="8.295397311709893"><ele>272.0</ele><time>2026-03-29T15:50:30.98Z</time></trkpt><trkpt lat="45.045721493846834" lon="8.29516858198962"><ele>269.33333333333337</ele><time>2026-03-29T15:50:31.98Z</time></trkpt><trkpt lat="45.04566679422082" lon="8.294929536949804"><ele>266.6666666666667</ele><time>2026-03-29T15:50:32.98Z</time></trkpt><trkpt lat="45.04560793025349" lon="8.294680852821303"><ele>264.0</ele><time>2026-03-29T15:50:33.98Z</time></trkpt><trkpt lat="45.0455459119091" lon="8.29442925696415"><ele>264.0</ele><time>2026-03-29T15:50:34.98Z</time></trkpt><trkpt lat="45.045486209348034" lon="8.294183652384675"><ele>264.0</ele><time>2026-03-29T15:50:35.98Z</time></trkpt><trkpt lat="45.045425759399926" lon="8.293936913709457"><ele>264.0</ele><time>2026-03-29T15:50:36.98Z</time></trkpt><trkpt lat="45.045359472153216" lon="8.293685820319743"><ele>264.3333333333333</ele><time>2026-03-29T15:50:37.98Z</time></trkpt><trkpt lat="45.04529314550783" lon="8.293429659101909"><ele>264.66666666666663</ele><time>2026-03-29T15:50:38.98Z</time></trkpt><trkpt lat="45.045219732207734" lon="8.293173955601779"><ele>265.0</ele><time>2026-03-29T15:50:39.98Z</time></trkpt><trkpt lat="45.04514271899323" lon="8.292921548284921"><ele>266.3333333333333</ele><time>2026-03-29T15:50:40.98Z</time></trkpt><trkpt lat="45.04506657596765" lon="8.292667404059875"><ele>267.6666666666667</ele><time>2026-03-29T15:50:41.98Z</time></trkpt><trkpt lat="45.04499180858445" lon="8.292412428935265"><ele>269.0</ele><time>2026-03-29T15:50:42.98Z</time></trkpt><trkpt lat="45.04491541675244" lon="8.292155801437966"><ele>270.0</ele><time>2026-03-29T15:50:43.98Z</time></trkpt><trkpt lat="45.044841370454584" lon="8.29190435065046"><ele>271.0</ele><time>2026-03-29T15:50:44.98Z</time></trkpt><trkpt lat="45.044770914668746" lon="8.291661007473445"><ele>272.0</ele><time>2026-03-29T15:50:45.98Z</time></trkpt><trkpt lat="45.044710641678556" lon="8.291418986588694"><ele>274.0</ele><time>2026-03-29T15:50:46.98Z</time></trkpt><trkpt lat="45.04466218905173" lon="8.291179313945953"><ele>276.0</ele><time>2026-03-29T15:50:47.98Z</time></trkpt><trkpt lat="45.04462734654448" lon="8.290941814312456"><ele>278.0</ele><time>2026-03-29T15:50:48.98Z</time></trkpt><trkpt lat="45.044612773686005" lon="8.290706632216722"><ele>275.0</ele><time>2026-03-29T15:50:49.98Z</time></trkpt><trkpt lat="45.04462053666714" lon="8.290476233292845"><ele>272.0</ele><time>2026-03-29T15:50:50.98Z</time></trkpt><trkpt lat="45.04464806883838" lon="8.29024524607889"><ele>269.0</ele><time>2026-03-29T15:50:51.98Z</time></trkpt><trkpt lat="45.04468884164823" lon="8.290009901366828"><ele>269.0</ele><time>2026-03-29T15:50:52.98Z</time></trkpt><trkpt lat="45.04473723899194" lon="8.289770123426884"><ele>269.0</ele><time>2026-03-29T15:50:53.98Z</time></trkpt><trkpt lat="45.044783320733316" lon="8.289521743551585"><ele>269.0</ele><time>2026-03-29T15:50:54.98Z</time></trkpt><trkpt lat="45.04483028978455" lon="8.289266960088773"><ele>268.0</ele><time>2026-03-29T15:50:55.98Z</time></trkpt><trkpt lat="45.04487163068693" lon="8.289013029425591"><ele>267.0</ele><time>2026-03-29T15:50:56.98Z</time></trkpt><trkpt lat="45.04490561895045" lon="8.288765454724702"><ele>266.0</ele><time>2026-03-29T15:50:57.98Z</time></trkpt><trkpt lat="45.04493457592588" lon="8.288529459629455"><ele>267.6666666666667</ele><time>2026-03-29T15:50:58.98Z</time></trkpt><trkpt lat="45.04495607653397" lon="8.288306433556427"><ele>269.3333333333333</ele><time>2026-03-29T15:50:59.98Z</time></trkpt><trkpt lat="45.04496466415872" lon="8.288090358772983"><ele>271.0</ele><time>2026-03-29T15:51:00.98Z</time></trkpt><trkpt lat="45.04495720256539" lon="8.28788944828871"><ele>274.0</ele><time>2026-03-29T15:51:01.98Z</time></trkpt><trkpt lat="45.0449271256039" lon="8.287687190430443"><ele>277.0</ele><time>2026-03-29T15:51:02.98Z</time></trkpt><trkpt lat="45.04488251092165" lon="8.28752275751648"><ele>280.0</ele><time>2026-03-29T15:51:03.98Z</time></trkpt><trkpt lat="45.04482398275272" lon="8.287343485066424"><ele>283.0</ele><time>2026-03-29T15:51:04.98Z</time></trkpt><trkpt lat="45.04475249713818" lon="8.28716059516729"><ele>283.0</ele><time>2026-03-29T15:51:05.98Z</time></trkpt><trkpt lat="45.0446847347804" lon="8.286971766317984"><ele>283.0</ele><time>2026-03-29T15:51:06.98Z</time></trkpt><trkpt lat="45.04462562251147" lon="8.286780475169826"><ele>283.0</ele><time>2026-03-29T15:51:07.98Z</time></trkpt><trkpt lat="45.04457993381366" lon="8.286583566410123"><ele>283.0</ele><time>2026-03-29T15:51:08.98Z</time></trkpt><trkpt lat="45.04454669302498" lon="8.286385950799092"><ele>281.66666666666663</ele><time>2026-03-29T15:51:09.98Z</time></trkpt><trkpt lat="45.04453135281039" lon="8.286183781675858"><ele>280.3333333333333</ele><time>2026-03-29T15:51:10.98Z</time></trkpt><trkpt lat="45.04453151201191" lon="8.285965479357904"><ele>279.0</ele><time>2026-03-29T15:51:11.98Z</time></trkpt><trkpt lat="45.0445323204305" lon="8.285740410165044"><ele>278.6666666666667</ele><time>2026-03-29T15:51:12.98Z</time></trkpt><trkpt lat="45.0445355086478" lon="8.28551157546776"><ele>278.33333333333337</ele><time>2026-03-29T15:51:13.98Z</time></trkpt><trkpt lat="45.04453491734278" lon="8.285276951662697"><ele>278.0</ele><time>2026-03-29T15:51:14.98Z</time></trkpt><trkpt lat="45.04453772886674" lon="8.285037904361207"><ele>278.0</ele><time>2026-03-29T15:51:15.98Z</time></trkpt><trkpt lat="45.04453278828406" lon="8.284793847069094"><ele>278.0</ele><time>2026-03-29T15:51:16.98Z</time></trkpt><trkpt lat="45.0445294863461" lon="8.284546808438463"><ele>278.0</ele><time>2026-03-29T15:51:17.98Z</time></trkpt><trkpt lat="45.04452951042162" lon="8.28430303627584"><ele>277.6666666666667</ele><time>2026-03-29T15:51:18.98Z</time></trkpt><trkpt lat="45.044528940556035" lon="8.284056482830975"><ele>277.3333333333333</ele><time>2026-03-29T15:51:19.979Z</time></trkpt><trkpt lat="45.04453045311463" lon="8.2838141505989"><ele>277.0</ele><time>2026-03-29T15:51:20.979Z</time></trkpt><trkpt lat="45.04453500907317" lon="8.283580445499632"><ele>276.0</ele><time>2026-03-29T15:51:21.979Z</time></trkpt><trkpt lat="45.044541829673335" lon="8.283342007160854"><ele>275.0</ele><time>2026-03-29T15:51:22.979Z</time></trkpt><trkpt lat="45.04455591250082" lon="8.283096924413487"><ele>274.0</ele><time>2026-03-29T15:51:23.979Z</time></trkpt><trkpt lat="45.04457509991694" lon="8.282844763691307"><ele>274.0</ele><time>2026-03-29T15:51:24.979Z</time></trkpt><trkpt lat="45.044591509360956" lon="8.282594782617894"><ele>274.0</ele><time>2026-03-29T15:51:25.979Z</time></trkpt><trkpt lat="45.04459254908377" lon="8.282344329089197"><ele>274.0</ele><time>2026-03-29T15:51:26.979Z</time></trkpt><trkpt lat="45.0445720464657" lon="8.282097279665845"><ele>276.0</ele><time>2026-03-29T15:51:27.979Z</time></trkpt><trkpt lat="45.04453791548477" lon="8.28185563609115"><ele>278.0</ele><time>2026-03-29T15:51:28.979Z</time></trkpt><trkpt lat="45.044507143704735" lon="8.28163587551166"><ele>280.0</ele><time>2026-03-29T15:51:29.979Z</time></trkpt><trkpt lat="45.0444863920382" lon="8.28144439342812"><ele>282.5</ele><time>2026-03-29T15:51:30.979Z</time></trkpt><trkpt lat="45.044487068362756" lon="8.281265378073208"><ele>285.0</ele><time>2026-03-29T15:51:31.979Z</time></trkpt><trkpt lat="45.04451168287761" lon="8.281089849279411"><ele>287.5</ele><time>2026-03-29T15:51:32.979Z</time></trkpt><trkpt lat="45.044563643567656" lon="8.280915492196648"><ele>290.0</ele><time>2026-03-29T15:51:33.979Z</time></trkpt><trkpt lat="45.044638006339625" lon="8.280742898183117"><ele>287.33333333333337</ele><time>2026-03-29T15:51:34.979Z</time></trkpt><trkpt lat="45.04473253453124" lon="8.280567966742357"><ele>284.6666666666667</ele><time>2026-03-29T15:51:35.979Z</time></trkpt><trkpt lat="45.04484617411003" lon="8.280389450204112"><ele>282.0</ele><time>2026-03-29T15:51:36.979Z</time></trkpt><trkpt lat="45.04496300188963" lon="8.280195131801316"><ele>282.0</ele><time>2026-03-29T15:51:37.979Z</time></trkpt><trkpt lat="45.045084992826446" lon="8.280005070620616"><ele>282.0</ele><time>2026-03-29T15:51:38.979Z</time></trkpt><trkpt lat="45.04519678953186" lon="8.27982695977945"><ele>282.0</ele><time>2026-03-29T15:51:39.979Z</time></trkpt><trkpt lat="45.04528875208576" lon="8.279653891979773"><ele>280.0</ele><time>2026-03-29T15:51:40.979Z</time></trkpt><trkpt lat="45.045351787834896" lon="8.27948504693022"><ele>278.0</ele><time>2026-03-29T15:51:41.979Z</time></trkpt><trkpt lat="45.04537069944334" lon="8.279300867654145"><ele>276.0</ele><time>2026-03-29T15:51:42.979Z</time></trkpt><trkpt lat="45.0453255335466" lon="8.27909223140039"><ele>274.0</ele><time>2026-03-29T15:51:43.979Z</time></trkpt><trkpt lat="45.04525137357315" lon="8.278875787053469"><ele>274.0</ele><time>2026-03-29T15:51:44.979Z</time></trkpt><trkpt lat="45.04517202779336" lon="8.278642306982984"><ele>274.0</ele><time>2026-03-29T15:51:45.979Z</time></trkpt><trkpt lat="45.0450939888119" lon="8.278398063509822"><ele>274.0</ele><time>2026-03-29T15:51:46.979Z</time></trkpt><trkpt lat="45.04501157795063" lon="8.278146820224988"><ele>271.3333333333333</ele><time>2026-03-29T15:51:47.979Z</time></trkpt><trkpt lat="45.04492885980879" lon="8.277897965627291"><ele>268.6666666666667</ele><time>2026-03-29T15:51:48.979Z</time></trkpt><trkpt lat="45.04484682306814" lon="8.277669158669758"><ele>266.0</ele><time>2026-03-29T15:51:49.979Z</time></trkpt><trkpt lat="45.0447626739754" lon="8.277453910837856"><ele>268.6666666666667</ele><time>2026-03-29T15:51:50.979Z</time></trkpt><trkpt lat="45.04467598329714" lon="8.277233866166874"><ele>271.3333333333333</ele><time>2026-03-29T15:51:51.979Z</time></trkpt><trkpt lat="45.044587871960125" lon="8.277010313020334"><ele>274.0</ele><time>2026-03-29T15:51:52.979Z</time></trkpt><trkpt lat="45.044497382564195" lon="8.276783512570049"><ele>274.0</ele><time>2026-03-29T15:51:53.979Z</time></trkpt><trkpt lat="45.04440561937988" lon="8.276558343979099"><ele>274.0</ele><time>2026-03-29T15:51:54.979Z</time></trkpt><trkpt lat="45.04431251541305" lon="8.2763428162684"><ele>274.0</ele><time>2026-03-29T15:51:55.979Z</time></trkpt><trkpt lat="45.044228264685735" lon="8.276138073123635"><ele>274.0</ele><time>2026-03-29T15:51:56.979Z</time></trkpt><trkpt lat="45.044154814637" lon="8.275947887271665"><ele>274.0</ele><time>2026-03-29T15:51:57.979Z</time></trkpt><trkpt lat="45.044091593524314" lon="8.275774072573972"><ele>274.0</ele><time>2026-03-29T15:51:58.979Z</time></trkpt><trkpt lat="45.044047923655" lon="8.275613045268383"><ele>274.0</ele><time>2026-03-29T15:51:59.979Z</time></trkpt><trkpt lat="45.04402274844325" lon="8.275450786587061"><ele>275.25</ele><time>2026-03-29T15:52:00.979Z</time></trkpt><trkpt lat="45.04402441420979" lon="8.275282109845968"><ele>276.5</ele><time>2026-03-29T15:52:01.979Z</time></trkpt><trkpt lat="45.04404833947367" lon="8.275112644470777"><ele>277.75</ele><time>2026-03-29T15:52:02.979Z</time></trkpt><trkpt lat="45.04408424664538" lon="8.274945614004315"><ele>279.0</ele><time>2026-03-29T15:52:03.979Z</time></trkpt><trkpt lat="45.04413795220959" lon="8.274764921419658"><ele>279.0</ele><time>2026-03-29T15:52:04.979Z</time></trkpt><trkpt lat="45.04419922322662" lon="8.274578178813464"><ele>279.0</ele><time>2026-03-29T15:52:05.979Z</time></trkpt><trkpt lat="45.04426909419715" lon="8.274385099197437"><ele>279.0</ele><time>2026-03-29T15:52:06.979Z</time></trkpt><trkpt lat="45.0443195691096" lon="8.274174691786506"><ele>279.0</ele><time>2026-03-29T15:52:07.979Z</time></trkpt><trkpt lat="45.04436835270675" lon="8.273953853686654"><ele>279.0</ele><time>2026-03-29T15:52:08.978Z</time></trkpt><trkpt lat="45.04441411311671" lon="8.273730220089828"><ele>279.0</ele><time>2026-03-29T15:52:09.978Z</time></trkpt><trkpt lat="45.04445787673174" lon="8.273514243699344"><ele>277.25</ele><time>2026-03-29T15:52:10.978Z</time></trkpt><trkpt lat="45.04448035588994" lon="8.273304736575067"><ele>275.5</ele><time>2026-03-29T15:52:11.978Z</time></trkpt><trkpt lat="45.044487837000965" lon="8.273106089291156"><ele>273.75</ele><time>2026-03-29T15:52:12.978Z</time></trkpt><trkpt lat="45.04447067402629" lon="8.272893031559144"><ele>272.0</ele><time>2026-03-29T15:52:13.978Z</time></trkpt><trkpt lat="45.04443780222181" lon="8.27267814587935"><ele>269.0</ele><time>2026-03-29T15:52:14.978Z</time></trkpt><trkpt lat="45.04439447695308" lon="8.272460267994639"><ele>266.0</ele><time>2026-03-29T15:52:15.978Z</time></trkpt><trkpt lat="45.044353844459394" lon="8.272237297797831"><ele>263.0</ele><time>2026-03-29T15:52:16.978Z</time></trkpt><trkpt lat="45.04431616544488" lon="8.272021076425105"><ele>262.5</ele><time>2026-03-29T15:52:17.978Z</time></trkpt><trkpt lat="45.04427645467153" lon="8.271809897194574"><ele>262.0</ele><time>2026-03-29T15:52:18.978Z</time></trkpt><trkpt lat="45.04424813947423" lon="8.271610740159907"><ele>261.5</ele><time>2026-03-29T15:52:19.978Z</time></trkpt><trkpt lat="45.04424561860859" lon="8.271420734440953"><ele>261.0</ele><time>2026-03-29T15:52:20.978Z</time></trkpt><trkpt lat="45.04426177828755" lon="8.271234277434287"><ele>259.75</ele><time>2026-03-29T15:52:21.978Z</time></trkpt><trkpt lat="45.04429141245201" lon="8.271048442398648"><ele>258.5</ele><time>2026-03-29T15:52:22.978Z</time></trkpt><trkpt lat="45.044337988573005" lon="8.270862545295033"><ele>257.25</ele><time>2026-03-29T15:52:23.978Z</time></trkpt><trkpt lat="45.04439715679146" lon="8.270675464377012"><ele>256.0</ele><time>2026-03-29T15:52:24.978Z</time></trkpt><trkpt lat="45.04447179931891" lon="8.270499796658761"><ele>255.0</ele><time>2026-03-29T15:52:25.978Z</time></trkpt><trkpt lat="45.04455428158543" lon="8.270328164783724"><ele>254.0</ele><time>2026-03-29T15:52:26.978Z</time></trkpt><trkpt lat="45.04463552402152" lon="8.270159035874057"><ele>253.0</ele><time>2026-03-29T15:52:27.978Z</time></trkpt><trkpt lat="45.044697900621834" lon="8.269999451441759"><ele>252.0</ele><time>2026-03-29T15:52:28.978Z</time></trkpt><trkpt lat="45.0447489027436" lon="8.269865793456638"><ele>251.39999999999998</ele><time>2026-03-29T15:52:29.978Z</time></trkpt><trkpt lat="45.04479875233192" lon="8.26974677870079"><ele>250.79999999999998</ele><time>2026-03-29T15:52:30.978Z</time></trkpt><trkpt lat="45.04484427459275" lon="8.269652925547705"><ele>250.2</ele><time>2026-03-29T15:52:31.978Z</time></trkpt><trkpt lat="45.044877179345505" lon="8.269572755058194"><ele>249.6</ele><time>2026-03-29T15:52:32.978Z</time></trkpt><trkpt lat="45.04493235061362" lon="8.269449084994802"><ele>249.0</ele><time>2026-03-29T15:52:34.978Z</time></trkpt><trkpt lat="45.045019955582674" lon="8.269345845166715"><ele>249.83333333333334</ele><time>2026-03-29T15:52:36.978Z</time></trkpt><trkpt lat="45.04507664276469" lon="8.269297755569298"><ele>250.66666666666669</ele><time>2026-03-29T15:52:37.978Z</time></trkpt><trkpt lat="45.0451362300782" lon="8.269235943919657"><ele>251.5</ele><time>2026-03-29T15:52:38.978Z</time></trkpt><trkpt lat="45.04519845691543" lon="8.269160416797243"><ele>252.33333333333334</ele><time>2026-03-29T15:52:39.978Z</time></trkpt><trkpt lat="45.04526579425693" lon="8.26908530029825"><ele>253.16666666666669</ele><time>2026-03-29T15:52:40.978Z</time></trkpt><trkpt lat="45.04533963217466" lon="8.26900678577919"><ele>254.0</ele><time>2026-03-29T15:52:41.978Z</time></trkpt><trkpt lat="45.045416756897716" lon="8.268918022201268"><ele>254.0</ele><time>2026-03-29T15:52:42.978Z</time></trkpt><trkpt lat="45.045499309077634" lon="8.26882732911929"><ele>254.0</ele><time>2026-03-29T15:52:43.978Z</time></trkpt><trkpt lat="45.045587673181885" lon="8.268736418748126"><ele>254.0</ele><time>2026-03-29T15:52:44.978Z</time></trkpt><trkpt lat="45.04568138977217" lon="8.26864220346966"><ele>254.0</ele><time>2026-03-29T15:52:45.978Z</time></trkpt><trkpt lat="45.045779870992796" lon="8.268538400096524"><ele>255.25</ele><time>2026-03-29T15:52:46.978Z</time></trkpt><trkpt lat="45.04588336252027" lon="8.268433460549382"><ele>256.5</ele><time>2026-03-29T15:52:47.978Z</time></trkpt><trkpt lat="45.04598896668605" lon="8.268325974220561"><ele>257.75</ele><time>2026-03-29T15:52:48.978Z</time></trkpt><trkpt lat="45.04609697588933" lon="8.268216522609038"><ele>259.0</ele><time>2026-03-29T15:52:49.978Z</time></trkpt><trkpt lat="45.0462050765255" lon="8.268109023252569"><ele>259.0</ele><time>2026-03-29T15:52:50.978Z</time></trkpt><trkpt lat="45.046311718701325" lon="8.267999066338135"><ele>259.0</ele><time>2026-03-29T15:52:51.978Z</time></trkpt><trkpt lat="45.046422468037306" lon="8.26789726438411"><ele>259.0</ele><time>2026-03-29T15:52:52.978Z</time></trkpt><trkpt lat="45.04653065122783" lon="8.267790986969512"><ele>259.0</ele><time>2026-03-29T15:52:53.978Z</time></trkpt><trkpt lat="45.04663919969966" lon="8.267683818165981"><ele>260.25</ele><time>2026-03-29T15:52:54.978Z</time></trkpt><trkpt lat="45.046743651852864" lon="8.267573801201408"><ele>261.5</ele><time>2026-03-29T15:52:55.978Z</time></trkpt><trkpt lat="45.04684903775954" lon="8.267471359625798"><ele>262.75</ele><time>2026-03-29T15:52:56.978Z</time></trkpt><trkpt lat="45.04694635839278" lon="8.26736993715906"><ele>264.0</ele><time>2026-03-29T15:52:57.977Z</time></trkpt><trkpt lat="45.04704076292399" lon="8.267274448043299"><ele>264.0</ele><time>2026-03-29T15:52:58.977Z</time></trkpt><trkpt lat="45.047126403879254" lon="8.267193013852065"><ele>264.0</ele><time>2026-03-29T15:52:59.977Z</time></trkpt><trkpt lat="45.04720245260206" lon="8.267133309104892"><ele>264.0</ele><time>2026-03-29T15:53:00.977Z</time></trkpt><trkpt lat="45.04726279973818" lon="8.267080912570368"><ele>264.0</ele><time>2026-03-29T15:53:01.977Z</time></trkpt><trkpt lat="45.04736427017975" lon="8.266975096235944"><ele>264.0</ele><time>2026-03-29T15:53:03.977Z</time></trkpt><trkpt lat="45.04741775455823" lon="8.26690363708975"><ele>266.8</ele><time>2026-03-29T15:53:04.977Z</time></trkpt><trkpt lat="45.04748395094278" lon="8.266828580087187"><ele>269.59999999999997</ele><time>2026-03-29T15:53:05.977Z</time></trkpt><trkpt lat="45.047556238933986" lon="8.266746736840915"><ele>272.4</ele><time>2026-03-29T15:53:06.977Z</time></trkpt><trkpt lat="45.04763518308889" lon="8.266656559313288"><ele>275.2</ele><time>2026-03-29T15:53:07.977Z</time></trkpt><trkpt lat="45.04772632012372" lon="8.266572035591732"><ele>278.0</ele><time>2026-03-29T15:53:08.977Z</time></trkpt><trkpt lat="45.0478268890979" lon="8.266482638604309"><ele>277.25</ele><time>2026-03-29T15:53:09.977Z</time></trkpt><trkpt lat="45.04792947178731" lon="8.26639102419464"><ele>276.5</ele><time>2026-03-29T15:53:10.977Z</time></trkpt><trkpt lat="45.04802319969043" lon="8.26629742567269"><ele>275.75</ele><time>2026-03-29T15:53:11.977Z</time></trkpt><trkpt lat="45.04811576626503" lon="8.266203356236275"><ele>275.0</ele><time>2026-03-29T15:53:12.977Z</time></trkpt><trkpt lat="45.0482126989647" lon="8.266112825055654"><ele>278.25</ele><time>2026-03-29T15:53:13.977Z</time></trkpt><trkpt lat="45.048311735438354" lon="8.26601325454209"><ele>281.5</ele><time>2026-03-29T15:53:14.977Z</time></trkpt><trkpt lat="45.04840663035651" lon="8.26590191285347"><ele>284.75</ele><time>2026-03-29T15:53:15.977Z</time></trkpt><trkpt lat="45.04850041880402" lon="8.265801488134679"><ele>288.0</ele><time>2026-03-29T15:53:16.977Z</time></trkpt><trkpt lat="45.04859954076823" lon="8.265712112881237"><ele>288.0</ele><time>2026-03-29T15:53:17.977Z</time></trkpt><trkpt lat="45.04869627579992" lon="8.265628573292926"><ele>288.0</ele><time>2026-03-29T15:53:18.977Z</time></trkpt><trkpt lat="45.048796983551135" lon="8.26556074342991"><ele>288.0</ele><time>2026-03-29T15:53:19.977Z</time></trkpt><trkpt lat="45.048893915353275" lon="8.265507784999244"><ele>288.0</ele><time>2026-03-29T15:53:20.977Z</time></trkpt><trkpt lat="45.04898985234599" lon="8.265469256556646"><ele>288.0</ele><time>2026-03-29T15:53:21.977Z</time></trkpt><trkpt lat="45.04908594036183" lon="8.265469237220183"><ele>287.4</ele><time>2026-03-29T15:53:22.977Z</time></trkpt><trkpt lat="45.04917186292436" lon="8.265489213450138"><ele>286.8</ele><time>2026-03-29T15:53:23.977Z</time></trkpt><trkpt lat="45.04924956603971" lon="8.265535440065294"><ele>286.2</ele><time>2026-03-29T15:53:24.977Z</time></trkpt><trkpt lat="45.04932906922681" lon="8.265601959910848"><ele>285.6</ele><time>2026-03-29T15:53:25.977Z</time></trkpt><trkpt lat="45.0494044628222" lon="8.265684000628998"><ele>285.0</ele><time>2026-03-29T15:53:26.977Z</time></trkpt><trkpt lat="45.04947780987482" lon="8.265773958757578"><ele>287.0</ele><time>2026-03-29T15:53:27.977Z</time></trkpt><trkpt lat="45.04954132343618" lon="8.265854684271986"><ele>289.0</ele><time>2026-03-29T15:53:28.977Z</time></trkpt><trkpt lat="45.04958704170039" lon="8.265954198053"><ele>291.0</ele><time>2026-03-29T15:53:29.977Z</time></trkpt><trkpt lat="45.04962401483308" lon="8.26605593187001"><ele>293.0</ele><time>2026-03-29T15:53:30.977Z</time></trkpt><trkpt lat="45.049647058656426" lon="8.266162589688907"><ele>295.0</ele><time>2026-03-29T15:53:31.977Z</time></trkpt><trkpt lat="45.04967451986059" lon="8.266252974655409"><ele>297.0</ele><time>2026-03-29T15:53:32.977Z</time></trkpt><trkpt lat="45.04970711766211" lon="8.266332747973339"><ele>297.0</ele><time>2026-03-29T15:53:33.977Z</time></trkpt><trkpt lat="45.04975857037916" lon="8.266403201328478"><ele>297.0</ele><time>2026-03-29T15:53:34.977Z</time></trkpt><trkpt lat="45.049822317171845" lon="8.266432605499057"><ele>297.0</ele><time>2026-03-29T15:53:35.977Z</time></trkpt><trkpt lat="45.049883363533745" lon="8.266467964359752"><ele>297.0</ele><time>2026-03-29T15:53:36.977Z</time></trkpt><trkpt lat="45.049944305066326" lon="8.266531128048133"><ele>297.0</ele><time>2026-03-29T15:53:37.977Z</time></trkpt><trkpt lat="45.05001225104824" lon="8.266570524147834"><ele>297.0</ele><time>2026-03-29T15:53:38.977Z</time></trkpt><trkpt lat="45.05012515458405" lon="8.266610694641653"><ele>296.6666666666667</ele><time>2026-03-29T15:53:40.977Z</time></trkpt><trkpt lat="45.05020186769577" lon="8.266611298132435"><ele>296.3333333333333</ele><time>2026-03-29T15:53:41.977Z</time></trkpt><trkpt lat="45.05026361981581" lon="8.266665324205444"><ele>296.0</ele><time>2026-03-29T15:53:42.977Z</time></trkpt><trkpt lat="45.05036133336343" lon="8.266738792023881"><ele>295.66666666666663</ele><time>2026-03-29T15:53:44.977Z</time></trkpt><trkpt lat="45.05044044878827" lon="8.266796284344899"><ele>295.3333333333333</ele><time>2026-03-29T15:53:46.977Z</time></trkpt><trkpt lat="45.05051396931203" lon="8.266814471842006"><ele>295.0</ele><time>2026-03-29T15:53:48.976Z</time></trkpt><trkpt lat="45.050615403968386" lon="8.266897678847513"><ele>295.0</ele><time>2026-03-29T15:53:50.976Z</time></trkpt><trkpt lat="45.05067495737115" lon="8.266952025751849"><ele>295.0</ele><time>2026-03-29T15:53:51.976Z</time></trkpt><trkpt lat="45.05074565054032" lon="8.267001603934157"><ele>295.0</ele><time>2026-03-29T15:53:52.976Z</time></trkpt><trkpt lat="45.05082268244498" lon="8.267048418757273"><ele>295.0</ele><time>2026-03-29T15:53:53.976Z</time></trkpt><trkpt lat="45.05089266798525" lon="8.267083983727618"><ele>295.0</ele><time>2026-03-29T15:53:54.976Z</time></trkpt><trkpt lat="45.05095698401811" lon="8.267098494089057"><ele>295.0</ele><time>2026-03-29T15:53:55.976Z</time></trkpt><trkpt lat="45.05103367179178" lon="8.267111787824781"><ele>296.66666666666663</ele><time>2026-03-29T15:53:56.976Z</time></trkpt><trkpt lat="45.05111268975002" lon="8.267102327656271"><ele>298.3333333333333</ele><time>2026-03-29T15:53:57.976Z</time></trkpt><trkpt lat="45.0511948464342" lon="8.267093509399407"><ele>300.0</ele><time>2026-03-29T15:53:58.976Z</time></trkpt><trkpt lat="45.05128020543615" lon="8.267084093299035"><ele>301.6666666666667</ele><time>2026-03-29T15:53:59.976Z</time></trkpt><trkpt lat="45.051362469124996" lon="8.26708020328989"><ele>303.33333333333337</ele><time>2026-03-29T15:54:00.976Z</time></trkpt><trkpt lat="45.051432954552936" lon="8.267083712463945"><ele>305.0</ele><time>2026-03-29T15:54:01.976Z</time></trkpt><trkpt lat="45.05154488642215" lon="8.267069122830685"><ele>305.0</ele><time>2026-03-29T15:54:03.976Z</time></trkpt><trkpt lat="45.05159790004422" lon="8.266997254433283"><ele>305.0</ele><time>2026-03-29T15:54:05.976Z</time></trkpt><trkpt lat="45.051584893022685" lon="8.266892000060787"><ele>305.0</ele><time>2026-03-29T15:54:07.976Z</time></trkpt><trkpt lat="45.05149065292874" lon="8.26682303973348"><ele>305.0</ele><time>2026-03-29T15:54:09.976Z</time></trkpt><trkpt lat="45.05138996302534" lon="8.266744280689638"><ele>305.0</ele><time>2026-03-29T15:54:11.976Z</time></trkpt><trkpt lat="45.05132551327156" lon="8.266709505655323"><ele>305.0</ele><time>2026-03-29T15:54:12.976Z</time></trkpt><trkpt lat="45.0512632535154" lon="8.266649074734628"><ele>305.0</ele><time>2026-03-29T15:54:13.976Z</time></trkpt><trkpt lat="45.05120466017035" lon="8.266571513088065"><ele>305.0</ele><time>2026-03-29T15:54:14.976Z</time></trkpt><trkpt lat="45.05115136163251" lon="8.266520708665734"><ele>305.0</ele><time>2026-03-29T15:54:15.976Z</time></trkpt><trkpt lat="45.05108220578565" lon="8.266435135018176"><ele>305.0</ele><time>2026-03-29T15:54:17.976Z</time></trkpt><trkpt lat="45.05108915637674" lon="8.266343903131695"><ele>305.0</ele><time>2026-03-29T15:54:19.976Z</time></trkpt><trkpt lat="45.05115243826382" lon="8.266250846501892"><ele>305.0</ele><time>2026-03-29T15:54:21.976Z</time></trkpt><trkpt lat="45.05124471374374" lon="8.266236439150951"><ele>306.8</ele><time>2026-03-29T15:54:23.976Z</time></trkpt><trkpt lat="45.05133615585688" lon="8.266169505276773"><ele>308.6</ele><time>2026-03-29T15:54:25.976Z</time></trkpt><trkpt lat="45.05137301718159" lon="8.266038110306132"><ele>310.4</ele><time>2026-03-29T15:54:27.976Z</time></trkpt><trkpt lat="45.05136449059648" lon="8.265922451418687"><ele>312.2</ele><time>2026-03-29T15:54:29.976Z</time></trkpt><trkpt lat="45.05137432275298" lon="8.265800851740002"><ele>314.0</ele><time>2026-03-29T15:54:31.976Z</time></trkpt><trkpt lat="45.051377090593384" lon="8.265679905887222"><ele>314.1666666666667</ele><time>2026-03-29T15:54:33.976Z</time></trkpt><trkpt lat="45.05138094954742" lon="8.26557877674885"><ele>314.33333333333337</ele><time>2026-03-29T15:54:35.976Z</time></trkpt><trkpt lat="45.05139073779077" lon="8.265483774388457"><ele>314.5</ele><time>2026-03-29T15:54:38.975Z</time></trkpt><trkpt lat="45.05132463521308" lon="8.265445442640122"><ele>314.6666666666667</ele><time>2026-03-29T15:54:49.975Z</time></trkpt><trkpt lat="45.05124398948055" lon="8.265476581401511"><ele>314.8333333333333</ele><time>2026-03-29T15:57:45.994Z</time></trkpt><trkpt lat="45.051157088144684" lon="8.265419822859862"><ele>315.0</ele><time>2026-03-29T15:58:12.994Z</time></trkpt><trkpt lat="45.0511259997955" lon="8.265332957702874"><ele>315.0</ele><time>2026-03-29T15:58:16.994Z</time></trkpt><trkpt lat="45.05106418178785" lon="8.265379774991375"><ele>315.0</ele><time>2026-03-29T15:58:23.994Z</time></trkpt><trkpt lat="45.05103889823187" lon="8.26547318896047"><ele>315.0</ele><time>2026-03-29T15:58:25.994Z</time></trkpt><trkpt lat="45.0510357762104" lon="8.265574624197454"><ele>315.0</ele><time>2026-03-29T15:58:27.994Z</time></trkpt><trkpt lat="45.051041066273044" lon="8.265664951059598"><ele>315.0</ele><time>2026-03-29T15:58:29.994Z</time></trkpt><trkpt lat="45.05104759245001" lon="8.265771786757979"><ele>315.0</ele><time>2026-03-29T15:58:31.994Z</time></trkpt><trkpt lat="45.05104784235977" lon="8.265882292880582"><ele>315.0</ele><time>2026-03-29T15:58:33.994Z</time></trkpt><trkpt lat="45.0510408955685" lon="8.266009723723101"><ele>314.8333333333333</ele><time>2026-03-29T15:58:35.994Z</time></trkpt><trkpt lat="45.05102790956218" lon="8.26614204655131"><ele>314.6666666666667</ele><time>2026-03-29T15:58:37.994Z</time></trkpt><trkpt lat="45.05105195600055" lon="8.26623253993164"><ele>314.5</ele><time>2026-03-29T15:58:39.994Z</time></trkpt><trkpt lat="45.05111075729092" lon="8.266267613952945"><ele>314.33333333333337</ele><time>2026-03-29T15:58:41.994Z</time></trkpt><trkpt lat="45.05118210064955" lon="8.266243258004867"><ele>314.1666666666667</ele><time>2026-03-29T15:58:43.994Z</time></trkpt><trkpt lat="45.05127103196999" lon="8.266205806042171"><ele>314.0</ele><time>2026-03-29T15:58:45.994Z</time></trkpt><trkpt lat="45.05133769841594" lon="8.266165237617601"><ele>314.0</ele><time>2026-03-29T15:58:46.994Z</time></trkpt><trkpt lat="45.05142648597394" lon="8.266087240239838"><ele>314.0</ele><time>2026-03-29T15:58:48.993Z</time></trkpt><trkpt lat="45.05149259591803" lon="8.266000014078358"><ele>314.0</ele><time>2026-03-29T15:58:50.993Z</time></trkpt><trkpt lat="45.05154660629613" lon="8.265911484254525"><ele>314.0</ele><time>2026-03-29T15:58:52.993Z</time></trkpt><trkpt lat="45.051565727990926" lon="8.265789482381269"><ele>314.0</ele><time>2026-03-29T15:58:54.993Z</time></trkpt><trkpt lat="45.051549932122725" lon="8.265639095379736"><ele>314.2</ele><time>2026-03-29T15:58:56.993Z</time></trkpt><trkpt lat="45.05153926111732" lon="8.265544464279081"><ele>314.4</ele><time>2026-03-29T15:58:57.993Z</time></trkpt><trkpt lat="45.051528287720295" lon="8.265370220286242"><ele>314.6</ele><time>2026-03-29T15:58:59.993Z</time></trkpt><trkpt lat="45.05153680537929" lon="8.265280854644606"><ele>314.8</ele><time>2026-03-29T15:59:00.993Z</time></trkpt><trkpt lat="45.05153964044975" lon="8.265104509430351"><ele>315.0</ele><time>2026-03-29T15:59:02.993Z</time></trkpt><trkpt lat="45.05154127870638" lon="8.265001521010815"><ele>315.0</ele><time>2026-03-29T15:59:03.993Z</time></trkpt><trkpt lat="45.05154924190286" lon="8.264902214354693"><ele>315.0</ele><time>2026-03-29T15:59:04.993Z</time></trkpt><trkpt lat="45.05152823654781" lon="8.26480848536555"><ele>315.0</ele><time>2026-03-29T15:59:05.993Z</time></trkpt><trkpt lat="45.05154272987058" lon="8.264716966444867"><ele>315.0</ele><time>2026-03-29T15:59:06.993Z</time></trkpt><trkpt lat="45.05155799266732" lon="8.264599806420975"><ele>315.0</ele><time>2026-03-29T15:59:07.993Z</time></trkpt><trkpt lat="45.05156993479773" lon="8.264452131998494"><ele>315.0</ele><time>2026-03-29T15:59:08.993Z</time></trkpt><trkpt lat="45.05159168053684" lon="8.264319526934205"><ele>313.8</ele><time>2026-03-29T15:59:09.993Z</time></trkpt><trkpt lat="45.05162131555693" lon="8.26420064282783"><ele>312.6</ele><time>2026-03-29T15:59:10.993Z</time></trkpt><trkpt lat="45.051646054542374" lon="8.264075969749694"><ele>311.4</ele><time>2026-03-29T15:59:11.993Z</time></trkpt><trkpt lat="45.05167425376882" lon="8.263948634984118"><ele>310.2</ele><time>2026-03-29T15:59:12.993Z</time></trkpt><trkpt lat="45.05169746009929" lon="8.263819516333104"><ele>309.0</ele><time>2026-03-29T15:59:13.993Z</time></trkpt><trkpt lat="45.05171944053003" lon="8.26369164929901"><ele>308.6666666666667</ele><time>2026-03-29T15:59:14.993Z</time></trkpt><trkpt lat="45.051737284061" lon="8.263565481889197"><ele>308.3333333333333</ele><time>2026-03-29T15:59:15.993Z</time></trkpt><trkpt lat="45.051763491924355" lon="8.263445649264517"><ele>308.0</ele><time>2026-03-29T15:59:16.993Z</time></trkpt><trkpt lat="45.05177868875036" lon="8.263324613711923"><ele>307.66666666666663</ele><time>2026-03-29T15:59:17.993Z</time></trkpt><trkpt lat="45.05179517660284" lon="8.263202030727475"><ele>307.3333333333333</ele><time>2026-03-29T15:59:18.993Z</time></trkpt><trkpt lat="45.05183354569706" lon="8.263081862663674"><ele>307.0</ele><time>2026-03-29T15:59:19.993Z</time></trkpt><trkpt lat="45.051861959012484" lon="8.262949085974224"><ele>307.0</ele><time>2026-03-29T15:59:20.993Z</time></trkpt><trkpt lat="45.05188980191401" lon="8.262813136686749"><ele>307.0</ele><time>2026-03-29T15:59:21.993Z</time></trkpt><trkpt lat="45.05191698427463" lon="8.262667631136038"><ele>307.0</ele><time>2026-03-29T15:59:22.993Z</time></trkpt><trkpt lat="45.05195793186792" lon="8.26253697038882"><ele>307.0</ele><time>2026-03-29T15:59:23.993Z</time></trkpt><trkpt lat="45.0519985263903" lon="8.26240195841675"><ele>307.0</ele><time>2026-03-29T15:59:24.993Z</time></trkpt><trkpt lat="45.05203495922816" lon="8.262263168101638"><ele>306.6</ele><time>2026-03-29T15:59:25.993Z</time></trkpt><trkpt lat="45.052074851549065" lon="8.262129835656678"><ele>306.2</ele><time>2026-03-29T15:59:26.993Z</time></trkpt><trkpt lat="45.05210867844317" lon="8.261992425511046"><ele>305.8</ele><time>2026-03-29T15:59:27.993Z</time></trkpt><trkpt lat="45.05214761069118" lon="8.261864462741277"><ele>305.4</ele><time>2026-03-29T15:59:28.993Z</time></trkpt><trkpt lat="45.05219230902069" lon="8.261736420868065"><ele>305.0</ele><time>2026-03-29T15:59:29.993Z</time></trkpt><trkpt lat="45.05223449929687" lon="8.261603281084149"><ele>305.0</ele><time>2026-03-29T15:59:30.993Z</time></trkpt><trkpt lat="45.052275804669144" lon="8.261457897101144"><ele>305.0</ele><time>2026-03-29T15:59:31.993Z</time></trkpt><trkpt lat="45.052324216747984" lon="8.261304772767518"><ele>305.0</ele><time>2026-03-29T15:59:32.993Z</time></trkpt><trkpt lat="45.0523727569635" lon="8.261143508975902"><ele>305.0</ele><time>2026-03-29T15:59:33.993Z</time></trkpt><trkpt lat="45.05242582339101" lon="8.260977458286613"><ele>305.25</ele><time>2026-03-29T15:59:34.993Z</time></trkpt><trkpt lat="45.05247662332784" lon="8.260810489983712"><ele>305.5</ele><time>2026-03-29T15:59:35.993Z</time></trkpt><trkpt lat="45.052535998687304" lon="8.260648019509572"><ele>305.75</ele><time>2026-03-29T15:59:36.993Z</time></trkpt><trkpt lat="45.05258387385249" lon="8.260486584242047"><ele>306.0</ele><time>2026-03-29T15:59:37.993Z</time></trkpt><trkpt lat="45.0526330775591" lon="8.260333026313203"><ele>306.0</ele><time>2026-03-29T15:59:38.992Z</time></trkpt><trkpt lat="45.05267877730176" lon="8.26019023906397"><ele>306.0</ele><time>2026-03-29T15:59:39.992Z</time></trkpt><trkpt lat="45.05272408148814" lon="8.260060048217177"><ele>306.0</ele><time>2026-03-29T15:59:40.992Z</time></trkpt><trkpt lat="45.052767738470415" lon="8.259945339636861"><ele>306.0</ele><time>2026-03-29T15:59:41.992Z</time></trkpt><trkpt lat="45.05280868139784" lon="8.259832873540988"><ele>306.0</ele><time>2026-03-29T15:59:42.992Z</time></trkpt><trkpt lat="45.05285609638707" lon="8.2597158539618"><ele>306.40000000000003</ele><time>2026-03-29T15:59:43.992Z</time></trkpt><trkpt lat="45.05289528815092" lon="8.259594937399886"><ele>306.8</ele><time>2026-03-29T15:59:44.992Z</time></trkpt><trkpt lat="45.052926075538934" lon="8.259462894490325"><ele>307.20000000000005</ele><time>2026-03-29T15:59:45.992Z</time></trkpt><trkpt lat="45.05296901237857" lon="8.259314397392231"><ele>307.6</ele><time>2026-03-29T15:59:46.992Z</time></trkpt><trkpt lat="45.053014966327595" lon="8.259160076362807"><ele>308.0</ele><time>2026-03-29T15:59:47.992Z</time></trkpt><trkpt lat="45.05306334447588" lon="8.259001193006947"><ele>307.0</ele><time>2026-03-29T15:59:48.994Z</time></trkpt><trkpt lat="45.05311170683687" lon="8.258839195891554"><ele>306.0</ele><time>2026-03-29T15:59:49.994Z</time></trkpt><trkpt lat="45.053158402386956" lon="8.258672714906123"><ele>305.0</ele><time>2026-03-29T15:59:50.994Z</time></trkpt><trkpt lat="45.05320776889468" lon="8.25850377322093"><ele>304.0</ele><time>2026-03-29T15:59:51.994Z</time></trkpt><trkpt lat="45.05325683636214" lon="8.258339258833281"><ele>303.0</ele><time>2026-03-29T15:59:52.994Z</time></trkpt><trkpt lat="45.05331210209139" lon="8.258169586750876"><ele>302.0</ele><time>2026-03-29T15:59:53.994Z</time></trkpt><trkpt lat="45.05337853972257" lon="8.257992995422693"><ele>301.0</ele><time>2026-03-29T15:59:54.994Z</time></trkpt><trkpt lat="45.05345284712434" lon="8.257813455902465"><ele>300.0</ele><time>2026-03-29T15:59:55.994Z</time></trkpt><trkpt lat="45.053534719785645" lon="8.257633253353825"><ele>300.0</ele><time>2026-03-29T15:59:56.994Z</time></trkpt><trkpt lat="45.0536240027392" lon="8.257457218376452"><ele>300.0</ele><time>2026-03-29T15:59:57.994Z</time></trkpt><trkpt lat="45.05371904672155" lon="8.257283862599623"><ele>300.0</ele><time>2026-03-29T15:59:58.994Z</time></trkpt><trkpt lat="45.053808054819825" lon="8.257117059359594"><ele>301.0</ele><time>2026-03-29T15:59:59.994Z</time></trkpt><trkpt lat="45.053896115504735" lon="8.25696030230282"><ele>302.0</ele><time>2026-03-29T16:00:00.994Z</time></trkpt><trkpt lat="45.053979326130786" lon="8.256811924670126"><ele>303.0</ele><time>2026-03-29T16:00:01.994Z</time></trkpt><trkpt lat="45.054053540095566" lon="8.256666529149678"><ele>304.0</ele><time>2026-03-29T16:00:02.994Z</time></trkpt><trkpt lat="45.05412330118135" lon="8.256523436343747"><ele>301.0</ele><time>2026-03-29T16:00:03.994Z</time></trkpt><trkpt lat="45.05418526496526" lon="8.256381406528003"><ele>298.0</ele><time>2026-03-29T16:00:04.994Z</time></trkpt><trkpt lat="45.05423542811853" lon="8.256233782332561"><ele>295.0</ele><time>2026-03-29T16:00:05.993Z</time></trkpt><trkpt lat="45.054280016340726" lon="8.256083133655908"><ele>292.0</ele><time>2026-03-29T16:00:06.993Z</time></trkpt><trkpt lat="45.05432035964231" lon="8.255922960560932"><ele>292.0</ele><time>2026-03-29T16:00:07.993Z</time></trkpt><trkpt lat="45.05435766382072" lon="8.25575275121388"><ele>292.0</ele><time>2026-03-29T16:00:08.993Z</time></trkpt><trkpt lat="45.05439451138729" lon="8.255582443664457"><ele>292.0</ele><time>2026-03-29T16:00:09.993Z</time></trkpt><trkpt lat="45.054435509693114" lon="8.255417231859399"><ele>292.0</ele><time>2026-03-29T16:00:10.993Z</time></trkpt><trkpt lat="45.05448485519843" lon="8.255266978677287"><ele>293.0</ele><time>2026-03-29T16:00:11.993Z</time></trkpt><trkpt lat="45.054535307925825" lon="8.255144614407726"><ele>294.0</ele><time>2026-03-29T16:00:12.993Z</time></trkpt><trkpt lat="45.054583944830384" lon="8.25504576689282"><ele>295.0</ele><time>2026-03-29T16:00:13.993Z</time></trkpt><trkpt lat="45.054630993692875" lon="8.254984820515064"><ele>296.0</ele><time>2026-03-29T16:00:14.993Z</time></trkpt><trkpt lat="45.05471961374473" lon="8.254993163588189"><ele>297.0</ele><time>2026-03-29T16:00:16.993Z</time></trkpt><trkpt lat="45.054760901074005" lon="8.255176722014003"><ele>297.0</ele><time>2026-03-29T16:00:18.993Z</time></trkpt><trkpt lat="45.054732877465376" lon="8.255297235338727"><ele>297.0</ele><time>2026-03-29T16:00:19.993Z</time></trkpt><trkpt lat="45.05469201398168" lon="8.255434587262656"><ele>297.0</ele><time>2026-03-29T16:00:20.993Z</time></trkpt><trkpt lat="45.054658319077184" lon="8.255588093274365"><ele>297.0</ele><time>2026-03-29T16:00:21.993Z</time></trkpt><trkpt lat="45.05462698552898" lon="8.255747096152822"><ele>297.0</ele><time>2026-03-29T16:00:22.993Z</time></trkpt><trkpt lat="45.054604463501555" lon="8.2559126557244"><ele>295.75</ele><time>2026-03-29T16:00:23.993Z</time></trkpt><trkpt lat="45.054589299073726" lon="8.256083197643056"><ele>294.5</ele><time>2026-03-29T16:00:24.993Z</time></trkpt><trkpt lat="45.05457534667155" lon="8.256262580891486"><ele>293.25</ele><time>2026-03-29T16:00:25.993Z</time></trkpt><trkpt lat="45.05456141426593" lon="8.256442596001275"><ele>292.0</ele><time>2026-03-29T16:00:26.993Z</time></trkpt><trkpt lat="45.05455538744291" lon="8.256621458133683"><ele>289.0</ele><time>2026-03-29T16:00:27.993Z</time></trkpt><trkpt lat="45.05453671645881" lon="8.256794436403355"><ele>286.0</ele><time>2026-03-29T16:00:28.993Z</time></trkpt><trkpt lat="45.05451155811391" lon="8.25696373898368"><ele>283.0</ele><time>2026-03-29T16:00:29.993Z</time></trkpt><trkpt lat="45.054469518982465" lon="8.257122905042733"><ele>280.0</ele><time>2026-03-29T16:00:30.993Z</time></trkpt><trkpt lat="45.054422127736615" lon="8.257281000224586"><ele>277.0</ele><time>2026-03-29T16:00:31.993Z</time></trkpt><trkpt lat="45.054375334326444" lon="8.25743931640813"><ele>274.0</ele><time>2026-03-29T16:00:32.993Z</time></trkpt><trkpt lat="45.054334963461905" lon="8.257598035807952"><ele>271.0</ele><time>2026-03-29T16:00:33.993Z</time></trkpt><trkpt lat="45.054294566881886" lon="8.257757347921263"><ele>268.0</ele><time>2026-03-29T16:00:34.993Z</time></trkpt><trkpt lat="45.054262062437274" lon="8.257920066210778"><ele>268.0</ele><time>2026-03-29T16:00:35.993Z</time></trkpt><trkpt lat="45.054246010295785" lon="8.258091583596373"><ele>268.0</ele><time>2026-03-29T16:00:36.993Z</time></trkpt><trkpt lat="45.0542424142097" lon="8.258268962857915"><ele>268.0</ele><time>2026-03-29T16:00:37.993Z</time></trkpt><trkpt lat="45.05424260459303" lon="8.258444249936986"><ele>268.0</ele><time>2026-03-29T16:00:38.993Z</time></trkpt><trkpt lat="45.054245934965216" lon="8.258618017444324"><ele>266.25</ele><time>2026-03-29T16:00:39.993Z</time></trkpt><trkpt lat="45.05424051360889" lon="8.258795451222861"><ele>264.5</ele><time>2026-03-29T16:00:40.993Z</time></trkpt><trkpt lat="45.05422364002844" lon="8.258979540918459"><ele>262.75</ele><time>2026-03-29T16:00:41.993Z</time></trkpt><trkpt lat="45.05420104290237" lon="8.25916509845364"><ele>261.0</ele><time>2026-03-29T16:00:42.993Z</time></trkpt><trkpt lat="45.05417484764965" lon="8.259353419670347"><ele>259.0</ele><time>2026-03-29T16:00:43.993Z</time></trkpt><trkpt lat="45.05414102378719" lon="8.259543756989848"><ele>257.0</ele><time>2026-03-29T16:00:44.993Z</time></trkpt><trkpt lat="45.05410583885919" lon="8.259736450339574"><ele>255.0</ele><time>2026-03-29T16:00:45.993Z</time></trkpt><trkpt lat="45.05406630022614" lon="8.259931345015659"><ele>253.0</ele><time>2026-03-29T16:00:46.993Z</time></trkpt><trkpt lat="45.05402970067845" lon="8.260128913201164"><ele>255.0</ele><time>2026-03-29T16:00:47.993Z</time></trkpt><trkpt lat="45.05399740339609" lon="8.26032745590804"><ele>257.0</ele><time>2026-03-29T16:00:48.993Z</time></trkpt><trkpt lat="45.05396655753923" lon="8.260525309265281"><ele>259.0</ele><time>2026-03-29T16:00:49.993Z</time></trkpt><trkpt lat="45.05393235925517" lon="8.260713976557211"><ele>261.0</ele><time>2026-03-29T16:00:50.993Z</time></trkpt><trkpt lat="45.05389746240424" lon="8.26089631194967"><ele>261.0</ele><time>2026-03-29T16:00:51.993Z</time></trkpt><trkpt lat="45.05386727854205" lon="8.261075111823006"><ele>261.0</ele><time>2026-03-29T16:00:52.993Z</time></trkpt><trkpt lat="45.053842292648135" lon="8.261245264670482"><ele>261.0</ele><time>2026-03-29T16:00:53.993Z</time></trkpt><trkpt lat="45.053829781392146" lon="8.261408922554985"><ele>261.0</ele><time>2026-03-29T16:00:54.993Z</time></trkpt><trkpt lat="45.053836402387134" lon="8.261567419193986"><ele>260.2</ele><time>2026-03-29T16:00:55.992Z</time></trkpt><trkpt lat="45.05386590474546" lon="8.261719095675012"><ele>259.40000000000003</ele><time>2026-03-29T16:00:56.992Z</time></trkpt><trkpt lat="45.05391147380562" lon="8.261856858788603"><ele>258.6</ele><time>2026-03-29T16:00:57.992Z</time></trkpt><trkpt lat="45.05397543868223" lon="8.26197260261086"><ele>257.8</ele><time>2026-03-29T16:00:58.992Z</time></trkpt><trkpt lat="45.05405591802532" lon="8.262078263623158"><ele>257.0</ele><time>2026-03-29T16:00:59.992Z</time></trkpt><trkpt lat="45.05413735550842" lon="8.262155192033001"><ele>253.66666666666669</ele><time>2026-03-29T16:01:00.992Z</time></trkpt><trkpt lat="45.05420826751891" lon="8.262198513770874"><ele>250.33333333333334</ele><time>2026-03-29T16:01:01.992Z</time></trkpt><trkpt lat="45.0543148085859" lon="8.262215010196595"><ele>247.0</ele><time>2026-03-29T16:01:03.992Z</time></trkpt><trkpt lat="45.054384011717254" lon="8.262184282005418"><ele>243.66666666666669</ele><time>2026-03-29T16:01:05.992Z</time></trkpt><trkpt lat="45.0544693147868" lon="8.26214837173652"><ele>240.33333333333334</ele><time>2026-03-29T16:01:07.992Z</time></trkpt><trkpt lat="45.054529899981745" lon="8.262117933112092"><ele>237.0</ele><time>2026-03-29T16:01:08.992Z</time></trkpt><trkpt lat="45.05460473059493" lon="8.262077937083651"><ele>237.0</ele><time>2026-03-29T16:01:09.992Z</time></trkpt><trkpt lat="45.05469554071514" lon="8.262030873131248"><ele>237.0</ele><time>2026-03-29T16:01:10.992Z</time></trkpt><trkpt lat="45.054800223948874" lon="8.261981149101949"><ele>237.0</ele><time>2026-03-29T16:01:11.992Z</time></trkpt><trkpt lat="45.05491748858513" lon="8.26192879895338"><ele>237.0</ele><time>2026-03-29T16:01:12.992Z</time></trkpt><trkpt lat="45.05503564881869" lon="8.261873250197016"><ele>234.75</ele><time>2026-03-29T16:01:13.992Z</time></trkpt><trkpt lat="45.055156345708234" lon="8.26181830344308"><ele>232.5</ele><time>2026-03-29T16:01:14.992Z</time></trkpt><trkpt lat="45.055275744643744" lon="8.261765363241455"><ele>230.25</ele><time>2026-03-29T16:01:15.992Z</time></trkpt><trkpt lat="45.05539916920877" lon="8.261707591573163"><ele>228.0</ele><time>2026-03-29T16:01:16.992Z</time></trkpt><trkpt lat="45.05552981755191" lon="8.261647011696791"><ele>228.0</ele><time>2026-03-29T16:01:17.992Z</time></trkpt><trkpt lat="45.05566663402926" lon="8.261580920412765"><ele>228.0</ele><time>2026-03-29T16:01:18.992Z</time></trkpt><trkpt lat="45.055802386126835" lon="8.261508882926405"><ele>228.0</ele><time>2026-03-29T16:01:19.992Z</time></trkpt><trkpt lat="45.055939093025074" lon="8.261430907463506"><ele>228.0</ele><time>2026-03-29T16:01:20.992Z</time></trkpt><trkpt lat="45.05607719293786" lon="8.261344239476564"><ele>225.33333333333331</ele><time>2026-03-29T16:01:21.992Z</time></trkpt><trkpt lat="45.056217314475305" lon="8.261241295426967"><ele>222.66666666666666</ele><time>2026-03-29T16:01:22.992Z</time></trkpt><trkpt lat="45.056363465845536" lon="8.261123142851567"><ele>220.0</ele><time>2026-03-29T16:01:23.992Z</time></trkpt><trkpt lat="45.05652118672392" lon="8.260996031805567"><ele>217.0</ele><time>2026-03-29T16:01:24.992Z</time></trkpt><trkpt lat="45.05667505060024" lon="8.260863496707888"><ele>214.0</ele><time>2026-03-29T16:01:25.992Z</time></trkpt><trkpt lat="45.05682720396106" lon="8.26073248139239"><ele>211.0</ele><time>2026-03-29T16:01:26.992Z</time></trkpt><trkpt lat="45.0569786171308" lon="8.260603034958717"><ele>211.0</ele><time>2026-03-29T16:01:27.992Z</time></trkpt><trkpt lat="45.05712905332675" lon="8.26047302560874"><ele>211.0</ele><time>2026-03-29T16:01:28.992Z</time></trkpt><trkpt lat="45.057278830705755" lon="8.260347201343357"><ele>211.0</ele><time>2026-03-29T16:01:29.992Z</time></trkpt><trkpt lat="45.05742717211574" lon="8.260221086875166"><ele>208.66666666666666</ele><time>2026-03-29T16:01:30.992Z</time></trkpt><trkpt lat="45.05756870034761" lon="8.260097047917615"><ele>206.33333333333331</ele><time>2026-03-29T16:01:31.992Z</time></trkpt><trkpt lat="45.05770519815893" lon="8.259983827549089"><ele>204.0</ele><time>2026-03-29T16:01:32.992Z</time></trkpt><trkpt lat="45.05783462797405" lon="8.259889592045802"><ele>204.0</ele><time>2026-03-29T16:01:33.992Z</time></trkpt><trkpt lat="45.05796050141028" lon="8.259801646087755"><ele>204.0</ele><time>2026-03-29T16:01:34.992Z</time></trkpt><trkpt lat="45.05808827347197" lon="8.259750975970706"><ele>204.0</ele><time>2026-03-29T16:01:35.992Z</time></trkpt><trkpt lat="45.05822518611412" lon="8.259730731348037"><ele>204.0</ele><time>2026-03-29T16:01:36.992Z</time></trkpt><trkpt lat="45.05835930634532" lon="8.259727790925643"><ele>203.0</ele><time>2026-03-29T16:01:37.992Z</time></trkpt><trkpt lat="45.058497599816214" lon="8.259744124717637"><ele>202.0</ele><time>2026-03-29T16:01:38.992Z</time></trkpt><trkpt lat="45.05863977935359" lon="8.259760553074786"><ele>201.0</ele><time>2026-03-29T16:01:39.992Z</time></trkpt><trkpt lat="45.05877649801727" lon="8.259774644848623"><ele>200.0</ele><time>2026-03-29T16:01:40.992Z</time></trkpt><trkpt lat="45.0588966726595" lon="8.259787325210064"><ele>199.66666666666669</ele><time>2026-03-29T16:01:41.992Z</time></trkpt><trkpt lat="45.05900044535995" lon="8.259792457734111"><ele>199.33333333333334</ele><time>2026-03-29T16:01:42.992Z</time></trkpt><trkpt lat="45.059096339046" lon="8.259806513285328"><ele>199.0</ele><time>2026-03-29T16:01:43.992Z</time></trkpt><trkpt lat="45.059168818000515" lon="8.259831563035831"><ele>198.66666666666669</ele><time>2026-03-29T16:01:44.991Z</time></trkpt><trkpt lat="45.059230425651236" lon="8.259877977624315"><ele>198.33333333333334</ele><time>2026-03-29T16:01:45.991Z</time></trkpt><trkpt lat="45.05927392563754" lon="8.259953022259387"><ele>198.0</ele><time>2026-03-29T16:01:46.991Z</time></trkpt><trkpt lat="45.059296273946465" lon="8.260044827566508"><ele>197.16666666666666</ele><time>2026-03-29T16:01:47.991Z</time></trkpt><trkpt lat="45.05930050515026" lon="8.260141410622605"><ele>196.33333333333331</ele><time>2026-03-29T16:01:48.991Z</time></trkpt><trkpt lat="45.059287359369655" lon="8.260253453942228"><ele>195.5</ele><time>2026-03-29T16:01:49.991Z</time></trkpt><trkpt lat="45.05928482870985" lon="8.26038161977106"><ele>194.66666666666666</ele><time>2026-03-29T16:01:50.991Z</time></trkpt><trkpt lat="45.059277286711" lon="8.260522660390105"><ele>193.83333333333331</ele><time>2026-03-29T16:01:51.991Z</time></trkpt><trkpt lat="45.059275533690965" lon="8.26066608400037"><ele>193.0</ele><time>2026-03-29T16:01:52.991Z</time></trkpt><trkpt lat="45.05926335909886" lon="8.260802008479827"><ele>192.83333333333331</ele><time>2026-03-29T16:01:53.991Z</time></trkpt><trkpt lat="45.05925742750371" lon="8.260927664831746"><ele>192.66666666666666</ele><time>2026-03-29T16:01:54.994Z</time></trkpt><trkpt lat="45.05925093809905" lon="8.261042683313374"><ele>192.5</ele><time>2026-03-29T16:01:55.994Z</time></trkpt><trkpt lat="45.059247215974395" lon="8.26115148444698"><ele>192.33333333333331</ele><time>2026-03-29T16:01:56.994Z</time></trkpt><trkpt lat="45.059243984429244" lon="8.26126745159767"><ele>192.16666666666666</ele><time>2026-03-29T16:01:57.994Z</time></trkpt><trkpt lat="45.059237246839494" lon="8.261400946454534"><ele>192.0</ele><time>2026-03-29T16:01:58.994Z</time></trkpt><trkpt lat="45.059231756653574" lon="8.261547520729756"><ele>191.75</ele><time>2026-03-29T16:01:59.994Z</time></trkpt><trkpt lat="45.05921942193985" lon="8.261701722112887"><ele>191.5</ele><time>2026-03-29T16:02:00.994Z</time></trkpt><trkpt lat="45.05921116818" lon="8.261866960544504"><ele>191.25</ele><time>2026-03-29T16:02:01.994Z</time></trkpt><trkpt lat="45.05920950877265" lon="8.262035906632516"><ele>191.0</ele><time>2026-03-29T16:02:02.994Z</time></trkpt><trkpt lat="45.05920421535506" lon="8.262212169977813"><ele>191.0</ele><time>2026-03-29T16:02:03.994Z</time></trkpt><trkpt lat="45.0592055875618" lon="8.262394091080285"><ele>191.0</ele><time>2026-03-29T16:02:04.994Z</time></trkpt><trkpt lat="45.05921460764321" lon="8.262580604047375"><ele>191.0</ele><time>2026-03-29T16:02:05.994Z</time></trkpt><trkpt lat="45.05922522813817" lon="8.262774878764382"><ele>191.0</ele><time>2026-03-29T16:02:06.994Z</time></trkpt><trkpt lat="45.05923139493832" lon="8.262969693113515"><ele>191.25</ele><time>2026-03-29T16:02:07.994Z</time></trkpt><trkpt lat="45.0592361608374" lon="8.263170727587381"><ele>191.5</ele><time>2026-03-29T16:02:08.994Z</time></trkpt><trkpt lat="45.059242545055504" lon="8.263362501708555"><ele>191.75</ele><time>2026-03-29T16:02:09.994Z</time></trkpt><trkpt lat="45.059249909234104" lon="8.263546368327678"><ele>192.0</ele><time>2026-03-29T16:02:10.994Z</time></trkpt><trkpt lat="45.05926332231367" lon="8.26372811573513"><ele>192.0</ele><time>2026-03-29T16:02:11.994Z</time></trkpt><trkpt lat="45.059295125752456" lon="8.263914660337212"><ele>192.0</ele><time>2026-03-29T16:02:12.994Z</time></trkpt><trkpt lat="45.05933736280351" lon="8.264102081393316"><ele>192.0</ele><time>2026-03-29T16:02:13.994Z</time></trkpt><trkpt lat="45.05937753058447" lon="8.264292774740266"><ele>192.0</ele><time>2026-03-29T16:02:14.994Z</time></trkpt><trkpt lat="45.05941980205225" lon="8.264487348653532"><ele>193.0</ele><time>2026-03-29T16:02:15.994Z</time></trkpt><trkpt lat="45.05945903519223" lon="8.264688600127883"><ele>194.0</ele><time>2026-03-29T16:02:16.994Z</time></trkpt><trkpt lat="45.05949694406154" lon="8.264895156399618"><ele>195.0</ele><time>2026-03-29T16:02:17.994Z</time></trkpt><trkpt lat="45.059530589882165" lon="8.265110301207244"><ele>195.0</ele><time>2026-03-29T16:02:18.994Z</time></trkpt><trkpt lat="45.059558750268934" lon="8.265328793100176"><ele>195.0</ele><time>2026-03-29T16:02:19.994Z</time></trkpt><trkpt lat="45.05958120510788" lon="8.265549434032398"><ele>195.0</ele><time>2026-03-29T16:02:20.994Z</time></trkpt><trkpt lat="45.059596902089744" lon="8.265776349975228"><ele>195.33333333333331</ele><time>2026-03-29T16:02:21.994Z</time></trkpt><trkpt lat="45.05961401850938" lon="8.266009234706292"><ele>195.66666666666666</ele><time>2026-03-29T16:02:22.994Z</time></trkpt><trkpt lat="45.05962813869726" lon="8.266247114518432"><ele>196.0</ele><time>2026-03-29T16:02:23.994Z</time></trkpt><trkpt lat="45.059651816587454" lon="8.26648929981589"><ele>196.33333333333331</ele><time>2026-03-29T16:02:24.994Z</time></trkpt><trkpt lat="45.05966924726619" lon="8.266734066672456"><ele>196.66666666666669</ele><time>2026-03-29T16:02:25.994Z</time></trkpt><trkpt lat="45.05968587878521" lon="8.266979656311396"><ele>197.0</ele><time>2026-03-29T16:02:26.994Z</time></trkpt><trkpt lat="45.059702982057786" lon="8.267231763025697"><ele>197.0</ele><time>2026-03-29T16:02:27.994Z</time></trkpt><trkpt lat="45.05972121684051" lon="8.267489312802507"><ele>197.0</ele><time>2026-03-29T16:02:28.994Z</time></trkpt><trkpt lat="45.05973822459136" lon="8.267752262048134"><ele>197.0</ele><time>2026-03-29T16:02:29.994Z</time></trkpt><trkpt lat="45.059752360377" lon="8.268020482364916"><ele>195.66666666666669</ele><time>2026-03-29T16:02:30.994Z</time></trkpt><trkpt lat="45.05975927271461" lon="8.268281954462626"><ele>194.33333333333331</ele><time>2026-03-29T16:02:31.994Z</time></trkpt><trkpt lat="45.05975827210862" lon="8.268534682135657"><ele>193.0</ele><time>2026-03-29T16:02:32.994Z</time></trkpt><trkpt lat="45.05975078056414" lon="8.268792742716817"><ele>192.66666666666666</ele><time>2026-03-29T16:02:33.994Z</time></trkpt><trkpt lat="45.059740634789996" lon="8.269054218137613"><ele>192.33333333333331</ele><time>2026-03-29T16:02:34.994Z</time></trkpt><trkpt lat="45.059723833439385" lon="8.269319795247362"><ele>192.0</ele><time>2026-03-29T16:02:35.994Z</time></trkpt><trkpt lat="45.05970662046401" lon="8.2695838887558"><ele>191.66666666666666</ele><time>2026-03-29T16:02:36.994Z</time></trkpt><trkpt lat="45.05969089922414" lon="8.269841012764324"><ele>191.33333333333331</ele><time>2026-03-29T16:02:37.994Z</time></trkpt><trkpt lat="45.05966867140211" lon="8.270094409123725"><ele>191.0</ele><time>2026-03-29T16:02:38.994Z</time></trkpt><trkpt lat="45.05963180062911" lon="8.27034605979401"><ele>191.0</ele><time>2026-03-29T16:02:39.994Z</time></trkpt><trkpt lat="45.05958315442442" lon="8.27059887975082"><ele>191.0</ele><time>2026-03-29T16:02:40.994Z</time></trkpt><trkpt lat="45.059526187044405" lon="8.270855814361393"><ele>191.0</ele><time>2026-03-29T16:02:41.994Z</time></trkpt><trkpt lat="45.05946587752963" lon="8.271113543464551"><ele>190.33333333333331</ele><time>2026-03-29T16:02:42.994Z</time></trkpt><trkpt lat="45.059402591094404" lon="8.271375975202476"><ele>189.66666666666666</ele><time>2026-03-29T16:02:43.994Z</time></trkpt><trkpt lat="45.05934199125612" lon="8.271642154486374"><ele>189.0</ele><time>2026-03-29T16:02:44.994Z</time></trkpt><trkpt lat="45.05928451839652" lon="8.271911694470337"><ele>188.66666666666666</ele><time>2026-03-29T16:02:45.994Z</time></trkpt><trkpt lat="45.059225018073235" lon="8.272180786771877"><ele>188.33333333333331</ele><time>2026-03-29T16:02:46.994Z</time></trkpt><trkpt lat="45.05916236995342" lon="8.272442257643096"><ele>188.0</ele><time>2026-03-29T16:02:47.994Z</time></trkpt><trkpt lat="45.05910032486005" lon="8.272700104735739"><ele>189.33333333333331</ele><time>2026-03-29T16:02:48.994Z</time></trkpt><trkpt lat="45.059033127100136" lon="8.272953546951078"><ele>190.66666666666666</ele><time>2026-03-29T16:02:49.993Z</time></trkpt><trkpt lat="45.05896096247619" lon="8.273200970588183"><ele>192.0</ele><time>2026-03-29T16:02:50.993Z</time></trkpt><trkpt lat="45.05889089477922" lon="8.273439549600443"><ele>192.0</ele><time>2026-03-29T16:02:51.993Z</time></trkpt><trkpt lat="45.05882557758538" lon="8.273674022266144"><ele>192.0</ele><time>2026-03-29T16:02:52.993Z</time></trkpt><trkpt lat="45.05876011735266" lon="8.27390167464936"><ele>192.0</ele><time>2026-03-29T16:02:53.993Z</time></trkpt><trkpt lat="45.058691811696235" lon="8.274122940750336"><ele>190.0</ele><time>2026-03-29T16:02:54.993Z</time></trkpt><trkpt lat="45.0586253543058" lon="8.27433788082731"><ele>188.0</ele><time>2026-03-29T16:02:55.993Z</time></trkpt><trkpt lat="45.05856134494221" lon="8.274545883958634"><ele>186.0</ele><time>2026-03-29T16:02:56.993Z</time></trkpt><trkpt lat="45.05849983004951" lon="8.274750009050464"><ele>184.66666666666666</ele><time>2026-03-29T16:02:57.993Z</time></trkpt><trkpt lat="45.058439430514376" lon="8.27495253897477"><ele>183.33333333333331</ele><time>2026-03-29T16:02:58.993Z</time></trkpt><trkpt lat="45.05837655214384" lon="8.275148810836395"><ele>182.0</ele><time>2026-03-29T16:02:59.993Z</time></trkpt><trkpt lat="45.0583183317747" lon="8.27534306120173"><ele>182.0</ele><time>2026-03-29T16:03:00.993Z</time></trkpt><trkpt lat="45.05826415565587" lon="8.275527965033522"><ele>182.0</ele><time>2026-03-29T16:03:01.993Z</time></trkpt><trkpt lat="45.05821246504898" lon="8.275698456182907"><ele>182.0</ele><time>2026-03-29T16:03:02.993Z</time></trkpt><trkpt lat="45.05815894294518" lon="8.275858752910501"><ele>182.0</ele><time>2026-03-29T16:03:03.993Z</time></trkpt><trkpt lat="45.0581100613244" lon="8.276005504708536"><ele>181.66666666666666</ele><time>2026-03-29T16:03:04.993Z</time></trkpt><trkpt lat="45.058067957958485" lon="8.276137465195879"><ele>181.33333333333331</ele><time>2026-03-29T16:03:05.993Z</time></trkpt><trkpt lat="45.05803836643794" lon="8.276254721404873"><ele>181.0</ele><time>2026-03-29T16:03:06.993Z</time></trkpt><trkpt lat="45.05802273592275" lon="8.276355814346255"><ele>180.66666666666666</ele><time>2026-03-29T16:03:07.993Z</time></trkpt><trkpt lat="45.058013263278454" lon="8.276495417791828"><ele>180.33333333333334</ele><time>2026-03-29T16:03:09.993Z</time></trkpt><trkpt lat="45.05801840134543" lon="8.276585527811276"><ele>180.0</ele><time>2026-03-29T16:03:26.993Z</time></trkpt><trkpt lat="45.05804441281462" lon="8.276717182241574"><ele>180.0</ele><time>2026-03-29T16:03:28.993Z</time></trkpt><trkpt lat="45.0580677521985" lon="8.27680636719286"><ele>180.0</ele><time>2026-03-29T16:03:29.993Z</time></trkpt><trkpt lat="45.058106151392124" lon="8.276894110173245"><ele>180.0</ele><time>2026-03-29T16:03:30.993Z</time></trkpt><trkpt lat="45.058154750197" lon="8.276966876262465"><ele>180.0</ele><time>2026-03-29T16:03:31.993Z</time></trkpt><trkpt lat="45.0582239721286" lon="8.277028667179327"><ele>180.0</ele><time>2026-03-29T16:03:32.993Z</time></trkpt><trkpt lat="45.05830546747314" lon="8.277089798897293"><ele>180.0</ele><time>2026-03-29T16:03:33.993Z</time></trkpt><trkpt lat="45.05840106896011" lon="8.277147074421155"><ele>180.0</ele><time>2026-03-29T16:03:34.993Z</time></trkpt><trkpt lat="45.05850708551846" lon="8.277210623878053"><ele>180.0</ele><time>2026-03-29T16:03:35.993Z</time></trkpt><trkpt lat="45.05862763624318" lon="8.2772836859839"><ele>180.0</ele><time>2026-03-29T16:03:36.993Z</time></trkpt><trkpt lat="45.05875031154105" lon="8.277359309051727"><ele>180.0</ele><time>2026-03-29T16:03:37.993Z</time></trkpt><trkpt lat="45.05886754017819" lon="8.277430516995613"><ele>179.5</ele><time>2026-03-29T16:03:38.992Z</time></trkpt><trkpt lat="45.058981481815124" lon="8.277499467089605"><ele>179.0</ele><time>2026-03-29T16:03:39.992Z</time></trkpt><trkpt lat="45.05909363733464" lon="8.27756933498764"><ele>178.5</ele><time>2026-03-29T16:03:40.992Z</time></trkpt><trkpt lat="45.05920806061977" lon="8.277637153754355"><ele>178.0</ele><time>2026-03-29T16:03:41.992Z</time></trkpt><trkpt lat="45.059328822815814" lon="8.277706697640967"><ele>178.0</ele><time>2026-03-29T16:03:42.992Z</time></trkpt><trkpt lat="45.05945303470197" lon="8.277782059274573"><ele>178.0</ele><time>2026-03-29T16:03:43.992Z</time></trkpt><trkpt lat="45.059583506848774" lon="8.277863291738084"><ele>178.0</ele><time>2026-03-29T16:03:44.992Z</time></trkpt><trkpt lat="45.05971936550182" lon="8.27794374314735"><ele>178.0</ele><time>2026-03-29T16:03:45.992Z</time></trkpt><trkpt lat="45.05985197144921" lon="8.27801939483909"><ele>177.75</ele><time>2026-03-29T16:03:46.992Z</time></trkpt><trkpt lat="45.059978430198775" lon="8.278096929785976"><ele>177.5</ele><time>2026-03-29T16:03:47.992Z</time></trkpt><trkpt lat="45.06010485703348" lon="8.278170546076835"><ele>177.25</ele><time>2026-03-29T16:03:48.992Z</time></trkpt><trkpt lat="45.06023199335754" lon="8.278243335540711"><ele>177.0</ele><time>2026-03-29T16:03:49.992Z</time></trkpt><trkpt lat="45.06036466063408" lon="8.278320242488583"><ele>177.0</ele><time>2026-03-29T16:03:50.992Z</time></trkpt><trkpt lat="45.06049609601131" lon="8.278398893056275"><ele>177.0</ele><time>2026-03-29T16:03:51.992Z</time></trkpt><trkpt lat="45.060628321884096" lon="8.278476273506874"><ele>177.0</ele><time>2026-03-29T16:03:52.992Z</time></trkpt><trkpt lat="45.0607534948285" lon="8.27854839422088"><ele>177.0</ele><time>2026-03-29T16:03:53.992Z</time></trkpt><trkpt lat="45.0608783547167" lon="8.27861999454424"><ele>177.0</ele><time>2026-03-29T16:03:54.992Z</time></trkpt><trkpt lat="45.06100028468234" lon="8.278691498459207"><ele>177.0</ele><time>2026-03-29T16:03:55.992Z</time></trkpt><trkpt lat="45.06112083309599" lon="8.278762633097118"><ele>177.0</ele><time>2026-03-29T16:03:56.992Z</time></trkpt><trkpt lat="45.06125195826635" lon="8.278832865642293"><ele>177.0</ele><time>2026-03-29T16:03:57.992Z</time></trkpt><trkpt lat="45.061390518505846" lon="8.278912197127902"><ele>176.66666666666666</ele><time>2026-03-29T16:03:58.992Z</time></trkpt><trkpt lat="45.06154278927947" lon="8.27900509614806"><ele>176.33333333333331</ele><time>2026-03-29T16:03:59.992Z</time></trkpt><trkpt lat="45.06170360288262" lon="8.279114385719385"><ele>176.0</ele><time>2026-03-29T16:04:00.994Z</time></trkpt><trkpt lat="45.06186846698441" lon="8.279225205758657"><ele>176.0</ele><time>2026-03-29T16:04:01.994Z</time></trkpt><trkpt lat="45.0620324447525" lon="8.279329620869895"><ele>176.0</ele><time>2026-03-29T16:04:02.994Z</time></trkpt><trkpt lat="45.062191470986086" lon="8.279422160774137"><ele>176.0</ele><time>2026-03-29T16:04:03.993Z</time></trkpt><trkpt lat="45.0623534442771" lon="8.27951752672593"><ele>175.33333333333331</ele><time>2026-03-29T16:04:04.994Z</time></trkpt><trkpt lat="45.06251006307146" lon="8.279607708466049"><ele>174.66666666666666</ele><time>2026-03-29T16:04:05.994Z</time></trkpt><trkpt lat="45.062660566461574" lon="8.279698574163948"><ele>174.0</ele><time>2026-03-29T16:04:06.994Z</time></trkpt><trkpt lat="45.06280442980738" lon="8.279782218598248"><ele>174.0</ele><time>2026-03-29T16:04:07.994Z</time></trkpt><trkpt lat="45.062942850687335" lon="8.279865197442653"><ele>174.0</ele><time>2026-03-29T16:04:08.994Z</time></trkpt><trkpt lat="45.06307296474092" lon="8.27994493003558"><ele>174.0</ele><time>2026-03-29T16:04:09.994Z</time></trkpt><trkpt lat="45.06319693563587" lon="8.280023336270974"><ele>174.0</ele><time>2026-03-29T16:04:10.994Z</time></trkpt><trkpt lat="45.06331961539132" lon="8.280099713993023"><ele>174.0</ele><time>2026-03-29T16:04:11.994Z</time></trkpt><trkpt lat="45.06344196063485" lon="8.28017404558468"><ele>174.0</ele><time>2026-03-29T16:04:12.994Z</time></trkpt><trkpt lat="45.06356879048553" lon="8.280253093608312"><ele>174.0</ele><time>2026-03-29T16:04:13.994Z</time></trkpt><trkpt lat="45.06369935213032" lon="8.280339822842675"><ele>174.0</ele><time>2026-03-29T16:04:14.994Z</time></trkpt><trkpt lat="45.06382955331401" lon="8.280431736703003"><ele>174.0</ele><time>2026-03-29T16:04:15.994Z</time></trkpt><trkpt lat="45.063958262550436" lon="8.280523032933665"><ele>174.0</ele><time>2026-03-29T16:04:16.994Z</time></trkpt><trkpt lat="45.064082383501265" lon="8.280613478601895"><ele>174.0</ele><time>2026-03-29T16:04:17.994Z</time></trkpt><trkpt lat="45.06420517705537" lon="8.280706158795924"><ele>174.0</ele><time>2026-03-29T16:04:18.993Z</time></trkpt><trkpt lat="45.064329762594866" lon="8.280807251551758"><ele>173.66666666666666</ele><time>2026-03-29T16:04:19.993Z</time></trkpt><trkpt lat="45.06445444811984" lon="8.280923910699165"><ele>173.33333333333331</ele><time>2026-03-29T16:04:20.993Z</time></trkpt><trkpt lat="45.064580976697755" lon="8.281047189527724"><ele>173.0</ele><time>2026-03-29T16:04:21.993Z</time></trkpt><trkpt lat="45.064705367437476" lon="8.281174845018999"><ele>173.0</ele><time>2026-03-29T16:04:22.993Z</time></trkpt><trkpt lat="45.06482709524724" lon="8.281314645457826"><ele>173.0</ele><time>2026-03-29T16:04:23.993Z</time></trkpt><trkpt lat="45.0649507218812" lon="8.281469209220598"><ele>173.0</ele><time>2026-03-29T16:04:24.993Z</time></trkpt><trkpt lat="45.06507227082719" lon="8.281639597616934"><ele>173.0</ele><time>2026-03-29T16:04:25.993Z</time></trkpt><trkpt lat="45.06519694509452" lon="8.281820759012316"><ele>173.0</ele><time>2026-03-29T16:04:26.993Z</time></trkpt><trkpt lat="45.06532236375949" lon="8.282014967545448"><ele>173.0</ele><time>2026-03-29T16:04:27.993Z</time></trkpt><trkpt lat="45.06544268601638" lon="8.282233771596447"><ele>173.33333333333331</ele><time>2026-03-29T16:04:28.993Z</time></trkpt><trkpt lat="45.06556463670274" lon="8.282473427202893"><ele>173.66666666666666</ele><time>2026-03-29T16:04:29.993Z</time></trkpt><trkpt lat="45.06568769867252" lon="8.282732183406205"><ele>174.0</ele><time>2026-03-29T16:04:30.993Z</time></trkpt><trkpt lat="45.065806678377065" lon="8.283013624783278"><ele>172.5</ele><time>2026-03-29T16:04:31.993Z</time></trkpt><trkpt lat="45.065920699533436" lon="8.283313492512129"><ele>171.0</ele><time>2026-03-29T16:04:32.993Z</time></trkpt><trkpt lat="45.066039384557804" lon="8.283625788742745"><ele>173.0</ele><time>2026-03-29T16:04:33.993Z</time></trkpt><trkpt lat="45.066166393597584" lon="8.283946922480014"><ele>175.0</ele><time>2026-03-29T16:04:34.993Z</time></trkpt><trkpt lat="45.066293599663126" lon="8.284261647296201"><ele>175.0</ele><time>2026-03-29T16:04:35.993Z</time></trkpt><trkpt lat="45.06641706186439" lon="8.28457059604166"><ele>175.0</ele><time>2026-03-29T16:04:36.993Z</time></trkpt><trkpt lat="45.06653658086532" lon="8.284873187075169"><ele>174.0</ele><time>2026-03-29T16:04:37.993Z</time></trkpt><trkpt lat="45.066656772036566" lon="8.285170113257236"><ele>173.0</ele><time>2026-03-29T16:04:38.993Z</time></trkpt><trkpt lat="45.066777640504824" lon="8.285463959573496"><ele>179.5</ele><time>2026-03-29T16:04:39.993Z</time></trkpt><trkpt lat="45.06689745409236" lon="8.285755412384258"><ele>186.0</ele><time>2026-03-29T16:04:40.993Z</time></trkpt><trkpt lat="45.067012228272446" lon="8.286040420837889"><ele>186.0</ele><time>2026-03-29T16:04:41.993Z</time></trkpt><trkpt lat="45.06713130078929" lon="8.286319869945034"><ele>186.0</ele><time>2026-03-29T16:04:42.993Z</time></trkpt><trkpt lat="45.067248135035655" lon="8.286599550956371"><ele>182.5</ele><time>2026-03-29T16:04:43.993Z</time></trkpt><trkpt lat="45.0673631777081" lon="8.28688051209421"><ele>179.0</ele><time>2026-03-29T16:04:44.993Z</time></trkpt><trkpt lat="45.06747536389341" lon="8.287160330139029"><ele>181.5</ele><time>2026-03-29T16:04:45.993Z</time></trkpt><trkpt lat="45.06759146308366" lon="8.287439036221175"><ele>184.0</ele><time>2026-03-29T16:04:46.993Z</time></trkpt><trkpt lat="45.06770733182363" lon="8.28771270632637"><ele>184.0</ele><time>2026-03-29T16:04:47.993Z</time></trkpt><trkpt lat="45.067818919128754" lon="8.287987382408517"><ele>184.0</ele><time>2026-03-29T16:04:48.993Z</time></trkpt><trkpt lat="45.06793140862239" lon="8.288263823554086"><ele>184.0</ele><time>2026-03-29T16:04:49.993Z</time></trkpt><trkpt lat="45.0680417048834" lon="8.288542327975556"><ele>186.0</ele><time>2026-03-29T16:04:50.993Z</time></trkpt><trkpt lat="45.06815371226477" lon="8.288817761715835"><ele>188.0</ele><time>2026-03-29T16:04:51.993Z</time></trkpt><trkpt lat="45.06826596104163" lon="8.289094699332328"><ele>185.0</ele><time>2026-03-29T16:04:52.993Z</time></trkpt><trkpt lat="45.06837986874554" lon="8.289368327089157"><ele>182.0</ele><time>2026-03-29T16:04:53.993Z</time></trkpt><trkpt lat="45.06849453058527" lon="8.28964066539117"><ele>179.0</ele><time>2026-03-29T16:04:54.993Z</time></trkpt><trkpt lat="45.068606112088695" lon="8.289914915300118"><ele>179.0</ele><time>2026-03-29T16:04:55.993Z</time></trkpt><trkpt lat="45.068717133055046" lon="8.290189052563228"><ele>179.0</ele><time>2026-03-29T16:04:56.993Z</time></trkpt><trkpt lat="45.068828404986576" lon="8.290465078705008"><ele>179.0</ele><time>2026-03-29T16:04:57.993Z</time></trkpt><trkpt lat="45.068938963866394" lon="8.290739220233716"><ele>179.0</ele><time>2026-03-29T16:04:58.993Z</time></trkpt><trkpt lat="45.069051056572725" lon="8.291013705053679"><ele>179.0</ele><time>2026-03-29T16:04:59.993Z</time></trkpt><trkpt lat="45.06916197698936" lon="8.291288406261142"><ele>179.0</ele><time>2026-03-29T16:05:00.993Z</time></trkpt><trkpt lat="45.06927225682434" lon="8.291562003413855"><ele>177.33333333333331</ele><time>2026-03-29T16:05:01.993Z</time></trkpt><trkpt lat="45.06938419443146" lon="8.291835419072088"><ele>175.66666666666666</ele><time>2026-03-29T16:05:02.993Z</time></trkpt><trkpt lat="45.069495358108696" lon="8.29210997242164"><ele>174.0</ele><time>2026-03-29T16:05:03.993Z</time></trkpt><trkpt lat="45.069604560103755" lon="8.292383600574373"><ele>174.0</ele><time>2026-03-29T16:05:04.993Z</time></trkpt><trkpt lat="45.069714237704126" lon="8.292656669012668"><ele>174.0</ele><time>2026-03-29T16:05:05.993Z</time></trkpt><trkpt lat="45.069823755087185" lon="8.292928703129375"><ele>174.0</ele><time>2026-03-29T16:05:06.993Z</time></trkpt><trkpt lat="45.06993319661584" lon="8.293200769845638"><ele>172.0</ele><time>2026-03-29T16:05:07.992Z</time></trkpt><trkpt lat="45.070044493704486" lon="8.293472722740336"><ele>170.0</ele><time>2026-03-29T16:05:08.992Z</time></trkpt><trkpt lat="45.07015710384523" lon="8.293740003902709"><ele>168.0</ele><time>2026-03-29T16:05:09.992Z</time></trkpt><trkpt lat="45.07026945717335" lon="8.2940068206395"><ele>167.33333333333334</ele><time>2026-03-29T16:05:10.992Z</time></trkpt><trkpt lat="45.07038428627319" lon="8.29426697091828"><ele>166.66666666666669</ele><time>2026-03-29T16:05:11.992Z</time></trkpt><trkpt lat="45.07050052554447" lon="8.294523259781977"><ele>166.0</ele><time>2026-03-29T16:05:12.992Z</time></trkpt><trkpt lat="45.07062012167589" lon="8.294775766801608"><ele>166.0</ele><time>2026-03-29T16:05:13.992Z</time></trkpt><trkpt lat="45.070743940433026" lon="8.295025409428678"><ele>166.0</ele><time>2026-03-29T16:05:14.992Z</time></trkpt><trkpt lat="45.0708718364507" lon="8.295272901496748"><ele>166.0</ele><time>2026-03-29T16:05:15.992Z</time></trkpt><trkpt lat="45.071003082652105" lon="8.295515917822257"><ele>165.0</ele><time>2026-03-29T16:05:16.992Z</time></trkpt><trkpt lat="45.07113696934007" lon="8.295759844504996"><ele>164.0</ele><time>2026-03-29T16:05:17.992Z</time></trkpt><trkpt lat="45.071275523104774" lon="8.296001716495368"><ele>163.0</ele><time>2026-03-29T16:05:18.992Z</time></trkpt><trkpt lat="45.07141899651234" lon="8.296241743644876"><ele>163.0</ele><time>2026-03-29T16:05:19.992Z</time></trkpt><trkpt lat="45.071563453845684" lon="8.296483143518659"><ele>163.0</ele><time>2026-03-29T16:05:20.992Z</time></trkpt><trkpt lat="45.07171016836902" lon="8.296723272086659"><ele>163.0</ele><time>2026-03-29T16:05:21.992Z</time></trkpt><trkpt lat="45.071858487307914" lon="8.29696277227741"><ele>163.0</ele><time>2026-03-29T16:05:22.992Z</time></trkpt><trkpt lat="45.072008086358395" lon="8.297205545174272"><ele>163.0</ele><time>2026-03-29T16:05:23.992Z</time></trkpt><trkpt lat="45.072162289149446" lon="8.297449444499916"><ele>163.5</ele><time>2026-03-29T16:05:24.992Z</time></trkpt><trkpt lat="45.07231370972294" lon="8.29769263158057"><ele>164.0</ele><time>2026-03-29T16:05:25.992Z</time></trkpt><trkpt lat="45.07246650440214" lon="8.29794212589579"><ele>162.0</ele><time>2026-03-29T16:05:26.992Z</time></trkpt><trkpt lat="45.07261873218891" lon="8.298192130621377"><ele>160.0</ele><time>2026-03-29T16:05:27.992Z</time></trkpt><trkpt lat="45.07277382181894" lon="8.298442337318674"><ele>160.0</ele><time>2026-03-29T16:05:28.992Z</time></trkpt><trkpt lat="45.07292848989161" lon="8.298692824492129"><ele>160.0</ele><time>2026-03-29T16:05:29.992Z</time></trkpt><trkpt lat="45.07308397136086" lon="8.298941371775074"><ele>160.5</ele><time>2026-03-29T16:05:30.992Z</time></trkpt><trkpt lat="45.07323961266122" lon="8.2991938745194"><ele>161.0</ele><time>2026-03-29T16:05:31.992Z</time></trkpt><trkpt lat="45.07339572689587" lon="8.299448273387318"><ele>161.0</ele><time>2026-03-29T16:05:32.992Z</time></trkpt><trkpt lat="45.073553081449276" lon="8.299702834605002"><ele>161.0</ele><time>2026-03-29T16:05:33.992Z</time></trkpt><trkpt lat="45.0737111375639" lon="8.299957874786013"><ele>162.5</ele><time>2026-03-29T16:05:34.992Z</time></trkpt><trkpt lat="45.07386945869509" lon="8.300213139420395"><ele>164.0</ele><time>2026-03-29T16:05:35.992Z</time></trkpt><trkpt lat="45.07402869025217" lon="8.300470994835951"><ele>161.5</ele><time>2026-03-29T16:05:36.992Z</time></trkpt><trkpt lat="45.074185430852" lon="8.300729111925326"><ele>159.0</ele><time>2026-03-29T16:05:37.992Z</time></trkpt><trkpt lat="45.07434191610167" lon="8.300987980441754"><ele>159.0</ele><time>2026-03-29T16:05:38.992Z</time></trkpt><trkpt lat="45.07449988534545" lon="8.301243850157551"><ele>159.0</ele><time>2026-03-29T16:05:39.992Z</time></trkpt><trkpt lat="45.07465752250374" lon="8.30149802073228"><ele>159.0</ele><time>2026-03-29T16:05:40.992Z</time></trkpt><trkpt lat="45.07481172060236" lon="8.30174908771616"><ele>159.0</ele><time>2026-03-29T16:05:41.992Z</time></trkpt><trkpt lat="45.07496508534734" lon="8.301996776648002"><ele>159.0</ele><time>2026-03-29T16:05:42.992Z</time></trkpt><trkpt lat="45.07511489278573" lon="8.302242684183295"><ele>159.0</ele><time>2026-03-29T16:05:43.992Z</time></trkpt><trkpt lat="45.075264460497856" lon="8.302483844644836"><ele>159.33333333333334</ele><time>2026-03-29T16:05:44.992Z</time></trkpt><trkpt lat="45.075414106564345" lon="8.302721399577312"><ele>159.66666666666669</ele><time>2026-03-29T16:05:45.992Z</time></trkpt><trkpt lat="45.07556035593518" lon="8.302958366690607"><ele>160.0</ele><time>2026-03-29T16:05:46.992Z</time></trkpt><trkpt lat="45.075703971380634" lon="8.303194535988897"><ele>159.66666666666669</ele><time>2026-03-29T16:05:47.992Z</time></trkpt><trkpt lat="45.075846329817374" lon="8.303427218434251"><ele>159.33333333333334</ele><time>2026-03-29T16:05:48.992Z</time></trkpt><trkpt lat="45.07598680985917" lon="8.30365711187886"><ele>159.0</ele><time>2026-03-29T16:05:49.992Z</time></trkpt><trkpt lat="45.07612527450132" lon="8.303881907223674"><ele>159.66666666666666</ele><time>2026-03-29T16:05:50.992Z</time></trkpt><trkpt lat="45.076262115478926" lon="8.304105170482115"><ele>160.33333333333331</ele><time>2026-03-29T16:05:51.992Z</time></trkpt><trkpt lat="45.076399331443945" lon="8.304329687314533"><ele>161.0</ele><time>2026-03-29T16:05:52.992Z</time></trkpt><trkpt lat="45.076533485381184" lon="8.304558512415648"><ele>160.33333333333331</ele><time>2026-03-29T16:05:53.992Z</time></trkpt><trkpt lat="45.0766709175922" lon="8.304787382490392"><ele>159.66666666666666</ele><time>2026-03-29T16:05:54.992Z</time></trkpt><trkpt lat="45.07681116837464" lon="8.305012919553821"><ele>159.0</ele><time>2026-03-29T16:05:55.992Z</time></trkpt><trkpt lat="45.076951120747694" lon="8.305237992748422"><ele>159.0</ele><time>2026-03-29T16:05:56.992Z</time></trkpt><trkpt lat="45.077093057986986" lon="8.305460716690218"><ele>159.0</ele><time>2026-03-29T16:05:57.991Z</time></trkpt><trkpt lat="45.07723908925318" lon="8.305680851612003"><ele>159.0</ele><time>2026-03-29T16:05:58.991Z</time></trkpt><trkpt lat="45.07739423573454" lon="8.305892316850507"><ele>158.66666666666666</ele><time>2026-03-29T16:05:59.991Z</time></trkpt><trkpt lat="45.077557800373306" lon="8.306088499514468"><ele>158.33333333333331</ele><time>2026-03-29T16:06:00.991Z</time></trkpt><trkpt lat="45.07773022167533" lon="8.306267956104046"><ele>158.0</ele><time>2026-03-29T16:06:01.991Z</time></trkpt><trkpt lat="45.07791226870538" lon="8.306429730436053"><ele>158.66666666666666</ele><time>2026-03-29T16:06:02.991Z</time></trkpt><trkpt lat="45.07810305385077" lon="8.306575952425403"><ele>159.33333333333334</ele><time>2026-03-29T16:06:03.991Z</time></trkpt><trkpt lat="45.078300289044826" lon="8.306704646234"><ele>160.0</ele><time>2026-03-29T16:06:04.991Z</time></trkpt><trkpt lat="45.07850442507479" lon="8.3068162783655"><ele>159.33333333333334</ele><time>2026-03-29T16:06:05.991Z</time></trkpt><trkpt lat="45.07871145639005" lon="8.306921439000796"><ele>158.66666666666666</ele><time>2026-03-29T16:06:06.994Z</time></trkpt><trkpt lat="45.07892309303538" lon="8.307017812365133"><ele>158.0</ele><time>2026-03-29T16:06:07.994Z</time></trkpt><trkpt lat="45.07913666134645" lon="8.307114491400013"><ele>158.0</ele><time>2026-03-29T16:06:08.994Z</time></trkpt><trkpt lat="45.07935193765809" lon="8.30721348118109"><ele>158.0</ele><time>2026-03-29T16:06:09.993Z</time></trkpt><trkpt lat="45.07956845874509" lon="8.307316377517093"><ele>157.5</ele><time>2026-03-29T16:06:10.994Z</time></trkpt><trkpt lat="45.079788117097095" lon="8.307418207553242"><ele>157.0</ele><time>2026-03-29T16:06:11.994Z</time></trkpt><trkpt lat="45.08000892553607" lon="8.307517141874404"><ele>159.0</ele><time>2026-03-29T16:06:12.993Z</time></trkpt><trkpt lat="45.08023178904517" lon="8.307615497998853"><ele>161.0</ele><time>2026-03-29T16:06:13.994Z</time></trkpt><trkpt lat="45.080456739861674" lon="8.307713400918228"><ele>161.0</ele><time>2026-03-29T16:06:14.994Z</time></trkpt><trkpt lat="45.0806796419431" lon="8.307810629147406"><ele>161.0</ele><time>2026-03-29T16:06:15.994Z</time></trkpt><trkpt lat="45.08090259625398" lon="8.307910306497556"><ele>161.0</ele><time>2026-03-29T16:06:16.994Z</time></trkpt><trkpt lat="45.08112672987269" lon="8.308006892500563"><ele>161.0</ele><time>2026-03-29T16:06:17.993Z</time></trkpt><trkpt lat="45.08135219294602" lon="8.308098200337437"><ele>160.0</ele><time>2026-03-29T16:06:18.994Z</time></trkpt><trkpt lat="45.081580506024316" lon="8.3081919423464"><ele>159.0</ele><time>2026-03-29T16:06:19.993Z</time></trkpt><trkpt lat="45.081816581570706" lon="8.308291075814676"><ele>158.5</ele><time>2026-03-29T16:06:20.993Z</time></trkpt><trkpt lat="45.08205924574789" lon="8.308392396567152"><ele>158.0</ele><time>2026-03-29T16:06:21.993Z</time></trkpt><trkpt lat="45.08229998333837" lon="8.308510510139904"><ele>156.5</ele><time>2026-03-29T16:06:22.993Z</time></trkpt><trkpt lat="45.08254678033545" lon="8.308637838562865"><ele>155.0</ele><time>2026-03-29T16:06:23.993Z</time></trkpt><trkpt lat="45.08280107904642" lon="8.308764034754644"><ele>155.0</ele><time>2026-03-29T16:06:24.993Z</time></trkpt><trkpt lat="45.08305637855241" lon="8.30887775732634"><ele>155.0</ele><time>2026-03-29T16:06:25.993Z</time></trkpt><trkpt lat="45.08330688788382" lon="8.308986558918669"><ele>155.5</ele><time>2026-03-29T16:06:26.993Z</time></trkpt><trkpt lat="45.083558746385876" lon="8.309095520625934"><ele>156.0</ele><time>2026-03-29T16:06:27.993Z</time></trkpt><trkpt lat="45.08380570184358" lon="8.309204636708865"><ele>156.0</ele><time>2026-03-29T16:06:28.993Z</time></trkpt><trkpt lat="45.08404663141678" lon="8.309311260782561"><ele>156.0</ele><time>2026-03-29T16:06:29.993Z</time></trkpt><trkpt lat="45.084282136844074" lon="8.309414457605454"><ele>154.5</ele><time>2026-03-29T16:06:30.993Z</time></trkpt><trkpt lat="45.08451235973327" lon="8.309515177191633"><ele>153.0</ele><time>2026-03-29T16:06:31.993Z</time></trkpt><trkpt lat="45.08473850065292" lon="8.309612687092338"><ele>154.5</ele><time>2026-03-29T16:06:32.993Z</time></trkpt><trkpt lat="45.084960416620675" lon="8.309710232692309"><ele>156.0</ele><time>2026-03-29T16:06:33.993Z</time></trkpt><trkpt lat="45.08518118776902" lon="8.309805817169025"><ele>156.5</ele><time>2026-03-29T16:06:34.993Z</time></trkpt><trkpt lat="45.08540100097155" lon="8.309902990353972"><ele>157.0</ele><time>2026-03-29T16:06:35.993Z</time></trkpt><trkpt lat="45.085620724159966" lon="8.310004327645151"><ele>157.0</ele><time>2026-03-29T16:06:36.993Z</time></trkpt><trkpt lat="45.08584096552566" lon="8.310106142917517"><ele>157.0</ele><time>2026-03-29T16:06:37.993Z</time></trkpt><trkpt lat="45.08606298714013" lon="8.310199278481926"><ele>157.0</ele><time>2026-03-29T16:06:38.993Z</time></trkpt><trkpt lat="45.08629010518587" lon="8.310278804488204"><ele>157.0</ele><time>2026-03-29T16:06:39.993Z</time></trkpt><trkpt lat="45.086521799181774" lon="8.310341200475492"><ele>156.0</ele><time>2026-03-29T16:06:40.993Z</time></trkpt><trkpt lat="45.08675717771118" lon="8.310385626150504"><ele>155.0</ele><time>2026-03-29T16:06:41.993Z</time></trkpt><trkpt lat="45.086995739100686" lon="8.310418269744918"><ele>155.0</ele><time>2026-03-29T16:06:42.993Z</time></trkpt><trkpt lat="45.08723981087947" lon="8.310438604584185"><ele>155.0</ele><time>2026-03-29T16:06:43.993Z</time></trkpt><trkpt lat="45.08748285089712" lon="8.31044487275918"><ele>154.0</ele><time>2026-03-29T16:06:44.993Z</time></trkpt><trkpt lat="45.087729983226815" lon="8.310427248785418"><ele>153.0</ele><time>2026-03-29T16:06:45.993Z</time></trkpt><trkpt lat="45.08797792998901" lon="8.31039994186259"><ele>153.0</ele><time>2026-03-29T16:06:46.993Z</time></trkpt><trkpt lat="45.0882269225744" lon="8.31037001280618"><ele>153.0</ele><time>2026-03-29T16:06:47.993Z</time></trkpt><trkpt lat="45.088477412900964" lon="8.310339980501988"><ele>153.5</ele><time>2026-03-29T16:06:48.993Z</time></trkpt><trkpt lat="45.08872887418313" lon="8.310315995855328"><ele>154.0</ele><time>2026-03-29T16:06:49.993Z</time></trkpt><trkpt lat="45.08898385608168" lon="8.31028973654116"><ele>154.0</ele><time>2026-03-29T16:06:50.993Z</time></trkpt><trkpt lat="45.08923787110798" lon="8.310262258314028"><ele>154.0</ele><time>2026-03-29T16:06:51.993Z</time></trkpt><trkpt lat="45.08949093220379" lon="8.310237549976224"><ele>154.0</ele><time>2026-03-29T16:06:52.993Z</time></trkpt><trkpt lat="45.089743837653415" lon="8.310213231055881"><ele>154.0</ele><time>2026-03-29T16:06:53.993Z</time></trkpt><trkpt lat="45.08999754999347" lon="8.310186283355813"><ele>152.0</ele><time>2026-03-29T16:06:54.993Z</time></trkpt><trkpt lat="45.09025366042886" lon="8.31015916686423"><ele>150.0</ele><time>2026-03-29T16:06:55.993Z</time></trkpt><trkpt lat="45.09050927685949" lon="8.310131701960897"><ele>150.0</ele><time>2026-03-29T16:06:56.993Z</time></trkpt><trkpt lat="45.09076667837134" lon="8.31010519896032"><ele>150.0</ele><time>2026-03-29T16:06:57.992Z</time></trkpt><trkpt lat="45.09102646842718" lon="8.310078517527286"><ele>150.0</ele><time>2026-03-29T16:06:58.992Z</time></trkpt><trkpt lat="45.09128453577698" lon="8.31004847929686"><ele>150.0</ele><time>2026-03-29T16:06:59.992Z</time></trkpt><trkpt lat="45.09154209753599" lon="8.310021695984663"><ele>151.0</ele><time>2026-03-29T16:07:00.992Z</time></trkpt><trkpt lat="45.091799101890366" lon="8.309996403624963"><ele>152.0</ele><time>2026-03-29T16:07:01.992Z</time></trkpt><trkpt lat="45.09205340812706" lon="8.309972144359735"><ele>152.0</ele><time>2026-03-29T16:07:02.992Z</time></trkpt><trkpt lat="45.092304517856995" lon="8.309948536538904"><ele>152.0</ele><time>2026-03-29T16:07:03.992Z</time></trkpt><trkpt lat="45.092550727573666" lon="8.30992329111819"><ele>151.5</ele><time>2026-03-29T16:07:04.992Z</time></trkpt><trkpt lat="45.09279229355837" lon="8.309897792319868"><ele>151.0</ele><time>2026-03-29T16:07:05.992Z</time></trkpt><trkpt lat="45.09302956227783" lon="8.309876124342644"><ele>150.0</ele><time>2026-03-29T16:07:06.992Z</time></trkpt><trkpt lat="45.093264720878466" lon="8.309861177901979"><ele>149.0</ele><time>2026-03-29T16:07:07.992Z</time></trkpt><trkpt lat="45.093498222315034" lon="8.309850589929002"><ele>149.0</ele><time>2026-03-29T16:07:08.992Z</time></trkpt><trkpt lat="45.093729531348615" lon="8.309845459028196"><ele>149.0</ele><time>2026-03-29T16:07:09.992Z</time></trkpt><trkpt lat="45.09396077954418" lon="8.309848028663252"><ele>149.5</ele><time>2026-03-29T16:07:10.992Z</time></trkpt><trkpt lat="45.094187701216114" lon="8.30986353131044"><ele>150.0</ele><time>2026-03-29T16:07:11.992Z</time></trkpt><trkpt lat="45.094411953483394" lon="8.309892580697158"><ele>150.0</ele><time>2026-03-29T16:07:12.992Z</time></trkpt><trkpt lat="45.09463646880933" lon="8.309931062371565"><ele>150.0</ele><time>2026-03-29T16:07:13.992Z</time></trkpt><trkpt lat="45.094857651518836" lon="8.309970639299028"><ele>150.0</ele><time>2026-03-29T16:07:14.992Z</time></trkpt><trkpt lat="45.09507849329" lon="8.310008568084623"><ele>150.66666666666666</ele><time>2026-03-29T16:07:15.992Z</time></trkpt><trkpt lat="45.095298818018215" lon="8.31004909741911"><ele>151.33333333333331</ele><time>2026-03-29T16:07:16.992Z</time></trkpt><trkpt lat="45.095516656918356" lon="8.310090395229048"><ele>152.0</ele><time>2026-03-29T16:07:17.992Z</time></trkpt><trkpt lat="45.09573392475733" lon="8.310135473267025"><ele>152.33333333333331</ele><time>2026-03-29T16:07:18.992Z</time></trkpt><trkpt lat="45.09595206050557" lon="8.310180592390216"><ele>152.66666666666666</ele><time>2026-03-29T16:07:19.992Z</time></trkpt><trkpt lat="45.096167351912754" lon="8.310225431287993"><ele>153.0</ele><time>2026-03-29T16:07:20.992Z</time></trkpt><trkpt lat="45.096382560625706" lon="8.310271237296707"><ele>153.0</ele><time>2026-03-29T16:07:21.992Z</time></trkpt><trkpt lat="45.09659694325505" lon="8.310314260456702"><ele>153.0</ele><time>2026-03-29T16:07:22.992Z</time></trkpt><trkpt lat="45.09681208505438" lon="8.310356154761344"><ele>153.0</ele><time>2026-03-29T16:07:23.992Z</time></trkpt><trkpt lat="45.0970251965322" lon="8.310398092068182"><ele>153.0</ele><time>2026-03-29T16:07:24.992Z</time></trkpt><trkpt lat="45.097236798408716" lon="8.310438940269957"><ele>153.0</ele><time>2026-03-29T16:07:25.992Z</time></trkpt><trkpt lat="45.09744565989998" lon="8.310478294554292"><ele>153.0</ele><time>2026-03-29T16:07:26.992Z</time></trkpt><trkpt lat="45.09765246297403" lon="8.31051527454893"><ele>153.0</ele><time>2026-03-29T16:07:27.992Z</time></trkpt><trkpt lat="45.097858785631765" lon="8.310543481110555"><ele>153.0</ele><time>2026-03-29T16:07:28.992Z</time></trkpt><trkpt lat="45.09806550978406" lon="8.310560901674798"><ele>153.0</ele><time>2026-03-29T16:07:29.992Z</time></trkpt><trkpt lat="45.09827510450553" lon="8.310562362368577"><ele>155.33333333333334</ele><time>2026-03-29T16:07:30.992Z</time></trkpt><trkpt lat="45.09848696285819" lon="8.310552628507168"><ele>157.66666666666669</ele><time>2026-03-29T16:07:31.992Z</time></trkpt><trkpt lat="45.098698641053325" lon="8.310532523483252"><ele>160.0</ele><time>2026-03-29T16:07:32.992Z</time></trkpt><trkpt lat="45.09891418654292" lon="8.310501265479834"><ele>160.66666666666669</ele><time>2026-03-29T16:07:33.992Z</time></trkpt><trkpt lat="45.09912740198991" lon="8.310453984092982"><ele>161.33333333333334</ele><time>2026-03-29T16:07:34.992Z</time></trkpt><trkpt lat="45.099339976205904" lon="8.310396987001107"><ele>162.0</ele><time>2026-03-29T16:07:35.992Z</time></trkpt><trkpt lat="45.099553802828346" lon="8.310332189068374"><ele>162.0</ele><time>2026-03-29T16:07:36.992Z</time></trkpt><trkpt lat="45.09976725996207" lon="8.310269300049388"><ele>162.0</ele><time>2026-03-29T16:07:37.992Z</time></trkpt><trkpt lat="45.09998324920527" lon="8.310201464047456"><ele>162.0</ele><time>2026-03-29T16:07:38.992Z</time></trkpt><trkpt lat="45.10019985986854" lon="8.310139874286302"><ele>162.33333333333334</ele><time>2026-03-29T16:07:39.992Z</time></trkpt><trkpt lat="45.100418371759396" lon="8.310085014800261"><ele>162.66666666666669</ele><time>2026-03-29T16:07:40.992Z</time></trkpt><trkpt lat="45.10064057332852" lon="8.310043870962287"><ele>163.0</ele><time>2026-03-29T16:07:41.992Z</time></trkpt><trkpt lat="45.10086580831534" lon="8.310021626618843"><ele>163.0</ele><time>2026-03-29T16:07:42.992Z</time></trkpt><trkpt lat="45.101093018785036" lon="8.310019667357974"><ele>163.0</ele><time>2026-03-29T16:07:43.992Z</time></trkpt><trkpt lat="45.10132253026124" lon="8.310035809466054"><ele>163.0</ele><time>2026-03-29T16:07:44.992Z</time></trkpt><trkpt lat="45.10155109645871" lon="8.31007518552138"><ele>163.0</ele><time>2026-03-29T16:07:45.992Z</time></trkpt><trkpt lat="45.10177819518231" lon="8.310134654619649"><ele>159.0</ele><time>2026-03-29T16:07:46.991Z</time></trkpt><trkpt lat="45.10200104344544" lon="8.310217244104757"><ele>155.0</ele><time>2026-03-29T16:07:47.991Z</time></trkpt><trkpt lat="45.102224471654154" lon="8.310320820198053"><ele>152.0</ele><time>2026-03-29T16:07:48.991Z</time></trkpt><trkpt lat="45.102444255570695" lon="8.310446105256478"><ele>149.0</ele><time>2026-03-29T16:07:49.991Z</time></trkpt><trkpt lat="45.102657606300866" lon="8.310590657783921"><ele>149.0</ele><time>2026-03-29T16:07:50.991Z</time></trkpt><trkpt lat="45.10286704302277" lon="8.31075547762039"><ele>149.0</ele><time>2026-03-29T16:07:51.991Z</time></trkpt><trkpt lat="45.10306726904807" lon="8.310941965808247"><ele>146.5</ele><time>2026-03-29T16:07:52.991Z</time></trkpt><trkpt lat="45.10326281006947" lon="8.311145031624255"><ele>144.0</ele><time>2026-03-29T16:07:53.991Z</time></trkpt><trkpt lat="45.10346267386648" lon="8.311347458238656"><ele>144.0</ele><time>2026-03-29T16:07:54.991Z</time></trkpt><trkpt lat="45.10366362637871" lon="8.311551349327274"><ele>144.0</ele><time>2026-03-29T16:07:55.991Z</time></trkpt><trkpt lat="45.10386499447798" lon="8.311755092143622"><ele>144.0</ele><time>2026-03-29T16:07:56.991Z</time></trkpt><trkpt lat="45.10407008919903" lon="8.311956986669607"><ele>144.0</ele><time>2026-03-29T16:07:57.991Z</time></trkpt><trkpt lat="45.10427349431803" lon="8.312158335937605"><ele>144.0</ele><time>2026-03-29T16:07:58.991Z</time></trkpt><trkpt lat="45.10447895612412" lon="8.312360675153295"><ele>144.0</ele><time>2026-03-29T16:07:59.991Z</time></trkpt><trkpt lat="45.10468565988443" lon="8.31256034854765"><ele>144.0</ele><time>2026-03-29T16:08:00.991Z</time></trkpt><trkpt lat="45.10489128008903" lon="8.312763832865915"><ele>144.0</ele><time>2026-03-29T16:08:01.991Z</time></trkpt><trkpt lat="45.105097739188956" lon="8.312968690504755"><ele>142.5</ele><time>2026-03-29T16:08:02.991Z</time></trkpt><trkpt lat="45.105304188235955" lon="8.313178644572568"><ele>141.0</ele><time>2026-03-29T16:08:03.991Z</time></trkpt><trkpt lat="45.10550833295863" lon="8.313386331214256"><ele>141.0</ele><time>2026-03-29T16:08:04.991Z</time></trkpt><trkpt lat="45.105715792880005" lon="8.3135922313681"><ele>141.0</ele><time>2026-03-29T16:08:05.991Z</time></trkpt><trkpt lat="45.10592488566109" lon="8.31379572346449"><ele>141.0</ele><time>2026-03-29T16:08:06.991Z</time></trkpt><trkpt lat="45.10613217857345" lon="8.313999344906422"><ele>141.0</ele><time>2026-03-29T16:08:07.991Z</time></trkpt><trkpt lat="45.106340154944924" lon="8.31420646142515"><ele>141.0</ele><time>2026-03-29T16:08:08.991Z</time></trkpt><trkpt lat="45.10654742553652" lon="8.314413297780678"><ele>141.0</ele><time>2026-03-29T16:08:09.991Z</time></trkpt><trkpt lat="45.10675415459556" lon="8.314618373638103"><ele>140.0</ele><time>2026-03-29T16:08:10.991Z</time></trkpt><trkpt lat="45.10695961182803" lon="8.314822014329946"><ele>139.0</ele><time>2026-03-29T16:08:11.991Z</time></trkpt><trkpt lat="45.10716441963728" lon="8.315024299664769"><ele>139.0</ele><time>2026-03-29T16:08:12.994Z</time></trkpt><trkpt lat="45.10736591315452" lon="8.315227713357585"><ele>139.0</ele><time>2026-03-29T16:08:13.994Z</time></trkpt><trkpt lat="45.10756770268889" lon="8.315430461824574"><ele>139.5</ele><time>2026-03-29T16:08:14.993Z</time></trkpt><trkpt lat="45.10777013213678" lon="8.31562991173872"><ele>140.0</ele><time>2026-03-29T16:08:15.993Z</time></trkpt><trkpt lat="45.107972535573694" lon="8.31582830763973"><ele>140.0</ele><time>2026-03-29T16:08:16.994Z</time></trkpt><trkpt lat="45.10817638481656" lon="8.316026842260234"><ele>140.0</ele><time>2026-03-29T16:08:17.994Z</time></trkpt><trkpt lat="45.10837310791503" lon="8.316222789182907"><ele>138.5</ele><time>2026-03-29T16:08:18.993Z</time></trkpt><trkpt lat="45.1085695654774" lon="8.316418431831893"><ele>137.0</ele><time>2026-03-29T16:08:19.994Z</time></trkpt><trkpt lat="45.10875960978612" lon="8.316613620137453"><ele>137.0</ele><time>2026-03-29T16:08:20.993Z</time></trkpt><trkpt lat="45.10895031544342" lon="8.316801928132534"><ele>137.0</ele><time>2026-03-29T16:08:21.994Z</time></trkpt><trkpt lat="45.10913752550368" lon="8.31698679443063"><ele>137.0</ele><time>2026-03-29T16:08:22.994Z</time></trkpt><trkpt lat="45.109321343320616" lon="8.317169781673671"><ele>137.0</ele><time>2026-03-29T16:08:23.994Z</time></trkpt><trkpt lat="45.10950122024114" lon="8.31734632507652"><ele>137.0</ele><time>2026-03-29T16:08:24.993Z</time></trkpt><trkpt lat="45.10967786256009" lon="8.317521349162527"><ele>137.33333333333331</ele><time>2026-03-29T16:08:25.993Z</time></trkpt><trkpt lat="45.109853496577465" lon="8.317694593245001"><ele>137.66666666666666</ele><time>2026-03-29T16:08:26.993Z</time></trkpt><trkpt lat="45.110031357231264" lon="8.317865706967659"><ele>138.0</ele><time>2026-03-29T16:08:27.993Z</time></trkpt><trkpt lat="45.110209296095576" lon="8.318037718095757"><ele>139.5</ele><time>2026-03-29T16:08:28.993Z</time></trkpt><trkpt lat="45.11039952424519" lon="8.318221242941933"><ele>141.0</ele><time>2026-03-29T16:08:29.993Z</time></trkpt><trkpt lat="45.11059914219615" lon="8.31842177567314"><ele>140.5</ele><time>2026-03-29T16:08:30.993Z</time></trkpt><trkpt lat="45.11080252002844" lon="8.31863001901603"><ele>140.0</ele><time>2026-03-29T16:08:31.993Z</time></trkpt><trkpt lat="45.11099904554583" lon="8.318841347540076"><ele>140.5</ele><time>2026-03-29T16:08:32.993Z</time></trkpt><trkpt lat="45.11119259430425" lon="8.319051113481823"><ele>141.0</ele><time>2026-03-29T16:08:33.993Z</time></trkpt><trkpt lat="45.11138775620942" lon="8.31925061441721"><ele>139.5</ele><time>2026-03-29T16:08:34.993Z</time></trkpt><trkpt lat="45.1115826835794" lon="8.319439642865524"><ele>138.0</ele><time>2026-03-29T16:08:35.993Z</time></trkpt><trkpt lat="45.111774527984075" lon="8.319620749526734"><ele>138.0</ele><time>2026-03-29T16:08:36.993Z</time></trkpt><trkpt lat="45.11196113619083" lon="8.319794329878528"><ele>138.0</ele><time>2026-03-29T16:08:37.993Z</time></trkpt><trkpt lat="45.11214600839572" lon="8.319964234915183"><ele>138.0</ele><time>2026-03-29T16:08:38.993Z</time></trkpt><trkpt lat="45.11233147114737" lon="8.320138065131141"><ele>139.0</ele><time>2026-03-29T16:08:39.993Z</time></trkpt><trkpt lat="45.11251871397255" lon="8.320314320202824"><ele>140.0</ele><time>2026-03-29T16:08:40.993Z</time></trkpt><trkpt lat="45.112707750419446" lon="8.320494274167904"><ele>139.5</ele><time>2026-03-29T16:08:41.993Z</time></trkpt><trkpt lat="45.11289728341706" lon="8.320673464587022"><ele>139.0</ele><time>2026-03-29T16:08:42.993Z</time></trkpt><trkpt lat="45.11309132902111" lon="8.320855502122452"><ele>139.5</ele><time>2026-03-29T16:08:43.993Z</time></trkpt><trkpt lat="45.113286270456584" lon="8.321041588891163"><ele>140.0</ele><time>2026-03-29T16:08:44.993Z</time></trkpt><trkpt lat="45.113483153563024" lon="8.321233117569859"><ele>139.5</ele><time>2026-03-29T16:08:45.993Z</time></trkpt><trkpt lat="45.113680508563604" lon="8.32142573745751"><ele>139.0</ele><time>2026-03-29T16:08:46.993Z</time></trkpt><trkpt lat="45.11388111883711" lon="8.32161610067559"><ele>137.0</ele><time>2026-03-29T16:08:47.993Z</time></trkpt><trkpt lat="45.11408514268427" lon="8.32180502168139"><ele>135.0</ele><time>2026-03-29T16:08:48.993Z</time></trkpt><trkpt lat="45.11429136026163" lon="8.321996505934274"><ele>135.0</ele><time>2026-03-29T16:08:49.993Z</time></trkpt><trkpt lat="45.11449870194175" lon="8.322190160970298"><ele>135.0</ele><time>2026-03-29T16:08:50.993Z</time></trkpt><trkpt lat="45.11470331335736" lon="8.322385650384373"><ele>135.5</ele><time>2026-03-29T16:08:51.993Z</time></trkpt><trkpt lat="45.11491122729542" lon="8.32257737358255"><ele>136.0</ele><time>2026-03-29T16:08:52.993Z</time></trkpt><trkpt lat="45.11511952156846" lon="8.322769878314737"><ele>136.0</ele><time>2026-03-29T16:08:53.993Z</time></trkpt><trkpt lat="45.11532480331063" lon="8.322959827812081"><ele>136.0</ele><time>2026-03-29T16:08:54.993Z</time></trkpt><trkpt lat="45.115529014805894" lon="8.32315201113296"><ele>135.5</ele><time>2026-03-29T16:08:55.993Z</time></trkpt><trkpt lat="45.11573438528657" lon="8.323342985769084"><ele>135.0</ele><time>2026-03-29T16:08:56.993Z</time></trkpt><trkpt lat="45.115940050068424" lon="8.323532699483557"><ele>135.0</ele><time>2026-03-29T16:08:57.993Z</time></trkpt><trkpt lat="45.116145315871634" lon="8.323722981639177"><ele>135.0</ele><time>2026-03-29T16:08:58.993Z</time></trkpt><trkpt lat="45.11635195168944" lon="8.32391078446703"><ele>134.5</ele><time>2026-03-29T16:08:59.993Z</time></trkpt><trkpt lat="45.11655469834658" lon="8.32409818596916"><ele>134.0</ele><time>2026-03-29T16:09:00.993Z</time></trkpt><trkpt lat="45.11675620454458" lon="8.324285114947036"><ele>135.0</ele><time>2026-03-29T16:09:01.993Z</time></trkpt><trkpt lat="45.116954229407156" lon="8.324469546189459"><ele>136.0</ele><time>2026-03-29T16:09:02.993Z</time></trkpt><trkpt lat="45.11714932103781" lon="8.32465128301615"><ele>136.0</ele><time>2026-03-29T16:09:03.993Z</time></trkpt><trkpt lat="45.1173422512381" lon="8.324830840462367"><ele>136.0</ele><time>2026-03-29T16:09:04.993Z</time></trkpt><trkpt lat="45.11753385210255" lon="8.325011248939804"><ele>136.0</ele><time>2026-03-29T16:09:05.993Z</time></trkpt><trkpt lat="45.117722827297975" lon="8.325192184594444"><ele>136.0</ele><time>2026-03-29T16:09:06.993Z</time></trkpt><trkpt lat="45.117913091475664" lon="8.325370370982746"><ele>136.0</ele><time>2026-03-29T16:09:07.993Z</time></trkpt><trkpt lat="45.11810003151452" lon="8.32554584785494"><ele>136.0</ele><time>2026-03-29T16:09:08.993Z</time></trkpt><trkpt lat="45.11828889335666" lon="8.325721632028543"><ele>136.5</ele><time>2026-03-29T16:09:09.993Z</time></trkpt><trkpt lat="45.11847792282566" lon="8.325897665238626"><ele>137.0</ele><time>2026-03-29T16:09:10.993Z</time></trkpt><trkpt lat="45.118665560008935" lon="8.32607207064351"><ele>137.0</ele><time>2026-03-29T16:09:11.993Z</time></trkpt><trkpt lat="45.11885415091952" lon="8.326248733364597"><ele>137.0</ele><time>2026-03-29T16:09:12.992Z</time></trkpt><trkpt lat="45.11904367262922" lon="8.326423153011516"><ele>138.0</ele><time>2026-03-29T16:09:13.992Z</time></trkpt><trkpt lat="45.11923453337351" lon="8.326600132743934"><ele>139.0</ele><time>2026-03-29T16:09:14.992Z</time></trkpt><trkpt lat="45.11942566705899" lon="8.326777088267011"><ele>139.0</ele><time>2026-03-29T16:09:15.992Z</time></trkpt><trkpt lat="45.11961694296742" lon="8.32695562030277"><ele>139.0</ele><time>2026-03-29T16:09:16.992Z</time></trkpt><trkpt lat="45.119810717985" lon="8.327132702927367"><ele>140.5</ele><time>2026-03-29T16:09:17.992Z</time></trkpt><trkpt lat="45.120005854763534" lon="8.327309181862272"><ele>142.0</ele><time>2026-03-29T16:09:18.992Z</time></trkpt><trkpt lat="45.120199787049486" lon="8.3274889714176"><ele>142.0</ele><time>2026-03-29T16:09:19.992Z</time></trkpt><trkpt lat="45.1203935412702" lon="8.327668586826332"><ele>142.0</ele><time>2026-03-29T16:09:20.992Z</time></trkpt><trkpt lat="45.1205881969232" lon="8.327849990376356"><ele>142.0</ele><time>2026-03-29T16:09:21.992Z</time></trkpt><trkpt lat="45.12078728204307" lon="8.328037008646975"><ele>142.0</ele><time>2026-03-29T16:09:22.992Z</time></trkpt><trkpt lat="45.12098608017399" lon="8.328228320688236"><ele>142.0</ele><time>2026-03-29T16:09:23.992Z</time></trkpt><trkpt lat="45.12118762247834" lon="8.328420629772666"><ele>142.0</ele><time>2026-03-29T16:09:24.992Z</time></trkpt><trkpt lat="45.12139294193338" lon="8.328613032642515"><ele>141.0</ele><time>2026-03-29T16:09:25.992Z</time></trkpt><trkpt lat="45.12160137195402" lon="8.328804092989742"><ele>140.0</ele><time>2026-03-29T16:09:26.992Z</time></trkpt><trkpt lat="45.12181267327821" lon="8.328998150123162"><ele>140.0</ele><time>2026-03-29T16:09:27.992Z</time></trkpt><trkpt lat="45.122024679581365" lon="8.32919396729196"><ele>140.0</ele><time>2026-03-29T16:09:28.992Z</time></trkpt><trkpt lat="45.122237876884476" lon="8.329392908075496"><ele>140.0</ele><time>2026-03-29T16:09:29.992Z</time></trkpt><trkpt lat="45.12244941904064" lon="8.329596723753463"><ele>140.0</ele><time>2026-03-29T16:09:30.992Z</time></trkpt><trkpt lat="45.12266479885276" lon="8.329802602859354"><ele>139.5</ele><time>2026-03-29T16:09:31.992Z</time></trkpt><trkpt lat="45.12288000434522" lon="8.33000707078402"><ele>139.0</ele><time>2026-03-29T16:09:32.992Z</time></trkpt><trkpt lat="45.123095593176444" lon="8.330211366897688"><ele>139.5</ele><time>2026-03-29T16:09:33.992Z</time></trkpt><trkpt lat="45.123313672578924" lon="8.330414880452533"><ele>140.0</ele><time>2026-03-29T16:09:34.992Z</time></trkpt><trkpt lat="45.12353134432078" lon="8.330617056126181"><ele>139.0</ele><time>2026-03-29T16:09:35.992Z</time></trkpt><trkpt lat="45.12374687495468" lon="8.330822209817455"><ele>138.0</ele><time>2026-03-29T16:09:36.992Z</time></trkpt><trkpt lat="45.12396303667351" lon="8.331025749987019"><ele>138.0</ele><time>2026-03-29T16:09:37.992Z</time></trkpt><trkpt lat="45.12418255985846" lon="8.33123053809605"><ele>138.0</ele><time>2026-03-29T16:09:38.992Z</time></trkpt><trkpt lat="45.12440195354051" lon="8.331435537338447"><ele>138.0</ele><time>2026-03-29T16:09:39.992Z</time></trkpt><trkpt lat="45.12461894802686" lon="8.331641099628932"><ele>138.0</ele><time>2026-03-29T16:09:40.992Z</time></trkpt><trkpt lat="45.12483747189106" lon="8.3318449419462"><ele>138.0</ele><time>2026-03-29T16:09:41.992Z</time></trkpt><trkpt lat="45.125057134485836" lon="8.332049330456229"><ele>138.0</ele><time>2026-03-29T16:09:42.992Z</time></trkpt><trkpt lat="45.125278604262384" lon="8.332253896669405"><ele>138.0</ele><time>2026-03-29T16:09:43.992Z</time></trkpt><trkpt lat="45.12550013825018" lon="8.332457546255863"><ele>138.0</ele><time>2026-03-29T16:09:44.992Z</time></trkpt><trkpt lat="45.12572107005161" lon="8.332663025302931"><ele>137.5</ele><time>2026-03-29T16:09:45.992Z</time></trkpt><trkpt lat="45.12594251065103" lon="8.33287097480934"><ele>137.0</ele><time>2026-03-29T16:09:46.992Z</time></trkpt><trkpt lat="45.12616237511595" lon="8.333075421606727"><ele>137.0</ele><time>2026-03-29T16:09:47.992Z</time></trkpt><trkpt lat="45.126384446482724" lon="8.333280707118472"><ele>137.0</ele><time>2026-03-29T16:09:48.992Z</time></trkpt><trkpt lat="45.12660376804852" lon="8.333481360578288"><ele>137.5</ele><time>2026-03-29T16:09:49.992Z</time></trkpt><trkpt lat="45.126823236678376" lon="8.333684404670013"><ele>138.0</ele><time>2026-03-29T16:09:50.992Z</time></trkpt><trkpt lat="45.12703467919087" lon="8.333883745801584"><ele>137.5</ele><time>2026-03-29T16:09:51.992Z</time></trkpt><trkpt lat="45.127245295852994" lon="8.33408157741811"><ele>137.0</ele><time>2026-03-29T16:09:52.992Z</time></trkpt><trkpt lat="45.127450861142364" lon="8.334276665802168"><ele>137.0</ele><time>2026-03-29T16:09:53.992Z</time></trkpt><trkpt lat="45.127656467251576" lon="8.334469947328634"><ele>137.0</ele><time>2026-03-29T16:09:54.992Z</time></trkpt><trkpt lat="45.12786234399819" lon="8.334660508469923"><ele>136.0</ele><time>2026-03-29T16:09:55.992Z</time></trkpt><trkpt lat="45.12806544043744" lon="8.3348478208346"><ele>135.0</ele><time>2026-03-29T16:09:56.992Z</time></trkpt><trkpt lat="45.12826861985901" lon="8.3350349062913"><ele>135.0</ele><time>2026-03-29T16:09:57.992Z</time></trkpt><trkpt lat="45.128470385376616" lon="8.3352212190738"><ele>135.0</ele><time>2026-03-29T16:09:58.992Z</time></trkpt><trkpt lat="45.12867172891519" lon="8.33540801806952"><ele>134.0</ele><time>2026-03-29T16:09:59.992Z</time></trkpt><trkpt lat="45.12887235174195" lon="8.335597164949517"><ele>133.0</ele><time>2026-03-29T16:10:00.992Z</time></trkpt><trkpt lat="45.12906874714524" lon="8.335786458358953"><ele>132.0</ele><time>2026-03-29T16:10:01.991Z</time></trkpt><trkpt lat="45.12926709450657" lon="8.33597429107212"><ele>131.0</ele><time>2026-03-29T16:10:02.991Z</time></trkpt><trkpt lat="45.12947028266361" lon="8.336161054419861"><ele>131.0</ele><time>2026-03-29T16:10:03.991Z</time></trkpt><trkpt lat="45.12967747552435" lon="8.336348350097799"><ele>131.0</ele><time>2026-03-29T16:10:04.991Z</time></trkpt><trkpt lat="45.129887387597456" lon="8.336539887815682"><ele>130.5</ele><time>2026-03-29T16:10:05.991Z</time></trkpt><trkpt lat="45.13009984264511" lon="8.336732828590398"><ele>130.0</ele><time>2026-03-29T16:10:06.991Z</time></trkpt><trkpt lat="45.13031857958752" lon="8.336941893700747"><ele>130.0</ele><time>2026-03-29T16:10:07.991Z</time></trkpt><trkpt lat="45.1305345367487" lon="8.337159014665927"><ele>130.0</ele><time>2026-03-29T16:10:08.991Z</time></trkpt><trkpt lat="45.130750114677795" lon="8.337381622695974"><ele>130.0</ele><time>2026-03-29T16:10:09.991Z</time></trkpt><trkpt lat="45.1309707009357" lon="8.337608340440392"><ele>130.0</ele><time>2026-03-29T16:10:10.991Z</time></trkpt><trkpt lat="45.13119244170475" lon="8.337836240421204"><ele>130.0</ele><time>2026-03-29T16:10:11.991Z</time></trkpt><trkpt lat="45.13140716124304" lon="8.338073595066072"><ele>130.0</ele><time>2026-03-29T16:10:12.991Z</time></trkpt><trkpt lat="45.13161566154745" lon="8.338329801540041"><ele>130.0</ele><time>2026-03-29T16:10:13.991Z</time></trkpt><trkpt lat="45.13181908959723" lon="8.33858451880235"><ele>130.0</ele><time>2026-03-29T16:10:14.991Z</time></trkpt><trkpt lat="45.13202297932423" lon="8.338837956321973"><ele>131.0</ele><time>2026-03-29T16:10:15.991Z</time></trkpt><trkpt lat="45.13222477896382" lon="8.339090555587251"><ele>132.0</ele><time>2026-03-29T16:10:16.991Z</time></trkpt><trkpt lat="45.13242425355147" lon="8.339335685226207"><ele>132.0</ele><time>2026-03-29T16:10:17.993Z</time></trkpt><trkpt lat="45.13261856166895" lon="8.33957845883693"><ele>132.0</ele><time>2026-03-29T16:10:18.994Z</time></trkpt><trkpt lat="45.13281103267749" lon="8.339817146339923"><ele>131.5</ele><time>2026-03-29T16:10:19.993Z</time></trkpt><trkpt lat="45.13300193388258" lon="8.340050710396467"><ele>131.0</ele><time>2026-03-29T16:10:20.993Z</time></trkpt><trkpt lat="45.13318915786622" lon="8.340281886529693"><ele>131.0</ele><time>2026-03-29T16:10:21.994Z</time></trkpt><trkpt lat="45.13337253201012" lon="8.340508178346589"><ele>131.0</ele><time>2026-03-29T16:10:22.993Z</time></trkpt><trkpt lat="45.13355365554614" lon="8.340733662546896"><ele>130.0</ele><time>2026-03-29T16:10:23.993Z</time></trkpt><trkpt lat="45.13373110083215" lon="8.340957947716953"><ele>129.0</ele><time>2026-03-29T16:10:24.993Z</time></trkpt><trkpt lat="45.13390690806892" lon="8.341179829153173"><ele>128.0</ele><time>2026-03-29T16:10:25.993Z</time></trkpt><trkpt lat="45.13408228360264" lon="8.341397223432173"><ele>127.0</ele><time>2026-03-29T16:10:26.993Z</time></trkpt><trkpt lat="45.13425772769308" lon="8.341611733420665"><ele>127.0</ele><time>2026-03-29T16:10:27.993Z</time></trkpt><trkpt lat="45.134433701063934" lon="8.341824401774995"><ele>127.0</ele><time>2026-03-29T16:10:28.993Z</time></trkpt><trkpt lat="45.134606533247464" lon="8.342035836621674"><ele>127.0</ele><time>2026-03-29T16:10:29.993Z</time></trkpt><trkpt lat="45.13478140072986" lon="8.342245557955165"><ele>127.0</ele><time>2026-03-29T16:10:30.993Z</time></trkpt><trkpt lat="45.13495848957887" lon="8.342448778348325"><ele>127.0</ele><time>2026-03-29T16:10:31.993Z</time></trkpt><trkpt lat="45.13514255503199" lon="8.342642055516807"><ele>127.0</ele><time>2026-03-29T16:10:32.993Z</time></trkpt><trkpt lat="45.135328717240874" lon="8.342826154390826"><ele>127.0</ele><time>2026-03-29T16:10:33.993Z</time></trkpt><trkpt lat="45.1355213978143" lon="8.343000515135342"><ele>127.0</ele><time>2026-03-29T16:10:34.993Z</time></trkpt><trkpt lat="45.135716189990696" lon="8.343169475065814"><ele>127.0</ele><time>2026-03-29T16:10:35.993Z</time></trkpt><trkpt lat="45.13591514981929" lon="8.3433272364915"><ele>127.0</ele><time>2026-03-29T16:10:36.993Z</time></trkpt><trkpt lat="45.13611954622027" lon="8.343474145367923"><ele>127.0</ele><time>2026-03-29T16:10:37.993Z</time></trkpt><trkpt lat="45.13632974024256" lon="8.343612714068284"><ele>127.0</ele><time>2026-03-29T16:10:38.993Z</time></trkpt><trkpt lat="45.13654384120877" lon="8.343740651660505"><ele>127.0</ele><time>2026-03-29T16:10:39.993Z</time></trkpt><trkpt lat="45.13676251968477" lon="8.343856101513786"><ele>127.0</ele><time>2026-03-29T16:10:40.993Z</time></trkpt><trkpt lat="45.13698368649766" lon="8.343962549873618"><ele>126.5</ele><time>2026-03-29T16:10:41.993Z</time></trkpt><trkpt lat="45.13721021141821" lon="8.344063774411467"><ele>126.0</ele><time>2026-03-29T16:10:42.993Z</time></trkpt><trkpt lat="45.13744012277136" lon="8.34415783847257"><ele>125.5</ele><time>2026-03-29T16:10:43.993Z</time></trkpt><trkpt lat="45.13767555528426" lon="8.344235649049493"><ele>125.0</ele><time>2026-03-29T16:10:44.993Z</time></trkpt><trkpt lat="45.13791351614049" lon="8.344302647123586"><ele>125.0</ele><time>2026-03-29T16:10:45.993Z</time></trkpt><trkpt lat="45.13815560141508" lon="8.344357835415455"><ele>125.0</ele><time>2026-03-29T16:10:46.993Z</time></trkpt><trkpt lat="45.13839620883353" lon="8.344398166619262"><ele>125.0</ele><time>2026-03-29T16:10:47.993Z</time></trkpt><trkpt lat="45.138638860792845" lon="8.344429920468537"><ele>125.0</ele><time>2026-03-29T16:10:48.993Z</time></trkpt><trkpt lat="45.13888449231187" lon="8.344448350712604"><ele>126.0</ele><time>2026-03-29T16:10:49.993Z</time></trkpt><trkpt lat="45.139128191248055" lon="8.344452498831071"><ele>127.0</ele><time>2026-03-29T16:10:50.993Z</time></trkpt><trkpt lat="45.13937259802655" lon="8.344438776265532"><ele>127.0</ele><time>2026-03-29T16:10:51.993Z</time></trkpt><trkpt lat="45.139617643456084" lon="8.344413131167954"><ele>127.0</ele><time>2026-03-29T16:10:52.993Z</time></trkpt><trkpt lat="45.13986304881715" lon="8.344375825272925"><ele>127.5</ele><time>2026-03-29T16:10:53.993Z</time></trkpt><trkpt lat="45.140109846988665" lon="8.344329195484788"><ele>128.0</ele><time>2026-03-29T16:10:54.993Z</time></trkpt><trkpt lat="45.1403574344911" lon="8.344272968392973"><ele>128.0</ele><time>2026-03-29T16:10:55.992Z</time></trkpt><trkpt lat="45.14060569859019" lon="8.344206210181486"><ele>128.0</ele><time>2026-03-29T16:10:56.992Z</time></trkpt><trkpt lat="45.14085645654721" lon="8.344136438172049"><ele>128.5</ele><time>2026-03-29T16:10:57.992Z</time></trkpt><trkpt lat="45.14110817293097" lon="8.344062101228138"><ele>129.0</ele><time>2026-03-29T16:10:58.992Z</time></trkpt><trkpt lat="45.14136096423423" lon="8.34398764675964"><ele>129.0</ele><time>2026-03-29T16:10:59.992Z</time></trkpt><trkpt lat="45.141615779128124" lon="8.343911554583428"><ele>129.0</ele><time>2026-03-29T16:11:00.992Z</time></trkpt><trkpt lat="45.141871157728175" lon="8.343832131732244"><ele>129.0</ele><time>2026-03-29T16:11:01.992Z</time></trkpt><trkpt lat="45.14213038307654" lon="8.343751033927651"><ele>129.0</ele><time>2026-03-29T16:11:02.992Z</time></trkpt><trkpt lat="45.14239098864571" lon="8.343673480052221"><ele>129.0</ele><time>2026-03-29T16:11:03.992Z</time></trkpt><trkpt lat="45.14265046895312" lon="8.343597993525979"><ele>129.0</ele><time>2026-03-29T16:11:04.992Z</time></trkpt><trkpt lat="45.14291014764244" lon="8.34351880701048"><ele>129.0</ele><time>2026-03-29T16:11:05.992Z</time></trkpt><trkpt lat="45.143166009552424" lon="8.343427524882337"><ele>129.0</ele><time>2026-03-29T16:11:06.992Z</time></trkpt><trkpt lat="45.14341976594239" lon="8.343327491941299"><ele>129.0</ele><time>2026-03-29T16:11:07.992Z</time></trkpt><trkpt lat="45.143670205243325" lon="8.34321497992905"><ele>129.0</ele><time>2026-03-29T16:11:08.992Z</time></trkpt><trkpt lat="45.14391666866075" lon="8.343085865739582"><ele>128.5</ele><time>2026-03-29T16:11:09.992Z</time></trkpt><trkpt lat="45.14415976897818" lon="8.342942886123925"><ele>128.0</ele><time>2026-03-29T16:11:10.992Z</time></trkpt><trkpt lat="45.144396810074554" lon="8.342786546120724"><ele>128.0</ele><time>2026-03-29T16:11:11.992Z</time></trkpt><trkpt lat="45.14462827707212" lon="8.342618583931676"><ele>128.0</ele><time>2026-03-29T16:11:12.992Z</time></trkpt><trkpt lat="45.14485457072161" lon="8.342439787216891"><ele>128.0</ele><time>2026-03-29T16:11:13.992Z</time></trkpt><trkpt lat="45.145077075811884" lon="8.342252719916166"><ele>128.0</ele><time>2026-03-29T16:11:14.992Z</time></trkpt><trkpt lat="45.14529703387987" lon="8.342065092577265"><ele>128.0</ele><time>2026-03-29T16:11:15.992Z</time></trkpt><trkpt lat="45.145514837613156" lon="8.341872277433872"><ele>128.0</ele><time>2026-03-29T16:11:16.992Z</time></trkpt><trkpt lat="45.14573048592773" lon="8.341680679354369"><ele>128.5</ele><time>2026-03-29T16:11:17.992Z</time></trkpt><trkpt lat="45.145946693370036" lon="8.341488543213162"><ele>129.0</ele><time>2026-03-29T16:11:18.992Z</time></trkpt><trkpt lat="45.14616178400628" lon="8.341296999285989"><ele>126.5</ele><time>2026-03-29T16:11:19.992Z</time></trkpt><trkpt lat="45.146375571323375" lon="8.341105242827776"><ele>124.0</ele><time>2026-03-29T16:11:20.992Z</time></trkpt><trkpt lat="45.14658767773819" lon="8.340913552683144"><ele>120.0</ele><time>2026-03-29T16:11:21.992Z</time></trkpt><trkpt lat="45.14680227913139" lon="8.340722594307111"><ele>116.0</ele><time>2026-03-29T16:11:22.992Z</time></trkpt><trkpt lat="45.14701692208103" lon="8.340530257895873"><ele>116.0</ele><time>2026-03-29T16:11:23.992Z</time></trkpt><trkpt lat="45.14723236680108" lon="8.340337253876447"><ele>116.0</ele><time>2026-03-29T16:11:24.992Z</time></trkpt><trkpt lat="45.14744853842747" lon="8.340146168991799"><ele>115.5</ele><time>2026-03-29T16:11:25.992Z</time></trkpt><trkpt lat="45.14766524644018" lon="8.33995637105041"><ele>115.0</ele><time>2026-03-29T16:11:26.992Z</time></trkpt><trkpt lat="45.14788212996813" lon="8.33976508489941"><ele>116.0</ele><time>2026-03-29T16:11:27.992Z</time></trkpt><trkpt lat="45.14809763043479" lon="8.339570526558203"><ele>117.0</ele><time>2026-03-29T16:11:28.992Z</time></trkpt><trkpt lat="45.148313317722916" lon="8.339374855826389"><ele>118.5</ele><time>2026-03-29T16:11:29.992Z</time></trkpt><trkpt lat="45.14853022388588" lon="8.339180445794595"><ele>120.0</ele><time>2026-03-29T16:11:30.992Z</time></trkpt><trkpt lat="45.14874848901156" lon="8.338988966869048"><ele>119.5</ele><time>2026-03-29T16:11:31.992Z</time></trkpt><trkpt lat="45.14896883701744" lon="8.338796102789656"><ele>119.0</ele><time>2026-03-29T16:11:32.992Z</time></trkpt><trkpt lat="45.14918630165371" lon="8.338600114188125"><ele>120.5</ele><time>2026-03-29T16:11:33.992Z</time></trkpt><trkpt lat="45.1494025736294" lon="8.338404823596038"><ele>122.0</ele><time>2026-03-29T16:11:34.992Z</time></trkpt><trkpt lat="45.149622251165844" lon="8.338206988269027"><ele>122.0</ele><time>2026-03-29T16:11:35.992Z</time></trkpt><trkpt lat="45.14984283487319" lon="8.338010580429364"><ele>122.0</ele><time>2026-03-29T16:11:36.992Z</time></trkpt><trkpt lat="45.15006369357059" lon="8.337812566648706"><ele>122.0</ele><time>2026-03-29T16:11:37.992Z</time></trkpt><trkpt lat="45.150284482783846" lon="8.337611742104526"><ele>122.0</ele><time>2026-03-29T16:11:38.992Z</time></trkpt><trkpt lat="45.15050670871918" lon="8.337412878257581"><ele>122.0</ele><time>2026-03-29T16:11:39.992Z</time></trkpt><trkpt lat="45.150732141154016" lon="8.337216371264649"><ele>122.0</ele><time>2026-03-29T16:11:40.992Z</time></trkpt><trkpt lat="45.150957206134734" lon="8.337018346924893"><ele>122.0</ele><time>2026-03-29T16:11:41.992Z</time></trkpt><trkpt lat="45.15117945748377" lon="8.33681932286889"><ele>122.0</ele><time>2026-03-29T16:11:42.992Z</time></trkpt><trkpt lat="45.151402655106224" lon="8.336617689244019"><ele>122.0</ele><time>2026-03-29T16:11:43.992Z</time></trkpt><trkpt lat="45.15162423585755" lon="8.336414480212046"><ele>122.0</ele><time>2026-03-29T16:11:44.992Z</time></trkpt><trkpt lat="45.15184500758948" lon="8.336214248830656"><ele>122.0</ele><time>2026-03-29T16:11:45.991Z</time></trkpt><trkpt lat="45.15206552150829" lon="8.336014001472785"><ele>122.0</ele><time>2026-03-29T16:11:46.991Z</time></trkpt><trkpt lat="45.15228905978556" lon="8.33581875933254"><ele>122.0</ele><time>2026-03-29T16:11:47.991Z</time></trkpt><trkpt lat="45.152512740638905" lon="8.3356253390612"><ele>122.0</ele><time>2026-03-29T16:11:48.991Z</time></trkpt><trkpt lat="45.15273665243517" lon="8.335428954055464"><ele>121.5</ele><time>2026-03-29T16:11:49.991Z</time></trkpt><trkpt lat="45.152959376442574" lon="8.335231783653908"><ele>121.0</ele><time>2026-03-29T16:11:50.991Z</time></trkpt><trkpt lat="45.153182283706826" lon="8.335033698102057"><ele>121.0</ele><time>2026-03-29T16:11:51.991Z</time></trkpt><trkpt lat="45.15340593500384" lon="8.334832698953"><ele>121.0</ele><time>2026-03-29T16:11:52.991Z</time></trkpt><trkpt lat="45.1536304589452" lon="8.334630625850348"><ele>121.0</ele><time>2026-03-29T16:11:53.991Z</time></trkpt><trkpt lat="45.153854475952926" lon="8.334430217942014"><ele>121.0</ele><time>2026-03-29T16:11:54.991Z</time></trkpt><trkpt lat="45.15408042749998" lon="8.334229281567126"><ele>121.5</ele><time>2026-03-29T16:11:55.991Z</time></trkpt><trkpt lat="45.15430615245375" lon="8.334029593428268"><ele>122.0</ele><time>2026-03-29T16:11:56.991Z</time></trkpt><trkpt lat="45.154532976781496" lon="8.333829135597057"><ele>122.0</ele><time>2026-03-29T16:11:57.991Z</time></trkpt><trkpt lat="45.15476231087209" lon="8.333634580013625"><ele>122.0</ele><time>2026-03-29T16:11:58.991Z</time></trkpt><trkpt lat="45.154995618843614" lon="8.333447551335109"><ele>123.0</ele><time>2026-03-29T16:11:59.991Z</time></trkpt><trkpt lat="45.15523068062426" lon="8.333270498434276"><ele>124.0</ele><time>2026-03-29T16:12:00.991Z</time></trkpt><trkpt lat="45.15546783300812" lon="8.333101439244057"><ele>123.5</ele><time>2026-03-29T16:12:01.991Z</time></trkpt><trkpt lat="45.15570744046088" lon="8.332944249874522"><ele>123.0</ele><time>2026-03-29T16:12:02.991Z</time></trkpt><trkpt lat="45.155950423792234" lon="8.332798792765216"><ele>123.0</ele><time>2026-03-29T16:12:03.991Z</time></trkpt><trkpt lat="45.15619595079366" lon="8.33266445714798"><ele>123.0</ele><time>2026-03-29T16:12:04.991Z</time></trkpt><trkpt lat="45.156442865241424" lon="8.33253984985719"><ele>123.5</ele><time>2026-03-29T16:12:05.991Z</time></trkpt><trkpt lat="45.156691278323" lon="8.332425119957035"><ele>124.0</ele><time>2026-03-29T16:12:06.991Z</time></trkpt><trkpt lat="45.15694190022545" lon="8.332320473342575"><ele>124.0</ele><time>2026-03-29T16:12:07.991Z</time></trkpt><trkpt lat="45.15719324886443" lon="8.332226161853972"><ele>124.0</ele><time>2026-03-29T16:12:08.991Z</time></trkpt><trkpt lat="45.15744640527664" lon="8.332143133165907"><ele>124.5</ele><time>2026-03-29T16:12:09.991Z</time></trkpt><trkpt lat="45.157700683693704" lon="8.332073470710812"><ele>125.0</ele><time>2026-03-29T16:12:10.991Z</time></trkpt><trkpt lat="45.15795687150362" lon="8.332013888176974"><ele>124.0</ele><time>2026-03-29T16:12:11.991Z</time></trkpt><trkpt lat="45.15821589657592" lon="8.33196584250409"><ele>123.0</ele><time>2026-03-29T16:12:12.991Z</time></trkpt><trkpt lat="45.15847464940622" lon="8.331927192924255"><ele>123.0</ele><time>2026-03-29T16:12:13.991Z</time></trkpt><trkpt lat="45.15873425501673" lon="8.331897919328604"><ele>123.0</ele><time>2026-03-29T16:12:14.991Z</time></trkpt><trkpt lat="45.158992686713184" lon="8.331879000480374"><ele>123.5</ele><time>2026-03-29T16:12:15.991Z</time></trkpt><trkpt lat="45.15925130978163" lon="8.33186841373328"><ele>124.0</ele><time>2026-03-29T16:12:16.991Z</time></trkpt><trkpt lat="45.15951146235799" lon="8.331868893540564"><ele>124.0</ele><time>2026-03-29T16:12:17.991Z</time></trkpt><trkpt lat="45.159773611642784" lon="8.331879985266326"><ele>124.0</ele><time>2026-03-29T16:12:18.991Z</time></trkpt><trkpt lat="45.16003585488836" lon="8.331892857693525"><ele>123.5</ele><time>2026-03-29T16:12:19.991Z</time></trkpt><trkpt lat="45.16029826171825" lon="8.331904087973744"><ele>123.0</ele><time>2026-03-29T16:12:20.991Z</time></trkpt><trkpt lat="45.160558651863155" lon="8.331915963324295"><ele>123.0</ele><time>2026-03-29T16:12:21.991Z</time></trkpt><trkpt lat="45.16081585049672" lon="8.331926371569327"><ele>123.0</ele><time>2026-03-29T16:12:22.991Z</time></trkpt><trkpt lat="45.161071285722564" lon="8.33193336654275"><ele>123.0</ele><time>2026-03-29T16:12:23.993Z</time></trkpt><trkpt lat="45.16132157254646" lon="8.331941530341886"><ele>123.0</ele><time>2026-03-29T16:12:24.993Z</time></trkpt><trkpt lat="45.16156740450138" lon="8.331950223001133"><ele>123.5</ele><time>2026-03-29T16:12:25.993Z</time></trkpt><trkpt lat="45.16180844419258" lon="8.331959615743717"><ele>124.0</ele><time>2026-03-29T16:12:26.993Z</time></trkpt><trkpt lat="45.16204524072243" lon="8.331968571314901"><ele>124.0</ele><time>2026-03-29T16:12:27.993Z</time></trkpt><trkpt lat="45.16227793388329" lon="8.331982829996765"><ele>124.0</ele><time>2026-03-29T16:12:28.993Z</time></trkpt><trkpt lat="45.16250639612433" lon="8.331995597217556"><ele>124.0</ele><time>2026-03-29T16:12:29.993Z</time></trkpt><trkpt lat="45.162732743932274" lon="8.332007334756087"><ele>124.0</ele><time>2026-03-29T16:12:30.993Z</time></trkpt><trkpt lat="45.162953890437066" lon="8.332018915197436"><ele>124.0</ele><time>2026-03-29T16:12:31.993Z</time></trkpt><trkpt lat="45.16317437391444" lon="8.332031236243457"><ele>124.33333333333334</ele><time>2026-03-29T16:12:32.993Z</time></trkpt><trkpt lat="45.16339194345181" lon="8.332037498183666"><ele>124.66666666666666</ele><time>2026-03-29T16:12:33.993Z</time></trkpt><trkpt lat="45.16360744960307" lon="8.332043620249271"><ele>125.0</ele><time>2026-03-29T16:12:34.993Z</time></trkpt><trkpt lat="45.163818003724295" lon="8.332050001142715"><ele>125.0</ele><time>2026-03-29T16:12:35.993Z</time></trkpt><trkpt lat="45.16402793311998" lon="8.33205598399795"><ele>125.0</ele><time>2026-03-29T16:12:36.993Z</time></trkpt><trkpt lat="45.16423392212586" lon="8.332065159926948"><ele>125.0</ele><time>2026-03-29T16:12:37.993Z</time></trkpt><trkpt lat="45.164440541656546" lon="8.332073079636155"><ele>125.0</ele><time>2026-03-29T16:12:38.993Z</time></trkpt><trkpt lat="45.164645021135165" lon="8.332087096793973"><ele>125.0</ele><time>2026-03-29T16:12:39.993Z</time></trkpt><trkpt lat="45.16484855983181" lon="8.332101236877346"><ele>125.0</ele><time>2026-03-29T16:12:40.993Z</time></trkpt><trkpt lat="45.16505293679288" lon="8.332111419679824"><ele>125.0</ele><time>2026-03-29T16:12:41.993Z</time></trkpt><trkpt lat="45.16525835717346" lon="8.33212114661366"><ele>125.0</ele><time>2026-03-29T16:12:42.993Z</time></trkpt><trkpt lat="45.16546306389291" lon="8.332127840323334"><ele>125.0</ele><time>2026-03-29T16:12:43.993Z</time></trkpt><trkpt lat="45.1656696712593" lon="8.332140451580688"><ele>124.66666666666666</ele><time>2026-03-29T16:12:44.993Z</time></trkpt><trkpt lat="45.165879228348466" lon="8.332154778721723"><ele>124.33333333333334</ele><time>2026-03-29T16:12:45.993Z</time></trkpt><trkpt lat="45.166092135349665" lon="8.332168948225634"><ele>124.0</ele><time>2026-03-29T16:12:46.993Z</time></trkpt><trkpt lat="45.166303671350335" lon="8.332184388177275"><ele>124.0</ele><time>2026-03-29T16:12:47.993Z</time></trkpt><trkpt lat="45.16651634223815" lon="8.332191101283081"><ele>124.0</ele><time>2026-03-29T16:12:48.993Z</time></trkpt><trkpt lat="45.16672872430225" lon="8.332194851832572"><ele>124.0</ele><time>2026-03-29T16:12:49.993Z</time></trkpt><trkpt lat="45.16694252135953" lon="8.33219783495592"><ele>124.33333333333334</ele><time>2026-03-29T16:12:50.993Z</time></trkpt><trkpt lat="45.16715395654949" lon="8.332201853291025"><ele>124.66666666666666</ele><time>2026-03-29T16:12:51.993Z</time></trkpt><trkpt lat="45.16736660621694" lon="8.33220864159825"><ele>125.0</ele><time>2026-03-29T16:12:52.993Z</time></trkpt><trkpt lat="45.16757859717152" lon="8.332214169487155"><ele>125.0</ele><time>2026-03-29T16:12:53.993Z</time></trkpt><trkpt lat="45.1677894451867" lon="8.332218807530479"><ele>125.0</ele><time>2026-03-29T16:12:54.993Z</time></trkpt><trkpt lat="45.16800202232849" lon="8.332222475413248"><ele>125.0</ele><time>2026-03-29T16:12:55.993Z</time></trkpt><trkpt lat="45.16821476050127" lon="8.332230132514045"><ele>125.0</ele><time>2026-03-29T16:12:56.993Z</time></trkpt><trkpt lat="45.16842701939979" lon="8.332238003316734"><ele>125.0</ele><time>2026-03-29T16:12:57.993Z</time></trkpt><trkpt lat="45.16864082888923" lon="8.332246103470451"><ele>125.0</ele><time>2026-03-29T16:12:58.993Z</time></trkpt><trkpt lat="45.168854350736794" lon="8.332252122567459"><ele>125.33333333333333</ele><time>2026-03-29T16:12:59.993Z</time></trkpt><trkpt lat="45.169070877033555" lon="8.332262122522579"><ele>125.66666666666666</ele><time>2026-03-29T16:13:00.993Z</time></trkpt><trkpt lat="45.16928881787768" lon="8.332272189856978"><ele>126.0</ele><time>2026-03-29T16:13:01.993Z</time></trkpt><trkpt lat="45.16950723397439" lon="8.33227984850276"><ele>126.0</ele><time>2026-03-29T16:13:02.993Z</time></trkpt><trkpt lat="45.16972847303131" lon="8.332288728010221"><ele>126.0</ele><time>2026-03-29T16:13:03.993Z</time></trkpt><trkpt lat="45.169949163416234" lon="8.332302244790633"><ele>126.0</ele><time>2026-03-29T16:13:04.993Z</time></trkpt><trkpt lat="45.1701720565964" lon="8.332313445049559"><ele>126.0</ele><time>2026-03-29T16:13:05.993Z</time></trkpt><trkpt lat="45.17039399786095" lon="8.332323420527617"><ele>126.0</ele><time>2026-03-29T16:13:06.993Z</time></trkpt><trkpt lat="45.17062289681468" lon="8.332326715389307"><ele>125.0</ele><time>2026-03-29T16:13:07.993Z</time></trkpt><trkpt lat="45.170859534373925" lon="8.332338539574076"><ele>124.0</ele><time>2026-03-29T16:13:08.993Z</time></trkpt><trkpt lat="45.17110426968953" lon="8.332354298637064"><ele>124.0</ele><time>2026-03-29T16:13:09.993Z</time></trkpt><trkpt lat="45.171351709602504" lon="8.332369138948946"><ele>124.0</ele><time>2026-03-29T16:13:10.993Z</time></trkpt><trkpt lat="45.17160077901912" lon="8.332382535542017"><ele>124.0</ele><time>2026-03-29T16:13:11.993Z</time></trkpt><trkpt lat="45.17184978092162" lon="8.33239714295882"><ele>124.0</ele><time>2026-03-29T16:13:12.993Z</time></trkpt><trkpt lat="45.17209821454657" lon="8.332407800553282"><ele>124.0</ele><time>2026-03-29T16:13:13.993Z</time></trkpt><trkpt lat="45.172348078974345" lon="8.33241746684322"><ele>124.0</ele><time>2026-03-29T16:13:14.993Z</time></trkpt><trkpt lat="45.17259456910374" lon="8.332427890072085"><ele>124.0</ele><time>2026-03-29T16:13:15.993Z</time></trkpt><trkpt lat="45.1728384719975" lon="8.332438596021852"><ele>124.0</ele><time>2026-03-29T16:13:16.993Z</time></trkpt><trkpt lat="45.17308157315083" lon="8.332449479362117"><ele>124.5</ele><time>2026-03-29T16:13:17.993Z</time></trkpt><trkpt lat="45.17332345652109" lon="8.332461194151264"><ele>125.0</ele><time>2026-03-29T16:13:18.993Z</time></trkpt><trkpt lat="45.173563311158425" lon="8.332470401836789"><ele>125.0</ele><time>2026-03-29T16:13:19.992Z</time></trkpt><trkpt lat="45.173802457389606" lon="8.332478526375997"><ele>125.0</ele><time>2026-03-29T16:13:20.992Z</time></trkpt><trkpt lat="45.1740392493894" lon="8.332485760689748"><ele>124.5</ele><time>2026-03-29T16:13:21.992Z</time></trkpt><trkpt lat="45.174272308365886" lon="8.33249112785721"><ele>124.0</ele><time>2026-03-29T16:13:22.992Z</time></trkpt><trkpt lat="45.17450365181315" lon="8.332499775606994"><ele>124.0</ele><time>2026-03-29T16:13:23.992Z</time></trkpt><trkpt lat="45.174731899899854" lon="8.332510244664288"><ele>124.0</ele><time>2026-03-29T16:13:24.992Z</time></trkpt><trkpt lat="45.1749596406982" lon="8.33252163970988"><ele>124.5</ele><time>2026-03-29T16:13:25.992Z</time></trkpt><trkpt lat="45.17518671673807" lon="8.332533123504767"><ele>125.0</ele><time>2026-03-29T16:13:26.992Z</time></trkpt><trkpt lat="45.175411484274676" lon="8.332542979286918"><ele>125.0</ele><time>2026-03-29T16:13:27.992Z</time></trkpt><trkpt lat="45.1756347057907" lon="8.332552115523132"><ele>125.0</ele><time>2026-03-29T16:13:28.992Z</time></trkpt><trkpt lat="45.1758596282487" lon="8.332561469175067"><ele>125.0</ele><time>2026-03-29T16:13:29.992Z</time></trkpt><trkpt lat="45.17608504171033" lon="8.332571940553356"><ele>125.0</ele><time>2026-03-29T16:13:30.992Z</time></trkpt><trkpt lat="45.176310869537346" lon="8.33258310749906"><ele>125.0</ele><time>2026-03-29T16:13:31.992Z</time></trkpt><trkpt lat="45.1765362257955" lon="8.332592882179604"><ele>125.33333333333333</ele><time>2026-03-29T16:13:32.992Z</time></trkpt><trkpt lat="45.17676218440327" lon="8.332601210585189"><ele>125.66666666666666</ele><time>2026-03-29T16:13:33.992Z</time></trkpt><trkpt lat="45.17698446296346" lon="8.332602951851259"><ele>126.0</ele><time>2026-03-29T16:13:34.992Z</time></trkpt><trkpt lat="45.177202346148" lon="8.332599846190016"><ele>126.0</ele><time>2026-03-29T16:13:35.992Z</time></trkpt><trkpt lat="45.17742160163929" lon="8.332600890818892"><ele>126.0</ele><time>2026-03-29T16:13:36.992Z</time></trkpt><trkpt lat="45.17764589888013" lon="8.33261646797216"><ele>126.0</ele><time>2026-03-29T16:13:37.992Z</time></trkpt><trkpt lat="45.17787510188158" lon="8.332634830927544"><ele>126.0</ele><time>2026-03-29T16:13:38.992Z</time></trkpt><trkpt lat="45.17810137580571" lon="8.332651587820285"><ele>126.0</ele><time>2026-03-29T16:13:39.992Z</time></trkpt><trkpt lat="45.178325895627914" lon="8.332666472673829"><ele>125.33333333333334</ele><time>2026-03-29T16:13:40.992Z</time></trkpt><trkpt lat="45.17854543767546" lon="8.33267739673208"><ele>124.66666666666667</ele><time>2026-03-29T16:13:41.992Z</time></trkpt><trkpt lat="45.178763857836245" lon="8.332688404065426"><ele>124.0</ele><time>2026-03-29T16:13:42.992Z</time></trkpt><trkpt lat="45.178979201522615" lon="8.332700680395025"><ele>124.33333333333334</ele><time>2026-03-29T16:13:43.992Z</time></trkpt><trkpt lat="45.179194124676826" lon="8.332714009159387"><ele>124.66666666666666</ele><time>2026-03-29T16:13:44.992Z</time></trkpt><trkpt lat="45.17940887477416" lon="8.332728385700266"><ele>125.0</ele><time>2026-03-29T16:13:45.992Z</time></trkpt><trkpt lat="45.179624484585666" lon="8.332740780204317"><ele>125.0</ele><time>2026-03-29T16:13:46.992Z</time></trkpt><trkpt lat="45.17984230872128" lon="8.332752626197676"><ele>125.0</ele><time>2026-03-29T16:13:47.992Z</time></trkpt><trkpt lat="45.18006131667504" lon="8.332761391871111"><ele>125.0</ele><time>2026-03-29T16:13:48.992Z</time></trkpt><trkpt lat="45.18028229067246" lon="8.332768973533497"><ele>125.33333333333333</ele><time>2026-03-29T16:13:49.992Z</time></trkpt><trkpt lat="45.18050439549348" lon="8.332773735062998"><ele>125.66666666666666</ele><time>2026-03-29T16:13:50.992Z</time></trkpt><trkpt lat="45.1807269360457" lon="8.332781376818156"><ele>126.0</ele><time>2026-03-29T16:13:51.992Z</time></trkpt><trkpt lat="45.18095085150633" lon="8.332791089224315"><ele>126.0</ele><time>2026-03-29T16:13:52.992Z</time></trkpt><trkpt lat="45.18117803053636" lon="8.332798194386806"><ele>126.0</ele><time>2026-03-29T16:13:53.992Z</time></trkpt><trkpt lat="45.181409042697545" lon="8.332805436486778"><ele>126.5</ele><time>2026-03-29T16:13:54.992Z</time></trkpt><trkpt lat="45.18164118588019" lon="8.332815110617029"><ele>127.0</ele><time>2026-03-29T16:13:55.992Z</time></trkpt><trkpt lat="45.18187561468668" lon="8.332824524275537"><ele>127.0</ele><time>2026-03-29T16:13:56.992Z</time></trkpt><trkpt lat="45.18211292541253" lon="8.332832391359258"><ele>127.0</ele><time>2026-03-29T16:13:57.992Z</time></trkpt><trkpt lat="45.182352878217806" lon="8.33284188920502"><ele>126.5</ele><time>2026-03-29T16:13:58.992Z</time></trkpt><trkpt lat="45.18259328461879" lon="8.332853167769187"><ele>126.0</ele><time>2026-03-29T16:13:59.992Z</time></trkpt><trkpt lat="45.18283553381445" lon="8.332861645024181"><ele>126.0</ele><time>2026-03-29T16:14:00.992Z</time></trkpt><trkpt lat="45.18307864416218" lon="8.332871593662542"><ele>126.0</ele><time>2026-03-29T16:14:01.992Z</time></trkpt><trkpt lat="45.18332214425715" lon="8.332883707348282"><ele>126.0</ele><time>2026-03-29T16:14:02.992Z</time></trkpt><trkpt lat="45.183566294465344" lon="8.332898054024389"><ele>126.0</ele><time>2026-03-29T16:14:03.992Z</time></trkpt><trkpt lat="45.18381147999999" lon="8.332912324882598"><ele>126.0</ele><time>2026-03-29T16:14:04.992Z</time></trkpt><trkpt lat="45.18405459034492" lon="8.332921955700817"><ele>126.0</ele><time>2026-03-29T16:14:05.992Z</time></trkpt><trkpt lat="45.184296169059465" lon="8.332930469180733"><ele>126.0</ele><time>2026-03-29T16:14:06.992Z</time></trkpt><trkpt lat="45.18453520077282" lon="8.332934452146837"><ele>126.0</ele><time>2026-03-29T16:14:07.992Z</time></trkpt><trkpt lat="45.18477240189293" lon="8.332930679994632"><ele>125.5</ele><time>2026-03-29T16:14:08.991Z</time></trkpt><trkpt lat="45.18500733813975" lon="8.332913481543624"><ele>125.0</ele><time>2026-03-29T16:14:09.991Z</time></trkpt><trkpt lat="45.18524134934475" lon="8.332879536697313"><ele>125.0</ele><time>2026-03-29T16:14:10.991Z</time></trkpt><trkpt lat="45.185473707756714" lon="8.332832490249007"><ele>125.0</ele><time>2026-03-29T16:14:11.991Z</time></trkpt><trkpt lat="45.18570300767735" lon="8.332772718275697"><ele>125.5</ele><time>2026-03-29T16:14:12.991Z</time></trkpt><trkpt lat="45.185928354713944" lon="8.332694672716237"><ele>126.0</ele><time>2026-03-29T16:14:13.991Z</time></trkpt><trkpt lat="45.18614815167262" lon="8.332594087183788"><ele>126.0</ele><time>2026-03-29T16:14:14.991Z</time></trkpt><trkpt lat="45.18636127519336" lon="8.332469094283747"><ele>126.0</ele><time>2026-03-29T16:14:15.991Z</time></trkpt><trkpt lat="45.18656515069548" lon="8.332320276994922"><ele>126.0</ele><time>2026-03-29T16:14:16.991Z</time></trkpt><trkpt lat="45.186764488080826" lon="8.33215578032721"><ele>126.0</ele><time>2026-03-29T16:14:17.991Z</time></trkpt><trkpt lat="45.18695593454337" lon="8.331975070190634"><ele>126.0</ele><time>2026-03-29T16:14:18.991Z</time></trkpt><trkpt lat="45.187139261904505" lon="8.331777374847508"><ele>126.0</ele><time>2026-03-29T16:14:19.991Z</time></trkpt><trkpt lat="45.187318477856834" lon="8.33156664021001"><ele>126.0</ele><time>2026-03-29T16:14:20.991Z</time></trkpt><trkpt lat="45.18748298349226" lon="8.331337464685538"><ele>126.0</ele><time>2026-03-29T16:14:21.991Z</time></trkpt><trkpt lat="45.18764159575247" lon="8.331092554816175"><ele>126.0</ele><time>2026-03-29T16:14:22.991Z</time></trkpt><trkpt lat="45.18779404528404" lon="8.330838075143397"><ele>126.0</ele><time>2026-03-29T16:14:23.991Z</time></trkpt><trkpt lat="45.18794338481467" lon="8.330577582302942"><ele>126.5</ele><time>2026-03-29T16:14:24.991Z</time></trkpt><trkpt lat="45.18808799770887" lon="8.330309470791384"><ele>127.0</ele><time>2026-03-29T16:14:25.991Z</time></trkpt><trkpt lat="45.188226366659876" lon="8.330033159068217"><ele>126.0</ele><time>2026-03-29T16:14:26.991Z</time></trkpt><trkpt lat="45.188367421516844" lon="8.3297602728129"><ele>125.0</ele><time>2026-03-29T16:14:27.991Z</time></trkpt><trkpt lat="45.18850975926219" lon="8.329487202513375"><ele>124.5</ele><time>2026-03-29T16:14:28.991Z</time></trkpt><trkpt lat="45.18865268927218" lon="8.329214599448369"><ele>124.0</ele><time>2026-03-29T16:14:29.993Z</time></trkpt><trkpt lat="45.18879751169447" lon="8.328939499495394"><ele>124.5</ele><time>2026-03-29T16:14:30.993Z</time></trkpt><trkpt lat="45.18894165720772" lon="8.328664458005758"><ele>125.0</ele><time>2026-03-29T16:14:31.993Z</time></trkpt><trkpt lat="45.18908334969501" lon="8.3283884303851"><ele>126.0</ele><time>2026-03-29T16:14:32.993Z</time></trkpt><trkpt lat="45.18922866255901" lon="8.328110812660977"><ele>127.0</ele><time>2026-03-29T16:14:33.993Z</time></trkpt><trkpt lat="45.189374399824146" lon="8.327836594817693"><ele>127.0</ele><time>2026-03-29T16:14:34.993Z</time></trkpt><trkpt lat="45.189519423870166" lon="8.327558456125297"><ele>127.0</ele><time>2026-03-29T16:14:35.993Z</time></trkpt><trkpt lat="45.1896636735996" lon="8.327282363611667"><ele>127.0</ele><time>2026-03-29T16:14:36.993Z</time></trkpt><trkpt lat="45.18980954560203" lon="8.327007326704303"><ele>127.0</ele><time>2026-03-29T16:14:37.993Z</time></trkpt><trkpt lat="45.189954179647664" lon="8.326734340554596"><ele>126.5</ele><time>2026-03-29T16:14:38.993Z</time></trkpt><trkpt lat="45.190099995473815" lon="8.326458064158203"><ele>126.0</ele><time>2026-03-29T16:14:39.993Z</time></trkpt><trkpt lat="45.19024395871352" lon="8.326178643760667"><ele>126.0</ele><time>2026-03-29T16:14:40.993Z</time></trkpt><trkpt lat="45.190387993201895" lon="8.325897213816528"><ele>126.0</ele><time>2026-03-29T16:14:41.993Z</time></trkpt><trkpt lat="45.190531869383186" lon="8.325617759778371"><ele>126.0</ele><time>2026-03-29T16:14:42.993Z</time></trkpt><trkpt lat="45.19067698383234" lon="8.325337820754749"><ele>126.0</ele><time>2026-03-29T16:14:43.993Z</time></trkpt><trkpt lat="45.19082191573277" lon="8.32505717563093"><ele>126.0</ele><time>2026-03-29T16:14:44.993Z</time></trkpt><trkpt lat="45.1909659286958" lon="8.324777929926118"><ele>126.0</ele><time>2026-03-29T16:14:45.993Z</time></trkpt><trkpt lat="45.19111228960697" lon="8.324496133636837"><ele>126.5</ele><time>2026-03-29T16:14:46.993Z</time></trkpt><trkpt lat="45.19125682987002" lon="8.324214417564464"><ele>127.0</ele><time>2026-03-29T16:14:47.993Z</time></trkpt><trkpt lat="45.19140005953209" lon="8.323933841201727"><ele>127.0</ele><time>2026-03-29T16:14:48.993Z</time></trkpt><trkpt lat="45.19154508821675" lon="8.32365216575532"><ele>127.0</ele><time>2026-03-29T16:14:49.993Z</time></trkpt><trkpt lat="45.19169040996162" lon="8.323372469673156"><ele>127.0</ele><time>2026-03-29T16:14:50.993Z</time></trkpt><trkpt lat="45.19183622301796" lon="8.323091352646445"><ele>127.0</ele><time>2026-03-29T16:14:51.992Z</time></trkpt><trkpt lat="45.19198189148267" lon="8.322809969216545"><ele>126.5</ele><time>2026-03-29T16:14:52.992Z</time></trkpt><trkpt lat="45.19212939300561" lon="8.322529261156028"><ele>126.0</ele><time>2026-03-29T16:14:53.992Z</time></trkpt><trkpt lat="45.19227491957499" lon="8.322248146327084"><ele>126.0</ele><time>2026-03-29T16:14:54.992Z</time></trkpt><trkpt lat="45.192420556338526" lon="8.321964237843385"><ele>126.0</ele><time>2026-03-29T16:14:55.992Z</time></trkpt><trkpt lat="45.19256788221964" lon="8.321681850731329"><ele>126.0</ele><time>2026-03-29T16:14:56.992Z</time></trkpt><trkpt lat="45.19271711833113" lon="8.321399316978608"><ele>126.0</ele><time>2026-03-29T16:14:57.992Z</time></trkpt><trkpt lat="45.192866645953316" lon="8.321116096899715"><ele>126.0</ele><time>2026-03-29T16:14:58.992Z</time></trkpt><trkpt lat="45.19301763167295" lon="8.32083456321734"><ele>126.0</ele><time>2026-03-29T16:14:59.992Z</time></trkpt><trkpt lat="45.193168231218024" lon="8.320550583353063"><ele>127.5</ele><time>2026-03-29T16:15:00.992Z</time></trkpt><trkpt lat="45.193315899863045" lon="8.320264494892593"><ele>129.0</ele><time>2026-03-29T16:15:01.992Z</time></trkpt><trkpt lat="45.193464941126905" lon="8.319976284603129"><ele>127.5</ele><time>2026-03-29T16:15:02.992Z</time></trkpt><trkpt lat="45.19361358945086" lon="8.319688500195701"><ele>126.0</ele><time>2026-03-29T16:15:03.992Z</time></trkpt><trkpt lat="45.193761253676534" lon="8.319398706471018"><ele>126.0</ele><time>2026-03-29T16:15:04.992Z</time></trkpt><trkpt lat="45.19390972837628" lon="8.319109365956287"><ele>126.0</ele><time>2026-03-29T16:15:05.992Z</time></trkpt><trkpt lat="45.19405903563962" lon="8.31882188972465"><ele>126.0</ele><time>2026-03-29T16:15:06.992Z</time></trkpt><trkpt lat="45.194209656796204" lon="8.318533603695446"><ele>126.0</ele><time>2026-03-29T16:15:07.992Z</time></trkpt><trkpt lat="45.19435928849557" lon="8.31824347450988"><ele>126.0</ele><time>2026-03-29T16:15:08.992Z</time></trkpt><trkpt lat="45.19450730423879" lon="8.317950123555919"><ele>126.0</ele><time>2026-03-29T16:15:09.992Z</time></trkpt><trkpt lat="45.19465612924021" lon="8.31766045635299"><ele>126.0</ele><time>2026-03-29T16:15:10.992Z</time></trkpt><trkpt lat="45.19480702916954" lon="8.317372420411587"><ele>126.0</ele><time>2026-03-29T16:15:11.992Z</time></trkpt><trkpt lat="45.1949580878067" lon="8.31708186382857"><ele>126.0</ele><time>2026-03-29T16:15:12.992Z</time></trkpt><trkpt lat="45.195109708724566" lon="8.316790735364153"><ele>126.0</ele><time>2026-03-29T16:15:13.992Z</time></trkpt><trkpt lat="45.19526133460098" lon="8.316499666695535"><ele>126.5</ele><time>2026-03-29T16:15:14.992Z</time></trkpt><trkpt lat="45.19541419900363" lon="8.316206341756406"><ele>127.0</ele><time>2026-03-29T16:15:15.992Z</time></trkpt><trkpt lat="45.19556655333493" lon="8.315913560577627"><ele>127.0</ele><time>2026-03-29T16:15:16.992Z</time></trkpt><trkpt lat="45.195718141022496" lon="8.315619771145574"><ele>127.0</ele><time>2026-03-29T16:15:17.992Z</time></trkpt><trkpt lat="45.19586782978919" lon="8.315329340479707"><ele>127.0</ele><time>2026-03-29T16:15:18.992Z</time></trkpt><trkpt lat="45.19601684241639" lon="8.315042780120956"><ele>127.0</ele><time>2026-03-29T16:15:19.992Z</time></trkpt><trkpt lat="45.1961619892045" lon="8.314761162953687"><ele>126.5</ele><time>2026-03-29T16:15:20.992Z</time></trkpt><trkpt lat="45.19630358037577" lon="8.314482644045773"><ele>126.0</ele><time>2026-03-29T16:15:21.992Z</time></trkpt><trkpt lat="45.1964422240031" lon="8.314210177453688"><ele>126.5</ele><time>2026-03-29T16:15:22.992Z</time></trkpt><trkpt lat="45.19658015001931" lon="8.31394377188643"><ele>127.0</ele><time>2026-03-29T16:15:23.992Z</time></trkpt><trkpt lat="45.19671435510868" lon="8.313683482682341"><ele>127.0</ele><time>2026-03-29T16:15:24.992Z</time></trkpt><trkpt lat="45.19684731728765" lon="8.313425747758634"><ele>127.0</ele><time>2026-03-29T16:15:25.992Z</time></trkpt><trkpt lat="45.19697810645812" lon="8.313171148698554"><ele>127.0</ele><time>2026-03-29T16:15:26.992Z</time></trkpt><trkpt lat="45.197108535943805" lon="8.312923687081813"><ele>127.0</ele><time>2026-03-29T16:15:27.992Z</time></trkpt><trkpt lat="45.197237284332374" lon="8.312678967434813"><ele>127.0</ele><time>2026-03-29T16:15:28.992Z</time></trkpt><trkpt lat="45.197363405425904" lon="8.312439829421182"><ele>127.0</ele><time>2026-03-29T16:15:29.992Z</time></trkpt><trkpt lat="45.197488540957096" lon="8.312206707446043"><ele>127.0</ele><time>2026-03-29T16:15:30.992Z</time></trkpt><trkpt lat="45.19761626374252" lon="8.31197566925223"><ele>127.0</ele><time>2026-03-29T16:15:31.992Z</time></trkpt><trkpt lat="45.197743210492874" lon="8.311754325666676"><ele>127.0</ele><time>2026-03-29T16:15:32.992Z</time></trkpt><trkpt lat="45.197873772418625" lon="8.31154057539756"><ele>127.0</ele><time>2026-03-29T16:15:33.992Z</time></trkpt><trkpt lat="45.19800975631389" lon="8.311336414095997"><ele>127.0</ele><time>2026-03-29T16:15:34.992Z</time></trkpt><trkpt lat="45.198151206532906" lon="8.311132408903825"><ele>127.0</ele><time>2026-03-29T16:15:35.992Z</time></trkpt><trkpt lat="45.19829887726361" lon="8.31092995608462"><ele>127.0</ele><time>2026-03-29T16:15:36.992Z</time></trkpt><trkpt lat="45.198453031253464" lon="8.31072547428592"><ele>127.0</ele><time>2026-03-29T16:15:37.992Z</time></trkpt><trkpt lat="45.19861022042305" lon="8.310523844388834"><ele>127.0</ele><time>2026-03-29T16:15:38.992Z</time></trkpt><trkpt lat="45.1987693476146" lon="8.310326196695893"><ele>127.0</ele><time>2026-03-29T16:15:39.992Z</time></trkpt><trkpt lat="45.198932422756464" lon="8.31013764447972"><ele>127.0</ele><time>2026-03-29T16:15:40.992Z</time></trkpt><trkpt lat="45.19910329936615" lon="8.30996034764815"><ele>127.0</ele><time>2026-03-29T16:15:41.991Z</time></trkpt><trkpt lat="45.19928212822778" lon="8.309794248917889"><ele>127.33333333333334</ele><time>2026-03-29T16:15:42.991Z</time></trkpt><trkpt lat="45.19946614661378" lon="8.309633105013859"><ele>127.66666666666666</ele><time>2026-03-29T16:15:43.991Z</time></trkpt><trkpt lat="45.199650907249534" lon="8.309472722595798"><ele>128.0</ele><time>2026-03-29T16:15:44.991Z</time></trkpt><trkpt lat="45.19984015829289" lon="8.30931995480857"><ele>128.0</ele><time>2026-03-29T16:15:45.991Z</time></trkpt><trkpt lat="45.20003483807938" lon="8.309172993870467"><ele>128.0</ele><time>2026-03-29T16:15:46.991Z</time></trkpt><trkpt lat="45.20023256473526" lon="8.309028123875361"><ele>128.0</ele><time>2026-03-29T16:15:47.991Z</time></trkpt><trkpt lat="45.200431562754844" lon="8.308887311579637"><ele>128.0</ele><time>2026-03-29T16:15:48.991Z</time></trkpt><trkpt lat="45.200635595255704" lon="8.308750267245916"><ele>128.0</ele><time>2026-03-29T16:15:49.991Z</time></trkpt><trkpt lat="45.20084019518525" lon="8.308611190865262"><ele>128.0</ele><time>2026-03-29T16:15:50.991Z</time></trkpt><trkpt lat="45.201043827513885" lon="8.308469297795403"><ele>128.0</ele><time>2026-03-29T16:15:51.991Z</time></trkpt><trkpt lat="45.20124867766397" lon="8.308329912761886"><ele>128.0</ele><time>2026-03-29T16:15:52.991Z</time></trkpt><trkpt lat="45.20145567717246" lon="8.30819016362748"><ele>128.0</ele><time>2026-03-29T16:15:53.991Z</time></trkpt><trkpt lat="45.201664033241215" lon="8.308047837802457"><ele>128.5</ele><time>2026-03-29T16:15:54.991Z</time></trkpt><trkpt lat="45.201875773257356" lon="8.30790238031511"><ele>129.0</ele><time>2026-03-29T16:15:55.991Z</time></trkpt><trkpt lat="45.20209119897253" lon="8.307760494143626"><ele>129.0</ele><time>2026-03-29T16:15:56.991Z</time></trkpt><trkpt lat="45.20230950696554" lon="8.307617535214698"><ele>129.0</ele><time>2026-03-29T16:15:57.991Z</time></trkpt><trkpt lat="45.2025293525947" lon="8.307469773359761"><ele>129.0</ele><time>2026-03-29T16:15:58.991Z</time></trkpt><trkpt lat="45.20274657630179" lon="8.307319336850435"><ele>129.0</ele><time>2026-03-29T16:15:59.991Z</time></trkpt><trkpt lat="45.20296296099526" lon="8.307171348088612"><ele>129.5</ele><time>2026-03-29T16:16:00.991Z</time></trkpt><trkpt lat="45.203178491448845" lon="8.30702790554549"><ele>130.0</ele><time>2026-03-29T16:16:01.991Z</time></trkpt><trkpt lat="45.20339360670501" lon="8.306886082852534"><ele>130.0</ele><time>2026-03-29T16:16:02.991Z</time></trkpt><trkpt lat="45.20360702680297" lon="8.306741892085027"><ele>130.0</ele><time>2026-03-29T16:16:03.991Z</time></trkpt><trkpt lat="45.20381726525636" lon="8.306598477038431"><ele>130.0</ele><time>2026-03-29T16:16:04.991Z</time></trkpt><trkpt lat="45.20402610615804" lon="8.306459237083837"><ele>130.0</ele><time>2026-03-29T16:16:05.991Z</time></trkpt><trkpt lat="45.20423537267821" lon="8.306318783867516"><ele>130.5</ele><time>2026-03-29T16:16:06.991Z</time></trkpt><trkpt lat="45.204443013048994" lon="8.306181346224774"><ele>131.0</ele><time>2026-03-29T16:16:07.991Z</time></trkpt><trkpt lat="45.20465042840479" lon="8.30604487908948"><ele>131.5</ele><time>2026-03-29T16:16:08.991Z</time></trkpt><trkpt lat="45.20485782019323" lon="8.305905737715156"><ele>132.0</ele><time>2026-03-29T16:16:09.991Z</time></trkpt><trkpt lat="45.2050648419927" lon="8.305764779521821"><ele>132.0</ele><time>2026-03-29T16:16:10.991Z</time></trkpt><trkpt lat="45.20527183299405" lon="8.305622820636556"><ele>132.0</ele><time>2026-03-29T16:16:11.991Z</time></trkpt><trkpt lat="45.20547685219413" lon="8.305482375672149"><ele>133.0</ele><time>2026-03-29T16:16:12.991Z</time></trkpt><trkpt lat="45.20567763126028" lon="8.305340587674923"><ele>134.0</ele><time>2026-03-29T16:16:13.991Z</time></trkpt><trkpt lat="45.20587492461546" lon="8.305203503260257"><ele>135.0</ele><time>2026-03-29T16:16:14.991Z</time></trkpt><trkpt lat="45.206066493514854" lon="8.305073442207297"><ele>135.0</ele><time>2026-03-29T16:16:15.991Z</time></trkpt><trkpt lat="45.20625049862593" lon="8.304951100876194"><ele>135.0</ele><time>2026-03-29T16:16:16.991Z</time></trkpt><trkpt lat="45.206425901425156" lon="8.304834155504984"><ele>135.0</ele><time>2026-03-29T16:16:17.991Z</time></trkpt><trkpt lat="45.2065902975812" lon="8.304726813879231"><ele>136.66666666666666</ele><time>2026-03-29T16:16:18.991Z</time></trkpt><trkpt lat="45.20675037474433" lon="8.304632183334647"><ele>138.33333333333331</ele><time>2026-03-29T16:16:19.991Z</time></trkpt><trkpt lat="45.2069072285636" lon="8.304553867100722"><ele>140.0</ele><time>2026-03-29T16:16:20.991Z</time></trkpt><trkpt lat="45.20705644938897" lon="8.304478594713752"><ele>140.0</ele><time>2026-03-29T16:16:21.991Z</time></trkpt><trkpt lat="45.2072008938259" lon="8.304400235525653"><ele>140.0</ele><time>2026-03-29T16:16:22.991Z</time></trkpt><trkpt lat="45.207332712304826" lon="8.3043229422071"><ele>140.0</ele><time>2026-03-29T16:16:23.991Z</time></trkpt><trkpt lat="45.20744956367605" lon="8.304243033664703"><ele>140.0</ele><time>2026-03-29T16:16:24.991Z</time></trkpt><trkpt lat="45.2075628351495" lon="8.304171512369171"><ele>139.75</ele><time>2026-03-29T16:16:25.991Z</time></trkpt><trkpt lat="45.20767469218461" lon="8.304127896466275"><ele>139.5</ele><time>2026-03-29T16:16:26.991Z</time></trkpt><trkpt lat="45.20779369278266" lon="8.304126452449689"><ele>139.25</ele><time>2026-03-29T16:16:27.991Z</time></trkpt><trkpt lat="45.20791896741906" lon="8.3041302869599"><ele>139.0</ele><time>2026-03-29T16:16:28.991Z</time></trkpt><trkpt lat="45.20803967725305" lon="8.304091920396987"><ele>139.25</ele><time>2026-03-29T16:16:29.991Z</time></trkpt><trkpt lat="45.208172946849615" lon="8.3040392796086"><ele>139.5</ele><time>2026-03-29T16:16:30.99Z</time></trkpt><trkpt lat="45.20832028521093" lon="8.30402569276079"><ele>139.75</ele><time>2026-03-29T16:16:31.99Z</time></trkpt><trkpt lat="45.20847305835745" lon="8.304058053766068"><ele>140.0</ele><time>2026-03-29T16:16:32.99Z</time></trkpt><trkpt lat="45.208631339811625" lon="8.304108043137354"><ele>140.0</ele><time>2026-03-29T16:16:33.99Z</time></trkpt><trkpt lat="45.208799381732156" lon="8.30415306537724"><ele>140.0</ele><time>2026-03-29T16:16:34.99Z</time></trkpt><trkpt lat="45.20897651347094" lon="8.304190836987399"><ele>140.0</ele><time>2026-03-29T16:16:35.993Z</time></trkpt><trkpt lat="45.20916237594792" lon="8.304226721478592"><ele>140.33333333333331</ele><time>2026-03-29T16:16:36.993Z</time></trkpt><trkpt lat="45.20935525206861" lon="8.304266844936551"><ele>140.66666666666666</ele><time>2026-03-29T16:16:37.993Z</time></trkpt><trkpt lat="45.20955207384757" lon="8.304316071032412"><ele>141.0</ele><time>2026-03-29T16:16:38.993Z</time></trkpt><trkpt lat="45.20975204674854" lon="8.304386367828098"><ele>140.66666666666666</ele><time>2026-03-29T16:16:39.993Z</time></trkpt><trkpt lat="45.2099505905894" lon="8.304480477691389"><ele>140.33333333333331</ele><time>2026-03-29T16:16:40.993Z</time></trkpt><trkpt lat="45.210154286445366" lon="8.30458264883518"><ele>140.0</ele><time>2026-03-29T16:16:41.993Z</time></trkpt><trkpt lat="45.2103652830347" lon="8.304673687988023"><ele>140.5</ele><time>2026-03-29T16:16:42.993Z</time></trkpt><trkpt lat="45.21058270709857" lon="8.30476911398167"><ele>141.0</ele><time>2026-03-29T16:16:43.993Z</time></trkpt><trkpt lat="45.210804368315436" lon="8.30486906751413"><ele>142.0</ele><time>2026-03-29T16:16:44.993Z</time></trkpt><trkpt lat="45.21102988562624" lon="8.304965179865292"><ele>143.0</ele><time>2026-03-29T16:16:45.993Z</time></trkpt><trkpt lat="45.21125899445861" lon="8.305059756710975"><ele>143.0</ele><time>2026-03-29T16:16:46.993Z</time></trkpt><trkpt lat="45.21148977703303" lon="8.305158586084996"><ele>143.0</ele><time>2026-03-29T16:16:47.993Z</time></trkpt><trkpt lat="45.211723761900586" lon="8.3052614134903"><ele>142.0</ele><time>2026-03-29T16:16:48.993Z</time></trkpt><trkpt lat="45.21196379718798" lon="8.305369978565613"><ele>141.0</ele><time>2026-03-29T16:16:49.993Z</time></trkpt><trkpt lat="45.21220803659816" lon="8.30547991087291"><ele>141.5</ele><time>2026-03-29T16:16:50.993Z</time></trkpt><trkpt lat="45.21245450384187" lon="8.305601978495748"><ele>142.0</ele><time>2026-03-29T16:16:51.993Z</time></trkpt><trkpt lat="45.2126996988622" lon="8.305735999423053"><ele>142.0</ele><time>2026-03-29T16:16:52.993Z</time></trkpt><trkpt lat="45.21294848306631" lon="8.305866089541208"><ele>142.0</ele><time>2026-03-29T16:16:53.993Z</time></trkpt><trkpt lat="45.21319862263475" lon="8.30598400910101"><ele>141.5</ele><time>2026-03-29T16:16:54.993Z</time></trkpt><trkpt lat="45.213448111896376" lon="8.306095209091703"><ele>141.0</ele><time>2026-03-29T16:16:55.993Z</time></trkpt><trkpt lat="45.21369433795997" lon="8.306206181628946"><ele>141.0</ele><time>2026-03-29T16:16:56.993Z</time></trkpt><trkpt lat="45.213937887542876" lon="8.306316497525147"><ele>141.0</ele><time>2026-03-29T16:16:57.993Z</time></trkpt><trkpt lat="45.21417744696637" lon="8.306429367125467"><ele>141.0</ele><time>2026-03-29T16:16:58.993Z</time></trkpt><trkpt lat="45.21441445021105" lon="8.306538413864688"><ele>141.0</ele><time>2026-03-29T16:16:59.993Z</time></trkpt><trkpt lat="45.21464921680875" lon="8.306647505391128"><ele>142.0</ele><time>2026-03-29T16:17:00.993Z</time></trkpt><trkpt lat="45.21488197777466" lon="8.30675635829801"><ele>143.0</ele><time>2026-03-29T16:17:01.993Z</time></trkpt><trkpt lat="45.21511338284469" lon="8.306862984476876"><ele>143.0</ele><time>2026-03-29T16:17:02.993Z</time></trkpt><trkpt lat="45.2153411565073" lon="8.306968451388498"><ele>143.0</ele><time>2026-03-29T16:17:03.993Z</time></trkpt><trkpt lat="45.215565368567304" lon="8.307074097337873"><ele>142.5</ele><time>2026-03-29T16:17:04.993Z</time></trkpt><trkpt lat="45.21578830813152" lon="8.307176440289565"><ele>142.0</ele><time>2026-03-29T16:17:05.993Z</time></trkpt><trkpt lat="45.2160109890311" lon="8.307276820057627"><ele>141.5</ele><time>2026-03-29T16:17:06.993Z</time></trkpt><trkpt lat="45.21623168402328" lon="8.307376712132243"><ele>141.0</ele><time>2026-03-29T16:17:07.993Z</time></trkpt><trkpt lat="45.21645156694435" lon="8.307477920381254"><ele>141.0</ele><time>2026-03-29T16:17:08.993Z</time></trkpt><trkpt lat="45.21667153903903" lon="8.307578747826978"><ele>141.0</ele><time>2026-03-29T16:17:09.993Z</time></trkpt><trkpt lat="45.21689072629733" lon="8.307679821531908"><ele>141.0</ele><time>2026-03-29T16:17:10.993Z</time></trkpt><trkpt lat="45.21710956185358" lon="8.307777633367339"><ele>141.0</ele><time>2026-03-29T16:17:11.993Z</time></trkpt><trkpt lat="45.21732841650432" lon="8.307877378075103"><ele>141.0</ele><time>2026-03-29T16:17:12.993Z</time></trkpt><trkpt lat="45.217547163598105" lon="8.307979760428408"><ele>141.0</ele><time>2026-03-29T16:17:13.993Z</time></trkpt><trkpt lat="45.21776700177249" lon="8.308084359895428"><ele>140.5</ele><time>2026-03-29T16:17:14.993Z</time></trkpt><trkpt lat="45.217986170007336" lon="8.30818752084611"><ele>140.0</ele><time>2026-03-29T16:17:15.993Z</time></trkpt><trkpt lat="45.21820723032847" lon="8.308290208810185"><ele>140.0</ele><time>2026-03-29T16:17:16.993Z</time></trkpt><trkpt lat="45.218427583629264" lon="8.308391316982421"><ele>140.0</ele><time>2026-03-29T16:17:17.992Z</time></trkpt><trkpt lat="45.218648047012515" lon="8.308493389263063"><ele>140.0</ele><time>2026-03-29T16:17:18.992Z</time></trkpt><trkpt lat="45.218869657602454" lon="8.308596510178289"><ele>140.0</ele><time>2026-03-29T16:17:19.992Z</time></trkpt><trkpt lat="45.219089658347336" lon="8.30870306641501"><ele>140.0</ele><time>2026-03-29T16:17:20.992Z</time></trkpt><trkpt lat="45.219310017506594" lon="8.308808886232445"><ele>140.0</ele><time>2026-03-29T16:17:21.992Z</time></trkpt><trkpt lat="45.21953312999272" lon="8.308918107990689"><ele>140.0</ele><time>2026-03-29T16:17:22.992Z</time></trkpt><trkpt lat="45.21975596208904" lon="8.309027469863953"><ele>140.0</ele><time>2026-03-29T16:17:23.992Z</time></trkpt><trkpt lat="45.2199797585991" lon="8.309129280135343"><ele>139.5</ele><time>2026-03-29T16:17:24.992Z</time></trkpt><trkpt lat="45.22020385793981" lon="8.30923094720901"><ele>139.0</ele><time>2026-03-29T16:17:25.992Z</time></trkpt><trkpt lat="45.22042819245251" lon="8.30933747911864"><ele>139.0</ele><time>2026-03-29T16:17:26.992Z</time></trkpt><trkpt lat="45.22065086479243" lon="8.309448788671935"><ele>139.0</ele><time>2026-03-29T16:17:27.992Z</time></trkpt><trkpt lat="45.22087454962574" lon="8.309567990188057"><ele>139.0</ele><time>2026-03-29T16:17:28.992Z</time></trkpt><trkpt lat="45.22109473572846" lon="8.309699859238407"><ele>139.0</ele><time>2026-03-29T16:17:29.992Z</time></trkpt><trkpt lat="45.22131098428117" lon="8.309842415484617"><ele>138.0</ele><time>2026-03-29T16:17:30.992Z</time></trkpt><trkpt lat="45.22152431511259" lon="8.309993803383842"><ele>137.0</ele><time>2026-03-29T16:17:31.992Z</time></trkpt><trkpt lat="45.22173502253041" lon="8.310155249018749"><ele>137.0</ele><time>2026-03-29T16:17:32.992Z</time></trkpt><trkpt lat="45.221940280092575" lon="8.310326444460173"><ele>137.0</ele><time>2026-03-29T16:17:33.992Z</time></trkpt><trkpt lat="45.222144162709995" lon="8.310504530471471"><ele>137.0</ele><time>2026-03-29T16:17:34.992Z</time></trkpt><trkpt lat="45.222341994489796" lon="8.310689916661186"><ele>137.0</ele><time>2026-03-29T16:17:35.992Z</time></trkpt><trkpt lat="45.22253590113546" lon="8.31088344699458"><ele>137.0</ele><time>2026-03-29T16:17:36.992Z</time></trkpt><trkpt lat="45.22272428667104" lon="8.311086329711097"><ele>137.0</ele><time>2026-03-29T16:17:37.992Z</time></trkpt><trkpt lat="45.222906879757936" lon="8.31129666779322"><ele>137.0</ele><time>2026-03-29T16:17:38.992Z</time></trkpt><trkpt lat="45.223084007824696" lon="8.311513825899025"><ele>137.0</ele><time>2026-03-29T16:17:39.992Z</time></trkpt><trkpt lat="45.22325444053236" lon="8.311736898732473"><ele>137.5</ele><time>2026-03-29T16:17:40.992Z</time></trkpt><trkpt lat="45.22342537867313" lon="8.311953859706975"><ele>138.0</ele><time>2026-03-29T16:17:41.992Z</time></trkpt><trkpt lat="45.223601280763035" lon="8.312167677992107"><ele>137.5</ele><time>2026-03-29T16:17:42.992Z</time></trkpt><trkpt lat="45.22377466702217" lon="8.312381561090469"><ele>137.0</ele><time>2026-03-29T16:17:43.992Z</time></trkpt><trkpt lat="45.22394584179846" lon="8.312596463079833"><ele>137.33333333333331</ele><time>2026-03-29T16:17:44.992Z</time></trkpt><trkpt lat="45.22411397221088" lon="8.312809511063074"><ele>137.66666666666666</ele><time>2026-03-29T16:17:45.992Z</time></trkpt><trkpt lat="45.22428019175291" lon="8.313022797285875"><ele>138.0</ele><time>2026-03-29T16:17:46.992Z</time></trkpt><trkpt lat="45.22444539474798" lon="8.313233776089652"><ele>138.0</ele><time>2026-03-29T16:17:47.992Z</time></trkpt><trkpt lat="45.224607629781204" lon="8.313448223130251"><ele>138.0</ele><time>2026-03-29T16:17:48.992Z</time></trkpt><trkpt lat="45.22476801407769" lon="8.313663509480914"><ele>138.0</ele><time>2026-03-29T16:17:49.992Z</time></trkpt><trkpt lat="45.22492513788573" lon="8.313883482242845"><ele>138.33333333333334</ele><time>2026-03-29T16:17:50.992Z</time></trkpt><trkpt lat="45.22508005337529" lon="8.314113043853816"><ele>138.66666666666669</ele><time>2026-03-29T16:17:51.992Z</time></trkpt><trkpt lat="45.225227738485195" lon="8.314352618807867"><ele>139.0</ele><time>2026-03-29T16:17:52.992Z</time></trkpt><trkpt lat="45.22537107403848" lon="8.314599375062228"><ele>139.5</ele><time>2026-03-29T16:17:53.992Z</time></trkpt><trkpt lat="45.2255101818145" lon="8.314854597947706"><ele>140.0</ele><time>2026-03-29T16:17:54.992Z</time></trkpt><trkpt lat="45.225640131705866" lon="8.315119766527044"><ele>140.0</ele><time>2026-03-29T16:17:55.992Z</time></trkpt><trkpt lat="45.22576485707965" lon="8.315393117893747"><ele>140.0</ele><time>2026-03-29T16:17:56.992Z</time></trkpt><trkpt lat="45.225886158143076" lon="8.315672231960479"><ele>140.0</ele><time>2026-03-29T16:17:57.992Z</time></trkpt><trkpt lat="45.22600184022412" lon="8.315956785217363"><ele>140.0</ele><time>2026-03-29T16:17:58.992Z</time></trkpt><trkpt lat="45.226115672853325" lon="8.316243857015152"><ele>139.5</ele><time>2026-03-29T16:17:59.992Z</time></trkpt><trkpt lat="45.22622752204094" lon="8.316531520235726"><ele>139.0</ele><time>2026-03-29T16:18:00.992Z</time></trkpt><trkpt lat="45.22633971861883" lon="8.3168184201542"><ele>139.0</ele><time>2026-03-29T16:18:01.992Z</time></trkpt><trkpt lat="45.22644888659248" lon="8.317109646464946"><ele>139.0</ele><time>2026-03-29T16:18:02.992Z</time></trkpt><trkpt lat="45.226555385044634" lon="8.317401191982878"><ele>140.0</ele><time>2026-03-29T16:18:03.992Z</time></trkpt><trkpt lat="45.226660903717374" lon="8.317692200176088"><ele>141.0</ele><time>2026-03-29T16:18:04.992Z</time></trkpt><trkpt lat="45.22676697140304" lon="8.317983809399626"><ele>141.0</ele><time>2026-03-29T16:18:05.992Z</time></trkpt><trkpt lat="45.22687372844933" lon="8.318275085442176"><ele>141.0</ele><time>2026-03-29T16:18:06.991Z</time></trkpt><trkpt lat="45.22698186093621" lon="8.318565014994942"><ele>141.0</ele><time>2026-03-29T16:18:07.991Z</time></trkpt><trkpt lat="45.22708827760333" lon="8.318853542830151"><ele>141.0</ele><time>2026-03-29T16:18:08.991Z</time></trkpt><trkpt lat="45.2271940120683" lon="8.319142710166407"><ele>140.5</ele><time>2026-03-29T16:18:09.991Z</time></trkpt><trkpt lat="45.227299310423106" lon="8.31943271087886"><ele>140.0</ele><time>2026-03-29T16:18:10.991Z</time></trkpt><trkpt lat="45.227404265656126" lon="8.3197224908636"><ele>140.0</ele><time>2026-03-29T16:18:11.991Z</time></trkpt><trkpt lat="45.227510464047626" lon="8.320010715779002"><ele>140.0</ele><time>2026-03-29T16:18:12.991Z</time></trkpt><trkpt lat="45.22761663821041" lon="8.320297224695866"><ele>140.0</ele><time>2026-03-29T16:18:13.991Z</time></trkpt><trkpt lat="45.22772430730199" lon="8.320582374180118"><ele>140.0</ele><time>2026-03-29T16:18:14.991Z</time></trkpt><trkpt lat="45.22783199343594" lon="8.320868813389495"><ele>140.0</ele><time>2026-03-29T16:18:15.991Z</time></trkpt><trkpt lat="45.227937896551424" lon="8.321157719643944"><ele>140.0</ele><time>2026-03-29T16:18:16.991Z</time></trkpt><trkpt lat="45.22804238774172" lon="8.321445854052474"><ele>140.5</ele><time>2026-03-29T16:18:17.991Z</time></trkpt><trkpt lat="45.22814773303388" lon="8.321734971281867"><ele>141.0</ele><time>2026-03-29T16:18:18.991Z</time></trkpt><trkpt lat="45.228252315010444" lon="8.322025352696413"><ele>141.0</ele><time>2026-03-29T16:18:19.991Z</time></trkpt><trkpt lat="45.2283580442423" lon="8.32231491801743"><ele>141.0</ele><time>2026-03-29T16:18:20.991Z</time></trkpt><trkpt lat="45.22846496569909" lon="8.322605015789822"><ele>141.0</ele><time>2026-03-29T16:18:21.991Z</time></trkpt><trkpt lat="45.22857095332556" lon="8.322895597931506"><ele>141.0</ele><time>2026-03-29T16:18:22.991Z</time></trkpt><trkpt lat="45.22867733709566" lon="8.323185738974821"><ele>140.0</ele><time>2026-03-29T16:18:23.991Z</time></trkpt><trkpt lat="45.228783091619604" lon="8.323476066804705"><ele>139.0</ele><time>2026-03-29T16:18:24.991Z</time></trkpt><trkpt lat="45.22889031350446" lon="8.323765427588754"><ele>139.5</ele><time>2026-03-29T16:18:25.991Z</time></trkpt><trkpt lat="45.228997854920756" lon="8.324055703452602"><ele>140.0</ele><time>2026-03-29T16:18:26.991Z</time></trkpt><trkpt lat="45.22910339627976" lon="8.324346691150842"><ele>140.0</ele><time>2026-03-29T16:18:27.991Z</time></trkpt><trkpt lat="45.2292097319369" lon="8.324635464628043"><ele>140.0</ele><time>2026-03-29T16:18:28.991Z</time></trkpt><trkpt lat="45.22931639444451" lon="8.324923155336613"><ele>140.0</ele><time>2026-03-29T16:18:29.991Z</time></trkpt><trkpt lat="45.22942274699831" lon="8.325210007272135"><ele>140.0</ele><time>2026-03-29T16:18:30.991Z</time></trkpt><trkpt lat="45.229528621101515" lon="8.325496541584169"><ele>140.0</ele><time>2026-03-29T16:18:31.991Z</time></trkpt><trkpt lat="45.22963354753422" lon="8.325780432302887"><ele>140.0</ele><time>2026-03-29T16:18:32.991Z</time></trkpt><trkpt lat="45.2297350120016" lon="8.326060835633312"><ele>140.0</ele><time>2026-03-29T16:18:33.991Z</time></trkpt><trkpt lat="45.22983811345384" lon="8.326336745574418"><ele>140.33333333333331</ele><time>2026-03-29T16:18:34.991Z</time></trkpt><trkpt lat="45.22994369648119" lon="8.326607667284305"><ele>140.66666666666666</ele><time>2026-03-29T16:18:35.991Z</time></trkpt><trkpt lat="45.23005356015059" lon="8.326874880727956"><ele>141.0</ele><time>2026-03-29T16:18:36.991Z</time></trkpt><trkpt lat="45.23016924093009" lon="8.32713915110446"><ele>141.33333333333334</ele><time>2026-03-29T16:18:37.991Z</time></trkpt><trkpt lat="45.230292108519144" lon="8.327398868300506"><ele>141.66666666666669</ele><time>2026-03-29T16:18:38.991Z</time></trkpt><trkpt lat="45.23041967860823" lon="8.327656227180494"><ele>142.0</ele><time>2026-03-29T16:18:39.991Z</time></trkpt><trkpt lat="45.23055559355176" lon="8.327907831652013"><ele>141.66666666666669</ele><time>2026-03-29T16:18:40.991Z</time></trkpt><trkpt lat="45.23069656454773" lon="8.328149233907823"><ele>141.33333333333334</ele><time>2026-03-29T16:18:41.994Z</time></trkpt><trkpt lat="45.230844931647646" lon="8.328386384127072"><ele>141.0</ele><time>2026-03-29T16:18:42.993Z</time></trkpt><trkpt lat="45.231001960126136" lon="8.328620306596163"><ele>141.0</ele><time>2026-03-29T16:18:43.993Z</time></trkpt><trkpt lat="45.23116469108378" lon="8.328849576002543"><ele>141.0</ele><time>2026-03-29T16:18:44.994Z</time></trkpt><trkpt lat="45.231331458321684" lon="8.329073039095857"><ele>139.0</ele><time>2026-03-29T16:18:45.993Z</time></trkpt><trkpt lat="45.23150457886476" lon="8.329289833182868"><ele>137.0</ele><time>2026-03-29T16:18:46.993Z</time></trkpt><trkpt lat="45.23168247802976" lon="8.329499858609188"><ele>137.0</ele><time>2026-03-29T16:18:47.993Z</time></trkpt><trkpt lat="45.23186470834157" lon="8.329705562609714"><ele>137.0</ele><time>2026-03-29T16:18:48.993Z</time></trkpt><trkpt lat="45.23205475785277" lon="8.329903741765376"><ele>137.0</ele><time>2026-03-29T16:18:49.993Z</time></trkpt><trkpt lat="45.232249987069366" lon="8.330088687123649"><ele>137.0</ele><time>2026-03-29T16:18:50.993Z</time></trkpt><trkpt lat="45.23245059360719" lon="8.33025807718657"><ele>137.0</ele><time>2026-03-29T16:18:51.993Z</time></trkpt><trkpt lat="45.232657350586784" lon="8.330424824396676"><ele>137.0</ele><time>2026-03-29T16:18:52.993Z</time></trkpt><trkpt lat="45.23286620908401" lon="8.330586298311855"><ele>137.0</ele><time>2026-03-29T16:18:53.994Z</time></trkpt><trkpt lat="45.23307710368664" lon="8.330744585575754"><ele>137.0</ele><time>2026-03-29T16:18:54.993Z</time></trkpt><trkpt lat="45.23328922218029" lon="8.330903783632417"><ele>137.5</ele><time>2026-03-29T16:18:55.993Z</time></trkpt><trkpt lat="45.23350052869768" lon="8.331064619409556"><ele>138.0</ele><time>2026-03-29T16:18:56.993Z</time></trkpt><trkpt lat="45.23371400745707" lon="8.33122492875943"><ele>138.0</ele><time>2026-03-29T16:18:57.993Z</time></trkpt><trkpt lat="45.233928055621625" lon="8.331382547288996"><ele>138.0</ele><time>2026-03-29T16:18:58.993Z</time></trkpt><trkpt lat="45.23413882705074" lon="8.331539713993772"><ele>138.0</ele><time>2026-03-29T16:18:59.993Z</time></trkpt><trkpt lat="45.234349259319906" lon="8.331695741731682"><ele>138.0</ele><time>2026-03-29T16:19:00.993Z</time></trkpt><trkpt lat="45.234559645844755" lon="8.331852012521997"><ele>138.0</ele><time>2026-03-29T16:19:01.993Z</time></trkpt><trkpt lat="45.23477037491143" lon="8.332013289535372"><ele>138.0</ele><time>2026-03-29T16:19:02.993Z</time></trkpt><trkpt lat="45.23498039001074" lon="8.332173122260377"><ele>137.5</ele><time>2026-03-29T16:19:03.993Z</time></trkpt><trkpt lat="45.23519377523905" lon="8.332335355741279"><ele>137.0</ele><time>2026-03-29T16:19:04.993Z</time></trkpt><trkpt lat="45.23540608747127" lon="8.332495016448334"><ele>137.0</ele><time>2026-03-29T16:19:05.993Z</time></trkpt><trkpt lat="45.235619755795405" lon="8.33265104181014"><ele>137.0</ele><time>2026-03-29T16:19:06.993Z</time></trkpt><trkpt lat="45.23583323007871" lon="8.332806916986703"><ele>137.0</ele><time>2026-03-29T16:19:07.993Z</time></trkpt><trkpt lat="45.23604598207618" lon="8.332963163326486"><ele>137.0</ele><time>2026-03-29T16:19:08.993Z</time></trkpt><trkpt lat="45.23625815360834" lon="8.33312203514746"><ele>136.0</ele><time>2026-03-29T16:19:09.993Z</time></trkpt><trkpt lat="45.23646964258222" lon="8.333279716243599"><ele>135.0</ele><time>2026-03-29T16:19:10.993Z</time></trkpt><trkpt lat="45.23668110203994" lon="8.333436596826377"><ele>135.0</ele><time>2026-03-29T16:19:11.993Z</time></trkpt><trkpt lat="45.23689559384172" lon="8.333595415143522"><ele>135.0</ele><time>2026-03-29T16:19:12.993Z</time></trkpt><trkpt lat="45.2371088895029" lon="8.333755903645965"><ele>134.0</ele><time>2026-03-29T16:19:13.993Z</time></trkpt><trkpt lat="45.23732244643935" lon="8.33391650823734"><ele>133.0</ele><time>2026-03-29T16:19:14.993Z</time></trkpt><trkpt lat="45.237536407940965" lon="8.334076449882513"><ele>133.0</ele><time>2026-03-29T16:19:15.993Z</time></trkpt><trkpt lat="45.23775083146874" lon="8.33423634559268"><ele>133.0</ele><time>2026-03-29T16:19:16.993Z</time></trkpt><trkpt lat="45.23796053585018" lon="8.334393323343612"><ele>133.0</ele><time>2026-03-29T16:19:17.993Z</time></trkpt><trkpt lat="45.23816190141865" lon="8.334546222359752"><ele>133.0</ele><time>2026-03-29T16:19:18.993Z</time></trkpt><trkpt lat="45.23835615935211" lon="8.334693346476687"><ele>133.0</ele><time>2026-03-29T16:19:19.993Z</time></trkpt><trkpt lat="45.238541910456284" lon="8.334835518254858"><ele>133.33333333333334</ele><time>2026-03-29T16:19:20.993Z</time></trkpt><trkpt lat="45.238720135441035" lon="8.334973013618464"><ele>133.66666666666666</ele><time>2026-03-29T16:19:21.993Z</time></trkpt><trkpt lat="45.2388904135827" lon="8.335104311296659"><ele>134.0</ele><time>2026-03-29T16:19:22.993Z</time></trkpt><trkpt lat="45.239051863574595" lon="8.335232907665366"><ele>134.0</ele><time>2026-03-29T16:19:23.993Z</time></trkpt><trkpt lat="45.23920952089355" lon="8.335351795386943"><ele>134.0</ele><time>2026-03-29T16:19:24.993Z</time></trkpt><trkpt lat="45.239360632810545" lon="8.335461418424698"><ele>134.0</ele><time>2026-03-29T16:19:25.993Z</time></trkpt><trkpt lat="45.2395001153297" lon="8.335558633097152"><ele>134.0</ele><time>2026-03-29T16:19:26.993Z</time></trkpt><trkpt lat="45.2396277658975" lon="8.335650084006408"><ele>134.0</ele><time>2026-03-29T16:19:27.992Z</time></trkpt><trkpt lat="45.23974114711265" lon="8.33574058426905"><ele>134.0</ele><time>2026-03-29T16:19:28.992Z</time></trkpt><trkpt lat="45.239836913003" lon="8.335840626912823"><ele>134.0</ele><time>2026-03-29T16:19:29.992Z</time></trkpt><trkpt lat="45.23991403143194" lon="8.335953338343776"><ele>134.0</ele><time>2026-03-29T16:19:30.992Z</time></trkpt><trkpt lat="45.23998797871745" lon="8.336066339305562"><ele>134.0</ele><time>2026-03-29T16:19:31.992Z</time></trkpt><trkpt lat="45.240067103282705" lon="8.336142247396785"><ele>134.0</ele><time>2026-03-29T16:19:32.992Z</time></trkpt><trkpt lat="45.24016576270621" lon="8.336171179865497"><ele>134.0</ele><time>2026-03-29T16:19:33.992Z</time></trkpt><trkpt lat="45.24028261042128" lon="8.336190293216548"><ele>134.0</ele><time>2026-03-29T16:19:34.992Z</time></trkpt><trkpt lat="45.24040937111473" lon="8.336241778545372"><ele>134.0</ele><time>2026-03-29T16:19:35.992Z</time></trkpt><trkpt lat="45.24053133336963" lon="8.336325114191482"><ele>134.0</ele><time>2026-03-29T16:19:36.992Z</time></trkpt><trkpt lat="45.24065746784404" lon="8.336423444596143"><ele>134.0</ele><time>2026-03-29T16:19:37.992Z</time></trkpt><trkpt lat="45.240792141064716" lon="8.336525334152924"><ele>134.0</ele><time>2026-03-29T16:19:38.992Z</time></trkpt><trkpt lat="45.24093594135125" lon="8.336628714478287"><ele>133.33333333333331</ele><time>2026-03-29T16:19:39.992Z</time></trkpt><trkpt lat="45.24108331155554" lon="8.33673550864868"><ele>132.66666666666666</ele><time>2026-03-29T16:19:40.992Z</time></trkpt><trkpt lat="45.241231459476055" lon="8.336851566004283"><ele>132.0</ele><time>2026-03-29T16:19:41.992Z</time></trkpt><trkpt lat="45.24138482682587" lon="8.336973626935526"><ele>131.66666666666666</ele><time>2026-03-29T16:19:42.992Z</time></trkpt><trkpt lat="45.24154357426169" lon="8.337088613884523"><ele>131.33333333333331</ele><time>2026-03-29T16:19:43.992Z</time></trkpt><trkpt lat="45.24170924404355" lon="8.337206006442743"><ele>131.0</ele><time>2026-03-29T16:19:44.992Z</time></trkpt><trkpt lat="45.24187741350182" lon="8.337330137085978"><ele>131.0</ele><time>2026-03-29T16:19:45.992Z</time></trkpt><trkpt lat="45.24205013417349" lon="8.337455502276462"><ele>131.0</ele><time>2026-03-29T16:19:46.992Z</time></trkpt><trkpt lat="45.24222354862233" lon="8.337578874654408"><ele>131.0</ele><time>2026-03-29T16:19:47.992Z</time></trkpt><trkpt lat="45.24239680270353" lon="8.337706065016569"><ele>130.66666666666666</ele><time>2026-03-29T16:19:48.992Z</time></trkpt><trkpt lat="45.24257152255088" lon="8.337836596721976"><ele>130.33333333333334</ele><time>2026-03-29T16:19:49.992Z</time></trkpt><trkpt lat="45.24274694150496" lon="8.337968443275384"><ele>130.0</ele><time>2026-03-29T16:19:50.992Z</time></trkpt><trkpt lat="45.24292412297968" lon="8.338099729711216"><ele>130.0</ele><time>2026-03-29T16:19:51.992Z</time></trkpt><trkpt lat="45.24309920832014" lon="8.338230638694776"><ele>130.0</ele><time>2026-03-29T16:19:52.992Z</time></trkpt><trkpt lat="45.24326777717135" lon="8.338356985415457"><ele>130.0</ele><time>2026-03-29T16:19:53.992Z</time></trkpt><trkpt lat="45.24343333161936" lon="8.338479302075118"><ele>130.33333333333334</ele><time>2026-03-29T16:19:54.992Z</time></trkpt><trkpt lat="45.243592928211946" lon="8.338594791320515"><ele>130.66666666666666</ele><time>2026-03-29T16:19:55.992Z</time></trkpt><trkpt lat="45.24374480045393" lon="8.338707859119369"><ele>131.0</ele><time>2026-03-29T16:19:56.992Z</time></trkpt><trkpt lat="45.24388427619391" lon="8.33881629129683"><ele>131.0</ele><time>2026-03-29T16:19:57.992Z</time></trkpt><trkpt lat="45.244011001038594" lon="8.338912798963534"><ele>131.0</ele><time>2026-03-29T16:19:58.992Z</time></trkpt><trkpt lat="45.24411585154966" lon="8.338998589283833"><ele>131.0</ele><time>2026-03-29T16:19:59.992Z</time></trkpt><trkpt lat="45.244209400751984" lon="8.339085436452976"><ele>131.0</ele><time>2026-03-29T16:20:00.992Z</time></trkpt><trkpt lat="45.24428137795772" lon="8.339189890463631"><ele>131.0</ele><time>2026-03-29T16:20:01.992Z</time></trkpt><trkpt lat="45.24433481994065" lon="8.339301814907847"><ele>131.0</ele><time>2026-03-29T16:20:02.992Z</time></trkpt><trkpt lat="45.24438330097762" lon="8.339394420960746"><ele>131.0</ele><time>2026-03-29T16:20:03.992Z</time></trkpt><trkpt lat="45.24444763619958" lon="8.339455292582771"><ele>131.0</ele><time>2026-03-29T16:20:04.992Z</time></trkpt><trkpt lat="45.24453299139472" lon="8.339489815605857"><ele>131.0</ele><time>2026-03-29T16:20:05.992Z</time></trkpt><trkpt lat="45.24463196822595" lon="8.339499263413815"><ele>131.0</ele><time>2026-03-29T16:20:06.992Z</time></trkpt><trkpt lat="45.24474158603315" lon="8.339504038434603"><ele>131.0</ele><time>2026-03-29T16:20:07.992Z</time></trkpt><trkpt lat="45.24485614287057" lon="8.339540960797361"><ele>131.0</ele><time>2026-03-29T16:20:08.992Z</time></trkpt><trkpt lat="45.244969550555126" lon="8.339620060391196"><ele>131.0</ele><time>2026-03-29T16:20:09.992Z</time></trkpt><trkpt lat="45.24508734419272" lon="8.339719321400805"><ele>131.0</ele><time>2026-03-29T16:20:10.992Z</time></trkpt><trkpt lat="45.245215115887284" lon="8.339816783551287"><ele>130.66666666666666</ele><time>2026-03-29T16:20:11.992Z</time></trkpt><trkpt lat="45.24535331393126" lon="8.33991955505205"><ele>130.33333333333334</ele><time>2026-03-29T16:20:12.992Z</time></trkpt><trkpt lat="45.24549779171426" lon="8.34002844591498"><ele>130.0</ele><time>2026-03-29T16:20:13.992Z</time></trkpt><trkpt lat="45.245651419251644" lon="8.340142192169067"><ele>129.66666666666669</ele><time>2026-03-29T16:20:14.992Z</time></trkpt><trkpt lat="45.24581112468481" lon="8.340261407448999"><ele>129.33333333333334</ele><time>2026-03-29T16:20:15.992Z</time></trkpt><trkpt lat="45.245978542402035" lon="8.340383437111363"><ele>129.0</ele><time>2026-03-29T16:20:16.991Z</time></trkpt><trkpt lat="45.246143814129496" lon="8.340504741673222"><ele>129.0</ele><time>2026-03-29T16:20:17.991Z</time></trkpt><trkpt lat="45.246301406266305" lon="8.340623332865176"><ele>129.0</ele><time>2026-03-29T16:20:18.991Z</time></trkpt><trkpt lat="45.24646147351764" lon="8.3407477647562"><ele>129.0</ele><time>2026-03-29T16:20:19.991Z</time></trkpt><trkpt lat="45.24662654821591" lon="8.340871871763571"><ele>129.0</ele><time>2026-03-29T16:20:20.991Z</time></trkpt><trkpt lat="45.24679693115959" lon="8.340995464099462"><ele>129.0</ele><time>2026-03-29T16:20:21.991Z</time></trkpt><trkpt lat="45.246970013218586" lon="8.341123180199933"><ele>129.0</ele><time>2026-03-29T16:20:22.991Z</time></trkpt><trkpt lat="45.24714448008649" lon="8.341257862611847"><ele>129.66666666666666</ele><time>2026-03-29T16:20:23.991Z</time></trkpt><trkpt lat="45.24732307199865" lon="8.341392433538752"><ele>130.33333333333331</ele><time>2026-03-29T16:20:24.991Z</time></trkpt><trkpt lat="45.24750580239807" lon="8.341527657729877"><ele>131.0</ele><time>2026-03-29T16:20:25.991Z</time></trkpt><trkpt lat="45.247692370954425" lon="8.341666513462753"><ele>131.0</ele><time>2026-03-29T16:20:26.991Z</time></trkpt><trkpt lat="45.24788056270854" lon="8.341810984429685"><ele>131.0</ele><time>2026-03-29T16:20:27.991Z</time></trkpt><trkpt lat="45.248072643225356" lon="8.341957512633357"><ele>131.0</ele><time>2026-03-29T16:20:28.991Z</time></trkpt><trkpt lat="45.248269170724555" lon="8.342105277751552"><ele>131.0</ele><time>2026-03-29T16:20:29.991Z</time></trkpt><trkpt lat="45.24846541170511" lon="8.34226092919333"><ele>131.0</ele><time>2026-03-29T16:20:30.991Z</time></trkpt><trkpt lat="45.2486615149978" lon="8.342413526075326"><ele>131.0</ele><time>2026-03-29T16:20:31.991Z</time></trkpt><trkpt lat="45.24884993098308" lon="8.34255449967545"><ele>131.33333333333331</ele><time>2026-03-29T16:20:32.991Z</time></trkpt><trkpt lat="45.249038259192076" lon="8.342696747531484"><ele>131.66666666666666</ele><time>2026-03-29T16:20:33.991Z</time></trkpt><trkpt lat="45.24922905195947" lon="8.342842096487939"><ele>132.0</ele><time>2026-03-29T16:20:34.991Z</time></trkpt><trkpt lat="45.2494184341567" lon="8.342983085618238"><ele>132.0</ele><time>2026-03-29T16:20:35.991Z</time></trkpt><trkpt lat="45.249610956463385" lon="8.343127740202725"><ele>132.0</ele><time>2026-03-29T16:20:36.991Z</time></trkpt><trkpt lat="45.24980368386545" lon="8.343266043183075"><ele>132.0</ele><time>2026-03-29T16:20:37.991Z</time></trkpt><trkpt lat="45.24999840642063" lon="8.34341096862535"><ele>131.66666666666666</ele><time>2026-03-29T16:20:38.991Z</time></trkpt><trkpt lat="45.25019233341435" lon="8.343561591653533"><ele>131.33333333333331</ele><time>2026-03-29T16:20:39.991Z</time></trkpt><trkpt lat="45.25038875415259" lon="8.343708692047073"><ele>131.0</ele><time>2026-03-29T16:20:40.991Z</time></trkpt><trkpt lat="45.25058649411943" lon="8.343858784211731"><ele>130.66666666666666</ele><time>2026-03-29T16:20:41.991Z</time></trkpt><trkpt lat="45.250784648855635" lon="8.344007736215142"><ele>130.33333333333334</ele><time>2026-03-29T16:20:42.991Z</time></trkpt><trkpt lat="45.25097354418495" lon="8.344149619711066"><ele>130.0</ele><time>2026-03-29T16:20:43.991Z</time></trkpt><trkpt lat="45.25115660038166" lon="8.344286812256351"><ele>130.0</ele><time>2026-03-29T16:20:44.991Z</time></trkpt><trkpt lat="45.25133756247887" lon="8.344423223397008"><ele>130.0</ele><time>2026-03-29T16:20:45.991Z</time></trkpt><trkpt lat="45.251518486745866" lon="8.344558680544159"><ele>130.0</ele><time>2026-03-29T16:20:46.993Z</time></trkpt><trkpt lat="45.25169920167047" lon="8.344691236773757"><ele>130.66666666666669</ele><time>2026-03-29T16:20:47.994Z</time></trkpt><trkpt lat="45.25188077541551" lon="8.344827700000177"><ele>131.33333333333334</ele><time>2026-03-29T16:20:48.994Z</time></trkpt><trkpt lat="45.252059541261445" lon="8.344962673361161"><ele>132.0</ele><time>2026-03-29T16:20:49.993Z</time></trkpt><trkpt lat="45.25224052438158" lon="8.34509591760791"><ele>131.66666666666666</ele><time>2026-03-29T16:20:50.993Z</time></trkpt><trkpt lat="45.25242073407994" lon="8.34523274693198"><ele>131.33333333333331</ele><time>2026-03-29T16:20:51.993Z</time></trkpt><trkpt lat="45.252600669619945" lon="8.345370453901362"><ele>131.0</ele><time>2026-03-29T16:20:52.993Z</time></trkpt><trkpt lat="45.252781173085026" lon="8.34550218075358"><ele>131.0</ele><time>2026-03-29T16:20:53.994Z</time></trkpt><trkpt lat="45.25296471268325" lon="8.34563417292428"><ele>131.0</ele><time>2026-03-29T16:20:54.994Z</time></trkpt><trkpt lat="45.253150222781166" lon="8.345767093876677"><ele>131.0</ele><time>2026-03-29T16:20:55.993Z</time></trkpt><trkpt lat="45.25333917393931" lon="8.345902324830455"><ele>131.0</ele><time>2026-03-29T16:20:56.994Z</time></trkpt><trkpt lat="45.25352867188806" lon="8.346034578596159"><ele>131.0</ele><time>2026-03-29T16:20:57.994Z</time></trkpt><trkpt lat="45.25372108896644" lon="8.346166385198186"><ele>131.0</ele><time>2026-03-29T16:20:58.994Z</time></trkpt><trkpt lat="45.25391671823471" lon="8.346296443667777"><ele>131.0</ele><time>2026-03-29T16:20:59.993Z</time></trkpt><trkpt lat="45.25411453394153" lon="8.346427604946891"><ele>131.0</ele><time>2026-03-29T16:21:00.993Z</time></trkpt><trkpt lat="45.25431404402025" lon="8.346555787004972"><ele>131.0</ele><time>2026-03-29T16:21:01.993Z</time></trkpt><trkpt lat="45.254515190228126" lon="8.346681824378317"><ele>131.0</ele><time>2026-03-29T16:21:02.993Z</time></trkpt><trkpt lat="45.25471808719396" lon="8.346803694546617"><ele>131.0</ele><time>2026-03-29T16:21:03.993Z</time></trkpt><trkpt lat="45.254923599868306" lon="8.346922973072957"><ele>131.0</ele><time>2026-03-29T16:21:04.993Z</time></trkpt><trkpt lat="45.25512827960436" lon="8.347040648325668"><ele>131.0</ele><time>2026-03-29T16:21:05.993Z</time></trkpt><trkpt lat="45.25533161828924" lon="8.347160059250378"><ele>131.0</ele><time>2026-03-29T16:21:06.993Z</time></trkpt><trkpt lat="45.25553589216575" lon="8.347279367489442"><ele>131.0</ele><time>2026-03-29T16:21:07.993Z</time></trkpt><trkpt lat="45.25573900870861" lon="8.347398996330314"><ele>131.0</ele><time>2026-03-29T16:21:08.993Z</time></trkpt><trkpt lat="45.25594009661547" lon="8.347518529615298"><ele>131.0</ele><time>2026-03-29T16:21:09.993Z</time></trkpt><trkpt lat="45.256138098645835" lon="8.347637638736558"><ele>131.0</ele><time>2026-03-29T16:21:10.993Z</time></trkpt><trkpt lat="45.256336083739185" lon="8.347759002919117"><ele>131.0</ele><time>2026-03-29T16:21:11.993Z</time></trkpt><trkpt lat="45.256534195829815" lon="8.347876738057739"><ele>131.0</ele><time>2026-03-29T16:21:12.993Z</time></trkpt><trkpt lat="45.256731043771765" lon="8.347997482552687"><ele>131.0</ele><time>2026-03-29T16:21:13.993Z</time></trkpt><trkpt lat="45.25692609327456" lon="8.348120664612074"><ele>131.33333333333331</ele><time>2026-03-29T16:21:14.993Z</time></trkpt><trkpt lat="45.257121842679645" lon="8.34824887944149"><ele>131.66666666666666</ele><time>2026-03-29T16:21:15.993Z</time></trkpt><trkpt lat="45.25731436863995" lon="8.348381156475265"><ele>132.0</ele><time>2026-03-29T16:21:16.993Z</time></trkpt><trkpt lat="45.257506641237455" lon="8.348516014548508"><ele>132.0</ele><time>2026-03-29T16:21:17.993Z</time></trkpt><trkpt lat="45.25769591477954" lon="8.348658128447616"><ele>132.0</ele><time>2026-03-29T16:21:18.993Z</time></trkpt><trkpt lat="45.25788470661805" lon="8.348802409434693"><ele>132.0</ele><time>2026-03-29T16:21:19.993Z</time></trkpt><trkpt lat="45.258071933779" lon="8.348951998129795"><ele>132.33333333333334</ele><time>2026-03-29T16:21:20.993Z</time></trkpt><trkpt lat="45.25825477311301" lon="8.349108379599475"><ele>132.66666666666669</ele><time>2026-03-29T16:21:21.993Z</time></trkpt><trkpt lat="45.258435964984635" lon="8.349269070598826"><ele>133.0</ele><time>2026-03-29T16:21:22.993Z</time></trkpt><trkpt lat="45.25861515591978" lon="8.349434446696996"><ele>133.0</ele><time>2026-03-29T16:21:23.993Z</time></trkpt><trkpt lat="45.258792807645364" lon="8.349601248227657"><ele>133.0</ele><time>2026-03-29T16:21:24.993Z</time></trkpt><trkpt lat="45.25896830015446" lon="8.34977189073466"><ele>133.0</ele><time>2026-03-29T16:21:25.993Z</time></trkpt><trkpt lat="45.259142291568786" lon="8.349943669944425"><ele>132.66666666666669</ele><time>2026-03-29T16:21:26.993Z</time></trkpt><trkpt lat="45.25931326093186" lon="8.350118566099509"><ele>132.33333333333334</ele><time>2026-03-29T16:21:27.993Z</time></trkpt><trkpt lat="45.25947972302537" lon="8.350299084702394"><ele>132.0</ele><time>2026-03-29T16:21:28.993Z</time></trkpt><trkpt lat="45.25964285901261" lon="8.350485600143804"><ele>132.0</ele><time>2026-03-29T16:21:29.993Z</time></trkpt><trkpt lat="45.25979976487297" lon="8.350680365066392"><ele>132.0</ele><time>2026-03-29T16:21:30.993Z</time></trkpt><trkpt lat="45.2599547556488" lon="8.350883087584586"><ele>132.0</ele><time>2026-03-29T16:21:31.993Z</time></trkpt><trkpt lat="45.260104625694574" lon="8.35109504525511"><ele>132.0</ele><time>2026-03-29T16:21:32.993Z</time></trkpt><trkpt lat="45.26025073496259" lon="8.351311270257565"><ele>132.0</ele><time>2026-03-29T16:21:33.993Z</time></trkpt><trkpt lat="45.26038957375531" lon="8.351530570742444"><ele>132.0</ele><time>2026-03-29T16:21:34.993Z</time></trkpt><trkpt lat="45.26052192725981" lon="8.351749300354394"><ele>131.66666666666666</ele><time>2026-03-29T16:21:35.992Z</time></trkpt><trkpt lat="45.26065226041967" lon="8.351967239241585"><ele>131.33333333333331</ele><time>2026-03-29T16:21:36.992Z</time></trkpt><trkpt lat="45.26077721282408" lon="8.352188815206356"><ele>131.0</ele><time>2026-03-29T16:21:37.992Z</time></trkpt><trkpt lat="45.26089604458626" lon="8.35241620515906"><ele>131.0</ele><time>2026-03-29T16:21:38.992Z</time></trkpt><trkpt lat="45.26100934826501" lon="8.352647880074253"><ele>131.0</ele><time>2026-03-29T16:21:39.992Z</time></trkpt><trkpt lat="45.26111596676807" lon="8.35288500974844"><ele>131.0</ele><time>2026-03-29T16:21:40.992Z</time></trkpt><trkpt lat="45.26121923847873" lon="8.35312318648252"><ele>131.0</ele><time>2026-03-29T16:21:41.992Z</time></trkpt><trkpt lat="45.26132097276932" lon="8.353361971509912"><ele>131.0</ele><time>2026-03-29T16:21:42.992Z</time></trkpt><trkpt lat="45.261424201727586" lon="8.353598966306157"><ele>131.0</ele><time>2026-03-29T16:21:43.992Z</time></trkpt><trkpt lat="45.26152721981928" lon="8.35383313629324"><ele>130.33333333333331</ele><time>2026-03-29T16:21:44.992Z</time></trkpt><trkpt lat="45.261628152242224" lon="8.354067319142867"><ele>129.66666666666666</ele><time>2026-03-29T16:21:45.992Z</time></trkpt><trkpt lat="45.26173171408665" lon="8.35430164836563"><ele>129.0</ele><time>2026-03-29T16:21:46.992Z</time></trkpt><trkpt lat="45.26183496733618" lon="8.354535111948156"><ele>129.0</ele><time>2026-03-29T16:21:47.992Z</time></trkpt><trkpt lat="45.26193676039397" lon="8.35476852710507"><ele>129.0</ele><time>2026-03-29T16:21:48.992Z</time></trkpt><trkpt lat="45.26204088118264" lon="8.355000440167256"><ele>129.0</ele><time>2026-03-29T16:21:49.992Z</time></trkpt><trkpt lat="45.262146316968305" lon="8.35523163253725"><ele>129.0</ele><time>2026-03-29T16:21:50.992Z</time></trkpt><trkpt lat="45.262249090420845" lon="8.355466396962145"><ele>129.0</ele><time>2026-03-29T16:21:51.992Z</time></trkpt><trkpt lat="45.26235223269664" lon="8.355701585563956"><ele>129.0</ele><time>2026-03-29T16:21:52.992Z</time></trkpt><trkpt lat="45.26245689504099" lon="8.355938272035512"><ele>129.0</ele><time>2026-03-29T16:21:53.992Z</time></trkpt><trkpt lat="45.262561903879565" lon="8.356174880191917"><ele>129.0</ele><time>2026-03-29T16:21:54.992Z</time></trkpt><trkpt lat="45.262667867281785" lon="8.356412460324172"><ele>129.0</ele><time>2026-03-29T16:21:55.992Z</time></trkpt><trkpt lat="45.262773878109385" lon="8.356649857268716"><ele>129.0</ele><time>2026-03-29T16:21:56.992Z</time></trkpt><trkpt lat="45.26287675648465" lon="8.35688906138664"><ele>129.0</ele><time>2026-03-29T16:21:57.992Z</time></trkpt><trkpt lat="45.26298073903322" lon="8.357126568509791"><ele>129.0</ele><time>2026-03-29T16:21:58.992Z</time></trkpt><trkpt lat="45.26308412679159" lon="8.357360532476696"><ele>129.66666666666666</ele><time>2026-03-29T16:21:59.992Z</time></trkpt><trkpt lat="45.26318736764991" lon="8.357591201738924"><ele>130.33333333333331</ele><time>2026-03-29T16:22:00.992Z</time></trkpt><trkpt lat="45.26328724785607" lon="8.357818045746622"><ele>131.0</ele><time>2026-03-29T16:22:01.992Z</time></trkpt><trkpt lat="45.26338861873056" lon="8.358046567566717"><ele>131.33333333333331</ele><time>2026-03-29T16:22:02.992Z</time></trkpt><trkpt lat="45.26349057824652" lon="8.358276950097066"><ele>131.66666666666666</ele><time>2026-03-29T16:22:03.992Z</time></trkpt><trkpt lat="45.26359346034375" lon="8.358508924786937"><ele>132.0</ele><time>2026-03-29T16:22:04.992Z</time></trkpt><trkpt lat="45.26369682583227" lon="8.358741421301419"><ele>131.66666666666666</ele><time>2026-03-29T16:22:05.992Z</time></trkpt><trkpt lat="45.26379931435828" lon="8.358974641430505"><ele>131.33333333333331</ele><time>2026-03-29T16:22:06.992Z</time></trkpt><trkpt lat="45.26390181873973" lon="8.35920881469942"><ele>131.0</ele><time>2026-03-29T16:22:07.992Z</time></trkpt><trkpt lat="45.264004124112596" lon="8.359443444065265"><ele>131.0</ele><time>2026-03-29T16:22:08.992Z</time></trkpt><trkpt lat="45.264106453798234" lon="8.359678164118233"><ele>131.0</ele><time>2026-03-29T16:22:09.992Z</time></trkpt><trkpt lat="45.264210521286365" lon="8.359911769065805"><ele>131.0</ele><time>2026-03-29T16:22:10.992Z</time></trkpt><trkpt lat="45.264315413196606" lon="8.360143091719545"><ele>130.66666666666666</ele><time>2026-03-29T16:22:11.992Z</time></trkpt><trkpt lat="45.26441774923475" lon="8.360377119363521"><ele>130.33333333333334</ele><time>2026-03-29T16:22:12.992Z</time></trkpt><trkpt lat="45.264518848471376" lon="8.36061182962199"><ele>130.0</ele><time>2026-03-29T16:22:13.992Z</time></trkpt><trkpt lat="45.26462136463708" lon="8.360847153871632"><ele>130.0</ele><time>2026-03-29T16:22:14.992Z</time></trkpt><trkpt lat="45.26472586884236" lon="8.361081131728342"><ele>130.0</ele><time>2026-03-29T16:22:15.992Z</time></trkpt><trkpt lat="45.264829438774086" lon="8.36131748791807"><ele>130.0</ele><time>2026-03-29T16:22:16.992Z</time></trkpt><trkpt lat="45.26493513709015" lon="8.361553353239088"><ele>130.0</ele><time>2026-03-29T16:22:17.992Z</time></trkpt><trkpt lat="45.2650408278905" lon="8.36178938932474"><ele>130.0</ele><time>2026-03-29T16:22:18.992Z</time></trkpt><trkpt lat="45.26514487524416" lon="8.362026006810614"><ele>130.0</ele><time>2026-03-29T16:22:19.992Z</time></trkpt><trkpt lat="45.2652483418885" lon="8.362263506303389"><ele>129.66666666666669</ele><time>2026-03-29T16:22:20.992Z</time></trkpt><trkpt lat="45.265352923166844" lon="8.362500348082188"><ele>129.33333333333334</ele><time>2026-03-29T16:22:21.992Z</time></trkpt><trkpt lat="45.265458867403" lon="8.362735856161498"><ele>129.0</ele><time>2026-03-29T16:22:22.992Z</time></trkpt><trkpt lat="45.26556411796652" lon="8.36297330306992"><ele>128.66666666666666</ele><time>2026-03-29T16:22:23.992Z</time></trkpt><trkpt lat="45.2656674691627" lon="8.363212132708542"><ele>128.33333333333331</ele><time>2026-03-29T16:22:24.991Z</time></trkpt><trkpt lat="45.265770529039294" lon="8.363452256222876"><ele>128.0</ele><time>2026-03-29T16:22:25.991Z</time></trkpt><trkpt lat="45.26587442643234" lon="8.363691962476988"><ele>128.0</ele><time>2026-03-29T16:22:26.991Z</time></trkpt><trkpt lat="45.26597607804996" lon="8.363930509739284"><ele>128.0</ele><time>2026-03-29T16:22:27.991Z</time></trkpt><trkpt lat="45.26608137172255" lon="8.364165034303534"><ele>128.0</ele><time>2026-03-29T16:22:28.991Z</time></trkpt><trkpt lat="45.26618948265389" lon="8.364396225323715"><ele>128.0</ele><time>2026-03-29T16:22:29.991Z</time></trkpt><trkpt lat="45.266302470481804" lon="8.36462520381091"><ele>128.0</ele><time>2026-03-29T16:22:30.991Z</time></trkpt><trkpt lat="45.26642077125413" lon="8.36485077880431"><ele>128.0</ele><time>2026-03-29T16:22:31.991Z</time></trkpt><trkpt lat="45.26654189407705" lon="8.365075296186713"><ele>128.0</ele><time>2026-03-29T16:22:32.991Z</time></trkpt><trkpt lat="45.266666935336154" lon="8.365296764369802"><ele>128.0</ele><time>2026-03-29T16:22:33.991Z</time></trkpt><trkpt lat="45.26679695172334" lon="8.365513005352213"><ele>128.0</ele><time>2026-03-29T16:22:34.991Z</time></trkpt><trkpt lat="45.26693432885781" lon="8.365719847065778"><ele>128.33333333333331</ele><time>2026-03-29T16:22:35.991Z</time></trkpt><trkpt lat="45.2670763177443" lon="8.36592050368158"><ele>128.66666666666666</ele><time>2026-03-29T16:22:36.991Z</time></trkpt><trkpt lat="45.267223466926716" lon="8.366119295491924"><ele>129.0</ele><time>2026-03-29T16:22:37.991Z</time></trkpt><trkpt lat="45.267373482027246" lon="8.366314825562204"><ele>129.33333333333334</ele><time>2026-03-29T16:22:38.991Z</time></trkpt><trkpt lat="45.267524879143544" lon="8.366501167350744"><ele>129.66666666666669</ele><time>2026-03-29T16:22:39.991Z</time></trkpt><trkpt lat="45.26767756684127" lon="8.366679865882926"><ele>130.0</ele><time>2026-03-29T16:22:40.991Z</time></trkpt><trkpt lat="45.26783064028896" lon="8.366854141804732"><ele>130.0</ele><time>2026-03-29T16:22:41.991Z</time></trkpt><trkpt lat="45.26798661890022" lon="8.367018865730866"><ele>130.0</ele><time>2026-03-29T16:22:42.991Z</time></trkpt><trkpt lat="45.26814508197769" lon="8.367176644037833"><ele>130.0</ele><time>2026-03-29T16:22:43.991Z</time></trkpt><trkpt lat="45.268307225330446" lon="8.36732479142206"><ele>130.0</ele><time>2026-03-29T16:22:44.991Z</time></trkpt><trkpt lat="45.26846867826652" lon="8.36746285463861"><ele>130.0</ele><time>2026-03-29T16:22:45.991Z</time></trkpt><trkpt lat="45.26863095831144" lon="8.367596861810847"><ele>130.0</ele><time>2026-03-29T16:22:46.991Z</time></trkpt><trkpt lat="45.26879503544797" lon="8.36772548347038"><ele>129.66666666666669</ele><time>2026-03-29T16:22:47.991Z</time></trkpt><trkpt lat="45.268958188958656" lon="8.367848125899238"><ele>129.33333333333334</ele><time>2026-03-29T16:22:48.991Z</time></trkpt><trkpt lat="45.269126655208986" lon="8.36796405769645"><ele>129.0</ele><time>2026-03-29T16:22:49.991Z</time></trkpt><trkpt lat="45.269295989203094" lon="8.368069756224555"><ele>129.0</ele><time>2026-03-29T16:22:50.991Z</time></trkpt><trkpt lat="45.26946635352728" lon="8.368171834619805"><ele>129.0</ele><time>2026-03-29T16:22:51.991Z</time></trkpt><trkpt lat="45.26963892613846" lon="8.368267819628203"><ele>129.0</ele><time>2026-03-29T16:22:52.993Z</time></trkpt><trkpt lat="45.269812753800196" lon="8.368355981576485"><ele>129.0</ele><time>2026-03-29T16:22:53.993Z</time></trkpt><trkpt lat="45.26999038528729" lon="8.368437266040447"><ele>129.0</ele><time>2026-03-29T16:22:54.993Z</time></trkpt><trkpt lat="45.270168749425" lon="8.368513417843728"><ele>129.0</ele><time>2026-03-29T16:22:55.993Z</time></trkpt><trkpt lat="45.270349449274086" lon="8.368581810445708"><ele>129.0</ele><time>2026-03-29T16:22:56.993Z</time></trkpt><trkpt lat="45.27052687559604" lon="8.368641868761832"><ele>129.0</ele><time>2026-03-29T16:22:57.993Z</time></trkpt><trkpt lat="45.270705133168526" lon="8.368697232154123"><ele>129.0</ele><time>2026-03-29T16:22:58.994Z</time></trkpt><trkpt lat="45.27088552727473" lon="8.368749727074471"><ele>129.0</ele><time>2026-03-29T16:22:59.993Z</time></trkpt><trkpt lat="45.27106764994145" lon="8.368795006826687"><ele>129.0</ele><time>2026-03-29T16:23:00.993Z</time></trkpt><trkpt lat="45.271254474952435" lon="8.368833528550098"><ele>129.0</ele><time>2026-03-29T16:23:01.994Z</time></trkpt><trkpt lat="45.27144345590671" lon="8.368863245998561"><ele>129.0</ele><time>2026-03-29T16:23:02.993Z</time></trkpt><trkpt lat="45.27163440168017" lon="8.368888239435535"><ele>129.0</ele><time>2026-03-29T16:23:03.993Z</time></trkpt><trkpt lat="45.27183082066126" lon="8.368906147197132"><ele>129.0</ele><time>2026-03-29T16:23:04.993Z</time></trkpt><trkpt lat="45.27203131267037" lon="8.368913776018866"><ele>129.0</ele><time>2026-03-29T16:23:05.993Z</time></trkpt><trkpt lat="45.27223631844191" lon="8.368911336708118"><ele>129.0</ele><time>2026-03-29T16:23:06.993Z</time></trkpt><trkpt lat="45.27244543570124" lon="8.36889923900551"><ele>129.0</ele><time>2026-03-29T16:23:07.993Z</time></trkpt><trkpt lat="45.272657410288154" lon="8.368880043901797"><ele>129.33333333333334</ele><time>2026-03-29T16:23:08.993Z</time></trkpt><trkpt lat="45.27287220668476" lon="8.368851850723967"><ele>129.66666666666669</ele><time>2026-03-29T16:23:09.993Z</time></trkpt><trkpt lat="45.27309079435064" lon="8.36882246634535"><ele>130.0</ele><time>2026-03-29T16:23:10.993Z</time></trkpt><trkpt lat="45.273311202585816" lon="8.368791176096076"><ele>130.0</ele><time>2026-03-29T16:23:11.993Z</time></trkpt><trkpt lat="45.273534199463484" lon="8.368754587468427"><ele>130.0</ele><time>2026-03-29T16:23:12.993Z</time></trkpt><trkpt lat="45.273758693509066" lon="8.368723269204297"><ele>130.0</ele><time>2026-03-29T16:23:13.993Z</time></trkpt><trkpt lat="45.273984710533426" lon="8.368693332852162"><ele>130.0</ele><time>2026-03-29T16:23:14.993Z</time></trkpt><trkpt lat="45.274208420440914" lon="8.368660743778799"><ele>130.0</ele><time>2026-03-29T16:23:15.993Z</time></trkpt><trkpt lat="45.2744334312558" lon="8.368630473180387"><ele>130.0</ele><time>2026-03-29T16:23:16.993Z</time></trkpt><trkpt lat="45.274656265462646" lon="8.368597017606675"><ele>129.66666666666669</ele><time>2026-03-29T16:23:17.993Z</time></trkpt><trkpt lat="45.27487852982411" lon="8.36856652007503"><ele>129.33333333333334</ele><time>2026-03-29T16:23:18.993Z</time></trkpt><trkpt lat="45.27509894604416" lon="8.368539661557946"><ele>129.0</ele><time>2026-03-29T16:23:19.993Z</time></trkpt><trkpt lat="45.275318601562454" lon="8.36851280050981"><ele>129.0</ele><time>2026-03-29T16:23:20.993Z</time></trkpt><trkpt lat="45.27553745534565" lon="8.368481979216986"><ele>129.0</ele><time>2026-03-29T16:23:21.993Z</time></trkpt><trkpt lat="45.27575495509795" lon="8.36845328867195"><ele>129.0</ele><time>2026-03-29T16:23:22.993Z</time></trkpt><trkpt lat="45.27597245572396" lon="8.368432472358593"><ele>128.66666666666666</ele><time>2026-03-29T16:23:23.993Z</time></trkpt><trkpt lat="45.276189702964686" lon="8.368414765084582"><ele>128.33333333333331</ele><time>2026-03-29T16:23:24.992Z</time></trkpt><trkpt lat="45.27640715100687" lon="8.368405730582081"><ele>128.0</ele><time>2026-03-29T16:23:25.992Z</time></trkpt><trkpt lat="45.27662491443721" lon="8.368406298078968"><ele>128.66666666666666</ele><time>2026-03-29T16:23:26.992Z</time></trkpt><trkpt lat="45.276841747918006" lon="8.368410004785588"><ele>129.33333333333334</ele><time>2026-03-29T16:23:27.992Z</time></trkpt><trkpt lat="45.27705892025411" lon="8.368424499155427"><ele>130.0</ele><time>2026-03-29T16:23:28.992Z</time></trkpt><trkpt lat="45.277275219969326" lon="8.368448157681946"><ele>130.0</ele><time>2026-03-29T16:23:29.992Z</time></trkpt><trkpt lat="45.277488835283634" lon="8.368484218690632"><ele>130.0</ele><time>2026-03-29T16:23:30.992Z</time></trkpt><trkpt lat="45.277698984694716" lon="8.368527668875462"><ele>130.0</ele><time>2026-03-29T16:23:31.992Z</time></trkpt><trkpt lat="45.27790390708789" lon="8.368580048282654"><ele>130.0</ele><time>2026-03-29T16:23:32.992Z</time></trkpt><trkpt lat="45.27810432632969" lon="8.368643135719486"><ele>130.0</ele><time>2026-03-29T16:23:33.992Z</time></trkpt><trkpt lat="45.278296750125556" lon="8.368711356222004"><ele>130.0</ele><time>2026-03-29T16:23:34.992Z</time></trkpt><trkpt lat="45.27848427638119" lon="8.368782625408016"><ele>129.66666666666669</ele><time>2026-03-29T16:23:35.992Z</time></trkpt><trkpt lat="45.27866408042933" lon="8.368859537506392"><ele>129.33333333333334</ele><time>2026-03-29T16:23:36.992Z</time></trkpt><trkpt lat="45.278836797345434" lon="8.368938357241102"><ele>129.0</ele><time>2026-03-29T16:23:37.992Z</time></trkpt><trkpt lat="45.278998159027765" lon="8.369022585605569"><ele>129.5</ele><time>2026-03-29T16:23:38.992Z</time></trkpt><trkpt lat="45.27913949113579" lon="8.369106795164507"><ele>130.0</ele><time>2026-03-29T16:23:39.992Z</time></trkpt><trkpt lat="45.27925368652226" lon="8.36918770891034"><ele>130.5</ele><time>2026-03-29T16:23:40.992Z</time></trkpt><trkpt lat="45.2793459154044" lon="8.36928684723363"><ele>131.0</ele><time>2026-03-29T16:23:41.992Z</time></trkpt><trkpt lat="45.279404632589376" lon="8.369397496365577"><ele>131.0</ele><time>2026-03-29T16:23:42.992Z</time></trkpt><trkpt lat="45.27946548797318" lon="8.369497071098838"><ele>131.0</ele><time>2026-03-29T16:23:43.992Z</time></trkpt><trkpt lat="45.279546499645036" lon="8.369558962568824"><ele>131.0</ele><time>2026-03-29T16:23:44.992Z</time></trkpt><trkpt lat="45.279646840006066" lon="8.36958220880402"><ele>131.0</ele><time>2026-03-29T16:23:45.992Z</time></trkpt><trkpt lat="45.279756237388774" lon="8.36958037151676"><ele>131.0</ele><time>2026-03-29T16:23:46.992Z</time></trkpt><trkpt lat="45.27987173302603" lon="8.369599117823968"><ele>130.75</ele><time>2026-03-29T16:23:47.992Z</time></trkpt><trkpt lat="45.27999516335025" lon="8.369658429959388"><ele>130.5</ele><time>2026-03-29T16:23:48.992Z</time></trkpt><trkpt lat="45.28011742241718" lon="8.369748765534533"><ele>130.25</ele><time>2026-03-29T16:23:49.992Z</time></trkpt><trkpt lat="45.2802462208676" lon="8.369856324638814"><ele>130.0</ele><time>2026-03-29T16:23:50.992Z</time></trkpt><trkpt lat="45.28038335445994" lon="8.369977211093676"><ele>129.66666666666669</ele><time>2026-03-29T16:23:51.992Z</time></trkpt><trkpt lat="45.2805271127884" lon="8.370113316661904"><ele>129.33333333333334</ele><time>2026-03-29T16:23:52.992Z</time></trkpt><trkpt lat="45.28067511496202" lon="8.370256642869586"><ele>129.0</ele><time>2026-03-29T16:23:53.992Z</time></trkpt><trkpt lat="45.280826460226606" lon="8.3704110367411"><ele>128.66666666666666</ele><time>2026-03-29T16:23:54.992Z</time></trkpt><trkpt lat="45.28097943400145" lon="8.370572195004346"><ele>128.33333333333331</ele><time>2026-03-29T16:23:55.992Z</time></trkpt><trkpt lat="45.28111851112007" lon="8.370730838123869"><ele>128.0</ele><time>2026-03-29T16:23:56.992Z</time></trkpt><trkpt lat="45.28125569789388" lon="8.370889045614073"><ele>128.0</ele><time>2026-03-29T16:23:57.992Z</time></trkpt><trkpt lat="45.28139699548841" lon="8.37105243744836"><ele>128.0</ele><time>2026-03-29T16:23:58.992Z</time></trkpt><trkpt lat="45.28154183038917" lon="8.371218096930665"><ele>128.0</ele><time>2026-03-29T16:23:59.992Z</time></trkpt><trkpt lat="45.28168756376214" lon="8.371384931094832"><ele>128.66666666666666</ele><time>2026-03-29T16:24:00.992Z</time></trkpt><trkpt lat="45.281836420064586" lon="8.371553001090446"><ele>129.33333333333334</ele><time>2026-03-29T16:24:01.992Z</time></trkpt><trkpt lat="45.28198402409428" lon="8.371721946508284"><ele>130.0</ele><time>2026-03-29T16:24:02.992Z</time></trkpt><trkpt lat="45.28213311326326" lon="8.371891810309059"><ele>130.0</ele><time>2026-03-29T16:24:03.992Z</time></trkpt><trkpt lat="45.282283354333856" lon="8.372061729092831"><ele>130.0</ele><time>2026-03-29T16:24:04.992Z</time></trkpt><trkpt lat="45.28243301692945" lon="8.372233605197552"><ele>130.0</ele><time>2026-03-29T16:24:05.992Z</time></trkpt><trkpt lat="45.28258245674735" lon="8.372409795581724"><ele>130.0</ele><time>2026-03-29T16:24:06.992Z</time></trkpt><trkpt lat="45.282734170521856" lon="8.372581338450015"><ele>130.0</ele><time>2026-03-29T16:24:07.992Z</time></trkpt><trkpt lat="45.28288730584642" lon="8.372753955608431"><ele>130.0</ele><time>2026-03-29T16:24:08.992Z</time></trkpt><trkpt lat="45.28304284477523" lon="8.372928565669374"><ele>130.0</ele><time>2026-03-29T16:24:09.992Z</time></trkpt><trkpt lat="45.28319858827643" lon="8.373103511928479"><ele>130.0</ele><time>2026-03-29T16:24:10.992Z</time></trkpt><trkpt lat="45.283354204034495" lon="8.373278341555501"><ele>130.0</ele><time>2026-03-29T16:24:11.992Z</time></trkpt><trkpt lat="45.28351047144759" lon="8.373454833580949"><ele>130.0</ele><time>2026-03-29T16:24:12.992Z</time></trkpt><trkpt lat="45.2836675239858" lon="8.373633551464737"><ele>130.0</ele><time>2026-03-29T16:24:13.992Z</time></trkpt><trkpt lat="45.28382579370251" lon="8.37381358357806"><ele>130.0</ele><time>2026-03-29T16:24:14.991Z</time></trkpt><trkpt lat="45.283985249963614" lon="8.373990243051834"><ele>130.0</ele><time>2026-03-29T16:24:15.991Z</time></trkpt><trkpt lat="45.284142902938434" lon="8.374169380562755"><ele>130.0</ele><time>2026-03-29T16:24:16.991Z</time></trkpt><trkpt lat="45.284300716044186" lon="8.374347953740953"><ele>130.0</ele><time>2026-03-29T16:24:17.991Z</time></trkpt><trkpt lat="45.28445975196601" lon="8.374527311874049"><ele>129.66666666666669</ele><time>2026-03-29T16:24:18.991Z</time></trkpt><trkpt lat="45.28461786262951" lon="8.374707149015896"><ele>129.33333333333334</ele><time>2026-03-29T16:24:19.991Z</time></trkpt><trkpt lat="45.284776420592756" lon="8.37488731130847"><ele>129.0</ele><time>2026-03-29T16:24:20.991Z</time></trkpt><trkpt lat="45.28493514591313" lon="8.375066516757444"><ele>129.0</ele><time>2026-03-29T16:24:21.991Z</time></trkpt><trkpt lat="45.28509369394722" lon="8.375244328049826"><ele>129.0</ele><time>2026-03-29T16:24:22.991Z</time></trkpt><trkpt lat="45.285250341914704" lon="8.375421579552066"><ele>129.0</ele><time>2026-03-29T16:24:23.991Z</time></trkpt><trkpt lat="45.285409910349856" lon="8.375600286284358"><ele>129.0</ele><time>2026-03-29T16:24:24.991Z</time></trkpt><trkpt lat="45.285568643828405" lon="8.375780840134583"><ele>129.0</ele><time>2026-03-29T16:24:25.991Z</time></trkpt><trkpt lat="45.285727160529916" lon="8.375962521288297"><ele>129.0</ele><time>2026-03-29T16:24:26.991Z</time></trkpt><trkpt lat="45.28587899831678" lon="8.376140030898837"><ele>128.66666666666666</ele><time>2026-03-29T16:24:27.991Z</time></trkpt><trkpt lat="45.28602433979598" lon="8.37631375757451"><ele>128.33333333333331</ele><time>2026-03-29T16:24:28.991Z</time></trkpt><trkpt lat="45.28616912977435" lon="8.376489699826157"><ele>128.0</ele><time>2026-03-29T16:24:29.991Z</time></trkpt><trkpt lat="45.286315287887156" lon="8.376667112042124"><ele>128.33333333333331</ele><time>2026-03-29T16:24:30.991Z</time></trkpt><trkpt lat="45.286463712840494" lon="8.376843475111691"><ele>128.66666666666666</ele><time>2026-03-29T16:24:31.991Z</time></trkpt><trkpt lat="45.28661506926949" lon="8.377022353081282"><ele>129.0</ele><time>2026-03-29T16:24:32.991Z</time></trkpt><trkpt lat="45.28676739924956" lon="8.377203205909566"><ele>129.0</ele><time>2026-03-29T16:24:33.991Z</time></trkpt><trkpt lat="45.286921595147035" lon="8.377385417825527"><ele>129.0</ele><time>2026-03-29T16:24:34.991Z</time></trkpt><trkpt lat="45.287075489843026" lon="8.377570120831416"><ele>129.0</ele><time>2026-03-29T16:24:35.991Z</time></trkpt><trkpt lat="45.2872310290884" lon="8.377757374441124"><ele>129.0</ele><time>2026-03-29T16:24:36.991Z</time></trkpt><trkpt lat="45.287387736868965" lon="8.377944405990455"><ele>129.0</ele><time>2026-03-29T16:24:37.991Z</time></trkpt><trkpt lat="45.287545411055156" lon="8.378135606493771"><ele>129.0</ele><time>2026-03-29T16:24:38.991Z</time></trkpt><trkpt lat="45.28770699334005" lon="8.378323749832697"><ele>129.0</ele><time>2026-03-29T16:24:39.991Z</time></trkpt><trkpt lat="45.28786953541217" lon="8.37851408120777"><ele>129.0</ele><time>2026-03-29T16:24:40.991Z</time></trkpt><trkpt lat="45.28803059369931" lon="8.37870740173679"><ele>129.0</ele><time>2026-03-29T16:24:41.991Z</time></trkpt><trkpt lat="45.288191335741224" lon="8.37890176342706"><ele>129.33333333333334</ele><time>2026-03-29T16:24:42.991Z</time></trkpt><trkpt lat="45.28835797621324" lon="8.379088692308567"><ele>129.66666666666669</ele><time>2026-03-29T16:24:43.991Z</time></trkpt><trkpt lat="45.288525098649025" lon="8.379274522683861"><ele>130.0</ele><time>2026-03-29T16:24:44.991Z</time></trkpt><trkpt lat="45.288691596789" lon="8.379457195940882"><ele>130.0</ele><time>2026-03-29T16:24:45.991Z</time></trkpt><trkpt lat="45.28886104051084" lon="8.379637619414288"><ele>130.0</ele><time>2026-03-29T16:24:46.991Z</time></trkpt><trkpt lat="45.289029693950276" lon="8.379819947406615"><ele>130.0</ele><time>2026-03-29T16:24:47.991Z</time></trkpt><trkpt lat="45.289196515117034" lon="8.380004630371145"><ele>130.0</ele><time>2026-03-29T16:24:48.991Z</time></trkpt><trkpt lat="45.289362635770644" lon="8.380194223228408"><ele>130.0</ele><time>2026-03-29T16:24:49.991Z</time></trkpt><trkpt lat="45.28953098090433" lon="8.380384390032095"><ele>130.0</ele><time>2026-03-29T16:24:50.991Z</time></trkpt><trkpt lat="45.28970092407354" lon="8.380572100950017"><ele>129.33333333333334</ele><time>2026-03-29T16:24:51.991Z</time></trkpt><trkpt lat="45.289872364017334" lon="8.380763515407875"><ele>128.66666666666666</ele><time>2026-03-29T16:24:52.991Z</time></trkpt><trkpt lat="45.29004314269416" lon="8.380953275814768"><ele>128.0</ele><time>2026-03-29T16:24:53.991Z</time></trkpt><trkpt lat="45.290213674947175" lon="8.381141188054421"><ele>128.0</ele><time>2026-03-29T16:24:54.991Z</time></trkpt><trkpt lat="45.290381779689795" lon="8.381330509008901"><ele>128.0</ele><time>2026-03-29T16:24:55.991Z</time></trkpt><trkpt lat="45.29055097447241" lon="8.381518731221089"><ele>128.0</ele><time>2026-03-29T16:24:56.991Z</time></trkpt><trkpt lat="45.290719324794296" lon="8.381706610911804"><ele>128.33333333333331</ele><time>2026-03-29T16:24:57.991Z</time></trkpt><trkpt lat="45.29088832624426" lon="8.381894544655275"><ele>128.66666666666666</ele><time>2026-03-29T16:24:58.993Z</time></trkpt><trkpt lat="45.29105463243816" lon="8.382083201368212"><ele>129.0</ele><time>2026-03-29T16:24:59.993Z</time></trkpt><trkpt lat="45.29122349242509" lon="8.382271665446385"><ele>129.33333333333334</ele><time>2026-03-29T16:25:00.993Z</time></trkpt><trkpt lat="45.29139335818211" lon="8.382461741004724"><ele>129.66666666666669</ele><time>2026-03-29T16:25:01.994Z</time></trkpt><trkpt lat="45.29156769902681" lon="8.382653066552342"><ele>130.0</ele><time>2026-03-29T16:25:02.993Z</time></trkpt><trkpt lat="45.291742051189466" lon="8.382845256887153"><ele>130.33333333333334</ele><time>2026-03-29T16:25:03.993Z</time></trkpt><trkpt lat="45.29191746480239" lon="8.38303985550674"><ele>130.66666666666666</ele><time>2026-03-29T16:25:04.994Z</time></trkpt><trkpt lat="45.29209646578172" lon="8.38323557814128"><ele>131.0</ele><time>2026-03-29T16:25:05.993Z</time></trkpt><trkpt lat="45.29227911325195" lon="8.383432395084768"><ele>131.0</ele><time>2026-03-29T16:25:06.993Z</time></trkpt><trkpt lat="45.29246261147884" lon="8.383632478665575"><ele>131.0</ele><time>2026-03-29T16:25:07.993Z</time></trkpt><trkpt lat="45.29264831487554" lon="8.383829266052306"><ele>131.5</ele><time>2026-03-29T16:25:08.993Z</time></trkpt><trkpt lat="45.29283242594685" lon="8.384028273847198"><ele>132.0</ele><time>2026-03-29T16:25:09.993Z</time></trkpt><trkpt lat="45.29301633125263" lon="8.38422846218034"><ele>131.0</ele><time>2026-03-29T16:25:10.993Z</time></trkpt><trkpt lat="45.293197011642334" lon="8.38442934696932"><ele>130.0</ele><time>2026-03-29T16:25:11.994Z</time></trkpt><trkpt lat="45.2933761798378" lon="8.384630215509542"><ele>129.66666666666669</ele><time>2026-03-29T16:25:12.994Z</time></trkpt><trkpt lat="45.2935525541176" lon="8.38483097498195"><ele>129.33333333333334</ele><time>2026-03-29T16:25:13.994Z</time></trkpt><trkpt lat="45.29372666724447" lon="8.385028144726217"><ele>129.0</ele><time>2026-03-29T16:25:14.994Z</time></trkpt><trkpt lat="45.293901723665776" lon="8.38521916202779"><ele>129.0</ele><time>2026-03-29T16:25:15.994Z</time></trkpt><trkpt lat="45.29407452893132" lon="8.38540822331994"><ele>129.0</ele><time>2026-03-29T16:25:16.993Z</time></trkpt><trkpt lat="45.29424339410168" lon="8.385595112274945"><ele>129.0</ele><time>2026-03-29T16:25:17.993Z</time></trkpt><trkpt lat="45.294409981126414" lon="8.385779318008685"><ele>129.33333333333334</ele><time>2026-03-29T16:25:18.993Z</time></trkpt><trkpt lat="45.2945699461804" lon="8.385959656847865"><ele>129.66666666666669</ele><time>2026-03-29T16:25:19.993Z</time></trkpt><trkpt lat="45.29472823231006" lon="8.386135693802268"><ele>130.0</ele><time>2026-03-29T16:25:20.993Z</time></trkpt><trkpt lat="45.29487870007048" lon="8.386309675800488"><ele>129.33333333333334</ele><time>2026-03-29T16:25:21.993Z</time></trkpt><trkpt lat="45.29502678369264" lon="8.386476559109024"><ele>128.66666666666666</ele><time>2026-03-29T16:25:22.993Z</time></trkpt><trkpt lat="45.29517020616285" lon="8.386637642668825"><ele>128.0</ele><time>2026-03-29T16:25:23.993Z</time></trkpt><trkpt lat="45.29531353347175" lon="8.386795882841845"><ele>128.0</ele><time>2026-03-29T16:25:24.993Z</time></trkpt><trkpt lat="45.29545879729373" lon="8.38695263003275"><ele>128.0</ele><time>2026-03-29T16:25:25.993Z</time></trkpt><trkpt lat="45.295603025032165" lon="8.387108608611305"><ele>128.0</ele><time>2026-03-29T16:25:26.993Z</time></trkpt><trkpt lat="45.29574090511265" lon="8.387259561356217"><ele>128.0</ele><time>2026-03-29T16:25:27.993Z</time></trkpt><trkpt lat="45.29587212536591" lon="8.387402181676856"><ele>128.0</ele><time>2026-03-29T16:25:28.993Z</time></trkpt><trkpt lat="45.295996932117376" lon="8.387542991873895"><ele>128.0</ele><time>2026-03-29T16:25:29.993Z</time></trkpt><trkpt lat="45.29611453753645" lon="8.387681701754293"><ele>128.0</ele><time>2026-03-29T16:25:30.993Z</time></trkpt><trkpt lat="45.29622807008227" lon="8.387814364927092"><ele>128.0</ele><time>2026-03-29T16:25:31.993Z</time></trkpt><trkpt lat="45.29633928215636" lon="8.387938988021414"><ele>128.0</ele><time>2026-03-29T16:25:32.993Z</time></trkpt><trkpt lat="45.29644678014191" lon="8.388057064044485"><ele>128.0</ele><time>2026-03-29T16:25:33.993Z</time></trkpt><trkpt lat="45.29654224787262" lon="8.388166311296402"><ele>128.33333333333331</ele><time>2026-03-29T16:25:34.993Z</time></trkpt><trkpt lat="45.29663047715508" lon="8.388265596022512"><ele>128.66666666666666</ele><time>2026-03-29T16:25:35.993Z</time></trkpt><trkpt lat="45.29670743085999" lon="8.388351341416188"><ele>129.0</ele><time>2026-03-29T16:25:36.993Z</time></trkpt><trkpt lat="45.296766089390694" lon="8.388432070448369"><ele>129.33333333333334</ele><time>2026-03-29T16:25:37.993Z</time></trkpt><trkpt lat="45.29680694360308" lon="8.388519542970323"><ele>129.66666666666669</ele><time>2026-03-29T16:25:38.993Z</time></trkpt><trkpt lat="45.29683233836414" lon="8.3886152768027"><ele>130.0</ele><time>2026-03-29T16:25:39.993Z</time></trkpt><trkpt lat="45.2968395228602" lon="8.388713306776625"><ele>130.0</ele><time>2026-03-29T16:25:40.993Z</time></trkpt><trkpt lat="45.29684928708574" lon="8.388819878112098"><ele>130.0</ele><time>2026-03-29T16:25:41.993Z</time></trkpt><trkpt lat="45.29687003033381" lon="8.388929085046763"><ele>130.0</ele><time>2026-03-29T16:25:42.993Z</time></trkpt><trkpt lat="45.29692453573548" lon="8.389021066668017"><ele>130.0</ele><time>2026-03-29T16:25:43.993Z</time></trkpt><trkpt lat="45.29700659381071" lon="8.389087103679023"><ele>130.0</ele><time>2026-03-29T16:25:44.993Z</time></trkpt><trkpt lat="45.297104118110326" lon="8.389120243859804"><ele>130.0</ele><time>2026-03-29T16:25:45.993Z</time></trkpt><trkpt lat="45.29720637486255" lon="8.389122764160827"><ele>129.75</ele><time>2026-03-29T16:25:46.993Z</time></trkpt><trkpt lat="45.29731537953837" lon="8.389129463537591"><ele>129.5</ele><time>2026-03-29T16:25:47.993Z</time></trkpt><trkpt lat="45.29742669035274" lon="8.389178373226382"><ele>129.25</ele><time>2026-03-29T16:25:48.993Z</time></trkpt><trkpt lat="45.29753190665869" lon="8.389273484097812"><ele>129.0</ele><time>2026-03-29T16:25:49.993Z</time></trkpt><trkpt lat="45.29763938960314" lon="8.38938236107013"><ele>129.0</ele><time>2026-03-29T16:25:50.993Z</time></trkpt><trkpt lat="45.29774309596516" lon="8.389500975571687"><ele>129.0</ele><time>2026-03-29T16:25:51.993Z</time></trkpt><trkpt lat="45.2978466106807" lon="8.389617942817036"><ele>129.0</ele><time>2026-03-29T16:25:52.993Z</time></trkpt><trkpt lat="45.29794765678758" lon="8.389725654448768"><ele>129.0</ele><time>2026-03-29T16:25:53.993Z</time></trkpt><trkpt lat="45.29805190321529" lon="8.389839351074826"><ele>128.75</ele><time>2026-03-29T16:25:54.993Z</time></trkpt><trkpt lat="45.2981624904751" lon="8.389962361180297"><ele>128.5</ele><time>2026-03-29T16:25:55.993Z</time></trkpt><trkpt lat="45.29827853598981" lon="8.390093455542862"><ele>128.25</ele><time>2026-03-29T16:25:56.993Z</time></trkpt><trkpt lat="45.29840017357297" lon="8.390228447817602"><ele>128.0</ele><time>2026-03-29T16:25:57.993Z</time></trkpt><trkpt lat="45.29852610845332" lon="8.390369964836541"><ele>128.33333333333331</ele><time>2026-03-29T16:25:58.993Z</time></trkpt><trkpt lat="45.29865308879184" lon="8.39051498594455"><ele>128.66666666666666</ele><time>2026-03-29T16:25:59.993Z</time></trkpt><trkpt lat="45.29877293924994" lon="8.39065008598044"><ele>129.0</ele><time>2026-03-29T16:26:00.993Z</time></trkpt><trkpt lat="45.29889158345161" lon="8.390784155806433"><ele>128.0</ele><time>2026-03-29T16:26:01.993Z</time></trkpt><trkpt lat="45.29901559239322" lon="8.390918261739401"><ele>127.0</ele><time>2026-03-29T16:26:02.993Z</time></trkpt><trkpt lat="45.299142205784726" lon="8.391054102024885"><ele>126.0</ele><time>2026-03-29T16:26:03.993Z</time></trkpt><trkpt lat="45.299269522971116" lon="8.391193569431115"><ele>126.0</ele><time>2026-03-29T16:26:04.993Z</time></trkpt><trkpt lat="45.2993960234779" lon="8.39133688959418"><ele>126.0</ele><time>2026-03-29T16:26:05.992Z</time></trkpt><trkpt lat="45.29952243746564" lon="8.391484075793597"><ele>126.0</ele><time>2026-03-29T16:26:06.992Z</time></trkpt><trkpt lat="45.299647540449136" lon="8.391635324704616"><ele>126.33333333333334</ele><time>2026-03-29T16:26:07.992Z</time></trkpt><trkpt lat="45.299775101502036" lon="8.391786127344359"><ele>126.66666666666667</ele><time>2026-03-29T16:26:08.992Z</time></trkpt><trkpt lat="45.29990560462644" lon="8.39193255096392"><ele>127.0</ele><time>2026-03-29T16:26:09.992Z</time></trkpt><trkpt lat="45.3000378829154" lon="8.39207399807689"><ele>127.0</ele><time>2026-03-29T16:26:10.992Z</time></trkpt><trkpt lat="45.3001688467095" lon="8.392213624169885"><ele>127.0</ele><time>2026-03-29T16:26:11.992Z</time></trkpt><trkpt lat="45.3002956929861" lon="8.39235119731796"><ele>127.0</ele><time>2026-03-29T16:26:12.992Z</time></trkpt><trkpt lat="45.300420997913825" lon="8.392491399550813"><ele>127.0</ele><time>2026-03-29T16:26:13.992Z</time></trkpt><trkpt lat="45.300547471162844" lon="8.392628970917839"><ele>127.0</ele><time>2026-03-29T16:26:14.992Z</time></trkpt><trkpt lat="45.30067166669683" lon="8.392763960706857"><ele>127.0</ele><time>2026-03-29T16:26:15.992Z</time></trkpt><trkpt lat="45.30079529632542" lon="8.392894490486126"><ele>127.33333333333334</ele><time>2026-03-29T16:26:16.992Z</time></trkpt><trkpt lat="45.300918515639395" lon="8.393026770412934"><ele>127.66666666666666</ele><time>2026-03-29T16:26:17.992Z</time></trkpt><trkpt lat="45.3010400104801" lon="8.393157477586255"><ele>128.0</ele><time>2026-03-29T16:26:18.992Z</time></trkpt><trkpt lat="45.30115715707896" lon="8.393287412074386"><ele>128.0</ele><time>2026-03-29T16:26:19.992Z</time></trkpt><trkpt lat="45.301262738340064" lon="8.393413434430027"><ele>128.0</ele><time>2026-03-29T16:26:20.992Z</time></trkpt><trkpt lat="45.30136359458862" lon="8.393528125269013"><ele>128.0</ele><time>2026-03-29T16:26:21.992Z</time></trkpt><trkpt lat="45.30145127570333" lon="8.393628248190685"><ele>128.0</ele><time>2026-03-29T16:26:22.992Z</time></trkpt><trkpt lat="45.30152106864294" lon="8.393715695313604"><ele>127.99999999999999</ele><time>2026-03-29T16:26:23.992Z</time></trkpt><trkpt lat="45.30157761068343" lon="8.393800482704195"><ele>128.0</ele><time>2026-03-29T16:26:24.992Z</time></trkpt><trkpt lat="45.30161350327483" lon="8.393894064831292"><ele>128.0</ele><time>2026-03-29T16:26:25.992Z</time></trkpt><trkpt lat="45.301630380101884" lon="8.393989763250946"><ele>128.0</ele><time>2026-03-29T16:26:26.992Z</time></trkpt><trkpt lat="45.30163636858736" lon="8.394097074913391"><ele>127.99999999999999</ele><time>2026-03-29T16:26:27.992Z</time></trkpt><trkpt lat="45.30164696972195" lon="8.394210881111475"><ele>128.0</ele><time>2026-03-29T16:26:28.992Z</time></trkpt><trkpt lat="45.30168215266586" lon="8.3943189743511"><ele>128.0</ele><time>2026-03-29T16:26:29.992Z</time></trkpt><trkpt lat="45.30173138701866" lon="8.394414546360439"><ele>128.0</ele><time>2026-03-29T16:26:30.992Z</time></trkpt><trkpt lat="45.301797095406165" lon="8.394491735232641"><ele>128.0</ele><time>2026-03-29T16:26:31.992Z</time></trkpt><trkpt lat="45.30188067655245" lon="8.394545255447959"><ele>128.0</ele><time>2026-03-29T16:26:32.992Z</time></trkpt><trkpt lat="45.301974241704755" lon="8.394573706174315"><ele>128.0</ele><time>2026-03-29T16:26:33.992Z</time></trkpt><trkpt lat="45.30207515597875" lon="8.394570114374622"><ele>128.0</ele><time>2026-03-29T16:26:34.992Z</time></trkpt><trkpt lat="45.3021748221916" lon="8.394559740488045"><ele>128.0</ele><time>2026-03-29T16:26:35.992Z</time></trkpt><trkpt lat="45.302275965286455" lon="8.394577778273554"><ele>128.0</ele><time>2026-03-29T16:26:36.992Z</time></trkpt><trkpt lat="45.30238120334528" lon="8.394637475552805"><ele>128.0</ele><time>2026-03-29T16:26:37.992Z</time></trkpt><trkpt lat="45.30247706084957" lon="8.394737026668379"><ele>128.0</ele><time>2026-03-29T16:26:38.992Z</time></trkpt><trkpt lat="45.3025731037738" lon="8.394851938308152"><ele>128.0</ele><time>2026-03-29T16:26:39.992Z</time></trkpt><trkpt lat="45.30268010691092" lon="8.394971134173918"><ele>128.0</ele><time>2026-03-29T16:26:40.992Z</time></trkpt><trkpt lat="45.30279442868103" lon="8.39509608567063"><ele>128.0</ele><time>2026-03-29T16:26:41.992Z</time></trkpt><trkpt lat="45.30291597257363" lon="8.39523356052156"><ele>128.0</ele><time>2026-03-29T16:26:42.992Z</time></trkpt><trkpt lat="45.30304350374625" lon="8.39537626274859"><ele>128.66666666666666</ele><time>2026-03-29T16:26:43.992Z</time></trkpt><trkpt lat="45.30317768104104" lon="8.395526857220782"><ele>129.33333333333334</ele><time>2026-03-29T16:26:44.992Z</time></trkpt><trkpt lat="45.303317625615406" lon="8.39568763493766"><ele>130.0</ele><time>2026-03-29T16:26:45.992Z</time></trkpt><trkpt lat="45.30346431532478" lon="8.39585319580226"><ele>130.0</ele><time>2026-03-29T16:26:46.992Z</time></trkpt><trkpt lat="45.303604712210415" lon="8.396006505571984"><ele>130.0</ele><time>2026-03-29T16:26:47.992Z</time></trkpt><trkpt lat="45.30374482676192" lon="8.396157804682197"><ele>130.0</ele><time>2026-03-29T16:26:48.992Z</time></trkpt><trkpt lat="45.303892173912814" lon="8.396316772895526"><ele>130.66666666666669</ele><time>2026-03-29T16:26:49.992Z</time></trkpt><trkpt lat="45.30403577909641" lon="8.3964857556292"><ele>131.33333333333334</ele><time>2026-03-29T16:26:50.992Z</time></trkpt><trkpt lat="45.30418654147893" lon="8.3966625034102"><ele>132.0</ele><time>2026-03-29T16:26:51.992Z</time></trkpt><trkpt lat="45.304343054219686" lon="8.39683440857241"><ele>132.0</ele><time>2026-03-29T16:26:52.992Z</time></trkpt><trkpt lat="45.3045069745467" lon="8.397005634203474"><ele>132.0</ele><time>2026-03-29T16:26:53.992Z</time></trkpt><trkpt lat="45.304663412429655" lon="8.39717434745244"><ele>132.0</ele><time>2026-03-29T16:26:54.992Z</time></trkpt><trkpt lat="45.30480816422785" lon="8.397337063124073"><ele>131.0</ele><time>2026-03-29T16:26:55.991Z</time></trkpt><trkpt lat="45.30495105095588" lon="8.397500745676007"><ele>130.0</ele><time>2026-03-29T16:26:56.991Z</time></trkpt><trkpt lat="45.30509233546266" lon="8.397665568570293"><ele>129.0</ele><time>2026-03-29T16:26:57.991Z</time></trkpt><trkpt lat="45.30523633323495" lon="8.397830073482874"><ele>129.0</ele><time>2026-03-29T16:26:58.991Z</time></trkpt><trkpt lat="45.3053842899756" lon="8.397987396651128"><ele>129.0</ele><time>2026-03-29T16:26:59.991Z</time></trkpt><trkpt lat="45.305527714002835" lon="8.398140091614922"><ele>129.0</ele><time>2026-03-29T16:27:00.991Z</time></trkpt><trkpt lat="45.3056687724881" lon="8.398295898819027"><ele>128.66666666666666</ele><time>2026-03-29T16:27:01.991Z</time></trkpt><trkpt lat="45.30581287692396" lon="8.39845084403167"><ele>128.33333333333331</ele><time>2026-03-29T16:27:02.991Z</time></trkpt><trkpt lat="45.30595960611433" lon="8.39860693106859"><ele>128.0</ele><time>2026-03-29T16:27:03.991Z</time></trkpt><trkpt lat="45.306104733890166" lon="8.398767459867662"><ele>128.33333333333331</ele><time>2026-03-29T16:27:04.993Z</time></trkpt><trkpt lat="45.306248950437045" lon="8.398928494150168"><ele>128.66666666666666</ele><time>2026-03-29T16:27:05.994Z</time></trkpt><trkpt lat="45.306394351916" lon="8.39908935416632"><ele>129.0</ele><time>2026-03-29T16:27:06.994Z</time></trkpt><trkpt lat="45.30653996092376" lon="8.3992488530587"><ele>129.33333333333334</ele><time>2026-03-29T16:27:07.993Z</time></trkpt><trkpt lat="45.30668061379773" lon="8.39940300155139"><ele>129.66666666666669</ele><time>2026-03-29T16:27:08.993Z</time></trkpt><trkpt lat="45.30681985535827" lon="8.399554538122784"><ele>130.0</ele><time>2026-03-29T16:27:09.993Z</time></trkpt><trkpt lat="45.30695884926277" lon="8.39971173451322"><ele>130.0</ele><time>2026-03-29T16:27:10.993Z</time></trkpt><trkpt lat="45.307096202851966" lon="8.399867888583454"><ele>130.0</ele><time>2026-03-29T16:27:11.993Z</time></trkpt><trkpt lat="45.30723212994849" lon="8.40002226569717"><ele>130.0</ele><time>2026-03-29T16:27:12.993Z</time></trkpt><trkpt lat="45.30736870105355" lon="8.400176133064164"><ele>129.66666666666669</ele><time>2026-03-29T16:27:13.993Z</time></trkpt><trkpt lat="45.307505354850285" lon="8.400333890945602"><ele>129.33333333333334</ele><time>2026-03-29T16:27:14.993Z</time></trkpt><trkpt lat="45.30764339368188" lon="8.400490084368975"><ele>129.0</ele><time>2026-03-29T16:27:15.993Z</time></trkpt><trkpt lat="45.30778035379018" lon="8.400645080119714"><ele>129.0</ele><time>2026-03-29T16:27:16.993Z</time></trkpt><trkpt lat="45.30791482737061" lon="8.40079787724524"><ele>129.0</ele><time>2026-03-29T16:27:17.993Z</time></trkpt><trkpt lat="45.308048239676204" lon="8.400949777056027"><ele>129.0</ele><time>2026-03-29T16:27:18.993Z</time></trkpt><trkpt lat="45.30817920233306" lon="8.401097615488775"><ele>129.25</ele><time>2026-03-29T16:27:19.993Z</time></trkpt><trkpt lat="45.308301748745784" lon="8.401233560833447"><ele>129.5</ele><time>2026-03-29T16:27:20.993Z</time></trkpt><trkpt lat="45.30841728858474" lon="8.401361350178403"><ele>129.75</ele><time>2026-03-29T16:27:21.993Z</time></trkpt><trkpt lat="45.30852583867337" lon="8.401484743834297"><ele>130.0</ele><time>2026-03-29T16:27:22.993Z</time></trkpt><trkpt lat="45.30863262861083" lon="8.401608432034353"><ele>129.5</ele><time>2026-03-29T16:27:23.993Z</time></trkpt><trkpt lat="45.30873743656272" lon="8.401734495715523"><ele>129.0</ele><time>2026-03-29T16:27:24.993Z</time></trkpt><trkpt lat="45.30884087054139" lon="8.401863370748845"><ele>128.5</ele><time>2026-03-29T16:27:25.993Z</time></trkpt><trkpt lat="45.30894532241464" lon="8.401995002816113"><ele>128.0</ele><time>2026-03-29T16:27:26.993Z</time></trkpt><trkpt lat="45.309047179513364" lon="8.402120704283726"><ele>128.0</ele><time>2026-03-29T16:27:27.993Z</time></trkpt><trkpt lat="45.30915026020618" lon="8.402234484092139"><ele>128.0</ele><time>2026-03-29T16:27:28.993Z</time></trkpt><trkpt lat="45.30924255416803" lon="8.40234542846145"><ele>128.0</ele><time>2026-03-29T16:27:29.993Z</time></trkpt><trkpt lat="45.30932293231229" lon="8.402464072918857"><ele>128.0</ele><time>2026-03-29T16:27:30.993Z</time></trkpt><trkpt lat="45.30937571728491" lon="8.402598765702892"><ele>128.0</ele><time>2026-03-29T16:27:31.993Z</time></trkpt><trkpt lat="45.309400953096564" lon="8.40275215865759"><ele>128.0</ele><time>2026-03-29T16:27:32.993Z</time></trkpt><trkpt lat="45.309392488123336" lon="8.402916766799992"><ele>128.0</ele><time>2026-03-29T16:27:33.993Z</time></trkpt><trkpt lat="45.30935455706525" lon="8.403068531296896"><ele>128.0</ele><time>2026-03-29T16:27:34.993Z</time></trkpt><trkpt lat="45.309286640111274" lon="8.403193889177828"><ele>128.0</ele><time>2026-03-29T16:27:35.993Z</time></trkpt><trkpt lat="45.309196095970776" lon="8.403285668285957"><ele>128.0</ele><time>2026-03-29T16:27:36.993Z</time></trkpt><trkpt lat="45.3090849000453" lon="8.403332425674877"><ele>128.0</ele><time>2026-03-29T16:27:37.993Z</time></trkpt><trkpt lat="45.308964959463154" lon="8.403332286930814"><ele>128.0</ele><time>2026-03-29T16:27:38.993Z</time></trkpt><trkpt lat="45.30884278530611" lon="8.403284115561654"><ele>127.75</ele><time>2026-03-29T16:27:39.993Z</time></trkpt><trkpt lat="45.308729066394314" lon="8.403182431745961"><ele>127.5</ele><time>2026-03-29T16:27:40.993Z</time></trkpt><trkpt lat="45.30861652520114" lon="8.403049287812356"><ele>127.25</ele><time>2026-03-29T16:27:41.993Z</time></trkpt><trkpt lat="45.30849913903173" lon="8.402912752363491"><ele>127.0</ele><time>2026-03-29T16:27:42.993Z</time></trkpt><trkpt lat="45.30838940089855" lon="8.402791765740957"><ele>127.0</ele><time>2026-03-29T16:27:43.993Z</time></trkpt><trkpt lat="45.3082932444519" lon="8.402682832567734"><ele>126.99999999999999</ele><time>2026-03-29T16:27:44.993Z</time></trkpt><trkpt lat="45.30821135892613" lon="8.402574641318921"><ele>126.99999999999999</ele><time>2026-03-29T16:27:45.993Z</time></trkpt><trkpt lat="45.308153366319424" lon="8.402453564318401"><ele>127.0</ele><time>2026-03-29T16:27:46.992Z</time></trkpt><trkpt lat="45.30812162833659" lon="8.402321477349515"><ele>127.0</ele><time>2026-03-29T16:27:47.992Z</time></trkpt><trkpt lat="45.30811515198027" lon="8.40218189063446"><ele>127.00000000000001</ele><time>2026-03-29T16:27:48.992Z</time></trkpt><trkpt lat="45.308123627966346" lon="8.402050132938642"><ele>127.0</ele><time>2026-03-29T16:27:49.992Z</time></trkpt><trkpt lat="45.30815499083706" lon="8.401937206370466"><ele>127.0</ele><time>2026-03-29T16:27:50.992Z</time></trkpt><trkpt lat="45.30820486732149" lon="8.401845399551828"><ele>127.0</ele><time>2026-03-29T16:27:51.992Z</time></trkpt><trkpt lat="45.30826963204094" lon="8.401772603429423"><ele>127.00000000000001</ele><time>2026-03-29T16:27:52.992Z</time></trkpt><trkpt lat="45.30834661280488" lon="8.40170295195664"><ele>127.0</ele><time>2026-03-29T16:27:53.992Z</time></trkpt><trkpt lat="45.308434724937094" lon="8.401626699141818"><ele>127.0</ele><time>2026-03-29T16:27:54.992Z</time></trkpt><trkpt lat="45.30853075936129" lon="8.401536731789358"><ele>127.0</ele><time>2026-03-29T16:27:55.992Z</time></trkpt><trkpt lat="45.30864203751782" lon="8.401441166421696"><ele>127.0</ele><time>2026-03-29T16:27:56.992Z</time></trkpt><trkpt lat="45.30876472863738" lon="8.401336031594575"><ele>127.0</ele><time>2026-03-29T16:27:57.992Z</time></trkpt><trkpt lat="45.308894780060335" lon="8.401226965100836"><ele>127.75</ele><time>2026-03-29T16:27:58.992Z</time></trkpt><trkpt lat="45.30901273900714" lon="8.401117096353426"><ele>128.5</ele><time>2026-03-29T16:27:59.992Z</time></trkpt><trkpt lat="45.3091308749146" lon="8.401004850670672"><ele>129.25</ele><time>2026-03-29T16:28:00.992Z</time></trkpt><trkpt lat="45.30925567851183" lon="8.400884619935631"><ele>130.0</ele><time>2026-03-29T16:28:01.992Z</time></trkpt><trkpt lat="45.309390884455595" lon="8.400763990731397"><ele>130.0</ele><time>2026-03-29T16:28:02.992Z</time></trkpt><trkpt lat="45.309534136842764" lon="8.400646497945447"><ele>130.0</ele><time>2026-03-29T16:28:03.992Z</time></trkpt><trkpt lat="45.309681360575574" lon="8.400517940874819"><ele>130.0</ele><time>2026-03-29T16:28:04.992Z</time></trkpt><trkpt lat="45.30983436787797" lon="8.400382982857016"><ele>129.0</ele><time>2026-03-29T16:28:05.992Z</time></trkpt><trkpt lat="45.3099921883045" lon="8.400250214883126"><ele>128.0</ele><time>2026-03-29T16:28:06.992Z</time></trkpt><trkpt lat="45.31013928729704" lon="8.400127763878375"><ele>127.0</ele><time>2026-03-29T16:28:07.992Z</time></trkpt><trkpt lat="45.310289323315175" lon="8.399995295851765"><ele>127.0</ele><time>2026-03-29T16:28:08.992Z</time></trkpt><trkpt lat="45.3104426686815" lon="8.399856346293037"><ele>127.0</ele><time>2026-03-29T16:28:09.992Z</time></trkpt><trkpt lat="45.31059840976579" lon="8.399716634786277"><ele>127.0</ele><time>2026-03-29T16:28:10.992Z</time></trkpt><trkpt lat="45.310757849407814" lon="8.399571450574621"><ele>127.0</ele><time>2026-03-29T16:28:11.992Z</time></trkpt><trkpt lat="45.31091969515264" lon="8.399425161244732"><ele>127.0</ele><time>2026-03-29T16:28:12.992Z</time></trkpt><trkpt lat="45.31108535138195" lon="8.39927539360007"><ele>127.0</ele><time>2026-03-29T16:28:13.992Z</time></trkpt><trkpt lat="45.31125580898489" lon="8.399126664122402"><ele>127.0</ele><time>2026-03-29T16:28:14.992Z</time></trkpt><trkpt lat="45.31142784901978" lon="8.398976400435743"><ele>127.0</ele><time>2026-03-29T16:28:15.992Z</time></trkpt><trkpt lat="45.311593350671124" lon="8.398831944962126"><ele>127.0</ele><time>2026-03-29T16:28:16.992Z</time></trkpt><trkpt lat="45.31175565139441" lon="8.3986909708874"><ele>127.0</ele><time>2026-03-29T16:28:17.992Z</time></trkpt><trkpt lat="45.311922712170535" lon="8.398545480468194"><ele>127.0</ele><time>2026-03-29T16:28:18.992Z</time></trkpt><trkpt lat="45.312092937306986" lon="8.398398601621944"><ele>127.0</ele><time>2026-03-29T16:28:19.992Z</time></trkpt><trkpt lat="45.31226646879214" lon="8.398249729421579"><ele>127.0</ele><time>2026-03-29T16:28:20.992Z</time></trkpt><trkpt lat="45.31244296205214" lon="8.398101615394674"><ele>127.0</ele><time>2026-03-29T16:28:21.992Z</time></trkpt><trkpt lat="45.31262207065606" lon="8.397949984493689"><ele>127.0</ele><time>2026-03-29T16:28:22.992Z</time></trkpt><trkpt lat="45.31280070050063" lon="8.397795059378645"><ele>127.0</ele><time>2026-03-29T16:28:23.992Z</time></trkpt><trkpt lat="45.31298140915721" lon="8.39763909089072"><ele>127.0</ele><time>2026-03-29T16:28:24.992Z</time></trkpt><trkpt lat="45.31316493672823" lon="8.397483713640755"><ele>127.0</ele><time>2026-03-29T16:28:25.992Z</time></trkpt><trkpt lat="45.31334943743165" lon="8.3973298549654"><ele>127.0</ele><time>2026-03-29T16:28:26.992Z</time></trkpt><trkpt lat="45.31353315802866" lon="8.397174907782736"><ele>127.0</ele><time>2026-03-29T16:28:27.992Z</time></trkpt><trkpt lat="45.31371654509772" lon="8.397019943271353"><ele>127.0</ele><time>2026-03-29T16:28:28.992Z</time></trkpt><trkpt lat="45.313896554896786" lon="8.396862746547368"><ele>126.66666666666667</ele><time>2026-03-29T16:28:29.992Z</time></trkpt><trkpt lat="45.314077233910126" lon="8.396706886895554"><ele>126.33333333333334</ele><time>2026-03-29T16:28:30.992Z</time></trkpt><trkpt lat="45.314252297927375" lon="8.39655966073634"><ele>126.0</ele><time>2026-03-29T16:28:31.992Z</time></trkpt><trkpt lat="45.31442077462052" lon="8.396415287827447"><ele>126.0</ele><time>2026-03-29T16:28:32.992Z</time></trkpt><trkpt lat="45.314586819479125" lon="8.396274896922783"><ele>126.0</ele><time>2026-03-29T16:28:33.992Z</time></trkpt><trkpt lat="45.31474799538895" lon="8.396137234180873"><ele>126.0</ele><time>2026-03-29T16:28:34.992Z</time></trkpt><trkpt lat="45.31490647271149" lon="8.39600221132524"><ele>126.33333333333334</ele><time>2026-03-29T16:28:35.991Z</time></trkpt><trkpt lat="45.31506702002843" lon="8.395863897956474"><ele>126.66666666666667</ele><time>2026-03-29T16:28:36.991Z</time></trkpt><trkpt lat="45.31522930406199" lon="8.395724827624285"><ele>127.0</ele><time>2026-03-29T16:28:37.991Z</time></trkpt><trkpt lat="45.315393072430126" lon="8.395583491632765"><ele>127.33333333333334</ele><time>2026-03-29T16:28:38.991Z</time></trkpt><trkpt lat="45.31555442850968" lon="8.395445435247415"><ele>127.66666666666666</ele><time>2026-03-29T16:28:39.991Z</time></trkpt><trkpt lat="45.315710373653445" lon="8.39531333242832"><ele>128.0</ele><time>2026-03-29T16:28:40.991Z</time></trkpt><trkpt lat="45.31585655095044" lon="8.395190466752254"><ele>128.5</ele><time>2026-03-29T16:28:41.991Z</time></trkpt><trkpt lat="45.31599099643156" lon="8.395074500475346"><ele>129.0</ele><time>2026-03-29T16:28:42.991Z</time></trkpt><trkpt lat="45.31611246447033" lon="8.394970912638229"><ele>129.5</ele><time>2026-03-29T16:28:43.991Z</time></trkpt><trkpt lat="45.31622407138117" lon="8.39487263104751"><ele>130.0</ele><time>2026-03-29T16:28:44.991Z</time></trkpt><trkpt lat="45.31632870552333" lon="8.394785906962392"><ele>130.2</ele><time>2026-03-29T16:28:45.991Z</time></trkpt><trkpt lat="45.31642907320519" lon="8.394720199771447"><ele>130.4</ele><time>2026-03-29T16:28:46.991Z</time></trkpt><trkpt lat="45.316530638987786" lon="8.39468527350493"><ele>130.6</ele><time>2026-03-29T16:28:47.991Z</time></trkpt><trkpt lat="45.316628600746476" lon="8.39467363210972"><ele>130.8</ele><time>2026-03-29T16:28:48.991Z</time></trkpt><trkpt lat="45.316716811924174" lon="8.394671354841543"><ele>131.0</ele><time>2026-03-29T16:28:49.991Z</time></trkpt><trkpt lat="45.31679714316883" lon="8.394662500872256"><ele>130.66666666666666</ele><time>2026-03-29T16:28:50.991Z</time></trkpt><trkpt lat="45.316865406285025" lon="8.394619832566578"><ele>130.33333333333331</ele><time>2026-03-29T16:28:51.991Z</time></trkpt><trkpt lat="45.31692393448484" lon="8.394549114920885"><ele>130.0</ele><time>2026-03-29T16:28:52.991Z</time></trkpt><trkpt lat="45.31697544518719" lon="8.394447657088879"><ele>129.66666666666666</ele><time>2026-03-29T16:28:53.991Z</time></trkpt><trkpt lat="45.317029236693706" lon="8.394329880784603"><ele>129.33333333333334</ele><time>2026-03-29T16:28:54.991Z</time></trkpt><trkpt lat="45.317099251161" lon="8.39421013550336"><ele>129.0</ele><time>2026-03-29T16:28:55.991Z</time></trkpt><trkpt lat="45.31718597456029" lon="8.394093399813688"><ele>128.75</ele><time>2026-03-29T16:28:56.991Z</time></trkpt><trkpt lat="45.31728939625434" lon="8.393987992073633"><ele>128.5</ele><time>2026-03-29T16:28:57.991Z</time></trkpt><trkpt lat="45.31739639488114" lon="8.393887032574256"><ele>128.25</ele><time>2026-03-29T16:28:58.991Z</time></trkpt><trkpt lat="45.31750760180708" lon="8.393784025499173"><ele>128.0</ele><time>2026-03-29T16:28:59.991Z</time></trkpt><trkpt lat="45.317623023405154" lon="8.393682784634601"><ele>128.0</ele><time>2026-03-29T16:29:00.991Z</time></trkpt><trkpt lat="45.31774329606345" lon="8.393582089277881"><ele>128.0</ele><time>2026-03-29T16:29:01.991Z</time></trkpt><trkpt lat="45.31786595242551" lon="8.393477871119279"><ele>128.0</ele><time>2026-03-29T16:29:02.991Z</time></trkpt><trkpt lat="45.31798424230456" lon="8.393376030473341"><ele>128.0</ele><time>2026-03-29T16:29:03.991Z</time></trkpt><trkpt lat="45.31810922886658" lon="8.39326868350848"><ele>128.33333333333331</ele><time>2026-03-29T16:29:04.991Z</time></trkpt><trkpt lat="45.31824113789929" lon="8.393157328559512"><ele>128.66666666666666</ele><time>2026-03-29T16:29:05.991Z</time></trkpt><trkpt lat="45.318378018144735" lon="8.393040941141596"><ele>129.0</ele><time>2026-03-29T16:29:06.991Z</time></trkpt><trkpt lat="45.31851845446313" lon="8.392920969958176"><ele>129.0</ele><time>2026-03-29T16:29:07.991Z</time></trkpt><trkpt lat="45.318662589035455" lon="8.392797578318795"><ele>129.0</ele><time>2026-03-29T16:29:08.991Z</time></trkpt><trkpt lat="45.31880845155079" lon="8.392672710868577"><ele>129.0</ele><time>2026-03-29T16:29:09.991Z</time></trkpt><trkpt lat="45.318956828221054" lon="8.39254427836375"><ele>128.66666666666666</ele><time>2026-03-29T16:29:10.993Z</time></trkpt><trkpt lat="45.3191071072233" lon="8.392413307640537"><ele>128.33333333333331</ele><time>2026-03-29T16:29:11.993Z</time></trkpt><trkpt lat="45.31925995536292" lon="8.392281290125752"><ele>128.0</ele><time>2026-03-29T16:29:12.993Z</time></trkpt><trkpt lat="45.31941371563471" lon="8.392149724599944"><ele>128.0</ele><time>2026-03-29T16:29:13.993Z</time></trkpt><trkpt lat="45.31956217011829" lon="8.392025395753539"><ele>128.0</ele><time>2026-03-29T16:29:14.993Z</time></trkpt><trkpt lat="45.319702513689485" lon="8.39190542143017"><ele>128.0</ele><time>2026-03-29T16:29:15.993Z</time></trkpt><trkpt lat="45.31984340316222" lon="8.3917878072334"><ele>128.66666666666666</ele><time>2026-03-29T16:29:16.993Z</time></trkpt><trkpt lat="45.3199867040334" lon="8.391668438195566"><ele>129.33333333333334</ele><time>2026-03-29T16:29:17.993Z</time></trkpt><trkpt lat="45.320134764059816" lon="8.391547735325354"><ele>130.0</ele><time>2026-03-29T16:29:18.993Z</time></trkpt><trkpt lat="45.32028358724086" lon="8.391420339875852"><ele>130.66666666666669</ele><time>2026-03-29T16:29:19.993Z</time></trkpt><trkpt lat="45.32043138583068" lon="8.39128831214899"><ele>131.33333333333334</ele><time>2026-03-29T16:29:20.993Z</time></trkpt><trkpt lat="45.320580249181496" lon="8.391158136089686"><ele>132.0</ele><time>2026-03-29T16:29:21.993Z</time></trkpt><trkpt lat="45.32072814025484" lon="8.39103212612167"><ele>132.0</ele><time>2026-03-29T16:29:22.993Z</time></trkpt><trkpt lat="45.32087364698823" lon="8.390907482945554"><ele>132.0</ele><time>2026-03-29T16:29:23.993Z</time></trkpt><trkpt lat="45.32101752477104" lon="8.39078647528003"><ele>132.0</ele><time>2026-03-29T16:29:24.993Z</time></trkpt><trkpt lat="45.32115881736799" lon="8.390665413059542"><ele>132.0</ele><time>2026-03-29T16:29:25.993Z</time></trkpt><trkpt lat="45.321296475006484" lon="8.390543655669775"><ele>132.0</ele><time>2026-03-29T16:29:26.993Z</time></trkpt><trkpt lat="45.32143360908048" lon="8.390422616036785"><ele>132.0</ele><time>2026-03-29T16:29:27.993Z</time></trkpt><trkpt lat="45.32157080202704" lon="8.390303549691327"><ele>132.33333333333334</ele><time>2026-03-29T16:29:28.993Z</time></trkpt><trkpt lat="45.32170717520519" lon="8.390188298904128"><ele>132.66666666666669</ele><time>2026-03-29T16:29:29.993Z</time></trkpt><trkpt lat="45.32184347547468" lon="8.390076179852601"><ele>133.0</ele><time>2026-03-29T16:29:30.993Z</time></trkpt><trkpt lat="45.32197551516317" lon="8.389964509264658"><ele>133.0</ele><time>2026-03-29T16:29:31.993Z</time></trkpt><trkpt lat="45.322103276575966" lon="8.389845502553262"><ele>133.0</ele><time>2026-03-29T16:29:32.993Z</time></trkpt><trkpt lat="45.322231254670115" lon="8.389734414822748"><ele>133.0</ele><time>2026-03-29T16:29:33.993Z</time></trkpt><trkpt lat="45.322354347856844" lon="8.389626556344421"><ele>133.0</ele><time>2026-03-29T16:29:34.993Z</time></trkpt><trkpt lat="45.322474884448596" lon="8.389522936618471"><ele>132.75</ele><time>2026-03-29T16:29:35.992Z</time></trkpt><trkpt lat="45.322590132488294" lon="8.389425892179434"><ele>132.5</ele><time>2026-03-29T16:29:36.992Z</time></trkpt><trkpt lat="45.32269283775504" lon="8.389327459813053"><ele>132.25</ele><time>2026-03-29T16:29:37.992Z</time></trkpt><trkpt lat="45.32278792054495" lon="8.389229289913164"><ele>132.0</ele><time>2026-03-29T16:29:38.992Z</time></trkpt><trkpt lat="45.3228758024069" lon="8.38912897665861"><ele>132.0</ele><time>2026-03-29T16:29:39.992Z</time></trkpt><trkpt lat="45.32295901851176" lon="8.389032294733832"><ele>132.0</ele><time>2026-03-29T16:29:40.992Z</time></trkpt><trkpt lat="45.32304091171472" lon="8.388936849953465"><ele>132.0</ele><time>2026-03-29T16:29:41.992Z</time></trkpt><trkpt lat="45.32312567012072" lon="8.388832663104585"><ele>132.0</ele><time>2026-03-29T16:29:42.992Z</time></trkpt><trkpt lat="45.32321042692281" lon="8.38873286692557"><ele>132.0</ele><time>2026-03-29T16:29:43.992Z</time></trkpt><trkpt lat="45.32328707529022" lon="8.388639781590076"><ele>132.0</ele><time>2026-03-29T16:29:44.992Z</time></trkpt><trkpt lat="45.32335612877127" lon="8.388550459890178"><ele>132.0</ele><time>2026-03-29T16:29:45.992Z</time></trkpt><trkpt lat="45.32342042038993" lon="8.38847040955619"><ele>132.0</ele><time>2026-03-29T16:29:46.992Z</time></trkpt><trkpt lat="45.323480193192225" lon="8.388396637785267"><ele>132.0</ele><time>2026-03-29T16:29:47.992Z</time></trkpt><trkpt lat="45.323534855397774" lon="8.388332883447028"><ele>132.0</ele><time>2026-03-29T16:29:48.992Z</time></trkpt><trkpt lat="45.32363338574826" lon="8.388248790280322"><ele>132.0</ele><time>2026-03-29T16:29:50.992Z</time></trkpt><trkpt lat="45.32374019853866" lon="8.388224448375615"><ele>132.0</ele><time>2026-03-29T16:29:52.992Z</time></trkpt><trkpt lat="45.32380339476979" lon="8.38824256392756"><ele>132.0</ele><time>2026-03-29T16:29:53.992Z</time></trkpt><trkpt lat="45.323868533074005" lon="8.388289924652327"><ele>132.0</ele><time>2026-03-29T16:29:54.992Z</time></trkpt><trkpt lat="45.323940569317315" lon="8.388336029782252"><ele>132.0</ele><time>2026-03-29T16:29:55.992Z</time></trkpt><trkpt lat="45.32402603954125" lon="8.388374951303494"><ele>132.0</ele><time>2026-03-29T16:29:56.992Z</time></trkpt><trkpt lat="45.32411689640515" lon="8.388378193780127"><ele>132.0</ele><time>2026-03-29T16:29:57.992Z</time></trkpt><trkpt lat="45.324200162849124" lon="8.388334195844775"><ele>132.2</ele><time>2026-03-29T16:29:58.992Z</time></trkpt><trkpt lat="45.32427758447093" lon="8.388265566777289"><ele>132.39999999999998</ele><time>2026-03-29T16:29:59.992Z</time></trkpt><trkpt lat="45.32434956236387" lon="8.388195871743369"><ele>132.60000000000002</ele><time>2026-03-29T16:30:00.992Z</time></trkpt><trkpt lat="45.32443581539538" lon="8.388148933588672"><ele>132.8</ele><time>2026-03-29T16:30:01.992Z</time></trkpt><trkpt lat="45.32453186681637" lon="8.388145133719576"><ele>133.0</ele><time>2026-03-29T16:30:02.992Z</time></trkpt><trkpt lat="45.3246351061125" lon="8.388167777965442"><ele>133.25</ele><time>2026-03-29T16:30:03.992Z</time></trkpt><trkpt lat="45.32474664816898" lon="8.388206529515335"><ele>133.5</ele><time>2026-03-29T16:30:04.992Z</time></trkpt><trkpt lat="45.32486936387809" lon="8.388251740148979"><ele>133.75</ele><time>2026-03-29T16:30:05.992Z</time></trkpt><trkpt lat="45.32499077403474" lon="8.3882940018079"><ele>134.0</ele><time>2026-03-29T16:30:06.992Z</time></trkpt><trkpt lat="45.32511246224097" lon="8.388336213993993"><ele>134.0</ele><time>2026-03-29T16:30:07.992Z</time></trkpt><trkpt lat="45.325245455700944" lon="8.388380153567658"><ele>134.0</ele><time>2026-03-29T16:30:08.992Z</time></trkpt><trkpt lat="45.32538327934299" lon="8.388424051240193"><ele>134.0</ele><time>2026-03-29T16:30:09.992Z</time></trkpt><trkpt lat="45.325529967818376" lon="8.388472758170623"><ele>134.0</ele><time>2026-03-29T16:30:10.992Z</time></trkpt><trkpt lat="45.325681653305466" lon="8.388531291610406"><ele>132.66666666666666</ele><time>2026-03-29T16:30:11.992Z</time></trkpt><trkpt lat="45.325843879752455" lon="8.388592117733609"><ele>131.33333333333334</ele><time>2026-03-29T16:30:12.992Z</time></trkpt><trkpt lat="45.32601262080879" lon="8.388654128544228"><ele>130.0</ele><time>2026-03-29T16:30:13.992Z</time></trkpt><trkpt lat="45.32618746147007" lon="8.388721382736556"><ele>130.0</ele><time>2026-03-29T16:30:14.992Z</time></trkpt><trkpt lat="45.32636483694096" lon="8.388790246461665"><ele>130.0</ele><time>2026-03-29T16:30:15.992Z</time></trkpt><trkpt lat="45.3265306003595" lon="8.388853029915817"><ele>130.0</ele><time>2026-03-29T16:30:16.992Z</time></trkpt><trkpt lat="45.32669938772099" lon="8.388914179584075"><ele>130.0</ele><time>2026-03-29T16:30:17.992Z</time></trkpt><trkpt lat="45.326871586896" lon="8.3889783032531"><ele>130.0</ele><time>2026-03-29T16:30:18.992Z</time></trkpt><trkpt lat="45.327048068037165" lon="8.389045392836055"><ele>130.0</ele><time>2026-03-29T16:30:19.992Z</time></trkpt><trkpt lat="45.32722940152784" lon="8.389108393149185"><ele>130.66666666666669</ele><time>2026-03-29T16:30:20.992Z</time></trkpt><trkpt lat="45.327417519887966" lon="8.389168001935662"><ele>131.33333333333334</ele><time>2026-03-29T16:30:21.992Z</time></trkpt><trkpt lat="45.3276061968283" lon="8.389234333500848"><ele>132.0</ele><time>2026-03-29T16:30:22.992Z</time></trkpt><trkpt lat="45.327799268002245" lon="8.389305231975534"><ele>132.0</ele><time>2026-03-29T16:30:23.992Z</time></trkpt><trkpt lat="45.32799563681748" lon="8.389376723363476"><ele>132.0</ele><time>2026-03-29T16:30:24.992Z</time></trkpt><trkpt lat="45.3282005577047" lon="8.389447277985866"><ele>132.0</ele><time>2026-03-29T16:30:25.991Z</time></trkpt><trkpt lat="45.32840895478976" lon="8.38952171754357"><ele>132.0</ele><time>2026-03-29T16:30:26.991Z</time></trkpt><trkpt lat="45.32861464762565" lon="8.389594231176861"><ele>132.0</ele><time>2026-03-29T16:30:27.991Z</time></trkpt><trkpt lat="45.328809226235926" lon="8.389663291112912"><ele>132.0</ele><time>2026-03-29T16:30:28.991Z</time></trkpt><trkpt lat="45.32899704057817" lon="8.389727645952474"><ele>132.0</ele><time>2026-03-29T16:30:29.991Z</time></trkpt><trkpt lat="45.32918192620468" lon="8.389792165438545"><ele>132.0</ele><time>2026-03-29T16:30:30.991Z</time></trkpt><trkpt lat="45.329368301898796" lon="8.38985894320773"><ele>132.0</ele><time>2026-03-29T16:30:31.991Z</time></trkpt><trkpt lat="45.32955745216767" lon="8.389926926044724"><ele>131.0</ele><time>2026-03-29T16:30:32.991Z</time></trkpt><trkpt lat="45.32974986505446" lon="8.389995034911573"><ele>130.0</ele><time>2026-03-29T16:30:33.991Z</time></trkpt><trkpt lat="45.32994492045163" lon="8.390065112736641"><ele>129.0</ele><time>2026-03-29T16:30:34.991Z</time></trkpt><trkpt lat="45.33014273398725" lon="8.390135571026615"><ele>129.0</ele><time>2026-03-29T16:30:35.991Z</time></trkpt><trkpt lat="45.330335414281734" lon="8.390202471781594"><ele>129.0</ele><time>2026-03-29T16:30:36.991Z</time></trkpt><trkpt lat="45.33053054453448" lon="8.390269812282517"><ele>129.0</ele><time>2026-03-29T16:30:37.991Z</time></trkpt><trkpt lat="45.33072662545118" lon="8.390339099689246"><ele>128.66666666666666</ele><time>2026-03-29T16:30:38.991Z</time></trkpt><trkpt lat="45.33092662290987" lon="8.390409493184048"><ele>128.33333333333331</ele><time>2026-03-29T16:30:39.991Z</time></trkpt><trkpt lat="45.33112797536638" lon="8.390482686906234"><ele>128.0</ele><time>2026-03-29T16:30:40.991Z</time></trkpt><trkpt lat="45.33133249438797" lon="8.390557781177776"><ele>128.66666666666666</ele><time>2026-03-29T16:30:41.991Z</time></trkpt><trkpt lat="45.331538080866736" lon="8.390634642953009"><ele>129.33333333333334</ele><time>2026-03-29T16:30:42.991Z</time></trkpt><trkpt lat="45.331745055151615" lon="8.390713343699696"><ele>130.0</ele><time>2026-03-29T16:30:43.991Z</time></trkpt><trkpt lat="45.33195394702197" lon="8.39078925373473"><ele>130.0</ele><time>2026-03-29T16:30:44.991Z</time></trkpt><trkpt lat="45.332163388824426" lon="8.390865297842156"><ele>130.0</ele><time>2026-03-29T16:30:45.991Z</time></trkpt><trkpt lat="45.3323690972364" lon="8.390936756082038"><ele>130.0</ele><time>2026-03-29T16:30:46.991Z</time></trkpt><trkpt lat="45.33257186231291" lon="8.39100349202948"><ele>129.66666666666669</ele><time>2026-03-29T16:30:47.991Z</time></trkpt><trkpt lat="45.33276933349769" lon="8.391071864178706"><ele>129.33333333333334</ele><time>2026-03-29T16:30:48.991Z</time></trkpt><trkpt lat="45.33296176744988" lon="8.391135620502506"><ele>129.0</ele><time>2026-03-29T16:30:49.991Z</time></trkpt><trkpt lat="45.333148284398625" lon="8.391196514648435"><ele>129.0</ele><time>2026-03-29T16:30:50.991Z</time></trkpt><trkpt lat="45.33332571686393" lon="8.391257082515745"><ele>129.0</ele><time>2026-03-29T16:30:51.991Z</time></trkpt><trkpt lat="45.333494546259494" lon="8.391316361898927"><ele>129.0</ele><time>2026-03-29T16:30:52.991Z</time></trkpt><trkpt lat="45.33365030007071" lon="8.391371343110912"><ele>129.0</ele><time>2026-03-29T16:30:53.991Z</time></trkpt><trkpt lat="45.333788577712106" lon="8.391423849811702"><ele>129.0</ele><time>2026-03-29T16:30:54.991Z</time></trkpt><trkpt lat="45.33390966117938" lon="8.391470529981067"><ele>129.0</ele><time>2026-03-29T16:30:55.991Z</time></trkpt><trkpt lat="45.33400950448849" lon="8.391512464494495"><ele>129.0</ele><time>2026-03-29T16:30:56.991Z</time></trkpt><trkpt lat="45.334090931504065" lon="8.391551074274792"><ele>129.14285714285714</ele><time>2026-03-29T16:30:57.991Z</time></trkpt><trkpt lat="45.3341581414195" lon="8.391610746354955"><ele>129.28571428571428</ele><time>2026-03-29T16:30:58.991Z</time></trkpt><trkpt lat="45.33421489544128" lon="8.391683973257493"><ele>129.42857142857144</ele><time>2026-03-29T16:30:59.991Z</time></trkpt><trkpt lat="45.33426399613737" lon="8.391760187580044"><ele>129.57142857142856</ele><time>2026-03-29T16:31:00.991Z</time></trkpt><trkpt lat="45.33431369638542" lon="8.391827704025125"><ele>129.71428571428572</ele><time>2026-03-29T16:31:01.991Z</time></trkpt><trkpt lat="45.33437378156128" lon="8.39186710427452"><ele>129.85714285714286</ele><time>2026-03-29T16:31:02.991Z</time></trkpt><trkpt lat="45.33444901934981" lon="8.391893265050172"><ele>130.0</ele><time>2026-03-29T16:31:03.991Z</time></trkpt><trkpt lat="45.3345280188781" lon="8.391881310009905"><ele>130.0</ele><time>2026-03-29T16:31:04.991Z</time></trkpt><trkpt lat="45.334606479494646" lon="8.391840791682403"><ele>130.0</ele><time>2026-03-29T16:31:05.991Z</time></trkpt><trkpt lat="45.33469535410449" lon="8.391807701175503"><ele>130.0</ele><time>2026-03-29T16:31:06.991Z</time></trkpt><trkpt lat="45.33480310326517" lon="8.3918052986439"><ele>130.0</ele><time>2026-03-29T16:31:07.991Z</time></trkpt><trkpt lat="45.33491484024856" lon="8.391823287859808"><ele>130.0</ele><time>2026-03-29T16:31:08.991Z</time></trkpt><trkpt lat="45.33503754389023" lon="8.39186231589392"><ele>129.33333333333334</ele><time>2026-03-29T16:31:09.991Z</time></trkpt><trkpt lat="45.33517480261327" lon="8.391913771937704"><ele>128.66666666666666</ele><time>2026-03-29T16:31:10.991Z</time></trkpt><trkpt lat="45.33532331325273" lon="8.391966115602685"><ele>128.0</ele><time>2026-03-29T16:31:11.991Z</time></trkpt><trkpt lat="45.33548217806269" lon="8.392021037392546"><ele>127.66666666666666</ele><time>2026-03-29T16:31:12.991Z</time></trkpt><trkpt lat="45.335652790468345" lon="8.392083257390176"><ele>127.33333333333334</ele><time>2026-03-29T16:31:13.991Z</time></trkpt><trkpt lat="45.33582798963109" lon="8.392146625217997"><ele>127.0</ele><time>2026-03-29T16:31:14.99Z</time></trkpt><trkpt lat="45.335991721121886" lon="8.392204058784106"><ele>127.66666666666667</ele><time>2026-03-29T16:31:15.99Z</time></trkpt><trkpt lat="45.33616010420482" lon="8.392261130818238"><ele>128.33333333333334</ele><time>2026-03-29T16:31:16.992Z</time></trkpt><trkpt lat="45.33633574779397" lon="8.392320181297451"><ele>129.0</ele><time>2026-03-29T16:31:17.993Z</time></trkpt><trkpt lat="45.336517473632135" lon="8.392382805946164"><ele>129.33333333333334</ele><time>2026-03-29T16:31:18.993Z</time></trkpt><trkpt lat="45.33670645014907" lon="8.392445824121632"><ele>129.66666666666669</ele><time>2026-03-29T16:31:19.993Z</time></trkpt><trkpt lat="45.336899776606266" lon="8.39250973014377"><ele>130.0</ele><time>2026-03-29T16:31:20.993Z</time></trkpt><trkpt lat="45.337086334635416" lon="8.392576001463643"><ele>130.33333333333334</ele><time>2026-03-29T16:31:21.993Z</time></trkpt><trkpt lat="45.33726601110402" lon="8.392645268355016"><ele>130.66666666666666</ele><time>2026-03-29T16:31:22.993Z</time></trkpt><trkpt lat="45.33743922127833" lon="8.392710656728635"><ele>131.0</ele><time>2026-03-29T16:31:23.992Z</time></trkpt><trkpt lat="45.33760848221477" lon="8.392769482242805"><ele>131.0</ele><time>2026-03-29T16:31:24.992Z</time></trkpt><trkpt lat="45.33778372863629" lon="8.392828359136303"><ele>131.0</ele><time>2026-03-29T16:31:25.993Z</time></trkpt><trkpt lat="45.337959864549234" lon="8.392889746019504"><ele>131.0</ele><time>2026-03-29T16:31:26.993Z</time></trkpt><trkpt lat="45.338140017073314" lon="8.392950738048782"><ele>130.0</ele><time>2026-03-29T16:31:27.993Z</time></trkpt><trkpt lat="45.33832344799061" lon="8.39301269872434"><ele>129.0</ele><time>2026-03-29T16:31:28.993Z</time></trkpt><trkpt lat="45.338509415844" lon="8.393075213467386"><ele>128.0</ele><time>2026-03-29T16:31:29.993Z</time></trkpt><trkpt lat="45.3387051547981" lon="8.3931443248754"><ele>129.5</ele><time>2026-03-29T16:31:30.993Z</time></trkpt><trkpt lat="45.3389159407053" lon="8.393218937862503"><ele>131.0</ele><time>2026-03-29T16:31:31.993Z</time></trkpt><trkpt lat="45.33914398186954" lon="8.3933009637539"><ele>131.0</ele><time>2026-03-29T16:31:32.993Z</time></trkpt><trkpt lat="45.33938549920885" lon="8.393392591181557"><ele>131.0</ele><time>2026-03-29T16:31:33.993Z</time></trkpt><trkpt lat="45.339624607376386" lon="8.393495181299125"><ele>130.66666666666666</ele><time>2026-03-29T16:31:34.993Z</time></trkpt><trkpt lat="45.33984391419663" lon="8.393592865929767"><ele>130.33333333333334</ele><time>2026-03-29T16:31:35.993Z</time></trkpt><trkpt lat="45.340046655175335" lon="8.393674283560122"><ele>130.0</ele><time>2026-03-29T16:31:36.993Z</time></trkpt><trkpt lat="45.34023205369218" lon="8.39373967638542"><ele>130.0</ele><time>2026-03-29T16:31:37.993Z</time></trkpt><trkpt lat="45.34040742879344" lon="8.393800004432933"><ele>130.0</ele><time>2026-03-29T16:31:38.993Z</time></trkpt><trkpt lat="45.34057582954242" lon="8.393855382626315"><ele>130.0</ele><time>2026-03-29T16:31:39.993Z</time></trkpt><trkpt lat="45.3407324635807" lon="8.393905500880999"><ele>130.0</ele><time>2026-03-29T16:31:40.993Z</time></trkpt><trkpt lat="45.34087759035465" lon="8.393951984183323"><ele>130.0</ele><time>2026-03-29T16:31:41.993Z</time></trkpt><trkpt lat="45.3410015426891" lon="8.393994890074023"><ele>130.0</ele><time>2026-03-29T16:31:42.993Z</time></trkpt><trkpt lat="45.341111812051004" lon="8.39404674896931"><ele>130.0</ele><time>2026-03-29T16:31:43.993Z</time></trkpt><trkpt lat="45.3412036402634" lon="8.394121322266708"><ele>130.0</ele><time>2026-03-29T16:31:44.993Z</time></trkpt><trkpt lat="45.34127816342837" lon="8.39421723757291"><ele>130.0</ele><time>2026-03-29T16:31:45.993Z</time></trkpt><trkpt lat="45.341334885368354" lon="8.394328170675221"><ele>130.0</ele><time>2026-03-29T16:31:46.993Z</time></trkpt><trkpt lat="45.34138788299336" lon="8.394450287109795"><ele>130.0</ele><time>2026-03-29T16:31:47.993Z</time></trkpt><trkpt lat="45.34145577155299" lon="8.394562161651004"><ele>130.0</ele><time>2026-03-29T16:31:48.993Z</time></trkpt><trkpt lat="45.34154529542772" lon="8.394642778416129"><ele>130.0</ele><time>2026-03-29T16:31:49.993Z</time></trkpt><trkpt lat="45.34165570519137" lon="8.39468376791631"><ele>130.0</ele><time>2026-03-29T16:31:50.993Z</time></trkpt><trkpt lat="45.341775246796416" lon="8.394680543123663"><ele>130.0</ele><time>2026-03-29T16:31:51.993Z</time></trkpt><trkpt lat="45.341894241195476" lon="8.394629870723302"><ele>130.0</ele><time>2026-03-29T16:31:52.993Z</time></trkpt><trkpt lat="45.34200910658177" lon="8.394547776400252"><ele>130.0</ele><time>2026-03-29T16:31:53.992Z</time></trkpt><trkpt lat="45.34213189837141" lon="8.394482655817075"><ele>130.0</ele><time>2026-03-29T16:31:54.992Z</time></trkpt><trkpt lat="45.34226778734406" lon="8.39446554223654"><ele>130.0</ele><time>2026-03-29T16:31:55.992Z</time></trkpt><trkpt lat="45.34240612581971" lon="8.394489311531334"><ele>130.0</ele><time>2026-03-29T16:31:56.992Z</time></trkpt><trkpt lat="45.3425497312975" lon="8.39453864763257"><ele>130.0</ele><time>2026-03-29T16:31:57.992Z</time></trkpt><trkpt lat="45.342700953780636" lon="8.394596586562832"><ele>130.0</ele><time>2026-03-29T16:31:58.992Z</time></trkpt><trkpt lat="45.342860098110286" lon="8.394657500483675"><ele>130.0</ele><time>2026-03-29T16:31:59.992Z</time></trkpt><trkpt lat="45.34302791023192" lon="8.394717128185597"><ele>130.33333333333334</ele><time>2026-03-29T16:32:00.992Z</time></trkpt><trkpt lat="45.34320222771063" lon="8.394779845427074"><ele>130.66666666666666</ele><time>2026-03-29T16:32:01.992Z</time></trkpt><trkpt lat="45.34337007278428" lon="8.394839256552421"><ele>131.0</ele><time>2026-03-29T16:32:02.992Z</time></trkpt><trkpt lat="45.34353555605738" lon="8.394897978440357"><ele>131.0</ele><time>2026-03-29T16:32:03.992Z</time></trkpt><trkpt lat="45.343705034382154" lon="8.394959058603796"><ele>131.0</ele><time>2026-03-29T16:32:04.992Z</time></trkpt><trkpt lat="45.343876876285734" lon="8.395021714024878"><ele>131.0</ele><time>2026-03-29T16:32:05.992Z</time></trkpt><trkpt lat="45.34405132531114" lon="8.395084662143088"><ele>130.33333333333331</ele><time>2026-03-29T16:32:06.992Z</time></trkpt><trkpt lat="45.3442288967316" lon="8.3951491181646"><ele>129.66666666666666</ele><time>2026-03-29T16:32:07.992Z</time></trkpt><trkpt lat="45.34440918088606" lon="8.39521191978479"><ele>129.0</ele><time>2026-03-29T16:32:08.992Z</time></trkpt><trkpt lat="45.34459233843808" lon="8.39527296807505"><ele>129.66666666666666</ele><time>2026-03-29T16:32:09.992Z</time></trkpt><trkpt lat="45.344777667674144" lon="8.39533720332052"><ele>130.33333333333331</ele><time>2026-03-29T16:32:10.992Z</time></trkpt><trkpt lat="45.344963697354245" lon="8.395403689343429"><ele>131.0</ele><time>2026-03-29T16:32:11.992Z</time></trkpt><trkpt lat="45.345147108283044" lon="8.395471503318687"><ele>131.0</ele><time>2026-03-29T16:32:12.992Z</time></trkpt><trkpt lat="45.345318559642585" lon="8.395531925290245"><ele>131.0</ele><time>2026-03-29T16:32:13.992Z</time></trkpt><trkpt lat="45.34548846214789" lon="8.395591542903508"><ele>131.0</ele><time>2026-03-29T16:32:14.992Z</time></trkpt><trkpt lat="45.345656006865404" lon="8.395650232763566"><ele>131.33333333333331</ele><time>2026-03-29T16:32:15.992Z</time></trkpt><trkpt lat="45.34582197494303" lon="8.395709305837524"><ele>131.66666666666666</ele><time>2026-03-29T16:32:16.992Z</time></trkpt><trkpt lat="45.345988363939824" lon="8.395769722197654"><ele>132.0</ele><time>2026-03-29T16:32:17.992Z</time></trkpt><trkpt lat="45.34615447358451" lon="8.395831912177867"><ele>132.0</ele><time>2026-03-29T16:32:18.992Z</time></trkpt><trkpt lat="45.346321566233755" lon="8.395893660204594"><ele>132.0</ele><time>2026-03-29T16:32:19.992Z</time></trkpt><trkpt lat="45.34649003911581" lon="8.39595435131026"><ele>132.0</ele><time>2026-03-29T16:32:20.992Z</time></trkpt><trkpt lat="45.34665818210112" lon="8.396014053157087"><ele>131.66666666666666</ele><time>2026-03-29T16:32:21.992Z</time></trkpt><trkpt lat="45.34682312140138" lon="8.39607361839071"><ele>131.33333333333331</ele><time>2026-03-29T16:32:22.992Z</time></trkpt><trkpt lat="45.34697498287596" lon="8.396129808327403"><ele>131.0</ele><time>2026-03-29T16:32:23.992Z</time></trkpt><trkpt lat="45.34712043975587" lon="8.396178991941309"><ele>131.75</ele><time>2026-03-29T16:32:24.992Z</time></trkpt><trkpt lat="45.3472585678868" lon="8.396223637498883"><ele>132.5</ele><time>2026-03-29T16:32:25.992Z</time></trkpt><trkpt lat="45.34738952006443" lon="8.396261633571088"><ele>133.25</ele><time>2026-03-29T16:32:26.992Z</time></trkpt><trkpt lat="45.34751758881887" lon="8.396288481091691"><ele>134.0</ele><time>2026-03-29T16:32:27.992Z</time></trkpt><trkpt lat="45.34763250076455" lon="8.39629574113528"><ele>134.0</ele><time>2026-03-29T16:32:28.992Z</time></trkpt><trkpt lat="45.34773475899877" lon="8.396294336632087"><ele>134.0</ele><time>2026-03-29T16:32:29.992Z</time></trkpt><trkpt lat="45.34781670934236" lon="8.396296316492501"><ele>134.0</ele><time>2026-03-29T16:32:30.992Z</time></trkpt><trkpt lat="45.347885427067546" lon="8.396315132770686"><ele>134.0</ele><time>2026-03-29T16:32:31.992Z</time></trkpt><trkpt lat="45.34797835295346" lon="8.39643286004306"><ele>134.0</ele><time>2026-03-29T16:32:33.992Z</time></trkpt><trkpt lat="45.34800692457089" lon="8.396518729397147"><ele>134.0</ele><time>2026-03-29T16:32:34.992Z</time></trkpt><trkpt lat="45.34803935167272" lon="8.396609318663684"><ele>133.5</ele><time>2026-03-29T16:32:35.992Z</time></trkpt><trkpt lat="45.348086804965476" lon="8.396681593114632"><ele>133.0</ele><time>2026-03-29T16:32:36.992Z</time></trkpt><trkpt lat="45.34815382137648" lon="8.396717306441575"><ele>132.5</ele><time>2026-03-29T16:32:37.992Z</time></trkpt><trkpt lat="45.348227077761955" lon="8.39669764497941"><ele>132.0</ele><time>2026-03-29T16:32:38.992Z</time></trkpt><trkpt lat="45.34829307946992" lon="8.396645221514925"><ele>131.5</ele><time>2026-03-29T16:32:39.992Z</time></trkpt><trkpt lat="45.34834709488336" lon="8.396555135797602"><ele>131.0</ele><time>2026-03-29T16:32:40.992Z</time></trkpt><trkpt lat="45.34840235453227" lon="8.396454409899015"><ele>131.0</ele><time>2026-03-29T16:32:41.992Z</time></trkpt><trkpt lat="45.348479872448344" lon="8.396365978682573"><ele>131.0</ele><time>2026-03-29T16:32:42.992Z</time></trkpt><trkpt lat="45.34857835475931" lon="8.396286259549667"><ele>131.0</ele><time>2026-03-29T16:32:43.991Z</time></trkpt><trkpt lat="45.3486825518773" lon="8.396200941780098"><ele>131.0</ele><time>2026-03-29T16:32:44.991Z</time></trkpt><trkpt lat="45.3487972133847" lon="8.396112945495222"><ele>132.5</ele><time>2026-03-29T16:32:45.991Z</time></trkpt><trkpt lat="45.34892164202644" lon="8.396021692150223"><ele>134.0</ele><time>2026-03-29T16:32:46.991Z</time></trkpt><trkpt lat="45.34904215034776" lon="8.39592814622413"><ele>135.5</ele><time>2026-03-29T16:32:47.991Z</time></trkpt><trkpt lat="45.34915730596807" lon="8.395834560897026"><ele>137.0</ele><time>2026-03-29T16:32:48.991Z</time></trkpt><trkpt lat="45.34927580402968" lon="8.395727803375307"><ele>137.0</ele><time>2026-03-29T16:32:49.991Z</time></trkpt><trkpt lat="45.34939852568877" lon="8.395614911748721"><ele>137.0</ele><time>2026-03-29T16:32:50.991Z</time></trkpt><trkpt lat="45.349533477540305" lon="8.395503164765392"><ele>137.0</ele><time>2026-03-29T16:32:51.991Z</time></trkpt><trkpt lat="45.34967307973156" lon="8.395388265953"><ele>136.66666666666666</ele><time>2026-03-29T16:32:52.991Z</time></trkpt><trkpt lat="45.349815334053964" lon="8.395264981675192"><ele>136.33333333333334</ele><time>2026-03-29T16:32:53.991Z</time></trkpt><trkpt lat="45.349960242152115" lon="8.39513086578871"><ele>136.0</ele><time>2026-03-29T16:32:54.991Z</time></trkpt><trkpt lat="45.35010357716177" lon="8.394996746100816"><ele>136.0</ele><time>2026-03-29T16:32:55.991Z</time></trkpt><trkpt lat="45.350239255147486" lon="8.394872675095584"><ele>136.0</ele><time>2026-03-29T16:32:56.991Z</time></trkpt><trkpt lat="45.350368876836654" lon="8.39474945531864"><ele>136.0</ele><time>2026-03-29T16:32:57.991Z</time></trkpt><trkpt lat="45.35050252127315" lon="8.394626516725051"><ele>135.33333333333334</ele><time>2026-03-29T16:32:58.991Z</time></trkpt><trkpt lat="45.35063778590133" lon="8.394493636271267"><ele>134.66666666666666</ele><time>2026-03-29T16:32:59.991Z</time></trkpt><trkpt lat="45.35077715964001" lon="8.394365504332361"><ele>134.0</ele><time>2026-03-29T16:33:00.991Z</time></trkpt><trkpt lat="45.35091980259738" lon="8.394237990181994"><ele>134.0</ele><time>2026-03-29T16:33:01.991Z</time></trkpt><trkpt lat="45.35106661170157" lon="8.394108110735186"><ele>134.0</ele><time>2026-03-29T16:33:02.991Z</time></trkpt><trkpt lat="45.35121575122664" lon="8.393976796329664"><ele>134.0</ele><time>2026-03-29T16:33:03.991Z</time></trkpt><trkpt lat="45.35136317437198" lon="8.39384318941628"><ele>134.0</ele><time>2026-03-29T16:33:04.991Z</time></trkpt><trkpt lat="45.351512878855" lon="8.393706852713626"><ele>134.0</ele><time>2026-03-29T16:33:05.991Z</time></trkpt><trkpt lat="45.351663216467266" lon="8.39356774056051"><ele>134.0</ele><time>2026-03-29T16:33:06.991Z</time></trkpt><trkpt lat="45.35181134322203" lon="8.393434734107046"><ele>134.0</ele><time>2026-03-29T16:33:07.991Z</time></trkpt><trkpt lat="45.35195224879948" lon="8.39330823731095"><ele>134.0</ele><time>2026-03-29T16:33:08.991Z</time></trkpt><trkpt lat="45.352084613242134" lon="8.393188749006907"><ele>134.0</ele><time>2026-03-29T16:33:09.991Z</time></trkpt><trkpt lat="45.35220856712775" lon="8.39307483197029"><ele>133.75</ele><time>2026-03-29T16:33:10.991Z</time></trkpt><trkpt lat="45.35232604105885" lon="8.392972244583346"><ele>133.5</ele><time>2026-03-29T16:33:11.991Z</time></trkpt><trkpt lat="45.35243216060382" lon="8.392877935935406"><ele>133.25</ele><time>2026-03-29T16:33:12.991Z</time></trkpt><trkpt lat="45.352530215734184" lon="8.392788642530794"><ele>133.0</ele><time>2026-03-29T16:33:13.991Z</time></trkpt><trkpt lat="45.35262747433924" lon="8.39272126789629"><ele>133.0</ele><time>2026-03-29T16:33:14.991Z</time></trkpt><trkpt lat="45.352723792935144" lon="8.392672947888274"><ele>133.0</ele><time>2026-03-29T16:33:15.991Z</time></trkpt><trkpt lat="45.352816610351304" lon="8.392623039723711"><ele>133.0</ele><time>2026-03-29T16:33:16.991Z</time></trkpt><trkpt lat="45.35290896229812" lon="8.392558584093434"><ele>133.0</ele><time>2026-03-29T16:33:17.991Z</time></trkpt><trkpt lat="45.352994057975" lon="8.392460189608222"><ele>133.0</ele><time>2026-03-29T16:33:18.991Z</time></trkpt><trkpt lat="45.35308373311528" lon="8.392339977588671"><ele>133.5</ele><time>2026-03-29T16:33:19.991Z</time></trkpt><trkpt lat="45.353182794444045" lon="8.392217739704197"><ele>134.0</ele><time>2026-03-29T16:33:20.991Z</time></trkpt><trkpt lat="45.353296131421914" lon="8.39209850146751"><ele>134.5</ele><time>2026-03-29T16:33:21.991Z</time></trkpt><trkpt lat="45.35341993618459" lon="8.39198106805944"><ele>135.0</ele><time>2026-03-29T16:33:22.993Z</time></trkpt><trkpt lat="45.35355287830037" lon="8.391862593705618"><ele>135.0</ele><time>2026-03-29T16:33:23.993Z</time></trkpt><trkpt lat="45.35369208929137" lon="8.391744351368732"><ele>135.0</ele><time>2026-03-29T16:33:24.993Z</time></trkpt><trkpt lat="45.353832290135585" lon="8.391616482787974"><ele>135.0</ele><time>2026-03-29T16:33:25.993Z</time></trkpt><trkpt lat="45.353975613755416" lon="8.391480558615783"><ele>135.33333333333334</ele><time>2026-03-29T16:33:26.992Z</time></trkpt><trkpt lat="45.35411910731224" lon="8.391348243650594"><ele>135.66666666666669</ele><time>2026-03-29T16:33:27.992Z</time></trkpt><trkpt lat="45.35426497190877" lon="8.391217994375026"><ele>136.0</ele><time>2026-03-29T16:33:28.992Z</time></trkpt><trkpt lat="45.35441080329763" lon="8.391087018163367"><ele>136.0</ele><time>2026-03-29T16:33:29.993Z</time></trkpt><trkpt lat="45.35455876318741" lon="8.39095605118238"><ele>136.0</ele><time>2026-03-29T16:33:30.993Z</time></trkpt><trkpt lat="45.354704606864125" lon="8.390822584351303"><ele>136.0</ele><time>2026-03-29T16:33:31.993Z</time></trkpt><trkpt lat="45.3548549569524" lon="8.39069360239339"><ele>135.66666666666669</ele><time>2026-03-29T16:33:32.993Z</time></trkpt><trkpt lat="45.35500664091705" lon="8.390567465317234"><ele>135.33333333333334</ele><time>2026-03-29T16:33:33.993Z</time></trkpt><trkpt lat="45.35515637833096" lon="8.390437094311377"><ele>135.0</ele><time>2026-03-29T16:33:34.993Z</time></trkpt><trkpt lat="45.35530558853751" lon="8.39030419104376"><ele>135.0</ele><time>2026-03-29T16:33:35.993Z</time></trkpt><trkpt lat="45.355450771495036" lon="8.390171711533817"><ele>135.0</ele><time>2026-03-29T16:33:36.993Z</time></trkpt><trkpt lat="45.35558887120854" lon="8.390044634136217"><ele>135.0</ele><time>2026-03-29T16:33:37.993Z</time></trkpt><trkpt lat="45.35572472191303" lon="8.389918752987612"><ele>134.66666666666666</ele><time>2026-03-29T16:33:38.993Z</time></trkpt><trkpt lat="45.35586368359227" lon="8.389789524863568"><ele>134.33333333333331</ele><time>2026-03-29T16:33:39.993Z</time></trkpt><trkpt lat="45.35600635315537" lon="8.389661105184791"><ele>134.0</ele><time>2026-03-29T16:33:40.993Z</time></trkpt><trkpt lat="45.3561523587702" lon="8.389530077833363"><ele>134.0</ele><time>2026-03-29T16:33:41.993Z</time></trkpt><trkpt lat="45.356300690214375" lon="8.389395465511743"><ele>134.0</ele><time>2026-03-29T16:33:42.993Z</time></trkpt><trkpt lat="45.35645144235395" lon="8.389257197089869"><ele>134.0</ele><time>2026-03-29T16:33:43.993Z</time></trkpt><trkpt lat="45.35660497786821" lon="8.389116780787175"><ele>134.0</ele><time>2026-03-29T16:33:44.993Z</time></trkpt><trkpt lat="45.356758155701726" lon="8.388970131688357"><ele>134.0</ele><time>2026-03-29T16:33:45.993Z</time></trkpt><trkpt lat="45.35691335075365" lon="8.388834725409088"><ele>134.0</ele><time>2026-03-29T16:33:46.993Z</time></trkpt><trkpt lat="45.35706545932731" lon="8.3887026397867"><ele>134.66666666666666</ele><time>2026-03-29T16:33:47.993Z</time></trkpt><trkpt lat="45.35721257005014" lon="8.388575214874756"><ele>135.33333333333334</ele><time>2026-03-29T16:33:48.993Z</time></trkpt><trkpt lat="45.35735499262555" lon="8.388456809670227"><ele>136.0</ele><time>2026-03-29T16:33:49.993Z</time></trkpt><trkpt lat="45.357495432450776" lon="8.388337980362783"><ele>136.0</ele><time>2026-03-29T16:33:50.993Z</time></trkpt><trkpt lat="45.35763349412078" lon="8.388219498168395"><ele>136.0</ele><time>2026-03-29T16:33:51.993Z</time></trkpt><trkpt lat="45.35777148413079" lon="8.388098290399029"><ele>136.0</ele><time>2026-03-29T16:33:52.993Z</time></trkpt><trkpt lat="45.35790720267364" lon="8.387972242381005"><ele>136.0</ele><time>2026-03-29T16:33:53.993Z</time></trkpt><trkpt lat="45.35804071521941" lon="8.3878466138975"><ele>136.0</ele><time>2026-03-29T16:33:54.993Z</time></trkpt><trkpt lat="45.35817100405234" lon="8.387735029534374"><ele>136.0</ele><time>2026-03-29T16:33:55.993Z</time></trkpt><trkpt lat="45.358289099866404" lon="8.387634336196234"><ele>136.0</ele><time>2026-03-29T16:33:56.993Z</time></trkpt><trkpt lat="45.35839220724764" lon="8.387548905615391"><ele>136.0</ele><time>2026-03-29T16:33:57.993Z</time></trkpt><trkpt lat="45.358484794261095" lon="8.387467676031578"><ele>136.0</ele><time>2026-03-29T16:33:58.993Z</time></trkpt><trkpt lat="45.358570555773895" lon="8.38738930319041"><ele>136.0</ele><time>2026-03-29T16:33:59.993Z</time></trkpt><trkpt lat="45.358644830045975" lon="8.387311702745173"><ele>136.0</ele><time>2026-03-29T16:34:00.993Z</time></trkpt><trkpt lat="45.35871654020219" lon="8.387249234720377"><ele>135.99999999999997</ele><time>2026-03-29T16:34:01.993Z</time></trkpt><trkpt lat="45.35878838286274" lon="8.38721322238756"><ele>136.0</ele><time>2026-03-29T16:34:02.993Z</time></trkpt><trkpt lat="45.35885798465497" lon="8.387192949883008"><ele>136.0</ele><time>2026-03-29T16:34:03.993Z</time></trkpt><trkpt lat="45.35892272259048" lon="8.38718428723679"><ele>136.0</ele><time>2026-03-29T16:34:04.993Z</time></trkpt><trkpt lat="45.358986016460136" lon="8.387168909462927"><ele>136.0</ele><time>2026-03-29T16:34:05.993Z</time></trkpt><trkpt lat="45.35904416459744" lon="8.387123335262157"><ele>135.99999999999997</ele><time>2026-03-29T16:34:06.993Z</time></trkpt><trkpt lat="45.35909088301183" lon="8.387045433286463"><ele>136.0</ele><time>2026-03-29T16:34:07.993Z</time></trkpt><trkpt lat="45.3591346396311" lon="8.3869507904249"><ele>136.2</ele><time>2026-03-29T16:34:08.993Z</time></trkpt><trkpt lat="45.35919473708088" lon="8.386861659227925"><ele>136.39999999999998</ele><time>2026-03-29T16:34:09.993Z</time></trkpt><trkpt lat="45.359270679187674" lon="8.386778308549118"><ele>136.6</ele><time>2026-03-29T16:34:10.993Z</time></trkpt><trkpt lat="45.35935891098211" lon="8.386690922118325"><ele>136.79999999999998</ele><time>2026-03-29T16:34:11.993Z</time></trkpt><trkpt lat="45.35945880846792" lon="8.386594996601469"><ele>137.0</ele><time>2026-03-29T16:34:12.993Z</time></trkpt><trkpt lat="45.35957068478543" lon="8.38649142068737"><ele>137.0</ele><time>2026-03-29T16:34:13.993Z</time></trkpt><trkpt lat="45.35969103114711" lon="8.386379774526999"><ele>137.0</ele><time>2026-03-29T16:34:14.993Z</time></trkpt><trkpt lat="45.35982135340726" lon="8.386259798859651"><ele>137.0</ele><time>2026-03-29T16:34:15.992Z</time></trkpt><trkpt lat="45.35995717859143" lon="8.386131535195194"><ele>137.0</ele><time>2026-03-29T16:34:16.992Z</time></trkpt><trkpt lat="45.36009859104731" lon="8.3860028996344"><ele>137.0</ele><time>2026-03-29T16:34:17.992Z</time></trkpt><trkpt lat="45.36024631109524" lon="8.38587051221113"><ele>137.0</ele><time>2026-03-29T16:34:18.992Z</time></trkpt><trkpt lat="45.3604038585181" lon="8.385730208770381"><ele>136.66666666666666</ele><time>2026-03-29T16:34:19.992Z</time></trkpt><trkpt lat="45.36056229950271" lon="8.385600359397428"><ele>136.33333333333334</ele><time>2026-03-29T16:34:20.992Z</time></trkpt><trkpt lat="45.36071217010254" lon="8.385472886561482"><ele>136.0</ele><time>2026-03-29T16:34:21.992Z</time></trkpt><trkpt lat="45.36085888418206" lon="8.38534654691697"><ele>136.0</ele><time>2026-03-29T16:34:22.992Z</time></trkpt><trkpt lat="45.36100800447969" lon="8.385213594871688"><ele>136.0</ele><time>2026-03-29T16:34:23.992Z</time></trkpt><trkpt lat="45.36115995665367" lon="8.385080338629093"><ele>136.0</ele><time>2026-03-29T16:34:24.992Z</time></trkpt><trkpt lat="45.36131328700847" lon="8.384945786227382"><ele>136.33333333333334</ele><time>2026-03-29T16:34:25.992Z</time></trkpt><trkpt lat="45.3614645406342" lon="8.38480600917194"><ele>136.66666666666666</ele><time>2026-03-29T16:34:26.992Z</time></trkpt><trkpt lat="45.361616377136635" lon="8.38466469976343"><ele>137.0</ele><time>2026-03-29T16:34:27.992Z</time></trkpt><trkpt lat="45.36177059293425" lon="8.384526072836755"><ele>137.33333333333331</ele><time>2026-03-29T16:34:28.992Z</time></trkpt><trkpt lat="45.36192629833834" lon="8.384387104651495"><ele>137.66666666666666</ele><time>2026-03-29T16:34:29.992Z</time></trkpt><trkpt lat="45.36208333646438" lon="8.384244307904849"><ele>138.0</ele><time>2026-03-29T16:34:30.992Z</time></trkpt><trkpt lat="45.36224341448377" lon="8.384097453150726"><ele>138.0</ele><time>2026-03-29T16:34:31.992Z</time></trkpt><trkpt lat="45.36240954098889" lon="8.383946759180118"><ele>138.0</ele><time>2026-03-29T16:34:32.992Z</time></trkpt><trkpt lat="45.36257574247861" lon="8.383796204904792"><ele>138.0</ele><time>2026-03-29T16:34:33.992Z</time></trkpt><trkpt lat="45.36274082632774" lon="8.38364908588919"><ele>138.0</ele><time>2026-03-29T16:34:34.992Z</time></trkpt><trkpt lat="45.36290443615558" lon="8.383501937832746"><ele>138.0</ele><time>2026-03-29T16:34:35.992Z</time></trkpt><trkpt lat="45.36306240400563" lon="8.383350240101008"><ele>138.0</ele><time>2026-03-29T16:34:36.992Z</time></trkpt><trkpt lat="45.363217586840925" lon="8.383202868317465"><ele>138.0</ele><time>2026-03-29T16:34:37.992Z</time></trkpt><trkpt lat="45.36337640244935" lon="8.383047114175138"><ele>138.0</ele><time>2026-03-29T16:34:38.992Z</time></trkpt><trkpt lat="45.36354139532732" lon="8.382888432446283"><ele>138.0</ele><time>2026-03-29T16:34:39.992Z</time></trkpt><trkpt lat="45.36371180523656" lon="8.382732545973283"><ele>137.66666666666666</ele><time>2026-03-29T16:34:40.992Z</time></trkpt><trkpt lat="45.36388871597253" lon="8.382577699416355"><ele>137.33333333333331</ele><time>2026-03-29T16:34:41.992Z</time></trkpt><trkpt lat="45.36406597113013" lon="8.382421897477853"><ele>137.0</ele><time>2026-03-29T16:34:42.992Z</time></trkpt><trkpt lat="45.36424658840936" lon="8.382267994994253"><ele>137.0</ele><time>2026-03-29T16:34:43.992Z</time></trkpt><trkpt lat="45.36442821951687" lon="8.382117864200216"><ele>137.0</ele><time>2026-03-29T16:34:44.992Z</time></trkpt><trkpt lat="45.36460512582323" lon="8.38196203048489"><ele>137.0</ele><time>2026-03-29T16:34:45.992Z</time></trkpt><trkpt lat="45.36477644842484" lon="8.381802922909205"><ele>137.66666666666666</ele><time>2026-03-29T16:34:46.992Z</time></trkpt><trkpt lat="45.36494798411969" lon="8.38164529989702"><ele>138.33333333333334</ele><time>2026-03-29T16:34:47.992Z</time></trkpt><trkpt lat="45.365118182293294" lon="8.38148927687831"><ele>139.0</ele><time>2026-03-29T16:34:48.992Z</time></trkpt><trkpt lat="45.365288114932724" lon="8.381332331398367"><ele>139.0</ele><time>2026-03-29T16:34:49.992Z</time></trkpt><trkpt lat="45.36546018484153" lon="8.381168926866088"><ele>139.0</ele><time>2026-03-29T16:34:50.992Z</time></trkpt><trkpt lat="45.36563261085577" lon="8.38100526461368"><ele>139.0</ele><time>2026-03-29T16:34:51.992Z</time></trkpt><trkpt lat="45.36580950721839" lon="8.380841871671864"><ele>138.66666666666669</ele><time>2026-03-29T16:34:52.992Z</time></trkpt><trkpt lat="45.36599217098326" lon="8.380677644227799"><ele>138.33333333333334</ele><time>2026-03-29T16:34:53.992Z</time></trkpt><trkpt lat="45.36617479141614" lon="8.380507205725687"><ele>138.0</ele><time>2026-03-29T16:34:54.992Z</time></trkpt><trkpt lat="45.36636211804151" lon="8.380333983682618"><ele>137.5</ele><time>2026-03-29T16:34:55.992Z</time></trkpt><trkpt lat="45.366554717285" lon="8.380170605162691"><ele>137.0</ele><time>2026-03-29T16:34:56.992Z</time></trkpt><trkpt lat="45.36675081336744" lon="8.380011666971974"><ele>137.0</ele><time>2026-03-29T16:34:57.992Z</time></trkpt><trkpt lat="45.36694638955827" lon="8.379839207247233"><ele>137.0</ele><time>2026-03-29T16:34:58.992Z</time></trkpt><trkpt lat="45.367140910014534" lon="8.379663041472297"><ele>136.0</ele><time>2026-03-29T16:34:59.992Z</time></trkpt><trkpt lat="45.36734071429202" lon="8.379492325797367"><ele>135.0</ele><time>2026-03-29T16:35:00.992Z</time></trkpt><trkpt lat="45.36754098993915" lon="8.379317653975326"><ele>135.0</ele><time>2026-03-29T16:35:01.992Z</time></trkpt><trkpt lat="45.367742758726" lon="8.379137917907126"><ele>135.0</ele><time>2026-03-29T16:35:02.992Z</time></trkpt><trkpt lat="45.36794153953414" lon="8.378960609470731"><ele>135.0</ele><time>2026-03-29T16:35:03.992Z</time></trkpt><trkpt lat="45.36813081494893" lon="8.378791721657802"><ele>135.0</ele><time>2026-03-29T16:35:04.992Z</time></trkpt><trkpt lat="45.3683232008538" lon="8.378621966212128"><ele>135.0</ele><time>2026-03-29T16:35:05.991Z</time></trkpt><trkpt lat="45.368515813762784" lon="8.37845408425761"><ele>135.0</ele><time>2026-03-29T16:35:06.991Z</time></trkpt><trkpt lat="45.36870792791189" lon="8.3782852221937"><ele>134.5</ele><time>2026-03-29T16:35:07.991Z</time></trkpt><trkpt lat="45.36890180940571" lon="8.37811736593401"><ele>134.0</ele><time>2026-03-29T16:35:08.991Z</time></trkpt><trkpt lat="45.36909414333911" lon="8.37794830968245"><ele>134.0</ele><time>2026-03-29T16:35:09.991Z</time></trkpt><trkpt lat="45.36928654791615" lon="8.377773989334647"><ele>134.0</ele><time>2026-03-29T16:35:10.991Z</time></trkpt><trkpt lat="45.36948189306107" lon="8.37760035911265"><ele>134.0</ele><time>2026-03-29T16:35:11.991Z</time></trkpt><trkpt lat="45.36967762157032" lon="8.377426181163319"><ele>134.0</ele><time>2026-03-29T16:35:12.991Z</time></trkpt><trkpt lat="45.369873837905324" lon="8.377251825968196"><ele>133.5</ele><time>2026-03-29T16:35:13.991Z</time></trkpt><trkpt lat="45.37006865356594" lon="8.377076115042708"><ele>133.0</ele><time>2026-03-29T16:35:14.991Z</time></trkpt><trkpt lat="45.37026153850579" lon="8.376901313657019"><ele>133.0</ele><time>2026-03-29T16:35:15.991Z</time></trkpt><trkpt lat="45.37045404737689" lon="8.376733468826197"><ele>133.0</ele><time>2026-03-29T16:35:16.991Z</time></trkpt><trkpt lat="45.37064694966092" lon="8.376568285616266"><ele>133.0</ele><time>2026-03-29T16:35:17.991Z</time></trkpt><trkpt lat="45.370838940813314" lon="8.376398095745724"><ele>133.0</ele><time>2026-03-29T16:35:18.991Z</time></trkpt><trkpt lat="45.37102781458098" lon="8.376227037192033"><ele>133.0</ele><time>2026-03-29T16:35:19.991Z</time></trkpt><trkpt lat="45.3712156070641" lon="8.376058115540044"><ele>133.0</ele><time>2026-03-29T16:35:20.991Z</time></trkpt><trkpt lat="45.371402176910806" lon="8.375890188060943"><ele>133.0</ele><time>2026-03-29T16:35:21.991Z</time></trkpt><trkpt lat="45.37158831868192" lon="8.375723409721264"><ele>133.33333333333334</ele><time>2026-03-29T16:35:22.991Z</time></trkpt><trkpt lat="45.37177525180203" lon="8.375561648335676"><ele>133.66666666666666</ele><time>2026-03-29T16:35:23.991Z</time></trkpt><trkpt lat="45.37196215545171" lon="8.375400733803856"><ele>134.0</ele><time>2026-03-29T16:35:24.991Z</time></trkpt><trkpt lat="45.372149071125115" lon="8.375235501479557"><ele>133.66666666666666</ele><time>2026-03-29T16:35:25.991Z</time></trkpt><trkpt lat="45.37233516552467" lon="8.37506909677942"><ele>133.33333333333334</ele><time>2026-03-29T16:35:26.991Z</time></trkpt><trkpt lat="45.3725240098204" lon="8.374911148995851"><ele>133.0</ele><time>2026-03-29T16:35:27.991Z</time></trkpt><trkpt lat="45.372718560311434" lon="8.37476612075689"><ele>132.66666666666669</ele><time>2026-03-29T16:35:28.993Z</time></trkpt><trkpt lat="45.372917360082454" lon="8.374630267204292"><ele>132.33333333333334</ele><time>2026-03-29T16:35:29.993Z</time></trkpt><trkpt lat="45.37312042544654" lon="8.37450293834731"><ele>132.0</ele><time>2026-03-29T16:35:30.993Z</time></trkpt><trkpt lat="45.37332447895055" lon="8.374389515362193"><ele>132.66666666666666</ele><time>2026-03-29T16:35:31.993Z</time></trkpt><trkpt lat="45.373529465891814" lon="8.374287817278947"><ele>133.33333333333331</ele><time>2026-03-29T16:35:32.992Z</time></trkpt><trkpt lat="45.37373459291688" lon="8.37419849149103"><ele>134.0</ele><time>2026-03-29T16:35:33.992Z</time></trkpt><trkpt lat="45.37393464895233" lon="8.374121546658623"><ele>134.33333333333331</ele><time>2026-03-29T16:35:34.993Z</time></trkpt><trkpt lat="45.37412471961427" lon="8.374046913246156"><ele>134.66666666666666</ele><time>2026-03-29T16:35:35.992Z</time></trkpt><trkpt lat="45.374309721685904" lon="8.373973998922397"><ele>135.0</ele><time>2026-03-29T16:35:36.992Z</time></trkpt><trkpt lat="45.374488035890835" lon="8.373903040353143"><ele>135.66666666666666</ele><time>2026-03-29T16:35:37.992Z</time></trkpt><trkpt lat="45.3746554186298" lon="8.373834379806473"><ele>136.33333333333331</ele><time>2026-03-29T16:35:38.993Z</time></trkpt><trkpt lat="45.37481008090542" lon="8.373765333439103"><ele>137.0</ele><time>2026-03-29T16:35:39.993Z</time></trkpt><trkpt lat="45.37495686750946" lon="8.373703366115219"><ele>137.0</ele><time>2026-03-29T16:35:40.993Z</time></trkpt><trkpt lat="45.375098281165286" lon="8.37364509563782"><ele>137.0</ele><time>2026-03-29T16:35:41.992Z</time></trkpt><trkpt lat="45.3752203271051" lon="8.373589814821429"><ele>137.0</ele><time>2026-03-29T16:35:42.992Z</time></trkpt><trkpt lat="45.375331034789035" lon="8.373519280658998"><ele>137.0</ele><time>2026-03-29T16:35:43.992Z</time></trkpt><trkpt lat="45.37543006104253" lon="8.373427600330464"><ele>136.5</ele><time>2026-03-29T16:35:44.992Z</time></trkpt><trkpt lat="45.375520742030574" lon="8.373312536819334"><ele>136.0</ele><time>2026-03-29T16:35:45.992Z</time></trkpt><trkpt lat="45.37559100991003" lon="8.37315738599756"><ele>135.5</ele><time>2026-03-29T16:35:46.992Z</time></trkpt><trkpt lat="45.37565605511818" lon="8.372978579845503"><ele>135.0</ele><time>2026-03-29T16:35:47.992Z</time></trkpt><trkpt lat="45.37572586141195" lon="8.372791218374392"><ele>135.0</ele><time>2026-03-29T16:35:48.992Z</time></trkpt><trkpt lat="45.37580886769733" lon="8.372594501643322"><ele>135.0</ele><time>2026-03-29T16:35:49.992Z</time></trkpt><trkpt lat="45.375893559214674" lon="8.372383583435175"><ele>135.0</ele><time>2026-03-29T16:35:50.992Z</time></trkpt><trkpt lat="45.37597228497646" lon="8.372163374822707"><ele>135.0</ele><time>2026-03-29T16:35:51.992Z</time></trkpt><trkpt lat="45.376052882511075" lon="8.37193827949778"><ele>135.0</ele><time>2026-03-29T16:35:52.992Z</time></trkpt><trkpt lat="45.376131698613555" lon="8.37172243252777"><ele>135.0</ele><time>2026-03-29T16:35:53.992Z</time></trkpt><trkpt lat="45.376209084868" lon="8.371520770291262"><ele>135.0</ele><time>2026-03-29T16:35:54.992Z</time></trkpt><trkpt lat="45.37629238546363" lon="8.371327672629874"><ele>135.0</ele><time>2026-03-29T16:35:55.992Z</time></trkpt><trkpt lat="45.37639117549984" lon="8.3711391815439"><ele>135.0</ele><time>2026-03-29T16:35:56.992Z</time></trkpt><trkpt lat="45.37650780993773" lon="8.37095925247179"><ele>135.33333333333334</ele><time>2026-03-29T16:35:57.992Z</time></trkpt><trkpt lat="45.37663621260832" lon="8.37078749103868"><ele>135.66666666666669</ele><time>2026-03-29T16:35:58.992Z</time></trkpt><trkpt lat="45.376770289746446" lon="8.3706100364912"><ele>136.0</ele><time>2026-03-29T16:35:59.992Z</time></trkpt><trkpt lat="45.37690884492764" lon="8.370427191715544"><ele>136.0</ele><time>2026-03-29T16:36:00.992Z</time></trkpt><trkpt lat="45.37705312946143" lon="8.370237250026783"><ele>136.0</ele><time>2026-03-29T16:36:01.992Z</time></trkpt><trkpt lat="45.377199355762826" lon="8.370042369484532"><ele>136.0</ele><time>2026-03-29T16:36:02.992Z</time></trkpt><trkpt lat="45.37734879031354" lon="8.36984170141689"><ele>136.0</ele><time>2026-03-29T16:36:03.992Z</time></trkpt><trkpt lat="45.3775005059437" lon="8.369633433899919"><ele>136.0</ele><time>2026-03-29T16:36:04.992Z</time></trkpt><trkpt lat="45.3776534607224" lon="8.369421064639178"><ele>136.0</ele><time>2026-03-29T16:36:05.992Z</time></trkpt><trkpt lat="45.377809310242185" lon="8.369200919344271"><ele>136.0</ele><time>2026-03-29T16:36:06.992Z</time></trkpt><trkpt lat="45.37796809373372" lon="8.368986406784451"><ele>136.0</ele><time>2026-03-29T16:36:07.992Z</time></trkpt><trkpt lat="45.378118070350986" lon="8.368784561545489"><ele>136.0</ele><time>2026-03-29T16:36:08.992Z</time></trkpt><trkpt lat="45.37826048956782" lon="8.368593782618325"><ele>135.66666666666669</ele><time>2026-03-29T16:36:09.992Z</time></trkpt><trkpt lat="45.378403957456854" lon="8.368400777583135"><ele>135.33333333333334</ele><time>2026-03-29T16:36:10.992Z</time></trkpt><trkpt lat="45.37854982202899" lon="8.36820373122697"><ele>135.0</ele><time>2026-03-29T16:36:11.992Z</time></trkpt><trkpt lat="45.378694599635466" lon="8.368000357473262"><ele>135.0</ele><time>2026-03-29T16:36:12.992Z</time></trkpt><trkpt lat="45.37884216265768" lon="8.367796384234712"><ele>135.0</ele><time>2026-03-29T16:36:13.992Z</time></trkpt><trkpt lat="45.37899418207291" lon="8.367592855108178"><ele>135.0</ele><time>2026-03-29T16:36:14.992Z</time></trkpt><trkpt lat="45.37914664787402" lon="8.367385906366163"><ele>136.0</ele><time>2026-03-29T16:36:15.992Z</time></trkpt><trkpt lat="45.37929758217318" lon="8.367174294399184"><ele>137.0</ele><time>2026-03-29T16:36:16.992Z</time></trkpt><trkpt lat="45.37945073856303" lon="8.366961105549592"><ele>138.0</ele><time>2026-03-29T16:36:17.992Z</time></trkpt><trkpt lat="45.37961117394091" lon="8.366748131015727"><ele>137.66666666666666</ele><time>2026-03-29T16:36:18.992Z</time></trkpt><trkpt lat="45.379771842150376" lon="8.366533397781376"><ele>137.33333333333331</ele><time>2026-03-29T16:36:19.992Z</time></trkpt><trkpt lat="45.3799334502978" lon="8.366316133151388"><ele>137.0</ele><time>2026-03-29T16:36:20.992Z</time></trkpt><trkpt lat="45.380096016762344" lon="8.366095947338781"><ele>137.0</ele><time>2026-03-29T16:36:21.992Z</time></trkpt><trkpt lat="45.38026137175769" lon="8.36587243575478"><ele>137.0</ele><time>2026-03-29T16:36:22.992Z</time></trkpt><trkpt lat="45.38042705854717" lon="8.365648130469543"><ele>136.5</ele><time>2026-03-29T16:36:23.992Z</time></trkpt><trkpt lat="45.38059088496845" lon="8.365416899077951"><ele>136.0</ele><time>2026-03-29T16:36:24.992Z</time></trkpt><trkpt lat="45.38075048137241" lon="8.365179858294285"><ele>136.0</ele><time>2026-03-29T16:36:25.992Z</time></trkpt><trkpt lat="45.38090950458715" lon="8.36493605421376"><ele>136.0</ele><time>2026-03-29T16:36:26.992Z</time></trkpt><trkpt lat="45.38106580864615" lon="8.36468378557772"><ele>136.5</ele><time>2026-03-29T16:36:27.991Z</time></trkpt><trkpt lat="45.38121784435265" lon="8.36442570911862"><ele>137.0</ele><time>2026-03-29T16:36:28.991Z</time></trkpt><trkpt lat="45.381365593431035" lon="8.364159656665128"><ele>137.0</ele><time>2026-03-29T16:36:29.991Z</time></trkpt><trkpt lat="45.38150949202352" lon="8.36388779822034"><ele>137.0</ele><time>2026-03-29T16:36:30.991Z</time></trkpt><trkpt lat="45.38164765208926" lon="8.363611355920616"><ele>137.0</ele><time>2026-03-29T16:36:31.991Z</time></trkpt><trkpt lat="45.38178343564234" lon="8.363331767686132"><ele>137.0</ele><time>2026-03-29T16:36:32.991Z</time></trkpt><trkpt lat="45.38191825361906" lon="8.363048412810416"><ele>137.0</ele><time>2026-03-29T16:36:33.991Z</time></trkpt><trkpt lat="45.38205205279308" lon="8.362765985571208"><ele>137.0</ele><time>2026-03-29T16:36:34.991Z</time></trkpt><trkpt lat="45.382185437458276" lon="8.362484346553204"><ele>137.0</ele><time>2026-03-29T16:36:35.991Z</time></trkpt><trkpt lat="45.38231536929016" lon="8.362202904093916"><ele>137.0</ele><time>2026-03-29T16:36:36.991Z</time></trkpt><trkpt lat="45.3824431644851" lon="8.361924012267046"><ele>137.0</ele><time>2026-03-29T16:36:37.991Z</time></trkpt><trkpt lat="45.38257381254089" lon="8.361647835853889"><ele>137.0</ele><time>2026-03-29T16:36:38.991Z</time></trkpt><trkpt lat="45.38270438455902" lon="8.361373330088629"><ele>137.5</ele><time>2026-03-29T16:36:39.991Z</time></trkpt><trkpt lat="45.38283370487165" lon="8.36110273706535"><ele>138.0</ele><time>2026-03-29T16:36:40.991Z</time></trkpt><trkpt lat="45.3829622233954" lon="8.360833846249317"><ele>138.0</ele><time>2026-03-29T16:36:41.991Z</time></trkpt><trkpt lat="45.38308756106056" lon="8.360567885373511"><ele>138.0</ele><time>2026-03-29T16:36:42.991Z</time></trkpt><trkpt lat="45.3832095272615" lon="8.360304125242166"><ele>138.0</ele><time>2026-03-29T16:36:43.991Z</time></trkpt><trkpt lat="45.38332975652419" lon="8.36004193474911"><ele>138.0</ele><time>2026-03-29T16:36:44.991Z</time></trkpt><trkpt lat="45.38344999674178" lon="8.359781006166262"><ele>138.0</ele><time>2026-03-29T16:36:45.991Z</time></trkpt><trkpt lat="45.38356937308954" lon="8.3595241641789"><ele>138.0</ele><time>2026-03-29T16:36:46.991Z</time></trkpt><trkpt lat="45.383688959665264" lon="8.359268984651315"><ele>138.0</ele><time>2026-03-29T16:36:47.991Z</time></trkpt><trkpt lat="45.383806533243614" lon="8.35901481052555"><ele>138.0</ele><time>2026-03-29T16:36:48.991Z</time></trkpt><trkpt lat="45.38392443713911" lon="8.358761737692896"><ele>138.0</ele><time>2026-03-29T16:36:49.991Z</time></trkpt><trkpt lat="45.384042687195496" lon="8.358505398160261"><ele>138.33333333333334</ele><time>2026-03-29T16:36:50.991Z</time></trkpt><trkpt lat="45.38416372065972" lon="8.358248110815788"><ele>138.66666666666669</ele><time>2026-03-29T16:36:51.991Z</time></trkpt><trkpt lat="45.38428843423799" lon="8.357986536183056"><ele>139.0</ele><time>2026-03-29T16:36:52.991Z</time></trkpt><trkpt lat="45.38441461195621" lon="8.357721578929016"><ele>139.0</ele><time>2026-03-29T16:36:53.991Z</time></trkpt><trkpt lat="45.38454089331882" lon="8.357453713102139"><ele>139.0</ele><time>2026-03-29T16:36:54.991Z</time></trkpt><trkpt lat="45.38466871227588" lon="8.357178854748783"><ele>138.5</ele><time>2026-03-29T16:36:55.991Z</time></trkpt><trkpt lat="45.38479622431262" lon="8.35690028241078"><ele>138.0</ele><time>2026-03-29T16:36:56.991Z</time></trkpt><trkpt lat="45.38492313531349" lon="8.356622980066128"><ele>139.0</ele><time>2026-03-29T16:36:57.991Z</time></trkpt><trkpt lat="45.385049831068386" lon="8.356348467249717"><ele>140.0</ele><time>2026-03-29T16:36:58.991Z</time></trkpt><trkpt lat="45.38517639144296" lon="8.356077476452025"><ele>140.0</ele><time>2026-03-29T16:36:59.991Z</time></trkpt><trkpt lat="45.38530281262676" lon="8.355807673623053"><ele>140.0</ele><time>2026-03-29T16:37:00.991Z</time></trkpt><trkpt lat="45.38542809776066" lon="8.355538829088111"><ele>140.33333333333331</ele><time>2026-03-29T16:37:01.991Z</time></trkpt><trkpt lat="45.38555544647776" lon="8.355277464356785"><ele>140.66666666666666</ele><time>2026-03-29T16:37:02.991Z</time></trkpt><trkpt lat="45.38569263441997" lon="8.355034555798822"><ele>141.0</ele><time>2026-03-29T16:37:03.991Z</time></trkpt><trkpt lat="45.38584375805144" lon="8.354812407031757"><ele>140.66666666666666</ele><time>2026-03-29T16:37:04.991Z</time></trkpt><trkpt lat="45.386009432888955" lon="8.354615658488466"><ele>140.33333333333331</ele><time>2026-03-29T16:37:05.991Z</time></trkpt><trkpt lat="45.38618697619834" lon="8.354441224153407"><ele>140.0</ele><time>2026-03-29T16:37:06.991Z</time></trkpt><trkpt lat="45.386374928682834" lon="8.35429306109073"><ele>140.0</ele><time>2026-03-29T16:37:07.991Z</time></trkpt><trkpt lat="45.3865746535457" lon="8.35416655891338"><ele>140.0</ele><time>2026-03-29T16:37:08.991Z</time></trkpt><trkpt lat="45.38678270500826" lon="8.354065326795636"><ele>140.0</ele><time>2026-03-29T16:37:09.991Z</time></trkpt><trkpt lat="45.38699583123528" lon="8.353996755867293"><ele>140.33333333333331</ele><time>2026-03-29T16:37:10.991Z</time></trkpt><trkpt lat="45.38721635329853" lon="8.35396641235205"><ele>140.66666666666666</ele><time>2026-03-29T16:37:11.991Z</time></trkpt><trkpt lat="45.38743842213988" lon="8.353965836700457"><ele>141.0</ele><time>2026-03-29T16:37:12.991Z</time></trkpt><trkpt lat="45.387657430484786" lon="8.353992959892004"><ele>141.0</ele><time>2026-03-29T16:37:13.991Z</time></trkpt><trkpt lat="45.38787613594816" lon="8.354046364656623"><ele>141.0</ele><time>2026-03-29T16:37:14.991Z</time></trkpt><trkpt lat="45.388092752602034" lon="8.354128756968587"><ele>141.0</ele><time>2026-03-29T16:37:15.991Z</time></trkpt><trkpt lat="45.388302731310084" lon="8.354244390030235"><ele>141.5</ele><time>2026-03-29T16:37:16.991Z</time></trkpt><trkpt lat="45.38850429372517" lon="8.354384302096618"><ele>142.0</ele><time>2026-03-29T16:37:17.99Z</time></trkpt><trkpt lat="45.38870648756467" lon="8.354530428385868"><ele>141.5</ele><time>2026-03-29T16:37:18.99Z</time></trkpt><trkpt lat="45.38890768417519" lon="8.354678759583768"><ele>141.0</ele><time>2026-03-29T16:37:19.99Z</time></trkpt><trkpt lat="45.38910907408747" lon="8.354824204960389"><ele>140.66666666666666</ele><time>2026-03-29T16:37:20.99Z</time></trkpt><trkpt lat="45.38930548244343" lon="8.35496777642836"><ele>140.33333333333331</ele><time>2026-03-29T16:37:21.99Z</time></trkpt><trkpt lat="45.38949693457479" lon="8.355109508864542"><ele>140.0</ele><time>2026-03-29T16:37:22.99Z</time></trkpt><trkpt lat="45.38968681608166" lon="8.35522966193517"><ele>140.0</ele><time>2026-03-29T16:37:23.99Z</time></trkpt><trkpt lat="45.38988178356653" lon="8.355325388605646"><ele>140.0</ele><time>2026-03-29T16:37:24.99Z</time></trkpt><trkpt lat="45.390086769655376" lon="8.35540031604161"><ele>140.0</ele><time>2026-03-29T16:37:25.99Z</time></trkpt><trkpt lat="45.390297748970745" lon="8.35544707172748"><ele>139.33333333333331</ele><time>2026-03-29T16:37:26.99Z</time></trkpt><trkpt lat="45.39051229204863" lon="8.355468887533926"><ele>138.66666666666666</ele><time>2026-03-29T16:37:27.99Z</time></trkpt><trkpt lat="45.39073390047934" lon="8.355457861816003"><ele>138.0</ele><time>2026-03-29T16:37:28.99Z</time></trkpt><trkpt lat="45.390959168536945" lon="8.355415274331508"><ele>138.0</ele><time>2026-03-29T16:37:29.99Z</time></trkpt><trkpt lat="45.39118511967939" lon="8.355339281917308"><ele>138.0</ele><time>2026-03-29T16:37:30.99Z</time></trkpt><trkpt lat="45.39140977848773" lon="8.355231834739321"><ele>138.0</ele><time>2026-03-29T16:37:31.99Z</time></trkpt><trkpt lat="45.39162766431473" lon="8.355087772039106"><ele>138.0</ele><time>2026-03-29T16:37:32.99Z</time></trkpt><trkpt lat="45.39183798877898" lon="8.354917059842343"><ele>138.0</ele><time>2026-03-29T16:37:33.99Z</time></trkpt><trkpt lat="45.392041348533695" lon="8.354716792877937"><ele>138.0</ele><time>2026-03-29T16:37:34.993Z</time></trkpt><trkpt lat="45.39223089110925" lon="8.354486394403052"><ele>138.5</ele><time>2026-03-29T16:37:35.992Z</time></trkpt><trkpt lat="45.392418262001215" lon="8.354242167400555"><ele>139.0</ele><time>2026-03-29T16:37:36.992Z</time></trkpt><trkpt lat="45.39261105004265" lon="8.354000594526964"><ele>139.0</ele><time>2026-03-29T16:37:37.993Z</time></trkpt><trkpt lat="45.39280402537706" lon="8.353759973391663"><ele>139.0</ele><time>2026-03-29T16:37:38.993Z</time></trkpt><trkpt lat="45.39299333606195" lon="8.353521908622508"><ele>139.0</ele><time>2026-03-29T16:37:39.993Z</time></trkpt><trkpt lat="45.39318168392301" lon="8.353290189800557"><ele>139.0</ele><time>2026-03-29T16:37:40.992Z</time></trkpt><trkpt lat="45.393367857919856" lon="8.353063699024606"><ele>139.5</ele><time>2026-03-29T16:37:41.993Z</time></trkpt><trkpt lat="45.393553055449026" lon="8.352837517623199"><ele>140.0</ele><time>2026-03-29T16:37:42.993Z</time></trkpt><trkpt lat="45.3937366524002" lon="8.352612466094838"><ele>139.5</ele><time>2026-03-29T16:37:43.993Z</time></trkpt><trkpt lat="45.39391798149062" lon="8.352391177468725"><ele>139.0</ele><time>2026-03-29T16:37:44.993Z</time></trkpt><trkpt lat="45.39409848141455" lon="8.352172928511191"><ele>138.5</ele><time>2026-03-29T16:37:45.993Z</time></trkpt><trkpt lat="45.39427782962903" lon="8.3519568420901"><ele>138.0</ele><time>2026-03-29T16:37:46.993Z</time></trkpt><trkpt lat="45.39445752385865" lon="8.351741074005238"><ele>138.0</ele><time>2026-03-29T16:37:47.993Z</time></trkpt><trkpt lat="45.3946347670971" lon="8.351523784259124"><ele>138.0</ele><time>2026-03-29T16:37:48.993Z</time></trkpt><trkpt lat="45.39480911743871" lon="8.351306765423455"><ele>139.33333333333334</ele><time>2026-03-29T16:37:49.993Z</time></trkpt><trkpt lat="45.394979201015225" lon="8.351094793522146"><ele>140.66666666666669</ele><time>2026-03-29T16:37:50.993Z</time></trkpt><trkpt lat="45.3951424892188" lon="8.350889315031786"><ele>142.0</ele><time>2026-03-29T16:37:51.993Z</time></trkpt><trkpt lat="45.395296550284144" lon="8.350695521867289"><ele>142.0</ele><time>2026-03-29T16:37:52.993Z</time></trkpt><trkpt lat="45.39544476769924" lon="8.350515353290781"><ele>142.0</ele><time>2026-03-29T16:37:53.993Z</time></trkpt><trkpt lat="45.395587638952854" lon="8.350344444180925"><ele>142.0</ele><time>2026-03-29T16:37:54.993Z</time></trkpt><trkpt lat="45.39572392350125" lon="8.350181881992963"><ele>142.0</ele><time>2026-03-29T16:37:55.993Z</time></trkpt><trkpt lat="45.39585480916957" lon="8.350022721930257"><ele>142.0</ele><time>2026-03-29T16:37:56.993Z</time></trkpt><trkpt lat="45.39597799819518" lon="8.349869223547246"><ele>142.0</ele><time>2026-03-29T16:37:57.993Z</time></trkpt><trkpt lat="45.39610032786483" lon="8.34971480492011"><ele>142.0</ele><time>2026-03-29T16:37:58.993Z</time></trkpt><trkpt lat="45.39621814762898" lon="8.34956530135178"><ele>142.0</ele><time>2026-03-29T16:37:59.993Z</time></trkpt><trkpt lat="45.396328631078035" lon="8.349409532754832"><ele>142.0</ele><time>2026-03-29T16:38:00.993Z</time></trkpt><trkpt lat="45.396426982969984" lon="8.349245727106409"><ele>142.0</ele><time>2026-03-29T16:38:01.993Z</time></trkpt><trkpt lat="45.39652396796403" lon="8.349081078071608"><ele>142.0</ele><time>2026-03-29T16:38:02.993Z</time></trkpt><trkpt lat="45.39661695916894" lon="8.34891201109982"><ele>142.0</ele><time>2026-03-29T16:38:03.993Z</time></trkpt><trkpt lat="45.39670286388679" lon="8.34874447162671"><ele>142.0</ele><time>2026-03-29T16:38:04.993Z</time></trkpt><trkpt lat="45.3967752485499" lon="8.348569917868033"><ele>142.5</ele><time>2026-03-29T16:38:05.993Z</time></trkpt><trkpt lat="45.39682994984076" lon="8.348389960472188"><ele>143.0</ele><time>2026-03-29T16:38:06.993Z</time></trkpt><trkpt lat="45.39686352982109" lon="8.34820228746573"><ele>143.5</ele><time>2026-03-29T16:38:07.993Z</time></trkpt><trkpt lat="45.39688620077968" lon="8.3480067757608"><ele>144.0</ele><time>2026-03-29T16:38:08.993Z</time></trkpt><trkpt lat="45.39690068034763" lon="8.347799909531796"><ele>144.0</ele><time>2026-03-29T16:38:09.993Z</time></trkpt><trkpt lat="45.39691326044409" lon="8.347591906078382"><ele>144.0</ele><time>2026-03-29T16:38:10.993Z</time></trkpt><trkpt lat="45.39692375080165" lon="8.347375062556244"><ele>144.0</ele><time>2026-03-29T16:38:11.993Z</time></trkpt><trkpt lat="45.396938752526424" lon="8.347152878154224"><ele>144.0</ele><time>2026-03-29T16:38:12.993Z</time></trkpt><trkpt lat="45.39695403005708" lon="8.346927887611104"><ele>144.0</ele><time>2026-03-29T16:38:13.993Z</time></trkpt><trkpt lat="45.39697014313816" lon="8.346696164511508"><ele>144.0</ele><time>2026-03-29T16:38:14.993Z</time></trkpt><trkpt lat="45.39697889784914" lon="8.346462509839027"><ele>143.66666666666666</ele><time>2026-03-29T16:38:15.993Z</time></trkpt><trkpt lat="45.39698664308417" lon="8.346221856678408"><ele>143.33333333333331</ele><time>2026-03-29T16:38:16.993Z</time></trkpt><trkpt lat="45.39700214220018" lon="8.34597652237316"><ele>143.0</ele><time>2026-03-29T16:38:17.993Z</time></trkpt><trkpt lat="45.397032318962445" lon="8.345728132249311"><ele>142.66666666666666</ele><time>2026-03-29T16:38:18.993Z</time></trkpt><trkpt lat="45.397071719101156" lon="8.345478091655869"><ele>142.33333333333334</ele><time>2026-03-29T16:38:19.993Z</time></trkpt><trkpt lat="45.39711944697388" lon="8.34522741841046"><ele>142.0</ele><time>2026-03-29T16:38:20.993Z</time></trkpt><trkpt lat="45.397176069370126" lon="8.34497482433772"><ele>142.33333333333334</ele><time>2026-03-29T16:38:21.993Z</time></trkpt><trkpt lat="45.39723812147884" lon="8.344714361039971"><ele>142.66666666666666</ele><time>2026-03-29T16:38:22.992Z</time></trkpt><trkpt lat="45.39730252755446" lon="8.344446532407826"><ele>143.0</ele><time>2026-03-29T16:38:23.992Z</time></trkpt><trkpt lat="45.397368466489596" lon="8.344178761343251"><ele>143.0</ele><time>2026-03-29T16:38:24.992Z</time></trkpt><trkpt lat="45.397432374601706" lon="8.343918747772914"><ele>143.0</ele><time>2026-03-29T16:38:25.992Z</time></trkpt><trkpt lat="45.39749647681963" lon="8.3436553353421"><ele>143.0</ele><time>2026-03-29T16:38:26.992Z</time></trkpt><trkpt lat="45.39755717280361" lon="8.343383322120662"><ele>142.66666666666666</ele><time>2026-03-29T16:38:27.992Z</time></trkpt><trkpt lat="45.39761608818714" lon="8.343105345514894"><ele>142.33333333333334</ele><time>2026-03-29T16:38:28.992Z</time></trkpt><trkpt lat="45.39767694394565" lon="8.342824161957944"><ele>142.0</ele><time>2026-03-29T16:38:29.992Z</time></trkpt><trkpt lat="45.397742748437906" lon="8.342543386507364"><ele>142.0</ele><time>2026-03-29T16:38:30.992Z</time></trkpt><trkpt lat="45.39780936013887" lon="8.34225782402805"><ele>142.0</ele><time>2026-03-29T16:38:31.992Z</time></trkpt><trkpt lat="45.39787633332213" lon="8.34196679860121"><ele>142.0</ele><time>2026-03-29T16:38:32.992Z</time></trkpt><trkpt lat="45.397945485288766" lon="8.34167332024746"><ele>142.33333333333334</ele><time>2026-03-29T16:38:33.992Z</time></trkpt><trkpt lat="45.398014616350615" lon="8.341375097775023"><ele>142.66666666666666</ele><time>2026-03-29T16:38:34.992Z</time></trkpt><trkpt lat="45.39808433132203" lon="8.341076033689387"><ele>143.0</ele><time>2026-03-29T16:38:35.992Z</time></trkpt><trkpt lat="45.398154976902696" lon="8.340774873620727"><ele>143.0</ele><time>2026-03-29T16:38:36.992Z</time></trkpt><trkpt lat="45.39822441397818" lon="8.340471033792086"><ele>143.0</ele><time>2026-03-29T16:38:37.992Z</time></trkpt><trkpt lat="45.39829351427767" lon="8.340165969456962"><ele>143.0</ele><time>2026-03-29T16:38:38.992Z</time></trkpt><trkpt lat="45.39836036243585" lon="8.339872029058256"><ele>143.0</ele><time>2026-03-29T16:38:39.992Z</time></trkpt><trkpt lat="45.39842664426725" lon="8.339578527612584"><ele>143.0</ele><time>2026-03-29T16:38:40.992Z</time></trkpt><trkpt lat="45.39849477500526" lon="8.33928448723789"><ele>143.0</ele><time>2026-03-29T16:38:41.992Z</time></trkpt><trkpt lat="45.39856155809848" lon="8.33898823771299"><ele>143.0</ele><time>2026-03-29T16:38:42.992Z</time></trkpt><trkpt lat="45.39862667303971" lon="8.338689650184016"><ele>143.0</ele><time>2026-03-29T16:38:43.992Z</time></trkpt><trkpt lat="45.39869344284025" lon="8.338389233827062"><ele>143.0</ele><time>2026-03-29T16:38:44.992Z</time></trkpt><trkpt lat="45.39876235500985" lon="8.33808847126908"><ele>143.0</ele><time>2026-03-29T16:38:45.992Z</time></trkpt><trkpt lat="45.39883112582908" lon="8.337784627565043"><ele>143.0</ele><time>2026-03-29T16:38:46.992Z</time></trkpt><trkpt lat="45.39890142009341" lon="8.337479234741133"><ele>143.0</ele><time>2026-03-29T16:38:47.992Z</time></trkpt><trkpt lat="45.39897231141713" lon="8.337172696609644"><ele>143.0</ele><time>2026-03-29T16:38:48.992Z</time></trkpt><trkpt lat="45.39904322751003" lon="8.336861456575146"><ele>143.0</ele><time>2026-03-29T16:38:49.992Z</time></trkpt><trkpt lat="45.399115971824415" lon="8.336551071247282"><ele>143.0</ele><time>2026-03-29T16:38:50.992Z</time></trkpt><trkpt lat="45.39918826615083" lon="8.336237236075164"><ele>143.5</ele><time>2026-03-29T16:38:51.992Z</time></trkpt><trkpt lat="45.39926218944802" lon="8.335919899371486"><ele>144.0</ele><time>2026-03-29T16:38:52.992Z</time></trkpt><trkpt lat="45.39933450166654" lon="8.335600258107661"><ele>144.5</ele><time>2026-03-29T16:38:53.992Z</time></trkpt><trkpt lat="45.399410174462865" lon="8.33527764347629"><ele>145.0</ele><time>2026-03-29T16:38:54.992Z</time></trkpt><trkpt lat="45.3994843527597" lon="8.334954043290661"><ele>145.0</ele><time>2026-03-29T16:38:55.992Z</time></trkpt><trkpt lat="45.39955676855346" lon="8.334628929104078"><ele>145.0</ele><time>2026-03-29T16:38:56.992Z</time></trkpt><trkpt lat="45.39963172628436" lon="8.334303626648001"><ele>145.0</ele><time>2026-03-29T16:38:57.992Z</time></trkpt><trkpt lat="45.39971048191315" lon="8.333979546021617"><ele>145.0</ele><time>2026-03-29T16:38:58.992Z</time></trkpt><trkpt lat="45.39979390336326" lon="8.333659048679799"><ele>145.0</ele><time>2026-03-29T16:38:59.992Z</time></trkpt><trkpt lat="45.39989027488892" lon="8.333343112452864"><ele>145.0</ele><time>2026-03-29T16:39:00.992Z</time></trkpt><trkpt lat="45.40000069734819" lon="8.333038021782775"><ele>145.0</ele><time>2026-03-29T16:39:01.992Z</time></trkpt><trkpt lat="45.400119814043485" lon="8.332740555271553"><ele>145.0</ele><time>2026-03-29T16:39:02.992Z</time></trkpt><trkpt lat="45.400251208332655" lon="8.332449590864902"><ele>144.5</ele><time>2026-03-29T16:39:03.992Z</time></trkpt><trkpt lat="45.400395843349756" lon="8.332174039419536"><ele>144.0</ele><time>2026-03-29T16:39:04.992Z</time></trkpt><trkpt lat="45.40055114581888" lon="8.331911269768728"><ele>144.0</ele><time>2026-03-29T16:39:05.992Z</time></trkpt><trkpt lat="45.4007136071869" lon="8.331656489577242"><ele>144.0</ele><time>2026-03-29T16:39:06.992Z</time></trkpt><trkpt lat="45.40088489905871" lon="8.331414289068322"><ele>144.5</ele><time>2026-03-29T16:39:07.992Z</time></trkpt><trkpt lat="45.401067230557" lon="8.331189953781818"><ele>145.0</ele><time>2026-03-29T16:39:08.992Z</time></trkpt><trkpt lat="45.40125658154476" lon="8.33097795760078"><ele>145.0</ele><time>2026-03-29T16:39:09.992Z</time></trkpt><trkpt lat="45.401451810565916" lon="8.330779219437812"><ele>145.0</ele><time>2026-03-29T16:39:10.992Z</time></trkpt><trkpt lat="45.401653393558966" lon="8.330594547265388"><ele>145.0</ele><time>2026-03-29T16:39:11.991Z</time></trkpt><trkpt lat="45.40186215006567" lon="8.33042896885857"><ele>145.0</ele><time>2026-03-29T16:39:12.991Z</time></trkpt><trkpt lat="45.40207577534911" lon="8.330279788863898"><ele>144.5</ele><time>2026-03-29T16:39:13.991Z</time></trkpt><trkpt lat="45.40229647334081" lon="8.330151037661986"><ele>144.0</ele><time>2026-03-29T16:39:14.991Z</time></trkpt><trkpt lat="45.40251977668952" lon="8.330034818558957"><ele>144.0</ele><time>2026-03-29T16:39:15.991Z</time></trkpt><trkpt lat="45.402743537787174" lon="8.3299173006493"><ele>144.0</ele><time>2026-03-29T16:39:16.991Z</time></trkpt><trkpt lat="45.40296711817996" lon="8.329801919771418"><ele>145.0</ele><time>2026-03-29T16:39:17.991Z</time></trkpt><trkpt lat="45.403191477505025" lon="8.329684555543608"><ele>146.0</ele><time>2026-03-29T16:39:18.991Z</time></trkpt><trkpt lat="45.403415363960924" lon="8.32956498127055"><ele>146.0</ele><time>2026-03-29T16:39:19.991Z</time></trkpt><trkpt lat="45.40363637146986" lon="8.329446264267373"><ele>146.0</ele><time>2026-03-29T16:39:20.991Z</time></trkpt><trkpt lat="45.403860033007916" lon="8.32932898901077"><ele>145.5</ele><time>2026-03-29T16:39:21.991Z</time></trkpt><trkpt lat="45.40408238556687" lon="8.32921067021984"><ele>145.0</ele><time>2026-03-29T16:39:22.991Z</time></trkpt><trkpt lat="45.40430658147355" lon="8.329093484992253"><ele>145.0</ele><time>2026-03-29T16:39:23.991Z</time></trkpt><trkpt lat="45.40453052945086" lon="8.328977387443752"><ele>145.0</ele><time>2026-03-29T16:39:24.991Z</time></trkpt><trkpt lat="45.40475388057114" lon="8.32885864405018"><ele>146.0</ele><time>2026-03-29T16:39:25.991Z</time></trkpt><trkpt lat="45.40497808682836" lon="8.328739318974604"><ele>147.0</ele><time>2026-03-29T16:39:26.991Z</time></trkpt><trkpt lat="45.40520303993603" lon="8.328622318371465"><ele>147.0</ele><time>2026-03-29T16:39:27.991Z</time></trkpt><trkpt lat="45.40542646811048" lon="8.328503342207025"><ele>147.0</ele><time>2026-03-29T16:39:28.991Z</time></trkpt><trkpt lat="45.40564981048066" lon="8.328383862035162"><ele>146.5</ele><time>2026-03-29T16:39:29.991Z</time></trkpt><trkpt lat="45.40587356290015" lon="8.328264763039913"><ele>146.0</ele><time>2026-03-29T16:39:30.991Z</time></trkpt><trkpt lat="45.40609770072583" lon="8.32815088668306"><ele>146.5</ele><time>2026-03-29T16:39:31.991Z</time></trkpt><trkpt lat="45.4063218180845" lon="8.32804483954445"><ele>147.0</ele><time>2026-03-29T16:39:32.991Z</time></trkpt><trkpt lat="45.40654739081198" lon="8.327944896600018"><ele>147.0</ele><time>2026-03-29T16:39:33.991Z</time></trkpt><trkpt lat="45.406775670178426" lon="8.327855112843693"><ele>147.0</ele><time>2026-03-29T16:39:34.991Z</time></trkpt><trkpt lat="45.40700554888068" lon="8.327774706029423"><ele>147.5</ele><time>2026-03-29T16:39:35.991Z</time></trkpt><trkpt lat="45.40723283293524" lon="8.327693556162945"><ele>148.0</ele><time>2026-03-29T16:39:36.991Z</time></trkpt><trkpt lat="45.407459136234735" lon="8.327611988393032"><ele>148.0</ele><time>2026-03-29T16:39:37.991Z</time></trkpt><trkpt lat="45.407684380813926" lon="8.327531987996364"><ele>148.0</ele><time>2026-03-29T16:39:38.991Z</time></trkpt><trkpt lat="45.40790442276548" lon="8.327442421115547"><ele>148.0</ele><time>2026-03-29T16:39:39.991Z</time></trkpt><trkpt lat="45.40811828966438" lon="8.327331638789442"><ele>148.0</ele><time>2026-03-29T16:39:40.993Z</time></trkpt><trkpt lat="45.408324346462564" lon="8.327210504044906"><ele>148.0</ele><time>2026-03-29T16:39:41.994Z</time></trkpt><trkpt lat="45.40853249408223" lon="8.327082774123117"><ele>148.0</ele><time>2026-03-29T16:39:42.994Z</time></trkpt><trkpt lat="45.40873562826753" lon="8.326947982506061"><ele>147.5</ele><time>2026-03-29T16:39:43.993Z</time></trkpt><trkpt lat="45.40893722406482" lon="8.32679648273971"><ele>147.0</ele><time>2026-03-29T16:39:44.993Z</time></trkpt><trkpt lat="45.40913648454604" lon="8.326634539944282"><ele>147.0</ele><time>2026-03-29T16:39:45.993Z</time></trkpt><trkpt lat="45.40933046870226" lon="8.326459117188605"><ele>147.0</ele><time>2026-03-29T16:39:46.994Z</time></trkpt><trkpt lat="45.40951931259989" lon="8.326271176859883"><ele>146.5</ele><time>2026-03-29T16:39:47.993Z</time></trkpt><trkpt lat="45.40970319685352" lon="8.326071860683395"><ele>146.0</ele><time>2026-03-29T16:39:48.993Z</time></trkpt><trkpt lat="45.40988329041678" lon="8.325859243685342"><ele>146.0</ele><time>2026-03-29T16:39:49.993Z</time></trkpt><trkpt lat="45.41005651385227" lon="8.325634201851154"><ele>146.0</ele><time>2026-03-29T16:39:50.993Z</time></trkpt><trkpt lat="45.410225098159046" lon="8.325397754575874"><ele>146.0</ele><time>2026-03-29T16:39:51.993Z</time></trkpt><trkpt lat="45.4103839096854" lon="8.325149398020022"><ele>146.0</ele><time>2026-03-29T16:39:52.993Z</time></trkpt><trkpt lat="45.41053772137863" lon="8.324893898286048"><ele>147.0</ele><time>2026-03-29T16:39:53.993Z</time></trkpt><trkpt lat="45.4106899949377" lon="8.324635774881695"><ele>148.0</ele><time>2026-03-29T16:39:54.993Z</time></trkpt><trkpt lat="45.41084285729575" lon="8.324373447611347"><ele>148.0</ele><time>2026-03-29T16:39:55.993Z</time></trkpt><trkpt lat="45.41099983595963" lon="8.32411110078749"><ele>148.0</ele><time>2026-03-29T16:39:56.993Z</time></trkpt><trkpt lat="45.41115862477178" lon="8.323850355094828"><ele>148.0</ele><time>2026-03-29T16:39:57.993Z</time></trkpt><trkpt lat="45.41131332617063" lon="8.323587234970045"><ele>148.0</ele><time>2026-03-29T16:39:58.993Z</time></trkpt><trkpt lat="45.41147026309068" lon="8.323325772775023"><ele>148.0</ele><time>2026-03-29T16:39:59.993Z</time></trkpt><trkpt lat="45.411626676688634" lon="8.323063500667097"><ele>148.0</ele><time>2026-03-29T16:40:00.993Z</time></trkpt><trkpt lat="45.41178205583752" lon="8.322800096822965"><ele>148.0</ele><time>2026-03-29T16:40:01.993Z</time></trkpt><trkpt lat="45.4119381357262" lon="8.322536916067017"><ele>148.0</ele><time>2026-03-29T16:40:02.993Z</time></trkpt><trkpt lat="45.41209654989181" lon="8.322274516526543"><ele>148.5</ele><time>2026-03-29T16:40:03.993Z</time></trkpt><trkpt lat="45.4122540331265" lon="8.322011735315924"><ele>149.0</ele><time>2026-03-29T16:40:04.993Z</time></trkpt><trkpt lat="45.41241099650279" lon="8.321748130980552"><ele>149.0</ele><time>2026-03-29T16:40:05.993Z</time></trkpt><trkpt lat="45.41256780255534" lon="8.321485106661617"><ele>149.0</ele><time>2026-03-29T16:40:06.993Z</time></trkpt><trkpt lat="45.412725012546105" lon="8.321219729889492"><ele>149.0</ele><time>2026-03-29T16:40:07.992Z</time></trkpt><trkpt lat="45.41288418125088" lon="8.320954710718661"><ele>149.0</ele><time>2026-03-29T16:40:08.992Z</time></trkpt><trkpt lat="45.413042808803745" lon="8.32068834759566"><ele>148.5</ele><time>2026-03-29T16:40:09.992Z</time></trkpt><trkpt lat="45.41320273467837" lon="8.320420473017665"><ele>148.0</ele><time>2026-03-29T16:40:10.992Z</time></trkpt><trkpt lat="45.413361391374494" lon="8.320152405152454"><ele>148.0</ele><time>2026-03-29T16:40:11.992Z</time></trkpt><trkpt lat="45.413521829949" lon="8.319885667081119"><ele>148.0</ele><time>2026-03-29T16:40:12.992Z</time></trkpt><trkpt lat="45.413686151991094" lon="8.319620660510227"><ele>148.5</ele><time>2026-03-29T16:40:13.992Z</time></trkpt><trkpt lat="45.413847063288266" lon="8.31935196445953"><ele>149.0</ele><time>2026-03-29T16:40:14.992Z</time></trkpt><trkpt lat="45.41400348620014" lon="8.31907944761483"><ele>149.0</ele><time>2026-03-29T16:40:15.992Z</time></trkpt><trkpt lat="45.41415698190053" lon="8.318802528823431"><ele>149.0</ele><time>2026-03-29T16:40:16.992Z</time></trkpt><trkpt lat="45.41430197019777" lon="8.318517461979381"><ele>149.0</ele><time>2026-03-29T16:40:17.992Z</time></trkpt><trkpt lat="45.41444142417923" lon="8.318221226889193"><ele>149.0</ele><time>2026-03-29T16:40:18.992Z</time></trkpt><trkpt lat="45.41457565684999" lon="8.317921822947596"><ele>149.0</ele><time>2026-03-29T16:40:19.992Z</time></trkpt><trkpt lat="45.41470733967737" lon="8.31761635061497"><ele>149.0</ele><time>2026-03-29T16:40:20.992Z</time></trkpt><trkpt lat="45.41483460201218" lon="8.317307642863428"><ele>149.0</ele><time>2026-03-29T16:40:21.992Z</time></trkpt><trkpt lat="45.41496203465979" lon="8.316995842365557"><ele>149.0</ele><time>2026-03-29T16:40:22.992Z</time></trkpt><trkpt lat="45.41509218077811" lon="8.316684735509368"><ele>150.0</ele><time>2026-03-29T16:40:23.992Z</time></trkpt><trkpt lat="45.41521864548466" lon="8.316373724610216"><ele>151.0</ele><time>2026-03-29T16:40:24.992Z</time></trkpt><trkpt lat="45.4153471172985" lon="8.316062534161427"><ele>151.0</ele><time>2026-03-29T16:40:25.992Z</time></trkpt><trkpt lat="45.41547477376776" lon="8.31575378293357"><ele>151.0</ele><time>2026-03-29T16:40:26.992Z</time></trkpt><trkpt lat="45.41560501167584" lon="8.315445288323902"><ele>152.0</ele><time>2026-03-29T16:40:27.992Z</time></trkpt><trkpt lat="45.415738098332135" lon="8.315138824993765"><ele>153.0</ele><time>2026-03-29T16:40:28.992Z</time></trkpt><trkpt lat="45.415873541364" lon="8.314834955405729"><ele>153.0</ele><time>2026-03-29T16:40:29.992Z</time></trkpt><trkpt lat="45.416011564484776" lon="8.314534353112201"><ele>153.0</ele><time>2026-03-29T16:40:30.992Z</time></trkpt><trkpt lat="45.41615469980103" lon="8.314237417296775"><ele>153.0</ele><time>2026-03-29T16:40:31.992Z</time></trkpt><trkpt lat="45.41630053883201" lon="8.313943038125142"><ele>153.0</ele><time>2026-03-29T16:40:32.992Z</time></trkpt><trkpt lat="45.41644867892411" lon="8.313651582836812"><ele>153.0</ele><time>2026-03-29T16:40:33.992Z</time></trkpt><trkpt lat="45.4166011660606" lon="8.31336423735333"><ele>153.0</ele><time>2026-03-29T16:40:34.992Z</time></trkpt><trkpt lat="45.4167558277439" lon="8.313080873308566"><ele>153.5</ele><time>2026-03-29T16:40:35.992Z</time></trkpt><trkpt lat="45.416912966193145" lon="8.312800751871665"><ele>154.0</ele><time>2026-03-29T16:40:36.992Z</time></trkpt><trkpt lat="45.417073772560556" lon="8.31252458280355"><ele>154.0</ele><time>2026-03-29T16:40:37.992Z</time></trkpt><trkpt lat="45.41723584139388" lon="8.312250682552852"><ele>154.0</ele><time>2026-03-29T16:40:38.992Z</time></trkpt><trkpt lat="45.41740106243913" lon="8.311978745771137"><ele>154.0</ele><time>2026-03-29T16:40:39.992Z</time></trkpt><trkpt lat="45.417569856038966" lon="8.311709914558206"><ele>154.0</ele><time>2026-03-29T16:40:40.992Z</time></trkpt><trkpt lat="45.41773916221598" lon="8.311444951414876"><ele>154.5</ele><time>2026-03-29T16:40:41.992Z</time></trkpt><trkpt lat="45.41790759929221" lon="8.31117919877791"><ele>155.0</ele><time>2026-03-29T16:40:42.992Z</time></trkpt><trkpt lat="45.418077994856745" lon="8.31091337707705"><ele>156.0</ele><time>2026-03-29T16:40:43.992Z</time></trkpt><trkpt lat="45.4182493552942" lon="8.31064589626973"><ele>157.0</ele><time>2026-03-29T16:40:44.992Z</time></trkpt><trkpt lat="45.418420423539125" lon="8.310378900762561"><ele>158.0</ele><time>2026-03-29T16:40:45.992Z</time></trkpt><trkpt lat="45.41859053219484" lon="8.31011230709041"><ele>159.0</ele><time>2026-03-29T16:40:46.992Z</time></trkpt><trkpt lat="45.418761716109515" lon="8.309845137558867"><ele>158.5</ele><time>2026-03-29T16:40:47.992Z</time></trkpt><trkpt lat="45.41893473669035" lon="8.309580696044213"><ele>158.0</ele><time>2026-03-29T16:40:48.992Z</time></trkpt><trkpt lat="45.41910757365882" lon="8.309319525444836"><ele>158.0</ele><time>2026-03-29T16:40:49.992Z</time></trkpt><trkpt lat="45.419277559418546" lon="8.309058348695288"><ele>158.0</ele><time>2026-03-29T16:40:50.992Z</time></trkpt><trkpt lat="45.41944363449016" lon="8.308797287750807"><ele>158.0</ele><time>2026-03-29T16:40:51.992Z</time></trkpt><trkpt lat="45.41960735845546" lon="8.308536718772954"><ele>158.0</ele><time>2026-03-29T16:40:52.992Z</time></trkpt><trkpt lat="45.41977033419966" lon="8.308279512207728"><ele>158.0</ele><time>2026-03-29T16:40:53.992Z</time></trkpt><trkpt lat="45.419933024497006" lon="8.308024529317944"><ele>158.0</ele><time>2026-03-29T16:40:54.992Z</time></trkpt><trkpt lat="45.42009575714158" lon="8.30777514952671"><ele>158.0</ele><time>2026-03-29T16:40:55.992Z</time></trkpt><trkpt lat="45.42025589943561" lon="8.307528445753068"><ele>158.0</ele><time>2026-03-29T16:40:56.992Z</time></trkpt><trkpt lat="45.42041486735242" lon="8.30728297851861"><ele>157.5</ele><time>2026-03-29T16:40:57.991Z</time></trkpt><trkpt lat="45.42057283958822" lon="8.307040062331279"><ele>157.0</ele><time>2026-03-29T16:40:58.991Z</time></trkpt><trkpt lat="45.42072901830536" lon="8.306796823019068"><ele>157.0</ele><time>2026-03-29T16:40:59.991Z</time></trkpt><trkpt lat="45.42088441656194" lon="8.306551667471071"><ele>157.0</ele><time>2026-03-29T16:41:00.991Z</time></trkpt><trkpt lat="45.421039087929564" lon="8.30630811462812"><ele>157.0</ele><time>2026-03-29T16:41:01.991Z</time></trkpt><trkpt lat="45.42119369400798" lon="8.306066269928417"><ele>157.0</ele><time>2026-03-29T16:41:02.991Z</time></trkpt><trkpt lat="45.42134764232187" lon="8.30582494719363"><ele>157.0</ele><time>2026-03-29T16:41:03.991Z</time></trkpt><trkpt lat="45.42150252664677" lon="8.305582571288499"><ele>157.0</ele><time>2026-03-29T16:41:04.991Z</time></trkpt><trkpt lat="45.42165726774568" lon="8.305339926254433"><ele>157.5</ele><time>2026-03-29T16:41:05.991Z</time></trkpt><trkpt lat="45.421812113332976" lon="8.305098401980006"><ele>158.0</ele><time>2026-03-29T16:41:06.991Z</time></trkpt><trkpt lat="45.421966786141915" lon="8.304854584805799"><ele>158.0</ele><time>2026-03-29T16:41:07.991Z</time></trkpt><trkpt lat="45.42212039303347" lon="8.30460904586811"><ele>158.0</ele><time>2026-03-29T16:41:08.991Z</time></trkpt><trkpt lat="45.42227619764775" lon="8.304363397197248"><ele>159.0</ele><time>2026-03-29T16:41:09.991Z</time></trkpt><trkpt lat="45.42243244330434" lon="8.304116682441116"><ele>160.0</ele><time>2026-03-29T16:41:10.991Z</time></trkpt><trkpt lat="45.42258895418885" lon="8.303870213629628"><ele>160.0</ele><time>2026-03-29T16:41:11.991Z</time></trkpt><trkpt lat="45.422746974672414" lon="8.303624087967021"><ele>160.0</ele><time>2026-03-29T16:41:12.991Z</time></trkpt><trkpt lat="45.42290654639763" lon="8.303378852223156"><ele>160.0</ele><time>2026-03-29T16:41:13.991Z</time></trkpt><trkpt lat="45.42306720423342" lon="8.303131791759595"><ele>160.0</ele><time>2026-03-29T16:41:14.991Z</time></trkpt><trkpt lat="45.423229709037365" lon="8.30288214384881"><ele>160.0</ele><time>2026-03-29T16:41:15.991Z</time></trkpt><trkpt lat="45.42339221893304" lon="8.302631794141043"><ele>160.0</ele><time>2026-03-29T16:41:16.991Z</time></trkpt><trkpt lat="45.42355115599436" lon="8.302379316862147"><ele>160.0</ele><time>2026-03-29T16:41:17.991Z</time></trkpt><trkpt lat="45.42371013856966" lon="8.302129207972664"><ele>160.0</ele><time>2026-03-29T16:41:18.991Z</time></trkpt><trkpt lat="45.42386974212964" lon="8.301881856428603"><ele>160.0</ele><time>2026-03-29T16:41:19.991Z</time></trkpt><trkpt lat="45.42402812181876" lon="8.301634553142236"><ele>160.0</ele><time>2026-03-29T16:41:20.991Z</time></trkpt><trkpt lat="45.42418443313792" lon="8.301386715375848"><ele>159.5</ele><time>2026-03-29T16:41:21.991Z</time></trkpt><trkpt lat="45.4243366729897" lon="8.301141868174755"><ele>159.0</ele><time>2026-03-29T16:41:22.991Z</time></trkpt><trkpt lat="45.424489140290646" lon="8.300900395907515"><ele>159.0</ele><time>2026-03-29T16:41:23.991Z</time></trkpt><trkpt lat="45.42463950671083" lon="8.300668961026506"><ele>159.0</ele><time>2026-03-29T16:41:24.991Z</time></trkpt><trkpt lat="45.424786234422236" lon="8.300443235222186"><ele>159.0</ele><time>2026-03-29T16:41:25.991Z</time></trkpt><trkpt lat="45.42492778645021" lon="8.300223529287601"><ele>159.33333333333334</ele><time>2026-03-29T16:41:26.991Z</time></trkpt><trkpt lat="45.42506376274529" lon="8.300009106293786"><ele>159.66666666666669</ele><time>2026-03-29T16:41:27.991Z</time></trkpt><trkpt lat="45.42519387765985" lon="8.299802121754034"><ele>160.0</ele><time>2026-03-29T16:41:28.991Z</time></trkpt><trkpt lat="45.42531311698208" lon="8.29959968510863"><ele>160.0</ele><time>2026-03-29T16:41:29.991Z</time></trkpt><trkpt lat="45.42542260089608" lon="8.299399875434519"><ele>160.0</ele><time>2026-03-29T16:41:30.991Z</time></trkpt><trkpt lat="45.425520670768336" lon="8.299204242751886"><ele>160.0</ele><time>2026-03-29T16:41:31.991Z</time></trkpt><trkpt lat="45.42561001086011" lon="8.299009165128831"><ele>160.25</ele><time>2026-03-29T16:41:32.991Z</time></trkpt><trkpt lat="45.42569167948455" lon="8.298818143172731"><ele>160.5</ele><time>2026-03-29T16:41:33.991Z</time></trkpt><trkpt lat="45.42576747829384" lon="8.29863666767211"><ele>160.75</ele><time>2026-03-29T16:41:34.991Z</time></trkpt><trkpt lat="45.425831914797165" lon="8.29846427363054"><ele>161.0</ele><time>2026-03-29T16:41:35.991Z</time></trkpt><trkpt lat="45.42589217227724" lon="8.298309259149956"><ele>161.0</ele><time>2026-03-29T16:41:36.991Z</time></trkpt><trkpt lat="45.42595084171274" lon="8.298170042418327"><ele>161.0</ele><time>2026-03-29T16:41:37.991Z</time></trkpt><trkpt lat="45.42601044494114" lon="8.298043328570296"><ele>161.0</ele><time>2026-03-29T16:41:38.991Z</time></trkpt><trkpt lat="45.42607313527017" lon="8.29794192847855"><ele>161.0</ele><time>2026-03-29T16:41:39.991Z</time></trkpt><trkpt lat="45.42613768797012" lon="8.297873740256813"><ele>161.0</ele><time>2026-03-29T16:41:40.991Z</time></trkpt><trkpt lat="45.42620099463742" lon="8.29783620320776"><ele>161.0</ele><time>2026-03-29T16:41:41.991Z</time></trkpt><trkpt lat="45.42626324258502" lon="8.2978218988164"><ele>161.0</ele><time>2026-03-29T16:41:42.991Z</time></trkpt><trkpt lat="45.42637772364072" lon="8.297808581148063"><ele>161.0</ele><time>2026-03-29T16:41:44.991Z</time></trkpt><trkpt lat="45.426488662108845" lon="8.29771961888555"><ele>161.0</ele><time>2026-03-29T16:41:46.993Z</time></trkpt><trkpt lat="45.426537157877085" lon="8.29764720293933"><ele>161.0</ele><time>2026-03-29T16:41:47.993Z</time></trkpt><trkpt lat="45.42656280999654" lon="8.297562302408176"><ele>161.0</ele><time>2026-03-29T16:41:48.993Z</time></trkpt><trkpt lat="45.42659103423016" lon="8.29747245785532"><ele>161.0</ele><time>2026-03-29T16:41:49.993Z</time></trkpt><trkpt lat="45.42663892019315" lon="8.297388837979945"><ele>161.0</ele><time>2026-03-29T16:41:50.993Z</time></trkpt><trkpt lat="45.426706467614245" lon="8.297304179275722"><ele>161.0</ele><time>2026-03-29T16:41:51.993Z</time></trkpt><trkpt lat="45.42678227264676" lon="8.297215459325582"><ele>161.0</ele><time>2026-03-29T16:41:52.993Z</time></trkpt><trkpt lat="45.426863176023446" lon="8.297120381511924"><ele>161.0</ele><time>2026-03-29T16:41:53.993Z</time></trkpt><trkpt lat="45.42693224413859" lon="8.297019939810989"><ele>160.8</ele><time>2026-03-29T16:41:54.993Z</time></trkpt><trkpt lat="45.42699423295607" lon="8.296916168996221"><ele>160.60000000000002</ele><time>2026-03-29T16:41:55.994Z</time></trkpt><trkpt lat="45.4270556202353" lon="8.296815760054368"><ele>160.4</ele><time>2026-03-29T16:41:56.994Z</time></trkpt><trkpt lat="45.42711869551583" lon="8.296713825168428"><ele>160.2</ele><time>2026-03-29T16:41:57.994Z</time></trkpt><trkpt lat="45.42718401889091" lon="8.296616848487682"><ele>160.0</ele><time>2026-03-29T16:41:58.993Z</time></trkpt><trkpt lat="45.427246512519176" lon="8.296516490024748"><ele>159.66666666666669</ele><time>2026-03-29T16:41:59.994Z</time></trkpt><trkpt lat="45.42730667542139" lon="8.29641398314508"><ele>159.33333333333334</ele><time>2026-03-29T16:42:00.994Z</time></trkpt><trkpt lat="45.42736651420085" lon="8.296312616843217"><ele>159.0</ele><time>2026-03-29T16:42:01.994Z</time></trkpt><trkpt lat="45.427425644986045" lon="8.296221172327352"><ele>158.66666666666666</ele><time>2026-03-29T16:42:02.994Z</time></trkpt><trkpt lat="45.427476861812096" lon="8.296135561005695"><ele>158.33333333333331</ele><time>2026-03-29T16:42:03.994Z</time></trkpt><trkpt lat="45.427523827534344" lon="8.296053777224621"><ele>158.0</ele><time>2026-03-29T16:42:04.994Z</time></trkpt><trkpt lat="45.427569114106475" lon="8.295972841243367"><ele>158.0</ele><time>2026-03-29T16:42:05.994Z</time></trkpt><trkpt lat="45.42762139445763" lon="8.29588721562576"><ele>158.0</ele><time>2026-03-29T16:42:06.994Z</time></trkpt><trkpt lat="45.42768138970714" lon="8.295801928860058"><ele>158.0</ele><time>2026-03-29T16:42:07.994Z</time></trkpt><trkpt lat="45.4277419505813" lon="8.295711932941728"><ele>158.0</ele><time>2026-03-29T16:42:08.993Z</time></trkpt><trkpt lat="45.4278043062145" lon="8.295619842742562"><ele>158.0</ele><time>2026-03-29T16:42:09.993Z</time></trkpt><trkpt lat="45.42786683173866" lon="8.295525983191636"><ele>158.0</ele><time>2026-03-29T16:42:10.993Z</time></trkpt><trkpt lat="45.42792785485292" lon="8.295423434163654"><ele>158.60000000000002</ele><time>2026-03-29T16:42:11.993Z</time></trkpt><trkpt lat="45.42799033096256" lon="8.295325784352334"><ele>159.20000000000002</ele><time>2026-03-29T16:42:12.993Z</time></trkpt><trkpt lat="45.42805315418313" lon="8.295227167383416"><ele>159.8</ele><time>2026-03-29T16:42:13.993Z</time></trkpt><trkpt lat="45.42811306957402" lon="8.29512504740328"><ele>160.4</ele><time>2026-03-29T16:42:14.993Z</time></trkpt><trkpt lat="45.42817187111213" lon="8.295032025159564"><ele>161.0</ele><time>2026-03-29T16:42:15.993Z</time></trkpt><trkpt lat="45.42822732071452" lon="8.294941646916413"><ele>161.0</ele><time>2026-03-29T16:42:16.993Z</time></trkpt><trkpt lat="45.42828156382673" lon="8.294855366027834"><ele>161.0</ele><time>2026-03-29T16:42:17.993Z</time></trkpt><trkpt lat="45.42833547583983" lon="8.294778991527306"><ele>161.0</ele><time>2026-03-29T16:42:18.993Z</time></trkpt><trkpt lat="45.428389023118555" lon="8.29470608670477"><ele>161.0</ele><time>2026-03-29T16:42:19.993Z</time></trkpt><trkpt lat="45.42843607023475" lon="8.294623156461217"><ele>161.0</ele><time>2026-03-29T16:42:20.993Z</time></trkpt><trkpt lat="45.428485672644925" lon="8.29453910021269"><ele>161.0</ele><time>2026-03-29T16:42:21.993Z</time></trkpt><trkpt lat="45.42852881565853" lon="8.294457006242094"><ele>161.33333333333331</ele><time>2026-03-29T16:42:22.993Z</time></trkpt><trkpt lat="45.42858422777718" lon="8.29430850104099"><ele>161.66666666666666</ele><time>2026-03-29T16:42:24.993Z</time></trkpt><trkpt lat="45.4286090491158" lon="8.294147626717507"><ele>162.0</ele><time>2026-03-29T16:42:26.993Z</time></trkpt><trkpt lat="45.428613637749535" lon="8.294049369640693"><ele>162.33333333333334</ele><time>2026-03-29T16:42:27.993Z</time></trkpt><trkpt lat="45.42862123343459" lon="8.293949432500519"><ele>162.66666666666669</ele><time>2026-03-29T16:42:28.993Z</time></trkpt><trkpt lat="45.42860533935301" lon="8.293856573600584"><ele>163.0</ele><time>2026-03-29T16:42:29.993Z</time></trkpt><trkpt lat="45.42861840467523" lon="8.293753492750053"><ele>163.0</ele><time>2026-03-29T16:42:30.993Z</time></trkpt><trkpt lat="45.42864512515436" lon="8.293637323332211"><ele>163.0</ele><time>2026-03-29T16:42:31.993Z</time></trkpt><trkpt lat="45.428686476102136" lon="8.293519592995004"><ele>163.0</ele><time>2026-03-29T16:42:32.993Z</time></trkpt><trkpt lat="45.42872976075266" lon="8.293407472900155"><ele>163.0</ele><time>2026-03-29T16:42:33.993Z</time></trkpt><trkpt lat="45.42877707041267" lon="8.293302484217936"><ele>163.0</ele><time>2026-03-29T16:42:34.993Z</time></trkpt><trkpt lat="45.42881678528392" lon="8.293186320746027"><ele>163.0</ele><time>2026-03-29T16:42:35.993Z</time></trkpt><trkpt lat="45.42885155687559" lon="8.293068110612099"><ele>162.83333333333334</ele><time>2026-03-29T16:42:36.993Z</time></trkpt><trkpt lat="45.42888708842582" lon="8.292954435437975"><ele>162.66666666666669</ele><time>2026-03-29T16:42:37.993Z</time></trkpt><trkpt lat="45.428920955882134" lon="8.292844700093138"><ele>162.5</ele><time>2026-03-29T16:42:38.993Z</time></trkpt><trkpt lat="45.428942911026084" lon="8.292731259848773"><ele>162.33333333333334</ele><time>2026-03-29T16:42:39.993Z</time></trkpt><trkpt lat="45.42896686134912" lon="8.292621197310915"><ele>162.16666666666666</ele><time>2026-03-29T16:42:40.993Z</time></trkpt><trkpt lat="45.428986214844734" lon="8.292507416154535"><ele>162.0</ele><time>2026-03-29T16:42:41.993Z</time></trkpt><trkpt lat="45.4290012390097" lon="8.292397542667196"><ele>162.0</ele><time>2026-03-29T16:42:42.993Z</time></trkpt><trkpt lat="45.42902478268102" lon="8.292277637498719"><ele>162.0</ele><time>2026-03-29T16:42:43.993Z</time></trkpt><trkpt lat="45.429052487732484" lon="8.292156227573123"><ele>162.0</ele><time>2026-03-29T16:42:44.993Z</time></trkpt><trkpt lat="45.42908047607987" lon="8.292027018101551"><ele>162.0</ele><time>2026-03-29T16:42:45.993Z</time></trkpt><trkpt lat="45.429110085265975" lon="8.291895674728654"><ele>162.0</ele><time>2026-03-29T16:42:46.993Z</time></trkpt><trkpt lat="45.429136923180444" lon="8.291752437180993"><ele>162.2</ele><time>2026-03-29T16:42:47.993Z</time></trkpt><trkpt lat="45.429165292106326" lon="8.291604692887656"><ele>162.39999999999998</ele><time>2026-03-29T16:42:48.993Z</time></trkpt><trkpt lat="45.42919742436091" lon="8.291465022434668"><ele>162.60000000000002</ele><time>2026-03-29T16:42:49.993Z</time></trkpt><trkpt lat="45.42922528414897" lon="8.291336947374178"><ele>162.8</ele><time>2026-03-29T16:42:50.993Z</time></trkpt><trkpt lat="45.429252993291065" lon="8.291217383185215"><ele>163.0</ele><time>2026-03-29T16:42:51.993Z</time></trkpt><trkpt lat="45.42928052282069" lon="8.291106002853486"><ele>163.0</ele><time>2026-03-29T16:42:52.993Z</time></trkpt><trkpt lat="45.42930522779611" lon="8.291001753641467"><ele>163.0</ele><time>2026-03-29T16:42:53.993Z</time></trkpt><trkpt lat="45.42933024196928" lon="8.290889228180376"><ele>163.0</ele><time>2026-03-29T16:42:54.993Z</time></trkpt><trkpt lat="45.4293560162766" lon="8.290766606283297"><ele>163.0</ele><time>2026-03-29T16:42:55.993Z</time></trkpt><trkpt lat="45.42938197587281" lon="8.29064044952345"><ele>163.0</ele><time>2026-03-29T16:42:56.993Z</time></trkpt><trkpt lat="45.42940885142633" lon="8.290506570551297"><ele>163.0</ele><time>2026-03-29T16:42:57.993Z</time></trkpt><trkpt lat="45.429437790343435" lon="8.290368790906673"><ele>163.0</ele><time>2026-03-29T16:42:58.992Z</time></trkpt><trkpt lat="45.42947142372259" lon="8.29022710531438"><ele>163.0</ele><time>2026-03-29T16:42:59.992Z</time></trkpt><trkpt lat="45.42950653296388" lon="8.29008078130365"><ele>163.0</ele><time>2026-03-29T16:43:00.992Z</time></trkpt><trkpt lat="45.42954280314511" lon="8.289925951100221"><ele>163.0</ele><time>2026-03-29T16:43:01.992Z</time></trkpt><trkpt lat="45.42958321515709" lon="8.28976565452004"><ele>163.0</ele><time>2026-03-29T16:43:02.992Z</time></trkpt><trkpt lat="45.42962474042497" lon="8.289595305041605"><ele>163.0</ele><time>2026-03-29T16:43:03.992Z</time></trkpt><trkpt lat="45.42966463239804" lon="8.289415136658514"><ele>163.0</ele><time>2026-03-29T16:43:04.992Z</time></trkpt><trkpt lat="45.429707569962666" lon="8.289223608043311"><ele>163.0</ele><time>2026-03-29T16:43:05.992Z</time></trkpt><trkpt lat="45.42974798357675" lon="8.289032330507025"><ele>163.0</ele><time>2026-03-29T16:43:06.992Z</time></trkpt><trkpt lat="45.429788173993614" lon="8.288857647538055"><ele>163.0</ele><time>2026-03-29T16:43:07.992Z</time></trkpt><trkpt lat="45.42982525381652" lon="8.28869193883347"><ele>163.0</ele><time>2026-03-29T16:43:08.992Z</time></trkpt><trkpt lat="45.42986060161676" lon="8.288530227533274"><ele>163.0</ele><time>2026-03-29T16:43:09.992Z</time></trkpt><trkpt lat="45.42989234396686" lon="8.28836575117731"><ele>163.0</ele><time>2026-03-29T16:43:10.992Z</time></trkpt><trkpt lat="45.42992172307768" lon="8.288192348831835"><ele>163.0</ele><time>2026-03-29T16:43:11.992Z</time></trkpt><trkpt lat="45.42994892984364" lon="8.288022617020147"><ele>163.0</ele><time>2026-03-29T16:43:12.992Z</time></trkpt><trkpt lat="45.4299793535831" lon="8.287864948536091"><ele>163.0</ele><time>2026-03-29T16:43:13.992Z</time></trkpt><trkpt lat="45.4300108192983" lon="8.287711217615847"><ele>163.0</ele><time>2026-03-29T16:43:14.992Z</time></trkpt><trkpt lat="45.430039623980825" lon="8.287563246378777"><ele>163.0</ele><time>2026-03-29T16:43:15.992Z</time></trkpt><trkpt lat="45.430069878995866" lon="8.287416671173908"><ele>163.0</ele><time>2026-03-29T16:43:16.992Z</time></trkpt><trkpt lat="45.43010444516521" lon="8.287267063634715"><ele>163.0</ele><time>2026-03-29T16:43:17.992Z</time></trkpt><trkpt lat="45.43013720831935" lon="8.287114876098494"><ele>163.0</ele><time>2026-03-29T16:43:18.992Z</time></trkpt><trkpt lat="45.430169897587405" lon="8.286966242757"><ele>163.0</ele><time>2026-03-29T16:43:19.992Z</time></trkpt><trkpt lat="45.43019869967949" lon="8.286819811337898"><ele>163.0</ele><time>2026-03-29T16:43:20.992Z</time></trkpt><trkpt lat="45.4302296046867" lon="8.286679617066898"><ele>163.0</ele><time>2026-03-29T16:43:21.992Z</time></trkpt><trkpt lat="45.430267533550975" lon="8.286542606384064"><ele>163.0</ele><time>2026-03-29T16:43:22.992Z</time></trkpt><trkpt lat="45.43031546317188" lon="8.286409243819667"><ele>163.0</ele><time>2026-03-29T16:43:23.992Z</time></trkpt><trkpt lat="45.43036657747203" lon="8.286288230901137"><ele>163.0</ele><time>2026-03-29T16:43:24.992Z</time></trkpt><trkpt lat="45.43041802920667" lon="8.286178828810328"><ele>163.16666666666669</ele><time>2026-03-29T16:43:25.992Z</time></trkpt><trkpt lat="45.43046926203809" lon="8.28607934709703"><ele>163.33333333333334</ele><time>2026-03-29T16:43:26.992Z</time></trkpt><trkpt lat="45.43050754946948" lon="8.285982944992782"><ele>163.5</ele><time>2026-03-29T16:43:27.992Z</time></trkpt><trkpt lat="45.43052418509121" lon="8.285879377566836"><ele>163.66666666666666</ele><time>2026-03-29T16:43:28.992Z</time></trkpt><trkpt lat="45.43052917244062" lon="8.285771829514651"><ele>163.83333333333331</ele><time>2026-03-29T16:43:29.992Z</time></trkpt><trkpt lat="45.430525564511356" lon="8.285670406030514"><ele>164.0</ele><time>2026-03-29T16:43:30.992Z</time></trkpt><trkpt lat="45.430518555325065" lon="8.28557417454089"><ele>164.33333333333331</ele><time>2026-03-29T16:43:31.992Z</time></trkpt><trkpt lat="45.430516753480475" lon="8.2854821498135"><ele>164.66666666666666</ele><time>2026-03-29T16:43:32.992Z</time></trkpt><trkpt lat="45.430526110081885" lon="8.285380266437219"><ele>165.0</ele><time>2026-03-29T16:43:33.992Z</time></trkpt><trkpt lat="45.430539347869136" lon="8.285263029474441"><ele>165.33333333333334</ele><time>2026-03-29T16:43:34.992Z</time></trkpt><trkpt lat="45.43055728963581" lon="8.285129862896078"><ele>165.66666666666669</ele><time>2026-03-29T16:43:35.992Z</time></trkpt><trkpt lat="45.430583873056435" lon="8.28497854488402"><ele>166.0</ele><time>2026-03-29T16:43:36.992Z</time></trkpt><trkpt lat="45.43061608404473" lon="8.284806035584818"><ele>166.0</ele><time>2026-03-29T16:43:37.992Z</time></trkpt><trkpt lat="45.43065412764847" lon="8.284614399057363"><ele>166.0</ele><time>2026-03-29T16:43:38.992Z</time></trkpt><trkpt lat="45.43069771049937" lon="8.28440747276921"><ele>166.0</ele><time>2026-03-29T16:43:39.992Z</time></trkpt><trkpt lat="45.43074260412327" lon="8.284188269398488"><ele>166.0</ele><time>2026-03-29T16:43:40.992Z</time></trkpt><trkpt lat="45.43078512624332" lon="8.283973634232407"><ele>166.0</ele><time>2026-03-29T16:43:41.992Z</time></trkpt><trkpt lat="45.430829736763556" lon="8.283750976201913"><ele>166.0</ele><time>2026-03-29T16:43:42.992Z</time></trkpt><trkpt lat="45.43087676123982" lon="8.28351304550595"><ele>166.33333333333334</ele><time>2026-03-29T16:43:43.992Z</time></trkpt><trkpt lat="45.43092551469002" lon="8.283264160351669"><ele>166.66666666666666</ele><time>2026-03-29T16:43:44.992Z</time></trkpt><trkpt lat="45.43098095262157" lon="8.283004217646726"><ele>167.0</ele><time>2026-03-29T16:43:45.992Z</time></trkpt><trkpt lat="45.43103833906482" lon="8.282731868937"><ele>167.33333333333331</ele><time>2026-03-29T16:43:46.992Z</time></trkpt><trkpt lat="45.431097635653046" lon="8.282450817716793"><ele>167.66666666666666</ele><time>2026-03-29T16:43:47.991Z</time></trkpt><trkpt lat="45.431161482741494" lon="8.28215983183384"><ele>168.0</ele><time>2026-03-29T16:43:48.991Z</time></trkpt><trkpt lat="45.431225553966236" lon="8.28185587069339"><ele>168.5</ele><time>2026-03-29T16:43:49.991Z</time></trkpt><trkpt lat="45.43129161971201" lon="8.281542041261092"><ele>169.0</ele><time>2026-03-29T16:43:50.991Z</time></trkpt><trkpt lat="45.43135888912555" lon="8.281214721129702"><ele>169.0</ele><time>2026-03-29T16:43:51.991Z</time></trkpt><trkpt lat="45.431432172868384" lon="8.280873829198294"><ele>169.0</ele><time>2026-03-29T16:43:52.994Z</time></trkpt><trkpt lat="45.43150534610344" lon="8.280522065669587"><ele>167.5</ele><time>2026-03-29T16:43:53.993Z</time></trkpt><trkpt lat="45.431576544895954" lon="8.28016927175433"><ele>166.0</ele><time>2026-03-29T16:43:54.993Z</time></trkpt><trkpt lat="45.431645748279614" lon="8.279826603283807"><ele>166.5</ele><time>2026-03-29T16:43:55.994Z</time></trkpt><trkpt lat="45.43171722224281" lon="8.279476655571425"><ele>167.0</ele><time>2026-03-29T16:43:56.994Z</time></trkpt><trkpt lat="45.4317880123592" lon="8.279118509952463"><ele>166.0</ele><time>2026-03-29T16:43:57.994Z</time></trkpt><trkpt lat="45.431864243903306" lon="8.278756917672704"><ele>165.0</ele><time>2026-03-29T16:43:58.994Z</time></trkpt><trkpt lat="45.43194308529586" lon="8.278403808235531"><ele>165.5</ele><time>2026-03-29T16:43:59.993Z</time></trkpt><trkpt lat="45.43201617131459" lon="8.278059406491996"><ele>166.0</ele><time>2026-03-29T16:44:00.993Z</time></trkpt><trkpt lat="45.432087802270004" lon="8.27771306210148"><ele>166.0</ele><time>2026-03-29T16:44:01.994Z</time></trkpt><trkpt lat="45.43216112135628" lon="8.277368629604476"><ele>166.0</ele><time>2026-03-29T16:44:02.993Z</time></trkpt><trkpt lat="45.4322350540841" lon="8.277024942344156"><ele>166.0</ele><time>2026-03-29T16:44:03.993Z</time></trkpt><trkpt lat="45.432309490025546" lon="8.276682622773839"><ele>166.0</ele><time>2026-03-29T16:44:04.994Z</time></trkpt><trkpt lat="45.43238196213274" lon="8.276339771949777"><ele>166.5</ele><time>2026-03-29T16:44:05.993Z</time></trkpt><trkpt lat="45.43245467422689" lon="8.275995539162968"><ele>167.0</ele><time>2026-03-29T16:44:06.993Z</time></trkpt><trkpt lat="45.43252539974044" lon="8.275664194885485"><ele>166.5</ele><time>2026-03-29T16:44:07.993Z</time></trkpt><trkpt lat="45.43259364329374" lon="8.27533727888182"><ele>166.0</ele><time>2026-03-29T16:44:08.993Z</time></trkpt><trkpt lat="45.43266246776025" lon="8.275014371866579"><ele>166.5</ele><time>2026-03-29T16:44:09.993Z</time></trkpt><trkpt lat="45.432732791242735" lon="8.274695312192767"><ele>167.0</ele><time>2026-03-29T16:44:10.993Z</time></trkpt><trkpt lat="45.432802150813444" lon="8.274381739894869"><ele>167.0</ele><time>2026-03-29T16:44:11.993Z</time></trkpt><trkpt lat="45.43286901885663" lon="8.274069764154946"><ele>167.0</ele><time>2026-03-29T16:44:12.993Z</time></trkpt><trkpt lat="45.432933988302814" lon="8.27376235831945"><ele>167.33333333333331</ele><time>2026-03-29T16:44:13.993Z</time></trkpt><trkpt lat="45.43299790344673" lon="8.27345651913504"><ele>167.66666666666666</ele><time>2026-03-29T16:44:14.993Z</time></trkpt><trkpt lat="45.43306171601301" lon="8.273154187724085"><ele>168.0</ele><time>2026-03-29T16:44:15.993Z</time></trkpt><trkpt lat="45.433125589222115" lon="8.272853760661745"><ele>168.0</ele><time>2026-03-29T16:44:16.993Z</time></trkpt><trkpt lat="45.433188468778916" lon="8.272554991214088"><ele>168.0</ele><time>2026-03-29T16:44:17.993Z</time></trkpt><trkpt lat="45.43325112583028" lon="8.272255535446565"><ele>168.0</ele><time>2026-03-29T16:44:18.993Z</time></trkpt><trkpt lat="45.433315491500956" lon="8.271955530613088"><ele>168.0</ele><time>2026-03-29T16:44:19.993Z</time></trkpt><trkpt lat="45.433379507406684" lon="8.271654337208581"><ele>168.0</ele><time>2026-03-29T16:44:20.993Z</time></trkpt><trkpt lat="45.433442250941056" lon="8.271353695178503"><ele>168.0</ele><time>2026-03-29T16:44:21.993Z</time></trkpt><trkpt lat="45.433504638821276" lon="8.27105002128809"><ele>168.0</ele><time>2026-03-29T16:44:22.993Z</time></trkpt><trkpt lat="45.433569020875886" lon="8.270742728091705"><ele>168.0</ele><time>2026-03-29T16:44:23.993Z</time></trkpt><trkpt lat="45.43363540814656" lon="8.27043335479173"><ele>168.5</ele><time>2026-03-29T16:44:24.993Z</time></trkpt><trkpt lat="45.433703757378524" lon="8.27012231279133"><ele>169.0</ele><time>2026-03-29T16:44:25.993Z</time></trkpt><trkpt lat="45.433770860298864" lon="8.269809943314565"><ele>169.0</ele><time>2026-03-29T16:44:26.993Z</time></trkpt><trkpt lat="45.43383928481653" lon="8.269494191191148"><ele>169.0</ele><time>2026-03-29T16:44:27.993Z</time></trkpt><trkpt lat="45.43390878756946" lon="8.269178017278385"><ele>169.0</ele><time>2026-03-29T16:44:28.993Z</time></trkpt><trkpt lat="45.43397730474394" lon="8.268858120817146"><ele>169.0</ele><time>2026-03-29T16:44:29.993Z</time></trkpt><trkpt lat="45.43404660574832" lon="8.268532896573017"><ele>169.0</ele><time>2026-03-29T16:44:30.993Z</time></trkpt><trkpt lat="45.43411424200432" lon="8.268203830261193"><ele>169.0</ele><time>2026-03-29T16:44:31.993Z</time></trkpt><trkpt lat="45.43417900912404" lon="8.267871960384422"><ele>169.0</ele><time>2026-03-29T16:44:32.993Z</time></trkpt><trkpt lat="45.434246203898084" lon="8.26753768871803"><ele>169.0</ele><time>2026-03-29T16:44:33.993Z</time></trkpt><trkpt lat="45.43431843870783" lon="8.267201478679569"><ele>169.5</ele><time>2026-03-29T16:44:34.993Z</time></trkpt><trkpt lat="45.43438941444838" lon="8.266863840333055"><ele>170.0</ele><time>2026-03-29T16:44:35.993Z</time></trkpt><trkpt lat="45.434460874991544" lon="8.266522845096226"><ele>170.5</ele><time>2026-03-29T16:44:36.993Z</time></trkpt><trkpt lat="45.43453150465783" lon="8.266182557241134"><ele>171.0</ele><time>2026-03-29T16:44:37.993Z</time></trkpt><trkpt lat="45.43460179190942" lon="8.265841312281523"><ele>171.5</ele><time>2026-03-29T16:44:38.993Z</time></trkpt><trkpt lat="45.434675177990144" lon="8.265499510265512"><ele>172.0</ele><time>2026-03-29T16:44:39.993Z</time></trkpt><trkpt lat="45.43474939076922" lon="8.265157135172664"><ele>172.0</ele><time>2026-03-29T16:44:40.993Z</time></trkpt><trkpt lat="45.43482312669633" lon="8.264813613030022"><ele>172.0</ele><time>2026-03-29T16:44:41.992Z</time></trkpt><trkpt lat="45.43489490838424" lon="8.26446686435154"><ele>172.0</ele><time>2026-03-29T16:44:42.992Z</time></trkpt><trkpt lat="45.434965523826335" lon="8.26412085174546"><ele>172.0</ele><time>2026-03-29T16:44:43.992Z</time></trkpt><trkpt lat="45.43503354900945" lon="8.263772241939344"><ele>171.5</ele><time>2026-03-29T16:44:44.992Z</time></trkpt><trkpt lat="45.43510372626179" lon="8.263425078864703"><ele>171.0</ele><time>2026-03-29T16:44:45.992Z</time></trkpt><trkpt lat="45.43517660766204" lon="8.263079305026906"><ele>170.5</ele><time>2026-03-29T16:44:46.992Z</time></trkpt><trkpt lat="45.43524963275543" lon="8.262733788644839"><ele>170.0</ele><time>2026-03-29T16:44:47.992Z</time></trkpt><trkpt lat="45.435322315196515" lon="8.262388233197012"><ele>170.5</ele><time>2026-03-29T16:44:48.992Z</time></trkpt><trkpt lat="45.43539455797226" lon="8.262042489410446"><ele>171.0</ele><time>2026-03-29T16:44:49.992Z</time></trkpt><trkpt lat="45.4354686048537" lon="8.261700122399361"><ele>171.5</ele><time>2026-03-29T16:44:50.992Z</time></trkpt><trkpt lat="45.43554379235372" lon="8.261359771807406"><ele>172.0</ele><time>2026-03-29T16:44:51.992Z</time></trkpt><trkpt lat="45.43561726322617" lon="8.261019729792807"><ele>172.0</ele><time>2026-03-29T16:44:52.992Z</time></trkpt><trkpt lat="45.435690992375875" lon="8.260679056492148"><ele>172.0</ele><time>2026-03-29T16:44:53.992Z</time></trkpt><trkpt lat="45.43576399187253" lon="8.260339054368796"><ele>172.0</ele><time>2026-03-29T16:44:54.992Z</time></trkpt><trkpt lat="45.4358369704084" lon="8.259999449306884"><ele>172.0</ele><time>2026-03-29T16:44:55.992Z</time></trkpt><trkpt lat="45.43590956304481" lon="8.259659121985877"><ele>172.0</ele><time>2026-03-29T16:44:56.992Z</time></trkpt><trkpt lat="45.4359805034524" lon="8.259318022036766"><ele>172.0</ele><time>2026-03-29T16:44:57.992Z</time></trkpt><trkpt lat="45.4360504533128" lon="8.25897721036696"><ele>172.0</ele><time>2026-03-29T16:44:58.992Z</time></trkpt><trkpt lat="45.43612412337683" lon="8.258638021360154"><ele>172.0</ele><time>2026-03-29T16:44:59.992Z</time></trkpt><trkpt lat="45.43619810406887" lon="8.25829841093792"><ele>172.0</ele><time>2026-03-29T16:45:00.992Z</time></trkpt><trkpt lat="45.436270101521956" lon="8.257957147590863"><ele>172.0</ele><time>2026-03-29T16:45:01.992Z</time></trkpt><trkpt lat="45.4363428098243" lon="8.257616670413944"><ele>172.5</ele><time>2026-03-29T16:45:02.992Z</time></trkpt><trkpt lat="45.43641435360273" lon="8.257275430846233"><ele>173.0</ele><time>2026-03-29T16:45:03.992Z</time></trkpt><trkpt lat="45.43648867137027" lon="8.256936731137"><ele>173.0</ele><time>2026-03-29T16:45:04.992Z</time></trkpt><trkpt lat="45.43655985208775" lon="8.256601895073638"><ele>173.0</ele><time>2026-03-29T16:45:05.992Z</time></trkpt><trkpt lat="45.43663073398442" lon="8.256272619550034"><ele>173.0</ele><time>2026-03-29T16:45:06.992Z</time></trkpt><trkpt lat="45.43670050229067" lon="8.255948679575136"><ele>173.0</ele><time>2026-03-29T16:45:07.992Z</time></trkpt><trkpt lat="45.436771057959" lon="8.255630186425451"><ele>173.0</ele><time>2026-03-29T16:45:08.992Z</time></trkpt><trkpt lat="45.43684299526666" lon="8.255313211862722"><ele>173.0</ele><time>2026-03-29T16:45:09.992Z</time></trkpt><trkpt lat="45.436915361388145" lon="8.255002375499066"><ele>173.0</ele><time>2026-03-29T16:45:10.992Z</time></trkpt><trkpt lat="45.43698770103424" lon="8.254696311002077"><ele>173.0</ele><time>2026-03-29T16:45:11.992Z</time></trkpt><trkpt lat="45.43705905612413" lon="8.25439155593705"><ele>173.0</ele><time>2026-03-29T16:45:12.992Z</time></trkpt><trkpt lat="45.43712677682393" lon="8.254084143048196"><ele>173.0</ele><time>2026-03-29T16:45:13.992Z</time></trkpt><trkpt lat="45.437197353350406" lon="8.253780651268652"><ele>173.0</ele><time>2026-03-29T16:45:14.992Z</time></trkpt><trkpt lat="45.43726688747413" lon="8.253479814726248"><ele>173.0</ele><time>2026-03-29T16:45:15.992Z</time></trkpt><trkpt lat="45.437337335353845" lon="8.25317796691168"><ele>173.0</ele><time>2026-03-29T16:45:16.992Z</time></trkpt><trkpt lat="45.4374085055842" lon="8.25287563107703"><ele>172.66666666666666</ele><time>2026-03-29T16:45:17.992Z</time></trkpt><trkpt lat="45.437478172491346" lon="8.252572549535175"><ele>172.33333333333334</ele><time>2026-03-29T16:45:18.992Z</time></trkpt><trkpt lat="45.43754812114669" lon="8.252268019294368"><ele>172.0</ele><time>2026-03-29T16:45:19.992Z</time></trkpt><trkpt lat="45.437618225848695" lon="8.251965858909864"><ele>172.0</ele><time>2026-03-29T16:45:20.992Z</time></trkpt><trkpt lat="45.43768888748963" lon="8.251662174699916"><ele>172.0</ele><time>2026-03-29T16:45:21.992Z</time></trkpt><trkpt lat="45.4377597224716" lon="8.251357717392317"><ele>173.0</ele><time>2026-03-29T16:45:22.992Z</time></trkpt><trkpt lat="45.4378296494455" lon="8.251049558034763"><ele>174.0</ele><time>2026-03-29T16:45:23.992Z</time></trkpt><trkpt lat="45.437901783905005" lon="8.250738621267699"><ele>173.5</ele><time>2026-03-29T16:45:24.992Z</time></trkpt><trkpt lat="45.43797772996496" lon="8.250426913478519"><ele>173.0</ele><time>2026-03-29T16:45:25.992Z</time></trkpt><trkpt lat="45.43805277977302" lon="8.250113552388802"><ele>173.0</ele><time>2026-03-29T16:45:26.992Z</time></trkpt><trkpt lat="45.438126682216264" lon="8.249797962762122"><ele>173.0</ele><time>2026-03-29T16:45:27.992Z</time></trkpt><trkpt lat="45.43820230593528" lon="8.249477826191212"><ele>173.0</ele><time>2026-03-29T16:45:28.992Z</time></trkpt><trkpt lat="45.43827905324017" lon="8.249156143119537"><ele>173.0</ele><time>2026-03-29T16:45:29.992Z</time></trkpt><trkpt lat="45.43835622021234" lon="8.248832108237377"><ele>173.0</ele><time>2026-03-29T16:45:30.991Z</time></trkpt><trkpt lat="45.438433034754794" lon="8.248507494937735"><ele>173.0</ele><time>2026-03-29T16:45:31.991Z</time></trkpt><trkpt lat="45.43850862263412" lon="8.248181762497264"><ele>173.0</ele><time>2026-03-29T16:45:32.991Z</time></trkpt><trkpt lat="45.43858180371273" lon="8.24785536623722"><ele>173.0</ele><time>2026-03-29T16:45:33.991Z</time></trkpt><trkpt lat="45.438656308524514" lon="8.24752795523908"><ele>173.5</ele><time>2026-03-29T16:45:34.991Z</time></trkpt><trkpt lat="45.4387325253801" lon="8.247201032702677"><ele>174.0</ele><time>2026-03-29T16:45:35.991Z</time></trkpt><trkpt lat="45.43880774838843" lon="8.246878300716425"><ele>174.0</ele><time>2026-03-29T16:45:36.991Z</time></trkpt><trkpt lat="45.43887783840918" lon="8.246568669232694"><ele>174.0</ele><time>2026-03-29T16:45:37.991Z</time></trkpt><trkpt lat="45.43894461207775" lon="8.246275499981431"><ele>174.0</ele><time>2026-03-29T16:45:38.991Z</time></trkpt><trkpt lat="45.43900799530358" lon="8.245998548660877"><ele>174.33333333333334</ele><time>2026-03-29T16:45:39.991Z</time></trkpt><trkpt lat="45.43907193497273" lon="8.245736181031909"><ele>174.66666666666669</ele><time>2026-03-29T16:45:40.991Z</time></trkpt><trkpt lat="45.43913484689419" lon="8.245485572786244"><ele>175.0</ele><time>2026-03-29T16:45:41.991Z</time></trkpt><trkpt lat="45.43919444828723" lon="8.245236912311732"><ele>175.33333333333334</ele><time>2026-03-29T16:45:42.991Z</time></trkpt><trkpt lat="45.43924911701253" lon="8.244988286148871"><ele>175.66666666666666</ele><time>2026-03-29T16:45:43.991Z</time></trkpt><trkpt lat="45.43930202345701" lon="8.244740531059593"><ele>176.0</ele><time>2026-03-29T16:45:44.991Z</time></trkpt><trkpt lat="45.439356032818395" lon="8.2444976651719"><ele>176.0</ele><time>2026-03-29T16:45:45.991Z</time></trkpt><trkpt lat="45.43941198158664" lon="8.244260878405697"><ele>176.0</ele><time>2026-03-29T16:45:46.991Z</time></trkpt><trkpt lat="45.43946633948065" lon="8.244024998891412"><ele>176.0</ele><time>2026-03-29T16:45:47.991Z</time></trkpt><trkpt lat="45.439521441301345" lon="8.243793807018639"><ele>176.33333333333331</ele><time>2026-03-29T16:45:48.991Z</time></trkpt><trkpt lat="45.43957261970035" lon="8.243572609224804"><ele>176.66666666666666</ele><time>2026-03-29T16:45:49.991Z</time></trkpt><trkpt lat="45.439621357666205" lon="8.243357991711918"><ele>177.0</ele><time>2026-03-29T16:45:50.991Z</time></trkpt><trkpt lat="45.43966899981105" lon="8.243153847908644"><ele>178.0</ele><time>2026-03-29T16:45:51.991Z</time></trkpt><trkpt lat="45.43971736965889" lon="8.2429611492817"><ele>179.0</ele><time>2026-03-29T16:45:52.991Z</time></trkpt><trkpt lat="45.43976328971957" lon="8.242778960552256"><ele>180.0</ele><time>2026-03-29T16:45:53.991Z</time></trkpt><trkpt lat="45.439797892398666" lon="8.242612975798076"><ele>181.0</ele><time>2026-03-29T16:45:54.991Z</time></trkpt><trkpt lat="45.439836731162906" lon="8.242450363861039"><ele>180.5</ele><time>2026-03-29T16:45:55.991Z</time></trkpt><trkpt lat="45.439870498680314" lon="8.24229109050306"><ele>180.0</ele><time>2026-03-29T16:45:56.991Z</time></trkpt><trkpt lat="45.43990632699879" lon="8.24213248587229"><ele>179.5</ele><time>2026-03-29T16:45:57.991Z</time></trkpt><trkpt lat="45.43994232707961" lon="8.241970839687896"><ele>179.0</ele><time>2026-03-29T16:45:58.994Z</time></trkpt><trkpt lat="45.439971352578475" lon="8.24180346320797"><ele>179.0</ele><time>2026-03-29T16:45:59.994Z</time></trkpt><trkpt lat="45.439995341593125" lon="8.2416427016219"><ele>179.0</ele><time>2026-03-29T16:46:00.994Z</time></trkpt><trkpt lat="45.4400322887706" lon="8.24147060089786"><ele>179.0</ele><time>2026-03-29T16:46:01.993Z</time></trkpt><trkpt lat="45.44008372485934" lon="8.241280493799641"><ele>179.0</ele><time>2026-03-29T16:46:02.994Z</time></trkpt><trkpt lat="45.440131867672534" lon="8.241078593001514"><ele>179.0</ele><time>2026-03-29T16:46:03.994Z</time></trkpt><trkpt lat="45.440179835977865" lon="8.240863251253392"><ele>179.0</ele><time>2026-03-29T16:46:04.994Z</time></trkpt><trkpt lat="45.44022855362883" lon="8.24063650983307"><ele>179.0</ele><time>2026-03-29T16:46:05.994Z</time></trkpt><trkpt lat="45.440277794859874" lon="8.240401506591839"><ele>179.0</ele><time>2026-03-29T16:46:06.994Z</time></trkpt><trkpt lat="45.440329731232886" lon="8.240160540840607"><ele>179.0</ele><time>2026-03-29T16:46:07.994Z</time></trkpt><trkpt lat="45.440385649537575" lon="8.239911770777496"><ele>179.0</ele><time>2026-03-29T16:46:08.994Z</time></trkpt><trkpt lat="45.44043919818631" lon="8.239671910164253"><ele>179.33333333333331</ele><time>2026-03-29T16:46:09.994Z</time></trkpt><trkpt lat="45.44049420420205" lon="8.239431795876357"><ele>179.66666666666666</ele><time>2026-03-29T16:46:10.993Z</time></trkpt><trkpt lat="45.44055151428769" lon="8.23918659092374"><ele>180.0</ele><time>2026-03-29T16:46:11.994Z</time></trkpt><trkpt lat="45.44061108529255" lon="8.238935630289559"><ele>180.0</ele><time>2026-03-29T16:46:12.994Z</time></trkpt><trkpt lat="45.44067549406581" lon="8.238680449669225"><ele>180.0</ele><time>2026-03-29T16:46:13.994Z</time></trkpt><trkpt lat="45.44074375085533" lon="8.238417941084196"><ele>180.0</ele><time>2026-03-29T16:46:14.994Z</time></trkpt><trkpt lat="45.44081383758657" lon="8.238147879299786"><ele>180.0</ele><time>2026-03-29T16:46:15.994Z</time></trkpt><trkpt lat="45.44089058813886" lon="8.237873538344804"><ele>180.0</ele><time>2026-03-29T16:46:16.994Z</time></trkpt><trkpt lat="45.440979073518214" lon="8.237601086309457"><ele>180.0</ele><time>2026-03-29T16:46:17.994Z</time></trkpt><trkpt lat="45.44107854228009" lon="8.237333008221036"><ele>180.33333333333334</ele><time>2026-03-29T16:46:18.994Z</time></trkpt><trkpt lat="45.44118429520968" lon="8.237085076093488"><ele>180.66666666666669</ele><time>2026-03-29T16:46:19.994Z</time></trkpt><trkpt lat="45.441297433803086" lon="8.236846157493451"><ele>181.0</ele><time>2026-03-29T16:46:20.994Z</time></trkpt><trkpt lat="45.44142227641938" lon="8.23661762682298"><ele>180.66666666666669</ele><time>2026-03-29T16:46:21.994Z</time></trkpt><trkpt lat="45.441558892190486" lon="8.236399853412657"><ele>180.33333333333334</ele><time>2026-03-29T16:46:22.994Z</time></trkpt><trkpt lat="45.44170538235267" lon="8.236192553941489"><ele>180.0</ele><time>2026-03-29T16:46:23.994Z</time></trkpt><trkpt lat="45.44186367338419" lon="8.23599749039326"><ele>180.0</ele><time>2026-03-29T16:46:24.994Z</time></trkpt><trkpt lat="45.44203076167043" lon="8.235814929875877"><ele>180.0</ele><time>2026-03-29T16:46:25.994Z</time></trkpt><trkpt lat="45.442203016291906" lon="8.235640342649122"><ele>180.0</ele><time>2026-03-29T16:46:26.994Z</time></trkpt><trkpt lat="45.442381318464705" lon="8.235479555857488"><ele>180.0</ele><time>2026-03-29T16:46:27.994Z</time></trkpt><trkpt lat="45.44256298553197" lon="8.235327797686905"><ele>180.0</ele><time>2026-03-29T16:46:28.994Z</time></trkpt><trkpt lat="45.44274785368757" lon="8.235177674522127"><ele>180.0</ele><time>2026-03-29T16:46:29.994Z</time></trkpt><trkpt lat="45.44293315032786" lon="8.235023739589167"><ele>180.0</ele><time>2026-03-29T16:46:30.994Z</time></trkpt><trkpt lat="45.44311796020168" lon="8.234872462952293"><ele>180.0</ele><time>2026-03-29T16:46:31.994Z</time></trkpt><trkpt lat="45.44330279485531" lon="8.234720966498964"><ele>180.0</ele><time>2026-03-29T16:46:32.993Z</time></trkpt><trkpt lat="45.44348531644529" lon="8.23457095128046"><ele>180.0</ele><time>2026-03-29T16:46:33.993Z</time></trkpt><trkpt lat="45.44366857227234" lon="8.234421261741971"><ele>180.0</ele><time>2026-03-29T16:46:34.993Z</time></trkpt><trkpt lat="45.443851691172085" lon="8.234274652296202"><ele>180.0</ele><time>2026-03-29T16:46:35.993Z</time></trkpt><trkpt lat="45.44403336833925" lon="8.234130228973084"><ele>181.0</ele><time>2026-03-29T16:46:36.993Z</time></trkpt><trkpt lat="45.4442099284366" lon="8.233988238731902"><ele>182.0</ele><time>2026-03-29T16:46:37.993Z</time></trkpt><trkpt lat="45.444381228781744" lon="8.233848199152767"><ele>183.0</ele><time>2026-03-29T16:46:38.993Z</time></trkpt><trkpt lat="45.44454947657181" lon="8.233713664816328"><ele>183.0</ele><time>2026-03-29T16:46:39.993Z</time></trkpt><trkpt lat="45.444710236361274" lon="8.233580855008235"><ele>183.0</ele><time>2026-03-29T16:46:40.993Z</time></trkpt><trkpt lat="45.444862314812774" lon="8.233448425220152"><ele>183.0</ele><time>2026-03-29T16:46:41.993Z</time></trkpt><trkpt lat="45.44501074104726" lon="8.233325967257047"><ele>183.0</ele><time>2026-03-29T16:46:42.993Z</time></trkpt><trkpt lat="45.44515029840574" lon="8.233208017585067"><ele>183.0</ele><time>2026-03-29T16:46:43.993Z</time></trkpt><trkpt lat="45.44528520635746" lon="8.233097323038368"><ele>183.0</ele><time>2026-03-29T16:46:44.993Z</time></trkpt><trkpt lat="45.44541504272276" lon="8.232987994723398"><ele>183.0</ele><time>2026-03-29T16:46:45.993Z</time></trkpt><trkpt lat="45.44554205769183" lon="8.232883579272393"><ele>183.0</ele><time>2026-03-29T16:46:46.993Z</time></trkpt><trkpt lat="45.445662668131625" lon="8.232788384867506"><ele>183.0</ele><time>2026-03-29T16:46:47.993Z</time></trkpt><trkpt lat="45.44577452814148" lon="8.232702306122873"><ele>183.0</ele><time>2026-03-29T16:46:48.993Z</time></trkpt><trkpt lat="45.445876222384406" lon="8.232622782336152"><ele>183.0</ele><time>2026-03-29T16:46:49.993Z</time></trkpt><trkpt lat="45.44596667462782" lon="8.232558144425115"><ele>183.0</ele><time>2026-03-29T16:46:50.993Z</time></trkpt><trkpt lat="45.44604746811988" lon="8.232505857009457"><ele>183.0</ele><time>2026-03-29T16:46:51.993Z</time></trkpt><trkpt lat="45.44612034622653" lon="8.23247442424616"><ele>183.0</ele><time>2026-03-29T16:46:52.993Z</time></trkpt><trkpt lat="45.446211744893176" lon="8.23246304455415"><ele>183.0</ele><time>2026-03-29T16:46:54.993Z</time></trkpt><trkpt lat="45.44629393138422" lon="8.232500777270769"><ele>183.0</ele><time>2026-03-29T16:46:58.993Z</time></trkpt><trkpt lat="45.44638384133408" lon="8.232514258763475"><ele>182.60000000000002</ele><time>2026-03-29T16:47:00.993Z</time></trkpt><trkpt lat="45.44647466475771" lon="8.232407631646991"><ele>182.20000000000002</ele><time>2026-03-29T16:47:02.993Z</time></trkpt><trkpt lat="45.4465064433856" lon="8.232311805581332"><ele>181.8</ele><time>2026-03-29T16:47:03.993Z</time></trkpt><trkpt lat="45.44653890533557" lon="8.232206151663329"><ele>181.4</ele><time>2026-03-29T16:47:04.993Z</time></trkpt><trkpt lat="45.446584675031545" lon="8.23209879999319"><ele>181.0</ele><time>2026-03-29T16:47:05.993Z</time></trkpt><trkpt lat="45.44664892516559" lon="8.23201094616129"><ele>181.0</ele><time>2026-03-29T16:47:06.993Z</time></trkpt><trkpt lat="45.446718294833296" lon="8.231949841855075"><ele>181.0</ele><time>2026-03-29T16:47:07.993Z</time></trkpt><trkpt lat="45.44679430496222" lon="8.231883599740833"><ele>181.0</ele><time>2026-03-29T16:47:08.993Z</time></trkpt><trkpt lat="45.446880028862445" lon="8.231810426587868"><ele>181.0</ele><time>2026-03-29T16:47:09.993Z</time></trkpt><trkpt lat="45.44697717213357" lon="8.231727618516882"><ele>181.0</ele><time>2026-03-29T16:47:10.993Z</time></trkpt><trkpt lat="45.44708365581068" lon="8.231636906183718"><ele>181.0</ele><time>2026-03-29T16:47:11.993Z</time></trkpt><trkpt lat="45.44719892387575" lon="8.231539862313639"><ele>181.0</ele><time>2026-03-29T16:47:12.993Z</time></trkpt><trkpt lat="45.447311844638676" lon="8.231452908828938"><ele>181.0</ele><time>2026-03-29T16:47:13.993Z</time></trkpt><trkpt lat="45.44742787314602" lon="8.231362697594518"><ele>181.0</ele><time>2026-03-29T16:47:14.993Z</time></trkpt><trkpt lat="45.44755577082203" lon="8.231261507690544"><ele>181.0</ele><time>2026-03-29T16:47:15.993Z</time></trkpt><trkpt lat="45.44769025287683" lon="8.231152989209878"><ele>181.0</ele><time>2026-03-29T16:47:16.993Z</time></trkpt><trkpt lat="45.44783148624452" lon="8.231040958113068"><ele>181.0</ele><time>2026-03-29T16:47:17.993Z</time></trkpt><trkpt lat="45.447979927090756" lon="8.23092406956431"><ele>181.0</ele><time>2026-03-29T16:47:18.993Z</time></trkpt><trkpt lat="45.448136313638415" lon="8.230800196087925"><ele>181.0</ele><time>2026-03-29T16:47:19.993Z</time></trkpt><trkpt lat="45.44829116555854" lon="8.230673624401065"><ele>181.0</ele><time>2026-03-29T16:47:20.993Z</time></trkpt><trkpt lat="45.44843497010921" lon="8.230553979455037"><ele>181.0</ele><time>2026-03-29T16:47:21.993Z</time></trkpt><trkpt lat="45.44858004644352" lon="8.23043718633837"><ele>181.0</ele><time>2026-03-29T16:47:22.992Z</time></trkpt><trkpt lat="45.448730673366015" lon="8.23031949596256"><ele>181.0</ele><time>2026-03-29T16:47:23.992Z</time></trkpt><trkpt lat="45.44888507583209" lon="8.23019752509806"><ele>181.33333333333334</ele><time>2026-03-29T16:47:24.992Z</time></trkpt><trkpt lat="45.449042062159144" lon="8.230073169015217"><ele>181.66666666666666</ele><time>2026-03-29T16:47:25.992Z</time></trkpt><trkpt lat="45.449202629041295" lon="8.229946692504297"><ele>182.0</ele><time>2026-03-29T16:47:26.992Z</time></trkpt><trkpt lat="45.44936456263017" lon="8.229816935580416"><ele>182.0</ele><time>2026-03-29T16:47:27.992Z</time></trkpt><trkpt lat="45.44952946586671" lon="8.229685344064478"><ele>182.0</ele><time>2026-03-29T16:47:28.992Z</time></trkpt><trkpt lat="45.44969740257847" lon="8.229551889879673"><ele>182.0</ele><time>2026-03-29T16:47:29.992Z</time></trkpt><trkpt lat="45.449868438443076" lon="8.229416832809644"><ele>182.0</ele><time>2026-03-29T16:47:30.992Z</time></trkpt><trkpt lat="45.45003672962199" lon="8.229282604770045"><ele>182.0</ele><time>2026-03-29T16:47:31.992Z</time></trkpt><trkpt lat="45.450194845685544" lon="8.229154439603306"><ele>182.0</ele><time>2026-03-29T16:47:32.992Z</time></trkpt><trkpt lat="45.450357437977516" lon="8.229022433722808"><ele>182.33333333333331</ele><time>2026-03-29T16:47:33.992Z</time></trkpt><trkpt lat="45.45052501621553" lon="8.2288889788609"><ele>182.66666666666666</ele><time>2026-03-29T16:47:34.992Z</time></trkpt><trkpt lat="45.45069411545865" lon="8.22875176746147"><ele>183.0</ele><time>2026-03-29T16:47:35.992Z</time></trkpt><trkpt lat="45.45086724376746" lon="8.228610292544198"><ele>183.0</ele><time>2026-03-29T16:47:36.992Z</time></trkpt><trkpt lat="45.45103944675427" lon="8.228466621170623"><ele>183.0</ele><time>2026-03-29T16:47:37.992Z</time></trkpt><trkpt lat="45.45121177089175" lon="8.228322479675452"><ele>183.0</ele><time>2026-03-29T16:47:38.992Z</time></trkpt><trkpt lat="45.45138503866689" lon="8.228178685876392"><ele>183.0</ele><time>2026-03-29T16:47:39.992Z</time></trkpt><trkpt lat="45.451560771852485" lon="8.2280352868927"><ele>183.0</ele><time>2026-03-29T16:47:40.992Z</time></trkpt><trkpt lat="45.451738372959596" lon="8.227894633327038"><ele>183.0</ele><time>2026-03-29T16:47:41.992Z</time></trkpt><trkpt lat="45.451915503097226" lon="8.227757487374847"><ele>183.0</ele><time>2026-03-29T16:47:42.992Z</time></trkpt><trkpt lat="45.45209380659365" lon="8.227616227804365"><ele>183.0</ele><time>2026-03-29T16:47:43.992Z</time></trkpt><trkpt lat="45.45227117957716" lon="8.22747243520518"><ele>183.0</ele><time>2026-03-29T16:47:44.992Z</time></trkpt><trkpt lat="45.45245162624777" lon="8.227328339078074"><ele>183.0</ele><time>2026-03-29T16:47:45.992Z</time></trkpt><trkpt lat="45.45263472733587" lon="8.22718457428167"><ele>183.0</ele><time>2026-03-29T16:47:46.992Z</time></trkpt><trkpt lat="45.45281912407623" lon="8.227041742305222"><ele>183.0</ele><time>2026-03-29T16:47:47.992Z</time></trkpt><trkpt lat="45.453003459908295" lon="8.226894857863384"><ele>183.0</ele><time>2026-03-29T16:47:48.992Z</time></trkpt><trkpt lat="45.4531886743538" lon="8.226743131520553"><ele>183.0</ele><time>2026-03-29T16:47:49.992Z</time></trkpt><trkpt lat="45.45337536108846" lon="8.226590177855858"><ele>183.0</ele><time>2026-03-29T16:47:50.992Z</time></trkpt><trkpt lat="45.45356293029298" lon="8.226435238028884"><ele>183.0</ele><time>2026-03-29T16:47:51.992Z</time></trkpt><trkpt lat="45.45375336878206" lon="8.22627783426676"><ele>183.0</ele><time>2026-03-29T16:47:52.992Z</time></trkpt><trkpt lat="45.45394198037365" lon="8.226123087805144"><ele>183.0</ele><time>2026-03-29T16:47:53.992Z</time></trkpt><trkpt lat="45.4541256487621" lon="8.22597582724967"><ele>183.0</ele><time>2026-03-29T16:47:54.992Z</time></trkpt><trkpt lat="45.45430782875928" lon="8.225826792538953"><ele>183.0</ele><time>2026-03-29T16:47:55.992Z</time></trkpt><trkpt lat="45.454490835284204" lon="8.22567618743699"><ele>183.0</ele><time>2026-03-29T16:47:56.992Z</time></trkpt><trkpt lat="45.45467462470881" lon="8.225527636784543"><ele>183.33333333333334</ele><time>2026-03-29T16:47:57.992Z</time></trkpt><trkpt lat="45.454859752624834" lon="8.225376519013738"><ele>183.66666666666669</ele><time>2026-03-29T16:47:58.992Z</time></trkpt><trkpt lat="45.45504489687919" lon="8.225225433608834"><ele>184.0</ele><time>2026-03-29T16:47:59.992Z</time></trkpt><trkpt lat="45.45523114994366" lon="8.225073042350608"><ele>184.0</ele><time>2026-03-29T16:48:00.992Z</time></trkpt><trkpt lat="45.45541975209688" lon="8.224921362215147"><ele>184.0</ele><time>2026-03-29T16:48:01.992Z</time></trkpt><trkpt lat="45.45561104341607" lon="8.224769594069052"><ele>184.0</ele><time>2026-03-29T16:48:02.992Z</time></trkpt><trkpt lat="45.455803020706405" lon="8.224615778217439"><ele>184.0</ele><time>2026-03-29T16:48:03.992Z</time></trkpt><trkpt lat="45.455996508722876" lon="8.224458165155495"><ele>184.0</ele><time>2026-03-29T16:48:04.994Z</time></trkpt><trkpt lat="45.4561906884738" lon="8.224297892337374"><ele>184.0</ele><time>2026-03-29T16:48:05.994Z</time></trkpt><trkpt lat="45.45638591504552" lon="8.224136224592009"><ele>185.0</ele><time>2026-03-29T16:48:06.994Z</time></trkpt><trkpt lat="45.45658231793654" lon="8.223973790650312"><ele>186.0</ele><time>2026-03-29T16:48:07.994Z</time></trkpt><trkpt lat="45.45677947120933" lon="8.223809637516398"><ele>186.0</ele><time>2026-03-29T16:48:08.994Z</time></trkpt><trkpt lat="45.45697776129265" lon="8.223648216907833"><ele>186.0</ele><time>2026-03-29T16:48:09.994Z</time></trkpt><trkpt lat="45.4571782560229" lon="8.223488411999607"><ele>186.5</ele><time>2026-03-29T16:48:10.994Z</time></trkpt><trkpt lat="45.457380172534776" lon="8.223325973555756"><ele>187.0</ele><time>2026-03-29T16:48:11.994Z</time></trkpt><trkpt lat="45.457584146262704" lon="8.2231644316656"><ele>187.0</ele><time>2026-03-29T16:48:12.994Z</time></trkpt><trkpt lat="45.457787767150414" lon="8.223000759974447"><ele>187.0</ele><time>2026-03-29T16:48:13.994Z</time></trkpt><trkpt lat="45.45799194356392" lon="8.222835172095499"><ele>186.5</ele><time>2026-03-29T16:48:14.994Z</time></trkpt><trkpt lat="45.458198843410685" lon="8.222669796598556"><ele>186.0</ele><time>2026-03-29T16:48:15.994Z</time></trkpt><trkpt lat="45.45840650278821" lon="8.222501917210383"><ele>186.0</ele><time>2026-03-29T16:48:16.994Z</time></trkpt><trkpt lat="45.45861344089608" lon="8.222332611875407"><ele>186.0</ele><time>2026-03-29T16:48:17.994Z</time></trkpt><trkpt lat="45.45881994468985" lon="8.222160849128922"><ele>185.5</ele><time>2026-03-29T16:48:18.994Z</time></trkpt><trkpt lat="45.459027413114605" lon="8.221988076961436"><ele>185.0</ele><time>2026-03-29T16:48:19.994Z</time></trkpt><trkpt lat="45.4592350915457" lon="8.221815590950209"><ele>185.0</ele><time>2026-03-29T16:48:20.994Z</time></trkpt><trkpt lat="45.459443951260866" lon="8.221644333677919"><ele>185.0</ele><time>2026-03-29T16:48:21.994Z</time></trkpt><trkpt lat="45.45965257748085" lon="8.22147432906701"><ele>186.0</ele><time>2026-03-29T16:48:22.994Z</time></trkpt><trkpt lat="45.45986210181659" lon="8.221303894812504"><ele>187.0</ele><time>2026-03-29T16:48:23.994Z</time></trkpt><trkpt lat="45.4600725607426" lon="8.221135856723347"><ele>187.0</ele><time>2026-03-29T16:48:24.994Z</time></trkpt><trkpt lat="45.46028304904477" lon="8.220966882359376"><ele>187.0</ele><time>2026-03-29T16:48:25.994Z</time></trkpt><trkpt lat="45.46049172411587" lon="8.220797167500217"><ele>188.0</ele><time>2026-03-29T16:48:26.994Z</time></trkpt><trkpt lat="45.46069959034278" lon="8.220624321455437"><ele>189.0</ele><time>2026-03-29T16:48:27.994Z</time></trkpt><trkpt lat="45.4609081921408" lon="8.220453314192751"><ele>189.0</ele><time>2026-03-29T16:48:28.994Z</time></trkpt><trkpt lat="45.461119446154825" lon="8.220285244194612"><ele>189.0</ele><time>2026-03-29T16:48:29.994Z</time></trkpt><trkpt lat="45.46132986576105" lon="8.220118841995873"><ele>189.0</ele><time>2026-03-29T16:48:30.994Z</time></trkpt><trkpt lat="45.46154176876654" lon="8.219952650638852"><ele>189.0</ele><time>2026-03-29T16:48:31.994Z</time></trkpt><trkpt lat="45.461751581296106" lon="8.219785335191139"><ele>189.0</ele><time>2026-03-29T16:48:32.994Z</time></trkpt><trkpt lat="45.4619603388663" lon="8.219613275642084"><ele>189.0</ele><time>2026-03-29T16:48:33.993Z</time></trkpt><trkpt lat="45.46216679010917" lon="8.21943872491618"><ele>188.5</ele><time>2026-03-29T16:48:34.993Z</time></trkpt><trkpt lat="45.46237449645236" lon="8.219268638957903"><ele>188.0</ele><time>2026-03-29T16:48:35.993Z</time></trkpt><trkpt lat="45.46258258952538" lon="8.219100722070603"><ele>188.5</ele><time>2026-03-29T16:48:36.993Z</time></trkpt><trkpt lat="45.46279027148446" lon="8.21893338576501"><ele>189.0</ele><time>2026-03-29T16:48:37.993Z</time></trkpt><trkpt lat="45.46299806128078" lon="8.218766442971853"><ele>189.0</ele><time>2026-03-29T16:48:38.993Z</time></trkpt><trkpt lat="45.46320461031055" lon="8.21859653151882"><ele>189.0</ele><time>2026-03-29T16:48:39.993Z</time></trkpt><trkpt lat="45.4634116988079" lon="8.21842915403524"><ele>189.0</ele><time>2026-03-29T16:48:40.993Z</time></trkpt><trkpt lat="45.46362072872686" lon="8.218264109409184"><ele>189.0</ele><time>2026-03-29T16:48:41.993Z</time></trkpt><trkpt lat="45.463829183950054" lon="8.218098793370336"><ele>189.0</ele><time>2026-03-29T16:48:42.993Z</time></trkpt><trkpt lat="45.4640353401606" lon="8.217931053351418"><ele>189.0</ele><time>2026-03-29T16:48:43.993Z</time></trkpt><trkpt lat="45.46424153310418" lon="8.217761664759104"><ele>189.0</ele><time>2026-03-29T16:48:44.993Z</time></trkpt><trkpt lat="45.46444720963412" lon="8.217592593835288"><ele>189.0</ele><time>2026-03-29T16:48:45.993Z</time></trkpt><trkpt lat="45.46465239380485" lon="8.217422034004702"><ele>189.5</ele><time>2026-03-29T16:48:46.993Z</time></trkpt><trkpt lat="45.464858225754114" lon="8.217254122743276"><ele>190.0</ele><time>2026-03-29T16:48:47.993Z</time></trkpt><trkpt lat="45.465063740924386" lon="8.217086888079528"><ele>190.0</ele><time>2026-03-29T16:48:48.993Z</time></trkpt><trkpt lat="45.46526683379049" lon="8.216920323437723"><ele>190.0</ele><time>2026-03-29T16:48:49.993Z</time></trkpt><trkpt lat="45.46547022195014" lon="8.216754036377774"><ele>190.0</ele><time>2026-03-29T16:48:50.993Z</time></trkpt><trkpt lat="45.465671751321636" lon="8.216587790879977"><ele>190.0</ele><time>2026-03-29T16:48:51.993Z</time></trkpt><trkpt lat="45.46587500581561" lon="8.216425240379657"><ele>190.0</ele><time>2026-03-29T16:48:52.993Z</time></trkpt><trkpt lat="45.46607619898804" lon="8.216264737908212"><ele>190.0</ele><time>2026-03-29T16:48:53.993Z</time></trkpt><trkpt lat="45.46627242147615" lon="8.216104263073499"><ele>190.0</ele><time>2026-03-29T16:48:54.993Z</time></trkpt><trkpt lat="45.46646098967028" lon="8.215949739856855"><ele>190.0</ele><time>2026-03-29T16:48:55.993Z</time></trkpt><trkpt lat="45.4666407901977" lon="8.215806948274796"><ele>190.0</ele><time>2026-03-29T16:48:56.993Z</time></trkpt><trkpt lat="45.466813506441184" lon="8.215675510459034"><ele>190.33333333333334</ele><time>2026-03-29T16:48:57.993Z</time></trkpt><trkpt lat="45.466975871620775" lon="8.21554745179276"><ele>190.66666666666666</ele><time>2026-03-29T16:48:58.993Z</time></trkpt><trkpt lat="45.46712997594488" lon="8.215425051385036"><ele>191.0</ele><time>2026-03-29T16:48:59.993Z</time></trkpt><trkpt lat="45.46727847055827" lon="8.215314675772143"><ele>191.0</ele><time>2026-03-29T16:49:00.993Z</time></trkpt><trkpt lat="45.467422618114014" lon="8.215212625333939"><ele>191.0</ele><time>2026-03-29T16:49:01.993Z</time></trkpt><trkpt lat="45.467557077093204" lon="8.215117936605832"><ele>191.0</ele><time>2026-03-29T16:49:02.993Z</time></trkpt><trkpt lat="45.467679487921046" lon="8.215033922966144"><ele>191.0</ele><time>2026-03-29T16:49:03.993Z</time></trkpt><trkpt lat="45.4677958303419" lon="8.214968137072502"><ele>191.0</ele><time>2026-03-29T16:49:04.993Z</time></trkpt><trkpt lat="45.46791262272459" lon="8.214923890805627"><ele>191.0</ele><time>2026-03-29T16:49:05.993Z</time></trkpt><trkpt lat="45.46802419616524" lon="8.214921080969196"><ele>191.0</ele><time>2026-03-29T16:49:06.993Z</time></trkpt><trkpt lat="45.46813652142756" lon="8.214937504838717"><ele>191.0</ele><time>2026-03-29T16:49:07.993Z</time></trkpt><trkpt lat="45.46825442606942" lon="8.21493942505452"><ele>190.75</ele><time>2026-03-29T16:49:08.993Z</time></trkpt><trkpt lat="45.46837737419499" lon="8.214933878517606"><ele>190.5</ele><time>2026-03-29T16:49:09.993Z</time></trkpt><trkpt lat="45.468506976602576" lon="8.214945239963463"><ele>190.25</ele><time>2026-03-29T16:49:10.993Z</time></trkpt><trkpt lat="45.468639285165914" lon="8.215000236410429"><ele>190.0</ele><time>2026-03-29T16:49:11.993Z</time></trkpt><trkpt lat="45.46877196607561" lon="8.215089458428299"><ele>190.66666666666669</ele><time>2026-03-29T16:49:12.993Z</time></trkpt><trkpt lat="45.46890731342472" lon="8.215194579187356"><ele>191.33333333333334</ele><time>2026-03-29T16:49:13.993Z</time></trkpt><trkpt lat="45.469052190124934" lon="8.215302580089674"><ele>192.0</ele><time>2026-03-29T16:49:14.993Z</time></trkpt><trkpt lat="45.46920480919357" lon="8.215412423736245"><ele>192.0</ele><time>2026-03-29T16:49:15.993Z</time></trkpt><trkpt lat="45.469364095870326" lon="8.215530347081234"><ele>192.0</ele><time>2026-03-29T16:49:16.993Z</time></trkpt><trkpt lat="45.469529497593996" lon="8.215651412750764"><ele>192.0</ele><time>2026-03-29T16:49:17.993Z</time></trkpt><trkpt lat="45.46969707443967" lon="8.215775381837675"><ele>192.0</ele><time>2026-03-29T16:49:18.993Z</time></trkpt><trkpt lat="45.46987042343198" lon="8.21590585380889"><ele>192.0</ele><time>2026-03-29T16:49:19.993Z</time></trkpt><trkpt lat="45.470047595491806" lon="8.216040286451223"><ele>192.0</ele><time>2026-03-29T16:49:20.993Z</time></trkpt><trkpt lat="45.47022794559165" lon="8.216176182483927"><ele>192.0</ele><time>2026-03-29T16:49:21.993Z</time></trkpt><trkpt lat="45.4704137420746" lon="8.216314059479743"><ele>192.0</ele><time>2026-03-29T16:49:22.993Z</time></trkpt><trkpt lat="45.4706042966773" lon="8.216456087613071"><ele>192.0</ele><time>2026-03-29T16:49:23.992Z</time></trkpt><trkpt lat="45.47079217170243" lon="8.216595679716738"><ele>191.66666666666666</ele><time>2026-03-29T16:49:24.992Z</time></trkpt><trkpt lat="45.470970707793356" lon="8.216724668570146"><ele>191.33333333333331</ele><time>2026-03-29T16:49:25.992Z</time></trkpt><trkpt lat="45.47114838369638" lon="8.216856637202595"><ele>191.0</ele><time>2026-03-29T16:49:26.992Z</time></trkpt><trkpt lat="45.47132769572527" lon="8.21699329926857"><ele>191.0</ele><time>2026-03-29T16:49:27.992Z</time></trkpt><trkpt lat="45.471507658483624" lon="8.21713099078542"><ele>191.0</ele><time>2026-03-29T16:49:28.992Z</time></trkpt><trkpt lat="45.47168955023297" lon="8.217266223022962"><ele>191.0</ele><time>2026-03-29T16:49:29.992Z</time></trkpt><trkpt lat="45.471874015644424" lon="8.217404737941846"><ele>191.0</ele><time>2026-03-29T16:49:30.992Z</time></trkpt><trkpt lat="45.47206000633605" lon="8.21754402466105"><ele>191.0</ele><time>2026-03-29T16:49:31.992Z</time></trkpt><trkpt lat="45.472247399515766" lon="8.217683215822406"><ele>191.0</ele><time>2026-03-29T16:49:32.992Z</time></trkpt><trkpt lat="45.47243951332273" lon="8.217812568158193"><ele>191.0</ele><time>2026-03-29T16:49:33.992Z</time></trkpt><trkpt lat="45.472636941737264" lon="8.217928753863053"><ele>191.0</ele><time>2026-03-29T16:49:34.992Z</time></trkpt><trkpt lat="45.47283949565857" lon="8.218033568472027"><ele>191.0</ele><time>2026-03-29T16:49:35.992Z</time></trkpt><trkpt lat="45.473047491462616" lon="8.218123993611194"><ele>190.66666666666666</ele><time>2026-03-29T16:49:36.992Z</time></trkpt><trkpt lat="45.47326083470196" lon="8.218209399152547"><ele>190.33333333333334</ele><time>2026-03-29T16:49:37.992Z</time></trkpt><trkpt lat="45.47347773880173" lon="8.218290453721416"><ele>190.0</ele><time>2026-03-29T16:49:38.992Z</time></trkpt><trkpt lat="45.47369070705391" lon="8.218370870948766"><ele>190.0</ele><time>2026-03-29T16:49:39.992Z</time></trkpt><trkpt lat="45.47389654847128" lon="8.218442372193334"><ele>190.0</ele><time>2026-03-29T16:49:40.992Z</time></trkpt><trkpt lat="45.474101543957794" lon="8.21852020412883"><ele>190.0</ele><time>2026-03-29T16:49:41.992Z</time></trkpt><trkpt lat="45.4743152207357" lon="8.218595962311197"><ele>190.0</ele><time>2026-03-29T16:49:42.992Z</time></trkpt><trkpt lat="45.47452776417265" lon="8.21867460835259"><ele>190.0</ele><time>2026-03-29T16:49:43.992Z</time></trkpt><trkpt lat="45.474738131114165" lon="8.218756778980897"><ele>190.0</ele><time>2026-03-29T16:49:44.992Z</time></trkpt><trkpt lat="45.47495073896678" lon="8.218832653900668"><ele>189.66666666666669</ele><time>2026-03-29T16:49:45.992Z</time></trkpt><trkpt lat="45.47516579510832" lon="8.218895745575068"><ele>189.33333333333334</ele><time>2026-03-29T16:49:46.992Z</time></trkpt><trkpt lat="45.475387160011394" lon="8.218935107538758"><ele>189.0</ele><time>2026-03-29T16:49:47.992Z</time></trkpt><trkpt lat="45.475609287862675" lon="8.218950843978313"><ele>189.0</ele><time>2026-03-29T16:49:48.992Z</time></trkpt><trkpt lat="45.47582981273871" lon="8.218942642856161"><ele>189.0</ele><time>2026-03-29T16:49:49.992Z</time></trkpt><trkpt lat="45.47605410470672" lon="8.218920823057083"><ele>189.0</ele><time>2026-03-29T16:49:50.992Z</time></trkpt><trkpt lat="45.47627850955651" lon="8.21888921387897"><ele>190.5</ele><time>2026-03-29T16:49:51.992Z</time></trkpt><trkpt lat="45.476505159255915" lon="8.21884751730164"><ele>192.0</ele><time>2026-03-29T16:49:52.992Z</time></trkpt><trkpt lat="45.47673246815361" lon="8.218799920368763"><ele>192.0</ele><time>2026-03-29T16:49:53.992Z</time></trkpt><trkpt lat="45.47695837748293" lon="8.21875378146781"><ele>192.0</ele><time>2026-03-29T16:49:54.992Z</time></trkpt><trkpt lat="45.47718423980543" lon="8.218707623271806"><ele>193.5</ele><time>2026-03-29T16:49:55.992Z</time></trkpt><trkpt lat="45.47740884341289" lon="8.218659624870106"><ele>195.0</ele><time>2026-03-29T16:49:56.992Z</time></trkpt><trkpt lat="45.47763009961943" lon="8.218613639083292"><ele>195.0</ele><time>2026-03-29T16:49:57.992Z</time></trkpt><trkpt lat="45.4778453897963" lon="8.21856469052361"><ele>195.0</ele><time>2026-03-29T16:49:58.992Z</time></trkpt><trkpt lat="45.47805869196929" lon="8.218517841140143"><ele>195.0</ele><time>2026-03-29T16:49:59.992Z</time></trkpt><trkpt lat="45.47827102869207" lon="8.218473940932734"><ele>196.0</ele><time>2026-03-29T16:50:00.992Z</time></trkpt><trkpt lat="45.478480264785105" lon="8.218428852141871"><ele>197.0</ele><time>2026-03-29T16:50:01.992Z</time></trkpt><trkpt lat="45.47868459399011" lon="8.218383771748663"><ele>198.0</ele><time>2026-03-29T16:50:02.992Z</time></trkpt><trkpt lat="45.47888811630641" lon="8.218341260283479"><ele>198.66666666666669</ele><time>2026-03-29T16:50:03.992Z</time></trkpt><trkpt lat="45.47909336583696" lon="8.218300816577473"><ele>199.33333333333334</ele><time>2026-03-29T16:50:04.992Z</time></trkpt><trkpt lat="45.4792944412109" lon="8.218263816885923"><ele>200.0</ele><time>2026-03-29T16:50:05.992Z</time></trkpt><trkpt lat="45.47949550161504" lon="8.218225864592746"><ele>200.0</ele><time>2026-03-29T16:50:06.992Z</time></trkpt><trkpt lat="45.479694322132275" lon="8.218190922830722"><ele>200.0</ele><time>2026-03-29T16:50:07.992Z</time></trkpt><trkpt lat="45.47989391708986" lon="8.21815204557904"><ele>200.0</ele><time>2026-03-29T16:50:08.992Z</time></trkpt><trkpt lat="45.4800948429149" lon="8.218112025630905"><ele>200.0</ele><time>2026-03-29T16:50:09.992Z</time></trkpt><trkpt lat="45.48029365436725" lon="8.218071274303293"><ele>200.0</ele><time>2026-03-29T16:50:10.995Z</time></trkpt><trkpt lat="45.48048515394767" lon="8.218031635858473"><ele>200.0</ele><time>2026-03-29T16:50:11.995Z</time></trkpt><trkpt lat="45.48067512250951" lon="8.217993950117373"><ele>200.0</ele><time>2026-03-29T16:50:12.995Z</time></trkpt><trkpt lat="45.48086541134614" lon="8.217951399142192"><ele>200.0</ele><time>2026-03-29T16:50:13.994Z</time></trkpt><trkpt lat="45.48105570548558" lon="8.217913259000722"><ele>200.0</ele><time>2026-03-29T16:50:14.995Z</time></trkpt><trkpt lat="45.481248971250736" lon="8.21787643994302"><ele>199.66666666666669</ele><time>2026-03-29T16:50:15.995Z</time></trkpt><trkpt lat="45.48144088886784" lon="8.217832942120326"><ele>199.33333333333331</ele><time>2026-03-29T16:50:16.995Z</time></trkpt><trkpt lat="45.48162859788839" lon="8.21779373455006"><ele>199.0</ele><time>2026-03-29T16:50:17.994Z</time></trkpt><trkpt lat="45.48181696778151" lon="8.217746606085706"><ele>199.0</ele><time>2026-03-29T16:50:18.994Z</time></trkpt><trkpt lat="45.4820158964076" lon="8.2176949111964"><ele>199.0</ele><time>2026-03-29T16:50:19.994Z</time></trkpt><trkpt lat="45.482226565258955" lon="8.217645782105805"><ele>199.0</ele><time>2026-03-29T16:50:20.994Z</time></trkpt><trkpt lat="45.48244511784227" lon="8.217599938045149"><ele>199.0</ele><time>2026-03-29T16:50:21.994Z</time></trkpt><trkpt lat="45.48266800369864" lon="8.217555914426393"><ele>199.0</ele><time>2026-03-29T16:50:22.994Z</time></trkpt><trkpt lat="45.482889371679704" lon="8.217518900780014"><ele>199.0</ele><time>2026-03-29T16:50:23.995Z</time></trkpt><trkpt lat="45.48310262696154" lon="8.217487058805734"><ele>199.0</ele><time>2026-03-29T16:50:24.995Z</time></trkpt><trkpt lat="45.483306058832675" lon="8.217454506122921"><ele>199.0</ele><time>2026-03-29T16:50:25.995Z</time></trkpt><trkpt lat="45.4835007423598" lon="8.217418323119846"><ele>199.0</ele><time>2026-03-29T16:50:26.995Z</time></trkpt><trkpt lat="45.48368537842603" lon="8.217381171086862"><ele>199.0</ele><time>2026-03-29T16:50:27.995Z</time></trkpt><trkpt lat="45.48386307021431" lon="8.21734425778203"><ele>199.0</ele><time>2026-03-29T16:50:28.995Z</time></trkpt><trkpt lat="45.4840321393338" lon="8.21731116008304"><ele>199.0</ele><time>2026-03-29T16:50:29.995Z</time></trkpt><trkpt lat="45.48419980904508" lon="8.217278493054494"><ele>199.0</ele><time>2026-03-29T16:50:30.994Z</time></trkpt><trkpt lat="45.484371426545785" lon="8.21724297085193"><ele>199.0</ele><time>2026-03-29T16:50:31.994Z</time></trkpt><trkpt lat="45.48454381301267" lon="8.217207503208815"><ele>199.0</ele><time>2026-03-29T16:50:32.994Z</time></trkpt><trkpt lat="45.48471928009896" lon="8.217171388717611"><ele>199.0</ele><time>2026-03-29T16:50:33.994Z</time></trkpt><trkpt lat="45.4848987654641" lon="8.217135600028836"><ele>199.0</ele><time>2026-03-29T16:50:34.994Z</time></trkpt><trkpt lat="45.48508113289148" lon="8.21709871027239"><ele>199.0</ele><time>2026-03-29T16:50:35.994Z</time></trkpt><trkpt lat="45.485261745908225" lon="8.217060884886779"><ele>198.66666666666666</ele><time>2026-03-29T16:50:36.994Z</time></trkpt><trkpt lat="45.48543217986475" lon="8.21702470135436"><ele>198.33333333333331</ele><time>2026-03-29T16:50:37.994Z</time></trkpt><trkpt lat="45.48559368402097" lon="8.216992214665089"><ele>198.0</ele><time>2026-03-29T16:50:38.994Z</time></trkpt><trkpt lat="45.48575339930043" lon="8.216960514161663"><ele>198.0</ele><time>2026-03-29T16:50:39.994Z</time></trkpt><trkpt lat="45.48591118888607" lon="8.216927726882062"><ele>198.0</ele><time>2026-03-29T16:50:40.994Z</time></trkpt><trkpt lat="45.48607283719095" lon="8.216893924811226"><ele>198.0</ele><time>2026-03-29T16:50:41.994Z</time></trkpt><trkpt lat="45.486232720079094" lon="8.216863156965237"><ele>197.66666666666669</ele><time>2026-03-29T16:50:42.994Z</time></trkpt><trkpt lat="45.48639290062636" lon="8.216831849286217"><ele>197.33333333333334</ele><time>2026-03-29T16:50:43.994Z</time></trkpt><trkpt lat="45.48655700363421" lon="8.216799871923012"><ele>197.0</ele><time>2026-03-29T16:50:44.994Z</time></trkpt><trkpt lat="45.48672586009359" lon="8.216765378067203"><ele>197.0</ele><time>2026-03-29T16:50:45.994Z</time></trkpt><trkpt lat="45.48689982382064" lon="8.216734121334955"><ele>197.0</ele><time>2026-03-29T16:50:46.994Z</time></trkpt><trkpt lat="45.48707874971469" lon="8.216696645189408"><ele>197.0</ele><time>2026-03-29T16:50:47.994Z</time></trkpt><trkpt lat="45.48726582699139" lon="8.216650774639907"><ele>196.66666666666669</ele><time>2026-03-29T16:50:48.994Z</time></trkpt><trkpt lat="45.48745891461091" lon="8.216605946052727"><ele>196.33333333333331</ele><time>2026-03-29T16:50:49.994Z</time></trkpt><trkpt lat="45.48766056811811" lon="8.216557837706103"><ele>196.0</ele><time>2026-03-29T16:50:50.994Z</time></trkpt><trkpt lat="45.48786857029621" lon="8.216509847795233"><ele>195.33333333333331</ele><time>2026-03-29T16:50:51.994Z</time></trkpt><trkpt lat="45.4880868036031" lon="8.216462487536045"><ele>194.66666666666669</ele><time>2026-03-29T16:50:52.994Z</time></trkpt><trkpt lat="45.488303680191386" lon="8.216419386585905"><ele>194.0</ele><time>2026-03-29T16:50:53.994Z</time></trkpt><trkpt lat="45.488514166758996" lon="8.216385024921198"><ele>194.0</ele><time>2026-03-29T16:50:54.994Z</time></trkpt><trkpt lat="45.48872173571552" lon="8.216352464200385"><ele>194.0</ele><time>2026-03-29T16:50:55.994Z</time></trkpt><trkpt lat="45.488928418125546" lon="8.216313919877356"><ele>194.0</ele><time>2026-03-29T16:50:56.994Z</time></trkpt><trkpt lat="45.489133894847626" lon="8.216269523360289"><ele>194.66666666666669</ele><time>2026-03-29T16:50:57.994Z</time></trkpt><trkpt lat="45.489335492192254" lon="8.216231622149552"><ele>195.33333333333331</ele><time>2026-03-29T16:50:58.994Z</time></trkpt><trkpt lat="45.48952844343238" lon="8.216194682664094"><ele>196.0</ele><time>2026-03-29T16:50:59.994Z</time></trkpt><trkpt lat="45.48970736481983" lon="8.216158922157115"><ele>196.0</ele><time>2026-03-29T16:51:00.994Z</time></trkpt><trkpt lat="45.48987488212338" lon="8.216125928223677"><ele>196.0</ele><time>2026-03-29T16:51:01.994Z</time></trkpt><trkpt lat="45.49004278227563" lon="8.216089984522918"><ele>196.0</ele><time>2026-03-29T16:51:02.994Z</time></trkpt><trkpt lat="45.49020430572054" lon="8.21605845370213"><ele>196.0</ele><time>2026-03-29T16:51:03.994Z</time></trkpt><trkpt lat="45.49035827244941" lon="8.216027703375124"><ele>196.0</ele><time>2026-03-29T16:51:04.994Z</time></trkpt><trkpt lat="45.4905106820155" lon="8.215996460707222"><ele>196.0</ele><time>2026-03-29T16:51:05.994Z</time></trkpt><trkpt lat="45.49066061290343" lon="8.215965863444348"><ele>196.66666666666666</ele><time>2026-03-29T16:51:06.994Z</time></trkpt><trkpt lat="45.49081068211544" lon="8.215934618602256"><ele>197.33333333333331</ele><time>2026-03-29T16:51:07.994Z</time></trkpt><trkpt lat="45.49096130932895" lon="8.215903888347105"><ele>198.0</ele><time>2026-03-29T16:51:08.994Z</time></trkpt><trkpt lat="45.491114044564284" lon="8.215872327398566"><ele>198.5</ele><time>2026-03-29T16:51:09.994Z</time></trkpt><trkpt lat="45.49126348821218" lon="8.215844786156369"><ele>199.0</ele><time>2026-03-29T16:51:10.994Z</time></trkpt><trkpt lat="45.49140210528747" lon="8.215816441645503"><ele>199.5</ele><time>2026-03-29T16:51:11.994Z</time></trkpt><trkpt lat="45.49152800912702" lon="8.215788751918117"><ele>200.0</ele><time>2026-03-29T16:51:12.994Z</time></trkpt><trkpt lat="45.49164185594474" lon="8.21576633039679"><ele>200.0</ele><time>2026-03-29T16:51:13.994Z</time></trkpt><trkpt lat="45.49174555223897" lon="8.215745125676147"><ele>200.0</ele><time>2026-03-29T16:51:14.994Z</time></trkpt><trkpt lat="45.491839247480854" lon="8.215723662809614"><ele>200.0</ele><time>2026-03-29T16:51:15.994Z</time></trkpt><trkpt lat="45.49192608740274" lon="8.21570633969545"><ele>200.0</ele><time>2026-03-29T16:51:16.994Z</time></trkpt><trkpt lat="45.492008985998574" lon="8.215682655793008"><ele>200.0</ele><time>2026-03-29T16:51:17.994Z</time></trkpt><trkpt lat="45.492087128140454" lon="8.21564215609664"><ele>200.66666666666669</ele><time>2026-03-29T16:51:18.994Z</time></trkpt><trkpt lat="45.49214138274648" lon="8.215573732202232"><ele>201.33333333333334</ele><time>2026-03-29T16:51:19.993Z</time></trkpt><trkpt lat="45.49217834243584" lon="8.215490670975424"><ele>202.0</ele><time>2026-03-29T16:51:20.993Z</time></trkpt><trkpt lat="45.492207191997124" lon="8.215398300207031"><ele>202.66666666666669</ele><time>2026-03-29T16:51:21.993Z</time></trkpt><trkpt lat="45.49223694418377" lon="8.21528841254382"><ele>203.33333333333334</ele><time>2026-03-29T16:51:22.993Z</time></trkpt><trkpt lat="45.49228396958998" lon="8.215171666991106"><ele>204.0</ele><time>2026-03-29T16:51:23.993Z</time></trkpt><trkpt lat="45.492345563617235" lon="8.215052094984712"><ele>204.0</ele><time>2026-03-29T16:51:24.993Z</time></trkpt><trkpt lat="45.4924197985844" lon="8.214927540819275"><ele>204.0</ele><time>2026-03-29T16:51:25.993Z</time></trkpt><trkpt lat="45.49250916164372" lon="8.214806902708558"><ele>204.0</ele><time>2026-03-29T16:51:26.993Z</time></trkpt><trkpt lat="45.492614053973256" lon="8.214699523326654"><ele>204.0</ele><time>2026-03-29T16:51:27.993Z</time></trkpt><trkpt lat="45.49273059178828" lon="8.214603150598148"><ele>204.0</ele><time>2026-03-29T16:51:28.993Z</time></trkpt><trkpt lat="45.49286038260752" lon="8.214517605721591"><ele>204.0</ele><time>2026-03-29T16:51:29.993Z</time></trkpt><trkpt lat="45.49300021870393" lon="8.214438307143975"><ele>204.0</ele><time>2026-03-29T16:51:30.993Z</time></trkpt><trkpt lat="45.4931473105462" lon="8.214359757800427"><ele>204.33333333333331</ele><time>2026-03-29T16:51:31.993Z</time></trkpt><trkpt lat="45.49330191507299" lon="8.214283045471223"><ele>204.66666666666666</ele><time>2026-03-29T16:51:32.993Z</time></trkpt><trkpt lat="45.49346279630039" lon="8.214209480594365"><ele>205.0</ele><time>2026-03-29T16:51:33.993Z</time></trkpt><trkpt lat="45.49362913422094" lon="8.214130286791102"><ele>205.0</ele><time>2026-03-29T16:51:34.993Z</time></trkpt><trkpt lat="45.49379928731485" lon="8.214047138991361"><ele>205.0</ele><time>2026-03-29T16:51:35.993Z</time></trkpt><trkpt lat="45.49396503287739" lon="8.213969142414747"><ele>205.0</ele><time>2026-03-29T16:51:36.993Z</time></trkpt><trkpt lat="45.49412056142035" lon="8.213894151174385"><ele>205.0</ele><time>2026-03-29T16:51:37.993Z</time></trkpt><trkpt lat="45.49427702428838" lon="8.213815395390041"><ele>205.0</ele><time>2026-03-29T16:51:38.993Z</time></trkpt><trkpt lat="45.494436935198365" lon="8.213736944640045"><ele>205.0</ele><time>2026-03-29T16:51:39.993Z</time></trkpt><trkpt lat="45.49459917070721" lon="8.213656480632658"><ele>204.66666666666666</ele><time>2026-03-29T16:51:40.993Z</time></trkpt><trkpt lat="45.494765330116536" lon="8.21357725064899"><ele>204.33333333333331</ele><time>2026-03-29T16:51:41.993Z</time></trkpt><trkpt lat="45.4949348691402" lon="8.213494901715745"><ele>204.0</ele><time>2026-03-29T16:51:42.993Z</time></trkpt><trkpt lat="45.49510798211189" lon="8.213408389315967"><ele>204.0</ele><time>2026-03-29T16:51:43.993Z</time></trkpt><trkpt lat="45.49526902474387" lon="8.213320970712173"><ele>204.0</ele><time>2026-03-29T16:51:44.993Z</time></trkpt><trkpt lat="45.49542765667821" lon="8.213237755575497"><ele>204.0</ele><time>2026-03-29T16:51:45.993Z</time></trkpt><trkpt lat="45.49559049231333" lon="8.21315232164465"><ele>205.33333333333331</ele><time>2026-03-29T16:51:46.993Z</time></trkpt><trkpt lat="45.495755217482376" lon="8.21306095595382"><ele>206.66666666666666</ele><time>2026-03-29T16:51:47.993Z</time></trkpt><trkpt lat="45.49592350829651" lon="8.212972744054523"><ele>208.0</ele><time>2026-03-29T16:51:48.993Z</time></trkpt><trkpt lat="45.496094812108545" lon="8.21288244663513"><ele>208.33333333333331</ele><time>2026-03-29T16:51:49.993Z</time></trkpt><trkpt lat="45.496267026970514" lon="8.212795967031187"><ele>208.66666666666669</ele><time>2026-03-29T16:51:50.993Z</time></trkpt><trkpt lat="45.496437786770606" lon="8.212709385453488"><ele>209.0</ele><time>2026-03-29T16:51:51.993Z</time></trkpt><trkpt lat="45.496608026731536" lon="8.212618880747092"><ele>209.0</ele><time>2026-03-29T16:51:52.993Z</time></trkpt><trkpt lat="45.49677881323062" lon="8.212529579156188"><ele>209.0</ele><time>2026-03-29T16:51:53.993Z</time></trkpt><trkpt lat="45.496950282160846" lon="8.21244275631083"><ele>209.0</ele><time>2026-03-29T16:51:54.993Z</time></trkpt><trkpt lat="45.49712155833334" lon="8.212358720218102"><ele>209.33333333333334</ele><time>2026-03-29T16:51:55.993Z</time></trkpt><trkpt lat="45.49729257076166" lon="8.212276663730512"><ele>209.66666666666669</ele><time>2026-03-29T16:51:56.993Z</time></trkpt><trkpt lat="45.497462346429884" lon="8.21219289227475"><ele>210.0</ele><time>2026-03-29T16:51:57.993Z</time></trkpt><trkpt lat="45.49763320561389" lon="8.212105036693888"><ele>210.0</ele><time>2026-03-29T16:51:58.993Z</time></trkpt><trkpt lat="45.49780418006075" lon="8.212019227547149"><ele>210.0</ele><time>2026-03-29T16:51:59.993Z</time></trkpt><trkpt lat="45.49797323915473" lon="8.211929688782776"><ele>210.0</ele><time>2026-03-29T16:52:00.993Z</time></trkpt><trkpt lat="45.49814180223599" lon="8.211845692512137"><ele>209.33333333333331</ele><time>2026-03-29T16:52:01.993Z</time></trkpt><trkpt lat="45.498310504231654" lon="8.211757707123914"><ele>208.66666666666666</ele><time>2026-03-29T16:52:02.993Z</time></trkpt><trkpt lat="45.49847615020985" lon="8.211672259418682"><ele>208.0</ele><time>2026-03-29T16:52:03.993Z</time></trkpt><trkpt lat="45.49864219371202" lon="8.211590576895734"><ele>208.0</ele><time>2026-03-29T16:52:04.993Z</time></trkpt><trkpt lat="45.49880712324114" lon="8.21150646617368"><ele>208.0</ele><time>2026-03-29T16:52:05.993Z</time></trkpt><trkpt lat="45.49897001903669" lon="8.211419577214384"><ele>208.0</ele><time>2026-03-29T16:52:06.993Z</time></trkpt><trkpt lat="45.49913388320517" lon="8.211338638072482"><ele>208.0</ele><time>2026-03-29T16:52:07.993Z</time></trkpt><trkpt lat="45.49929887879013" lon="8.211260826828171"><ele>208.0</ele><time>2026-03-29T16:52:08.993Z</time></trkpt><trkpt lat="45.49946342667434" lon="8.21118201764869"><ele>208.0</ele><time>2026-03-29T16:52:09.992Z</time></trkpt><trkpt lat="45.499625399170654" lon="8.211102101508406"><ele>208.33333333333331</ele><time>2026-03-29T16:52:10.992Z</time></trkpt><trkpt lat="45.499786914072565" lon="8.211020926522728"><ele>208.66666666666669</ele><time>2026-03-29T16:52:11.992Z</time></trkpt><trkpt lat="45.499947945388" lon="8.210941648645854"><ele>209.0</ele><time>2026-03-29T16:52:12.992Z</time></trkpt><trkpt lat="45.50010884266978" lon="8.210863404122133"><ele>209.0</ele><time>2026-03-29T16:52:13.992Z</time></trkpt><trkpt lat="45.50026903451625" lon="8.210785518511901"><ele>209.0</ele><time>2026-03-29T16:52:14.992Z</time></trkpt><trkpt lat="45.50042768149223" lon="8.210704643115667"><ele>209.0</ele><time>2026-03-29T16:52:15.992Z</time></trkpt><trkpt lat="45.50058285019852" lon="8.210620314738074"><ele>209.66666666666669</ele><time>2026-03-29T16:52:16.995Z</time></trkpt><trkpt lat="45.50073694497486" lon="8.210539404414503"><ele>210.33333333333331</ele><time>2026-03-29T16:52:17.995Z</time></trkpt><trkpt lat="45.5008914153284" lon="8.210463014947553"><ele>211.0</ele><time>2026-03-29T16:52:18.995Z</time></trkpt><trkpt lat="45.50104386297203" lon="8.21038324248694"><ele>211.0</ele><time>2026-03-29T16:52:19.994Z</time></trkpt><trkpt lat="45.50119207642374" lon="8.21030737256875"><ele>211.0</ele><time>2026-03-29T16:52:20.995Z</time></trkpt><trkpt lat="45.5013388829734" lon="8.21023332664754"><ele>211.0</ele><time>2026-03-29T16:52:21.995Z</time></trkpt><trkpt lat="45.50147848908706" lon="8.210160999952677"><ele>210.75</ele><time>2026-03-29T16:52:22.995Z</time></trkpt><trkpt lat="45.501612112882626" lon="8.210093687654265"><ele>210.5</ele><time>2026-03-29T16:52:23.995Z</time></trkpt><trkpt lat="45.50173616888332" lon="8.210033021315766"><ele>210.25</ele><time>2026-03-29T16:52:24.995Z</time></trkpt><trkpt lat="45.501855628086695" lon="8.209972614280188"><ele>210.0</ele><time>2026-03-29T16:52:25.995Z</time></trkpt><trkpt lat="45.50197014052555" lon="8.209914072637936"><ele>210.0</ele><time>2026-03-29T16:52:26.995Z</time></trkpt><trkpt lat="45.50207896123008" lon="8.209860954822412"><ele>210.0</ele><time>2026-03-29T16:52:27.995Z</time></trkpt><trkpt lat="45.50218056817752" lon="8.209814163476866"><ele>210.0</ele><time>2026-03-29T16:52:28.995Z</time></trkpt><trkpt lat="45.50227842837191" lon="8.209772939262608"><ele>210.0</ele><time>2026-03-29T16:52:29.994Z</time></trkpt><trkpt lat="45.50237718704746" lon="8.209727937534796"><ele>210.0</ele><time>2026-03-29T16:52:30.994Z</time></trkpt><trkpt lat="45.50248021935066" lon="8.209675485717954"><ele>210.0</ele><time>2026-03-29T16:52:31.994Z</time></trkpt><trkpt lat="45.5025902773724" lon="8.209617462935983"><ele>210.0</ele><time>2026-03-29T16:52:32.994Z</time></trkpt><trkpt lat="45.50270407086921" lon="8.209556587984348"><ele>210.0</ele><time>2026-03-29T16:52:33.994Z</time></trkpt><trkpt lat="45.502823151797855" lon="8.20949145647358"><ele>210.0</ele><time>2026-03-29T16:52:34.994Z</time></trkpt><trkpt lat="45.50294732736421" lon="8.209426821932176"><ele>210.5</ele><time>2026-03-29T16:52:35.994Z</time></trkpt><trkpt lat="45.50307471590053" lon="8.209362651726096"><ele>211.0</ele><time>2026-03-29T16:52:36.994Z</time></trkpt><trkpt lat="45.50320214994294" lon="8.209297130372267"><ele>211.5</ele><time>2026-03-29T16:52:37.994Z</time></trkpt><trkpt lat="45.50333346912235" lon="8.209232791622872"><ele>212.0</ele><time>2026-03-29T16:52:38.994Z</time></trkpt><trkpt lat="45.50346637868749" lon="8.209163938912786"><ele>212.0</ele><time>2026-03-29T16:52:39.994Z</time></trkpt><trkpt lat="45.50360069729651" lon="8.209091688332926"><ele>212.0</ele><time>2026-03-29T16:52:40.994Z</time></trkpt><trkpt lat="45.50373929071122" lon="8.209019233804772"><ele>212.0</ele><time>2026-03-29T16:52:41.994Z</time></trkpt><trkpt lat="45.503879107043126" lon="8.20894761604298"><ele>212.0</ele><time>2026-03-29T16:52:42.994Z</time></trkpt><trkpt lat="45.504020780967885" lon="8.208880411003136"><ele>211.75</ele><time>2026-03-29T16:52:43.994Z</time></trkpt><trkpt lat="45.504159821525015" lon="8.208812071434586"><ele>211.5</ele><time>2026-03-29T16:52:44.994Z</time></trkpt><trkpt lat="45.504300895351115" lon="8.208748893270098"><ele>211.25</ele><time>2026-03-29T16:52:45.994Z</time></trkpt><trkpt lat="45.504438667100324" lon="8.208683777891562"><ele>211.0</ele><time>2026-03-29T16:52:46.994Z</time></trkpt><trkpt lat="45.5045742994762" lon="8.208620279685455"><ele>210.5</ele><time>2026-03-29T16:52:47.994Z</time></trkpt><trkpt lat="45.50471065420343" lon="8.208553967599206"><ele>210.0</ele><time>2026-03-29T16:52:48.994Z</time></trkpt><trkpt lat="45.50484681822682" lon="8.208485170034903"><ele>209.5</ele><time>2026-03-29T16:52:49.994Z</time></trkpt><trkpt lat="45.50498191211469" lon="8.208412879283706"><ele>209.0</ele><time>2026-03-29T16:52:50.994Z</time></trkpt><trkpt lat="45.50511179345109" lon="8.208338046444306"><ele>209.0</ele><time>2026-03-29T16:52:51.994Z</time></trkpt><trkpt lat="45.50524298425477" lon="8.208270196588874"><ele>209.0</ele><time>2026-03-29T16:52:52.994Z</time></trkpt><trkpt lat="45.50537476437576" lon="8.208204271592036"><ele>209.0</ele><time>2026-03-29T16:52:53.994Z</time></trkpt><trkpt lat="45.505502158192435" lon="8.20814437071974"><ele>209.0</ele><time>2026-03-29T16:52:54.994Z</time></trkpt><trkpt lat="45.50562672040977" lon="8.208073854048397"><ele>209.25</ele><time>2026-03-29T16:52:55.994Z</time></trkpt><trkpt lat="45.50575283624516" lon="8.208005172193308"><ele>209.5</ele><time>2026-03-29T16:52:56.994Z</time></trkpt><trkpt lat="45.50587362931695" lon="8.207956737307114"><ele>209.75</ele><time>2026-03-29T16:52:57.994Z</time></trkpt><trkpt lat="45.50599429296087" lon="8.207907695754502"><ele>210.0</ele><time>2026-03-29T16:52:58.994Z</time></trkpt><trkpt lat="45.506112895367515" lon="8.207861005099133"><ele>210.0</ele><time>2026-03-29T16:52:59.994Z</time></trkpt><trkpt lat="45.506226718816826" lon="8.20781807261964"><ele>210.0</ele><time>2026-03-29T16:53:00.994Z</time></trkpt><trkpt lat="45.50633091027583" lon="8.20777435115353"><ele>210.0</ele><time>2026-03-29T16:53:01.994Z</time></trkpt><trkpt lat="45.506429419820634" lon="8.207738276638478"><ele>210.0</ele><time>2026-03-29T16:53:02.994Z</time></trkpt><trkpt lat="45.50652425072587" lon="8.207711446442147"><ele>210.0</ele><time>2026-03-29T16:53:03.994Z</time></trkpt><trkpt lat="45.506607719110484" lon="8.20769305889264"><ele>209.83333333333334</ele><time>2026-03-29T16:53:04.994Z</time></trkpt><trkpt lat="45.506686350176494" lon="8.207683631664533"><ele>209.66666666666669</ele><time>2026-03-29T16:53:05.994Z</time></trkpt><trkpt lat="45.50675292853795" lon="8.207679864865504"><ele>209.5</ele><time>2026-03-29T16:53:06.994Z</time></trkpt><trkpt lat="45.50684768425506" lon="8.207672264415585"><ele>209.33333333333334</ele><time>2026-03-29T16:53:08.994Z</time></trkpt><trkpt lat="45.50688662561676" lon="8.20756934944612"><ele>209.16666666666669</ele><time>2026-03-29T16:53:11.994Z</time></trkpt><trkpt lat="45.5068732689074" lon="8.207476754528585"><ele>209.0</ele><time>2026-03-29T16:53:13.994Z</time></trkpt><trkpt lat="45.50686168368004" lon="8.207350543766363"><ele>209.0</ele><time>2026-03-29T16:53:15.993Z</time></trkpt><trkpt lat="45.50688589024852" lon="8.207250926992675"><ele>217.0</ele><time>2026-03-29T16:53:18.993Z</time></trkpt><trkpt lat="45.506958398906214" lon="8.207241560512932"><ele>217.0</ele><time>2026-03-29T16:53:22.993Z</time></trkpt></trkseg></trk></gpx>